Wetterdaten: Samstag, 01.04.2017
Datum Zeit Temp. A. Temp. A. max Feuchte A. Luftdruck Regen Wind Richtung Richtung Sonnenschein ET UV Solar Taupunkt Windchill Windböen
01.04.2017 00:00 7,5 °C 7,6 °C 79 % 1013,4 hPa 0,0 mm 0,0 km/h (0 Bft) S-SO 165 ° 0 min 0,000 mm 0,0 UV-I 0 W/m² 4,1 °C 7,5 °C 0,0 km/h (0 Bft)
01.04.2017 00:01 7,5 °C 7,6 °C 79 % 1013,4 hPa 0,0 mm 0,0 km/h (0 Bft) S-SO 165 ° 0 min 0,000 mm 0,0 UV-I 0 W/m² 4,1 °C 7,5 °C 0,0 km/h (0 Bft)
01.04.2017 00:02 7,5 °C 7,6 °C 78 % 1013,4 hPa 0,0 mm 0,1 km/h (0 Bft) S-SO 165 ° 0 min 0,000 mm 0,0 UV-I 0 W/m² 3,9 °C 7,5 °C 1,6 km/h (1 Bft)
01.04.2017 00:03 7,4 °C 7,5 °C 78 % 1013,4 hPa 0,0 mm 0,1 km/h (0 Bft) S-SO 165 ° 0 min 0,000 mm 0,0 UV-I 0 W/m² 3,8 °C 7,4 °C 1,6 km/h (1 Bft)
01.04.2017 00:04 7,4 °C 7,4 °C 78 % 1013,4 hPa 0,0 mm 0,1 km/h (0 Bft) S-SO 165 ° 0 min 0,000 mm 0,0 UV-I 0 W/m² 3,8 °C 7,4 °C 1,6 km/h (1 Bft)
01.04.2017 00:05 7,4 °C 7,4 °C 79 % 1013,3 hPa 0,0 mm 0,0 km/h (0 Bft) S-SO 165 ° 0 min 0,000 mm 0,0 UV-I 0 W/m² 4,0 °C 7,4 °C 0,0 km/h (0 Bft)
01.04.2017 00:06 7,4 °C 7,4 °C 79 % 1013,4 hPa 0,0 mm 0,0 km/h (0 Bft) S-SO 165 ° 0 min 0,000 mm 0,0 UV-I 0 W/m² 4,0 °C 7,4 °C 0,0 km/h (0 Bft)
01.04.2017 00:07 7,4 °C 7,4 °C 79 % 1013,4 hPa 0,0 mm 0,0 km/h (0 Bft) S-SO 165 ° 0 min 0,000 mm 0,0 UV-I 0 W/m² 4,0 °C 7,4 °C 0,0 km/h (0 Bft)
01.04.2017 00:08 7,4 °C 7,4 °C 79 % 1013,3 hPa 0,0 mm 0,0 km/h (0 Bft) S-SO 165 ° 0 min 0,000 mm 0,0 UV-I 0 W/m² 4,0 °C 7,4 °C 0,0 km/h (0 Bft)
01.04.2017 00:09 7,3 °C 7,4 °C 78 % 1013,4 hPa 0,0 mm 0,0 km/h (0 Bft) S-SO 165 ° 0 min 0,000 mm 0,0 UV-I 0 W/m² 3,7 °C 7,3 °C 0,0 km/h (0 Bft)
01.04.2017 00:10 7,2 °C 7,3 °C 79 % 1013,4 hPa 0,0 mm 0,0 km/h (0 Bft) S-SO 165 ° 0 min 0,000 mm 0,0 UV-I 0 W/m² 3,8 °C 7,2 °C 0,0 km/h (0 Bft)
01.04.2017 00:11 7,2 °C 7,2 °C 80 % 1013,4 hPa 0,0 mm 0,0 km/h (0 Bft) S-SO 165 ° 0 min 0,000 mm 0,0 UV-I 0 W/m² 4,0 °C 7,2 °C 0,0 km/h (0 Bft)
01.04.2017 00:12 7,1 °C 7,2 °C 80 % 1013,3 hPa 0,0 mm 0,0 km/h (0 Bft) S-SO 165 ° 0 min 0,000 mm 0,0 UV-I 0 W/m² 3,9 °C 7,1 °C 0,0 km/h (0 Bft)
01.04.2017 00:13 7,1 °C 7,1 °C 80 % 1013,4 hPa 0,0 mm 0,0 km/h (0 Bft) S-SO 165 ° 0 min 0,000 mm 0,0 UV-I 0 W/m² 3,9 °C 7,1 °C 0,0 km/h (0 Bft)
01.04.2017 00:14 7,2 °C 7,2 °C 80 % 1013,3 hPa 0,0 mm 0,0 km/h (0 Bft) S-SO 165 ° 0 min 0,000 mm 0,0 UV-I 0 W/m² 4,0 °C 7,2 °C 0,0 km/h (0 Bft)
01.04.2017 00:15 7,2 °C 7,2 °C 80 % 1013,3 hPa 0,0 mm 0,0 km/h (0 Bft) S-SO 165 ° 0 min 0,000 mm 0,0 UV-I 0 W/m² 4,0 °C 7,2 °C 0,0 km/h (0 Bft)
01.04.2017 00:16 7,2 °C 7,2 °C 80 % 1013,3 hPa 0,0 mm 0,0 km/h (0 Bft) S-SO 165 ° 0 min 0,000 mm 0,0 UV-I 0 W/m² 4,0 °C 7,2 °C 0,0 km/h (0 Bft)
01.04.2017 00:17 7,1 °C 7,2 °C 80 % 1013,3 hPa 0,0 mm 0,1 km/h (0 Bft) S-SO 165 ° 0 min 0,000 mm 0,0 UV-I 0 W/m² 3,9 °C 7,1 °C 1,6 km/h (1 Bft)
01.04.2017 00:18 7,1 °C 7,1 °C 80 % 1013,3 hPa 0,0 mm 0,3 km/h (0 Bft) S-SO 165 ° 0 min 0,000 mm 0,0 UV-I 0 W/m² 3,9 °C 7,1 °C 1,6 km/h (1 Bft)
01.04.2017 00:19 7,1 °C 7,1 °C 80 % 1013,3 hPa 0,0 mm 0,7 km/h (0 Bft) S-SO 165 ° 0 min 0,000 mm 0,0 UV-I 0 W/m² 3,9 °C 7,1 °C 1,6 km/h (1 Bft)
01.04.2017 00:20 7,0 °C 7,1 °C 80 % 1013,4 hPa 0,0 mm 1,7 km/h (1 Bft) S-SO 165 ° 0 min 0,000 mm 0,0 UV-I 0 W/m² 3,8 °C 7,0 °C 3,2 km/h (1 Bft)
01.04.2017 00:21 7,0 °C 7,0 °C 80 % 1013,4 hPa 0,0 mm 0,8 km/h (0 Bft) S-SO 165 ° 0 min 0,000 mm 0,0 UV-I 0 W/m² 3,8 °C 7,0 °C 1,6 km/h (1 Bft)
01.04.2017 00:22 7,0 °C 7,0 °C 80 % 1013,3 hPa 0,0 mm 0,9 km/h (0 Bft) S-SO 165 ° 0 min 0,000 mm 0,0 UV-I 0 W/m² 3,8 °C 7,0 °C 1,6 km/h (1 Bft)
01.04.2017 00:23 6,9 °C 7,0 °C 79 % 1013,3 hPa 0,0 mm 0,3 km/h (0 Bft) S-SO 165 ° 0 min 0,000 mm 0,0 UV-I 0 W/m² 3,5 °C 6,9 °C 1,6 km/h (1 Bft)
01.04.2017 00:24 6,9 °C 6,9 °C 80 % 1013,3 hPa 0,0 mm 1,3 km/h (1 Bft) S-SO 165 ° 0 min 0,000 mm 0,0 UV-I 0 W/m² 3,7 °C 6,9 °C 1,6 km/h (1 Bft)
01.04.2017 00:25 6,9 °C 6,9 °C 80 % 1013,3 hPa 0,0 mm 1,5 km/h (1 Bft) S-SO 165 ° 0 min 0,000 mm 0,0 UV-I 0 W/m² 3,7 °C 6,9 °C 1,6 km/h (1 Bft)
01.04.2017 00:26 7,0 °C 7,0 °C 80 % 1013,3 hPa 0,0 mm 1,5 km/h (1 Bft) S-SO 165 ° 0 min 0,000 mm 0,0 UV-I 0 W/m² 3,8 °C 7,0 °C 3,2 km/h (1 Bft)
01.04.2017 00:27 7,1 °C 7,1 °C 80 % 1013,3 hPa 0,0 mm 1,9 km/h (1 Bft) S-SO 165 ° 0 min 0,000 mm 0,0 UV-I 0 W/m² 3,9 °C 7,1 °C 3,2 km/h (1 Bft)
01.04.2017 00:28 7,1 °C 7,1 °C 79 % 1013,3 hPa 0,0 mm 1,1 km/h (1 Bft) S-SO 165 ° 0 min 0,000 mm 0,0 UV-I 0 W/m² 3,7 °C 7,1 °C 1,6 km/h (1 Bft)
01.04.2017 00:29 7,1 °C 7,1 °C 79 % 1013,3 hPa 0,0 mm 0,9 km/h (0 Bft) S-SO 165 ° 0 min 0,000 mm 0,0 UV-I 0 W/m² 3,7 °C 7,1 °C 3,2 km/h (1 Bft)
01.04.2017 00:30 7,2 °C 7,2 °C 79 % 1013,3 hPa 0,0 mm 0,1 km/h (0 Bft) S-SO 165 ° 0 min 0,000 mm 0,0 UV-I 0 W/m² 3,8 °C 7,2 °C 1,6 km/h (1 Bft)
01.04.2017 00:31 7,2 °C 7,2 °C 79 % 1013,3 hPa 0,0 mm 0,1 km/h (0 Bft) S-SO 165 ° 0 min 0,000 mm 0,0 UV-I 0 W/m² 3,8 °C 7,2 °C 1,6 km/h (1 Bft)
01.04.2017 00:32 7,3 °C 7,3 °C 79 % 1013,3 hPa 0,0 mm 0,5 km/h (0 Bft) S-SO 165 ° 0 min 0,000 mm 0,0 UV-I 0 W/m² 3,9 °C 7,3 °C 1,6 km/h (1 Bft)
01.04.2017 00:33 7,4 °C 7,4 °C 78 % 1013,3 hPa 0,0 mm 1,5 km/h (1 Bft) S-SO 165 ° 0 min 0,000 mm 0,0 UV-I 0 W/m² 3,8 °C 7,4 °C 1,6 km/h (1 Bft)
01.04.2017 00:34 7,4 °C 7,4 °C 78 % 1013,3 hPa 0,0 mm 0,9 km/h (0 Bft) S-SO 165 ° 0 min 0,000 mm 0,0 UV-I 0 W/m² 3,8 °C 7,4 °C 1,6 km/h (1 Bft)
01.04.2017 00:35 7,6 °C 7,6 °C 77 % 1013,3 hPa 0,0 mm 0,0 km/h (0 Bft) S-SO 165 ° 0 min 0,000 mm 0,0 UV-I 0 W/m² 3,8 °C 7,6 °C 0,0 km/h (0 Bft)
01.04.2017 00:36 7,6 °C 7,6 °C 77 % 1013,3 hPa 0,0 mm 0,0 km/h (0 Bft) S-SO 165 ° 0 min 0,000 mm 0,0 UV-I 0 W/m² 3,8 °C 7,6 °C 0,0 km/h (0 Bft)
01.04.2017 00:37 7,6 °C 7,6 °C 77 % 1013,3 hPa 0,0 mm 0,0 km/h (0 Bft) S-SO 165 ° 0 min 0,000 mm 0,0 UV-I 0 W/m² 3,8 °C 7,6 °C 0,0 km/h (0 Bft)
01.04.2017 00:38 7,6 °C 7,6 °C 77 % 1013,3 hPa 0,0 mm 0,0 km/h (0 Bft) S-SO 165 ° 0 min 0,000 mm 0,0 UV-I 0 W/m² 3,8 °C 7,6 °C 0,0 km/h (0 Bft)
01.04.2017 00:39 7,6 °C 7,6 °C 77 % 1013,3 hPa 0,0 mm 0,0 km/h (0 Bft) S-SO 165 ° 0 min 0,000 mm 0,0 UV-I 0 W/m² 3,8 °C 7,6 °C 0,0 km/h (0 Bft)
01.04.2017 00:40 7,7 °C 7,7 °C 76 % 1013,3 hPa 0,0 mm 0,0 km/h (0 Bft) S-SO 165 ° 0 min 0,000 mm 0,0 UV-I 0 W/m² 3,7 °C 7,7 °C 0,0 km/h (0 Bft)
01.04.2017 00:41 7,6 °C 7,7 °C 77 % 1013,3 hPa 0,0 mm 0,0 km/h (0 Bft) S-SO 165 ° 0 min 0,000 mm 0,0 UV-I 0 W/m² 3,8 °C 7,6 °C 0,0 km/h (0 Bft)
01.04.2017 00:42 7,6 °C 7,6 °C 77 % 1013,3 hPa 0,0 mm 1,0 km/h (0 Bft) S-SO 165 ° 0 min 0,000 mm 0,0 UV-I 0 W/m² 3,8 °C 7,6 °C 1,6 km/h (1 Bft)
01.04.2017 00:43 7,7 °C 7,7 °C 76 % 1013,3 hPa 0,0 mm 0,9 km/h (0 Bft) S-SO 165 ° 0 min 0,000 mm 0,0 UV-I 0 W/m² 3,7 °C 7,7 °C 1,6 km/h (1 Bft)
01.04.2017 00:44 7,8 °C 7,8 °C 76 % 1013,3 hPa 0,0 mm 0,3 km/h (0 Bft) S-SO 165 ° 0 min 0,000 mm 0,0 UV-I 0 W/m² 3,8 °C 7,8 °C 1,6 km/h (1 Bft)
01.04.2017 00:45 7,8 °C 7,8 °C 76 % 1013,2 hPa 0,0 mm 0,0 km/h (0 Bft) S-SO 165 ° 0 min 0,000 mm 0,0 UV-I 0 W/m² 3,8 °C 7,8 °C 0,0 km/h (0 Bft)
01.04.2017 00:46 7,8 °C 7,8 °C 76 % 1013,2 hPa 0,0 mm 0,0 km/h (0 Bft) S-SO 165 ° 0 min 0,000 mm 0,0 UV-I 0 W/m² 3,8 °C 7,8 °C 0,0 km/h (0 Bft)
01.04.2017 00:47 7,7 °C 7,8 °C 75 % 1013,2 hPa 0,0 mm 0,0 km/h (0 Bft) S-SO 165 ° 0 min 0,000 mm 0,0 UV-I 0 W/m² 3,6 °C 7,7 °C 0,0 km/h (0 Bft)
01.04.2017 00:48 7,6 °C 7,7 °C 75 % 1013,3 hPa 0,0 mm 0,0 km/h (0 Bft) S-SO 165 ° 0 min 0,000 mm 0,0 UV-I 0 W/m² 3,5 °C 7,6 °C 0,0 km/h (0 Bft)
01.04.2017 00:49 7,4 °C 7,6 °C 76 % 1013,3 hPa 0,0 mm 0,3 km/h (0 Bft) S-SO 165 ° 0 min 0,000 mm 0,0 UV-I 0 W/m² 3,5 °C 7,4 °C 1,6 km/h (1 Bft)
01.04.2017 00:50 7,3 °C 7,4 °C 76 % 1013,3 hPa 0,0 mm 0,9 km/h (0 Bft) S-SO 165 ° 0 min 0,000 mm 0,0 UV-I 0 W/m² 3,4 °C 7,3 °C 1,6 km/h (1 Bft)
01.04.2017 00:51 7,2 °C 7,3 °C 76 % 1013,3 hPa 0,0 mm 0,2 km/h (0 Bft) S-SO 165 ° 0 min 0,000 mm 0,0 UV-I 0 W/m² 3,3 °C 7,2 °C 1,6 km/h (1 Bft)
01.04.2017 00:52 7,2 °C 7,2 °C 78 % 1013,2 hPa 0,0 mm 0,0 km/h (0 Bft) S-SO 165 ° 0 min 0,000 mm 0,0 UV-I 0 W/m² 3,6 °C 7,2 °C 0,0 km/h (0 Bft)
01.04.2017 00:53 7,2 °C 7,2 °C 77 % 1013,2 hPa 0,0 mm 0,0 km/h (0 Bft) S-SO 165 ° 0 min 0,000 mm 0,0 UV-I 0 W/m² 3,4 °C 7,2 °C 0,0 km/h (0 Bft)
01.04.2017 00:54 7,2 °C 7,2 °C 78 % 1013,2 hPa 0,0 mm 0,0 km/h (0 Bft) S-SO 165 ° 0 min 0,000 mm 0,0 UV-I 0 W/m² 3,6 °C 7,2 °C 0,0 km/h (0 Bft)
01.04.2017 00:55 7,2 °C 7,2 °C 78 % 1013,2 hPa 0,0 mm 0,2 km/h (0 Bft) S-SO 165 ° 0 min 0,000 mm 0,0 UV-I 0 W/m² 3,6 °C 7,2 °C 1,6 km/h (1 Bft)
01.04.2017 00:56 7,3 °C 7,3 °C 78 % 1013,2 hPa 0,0 mm 0,1 km/h (0 Bft) S-SO 165 ° 0 min 0,000 mm 0,0 UV-I 0 W/m² 3,7 °C 7,3 °C 1,6 km/h (1 Bft)
01.04.2017 00:57 7,2 °C 7,3 °C 77 % 1013,2 hPa 0,0 mm 0,0 km/h (0 Bft) S-SO 165 ° 0 min 0,000 mm 0,0 UV-I 0 W/m² 3,4 °C 7,2 °C 0,0 km/h (0 Bft)
01.04.2017 00:58 7,2 °C 7,2 °C 78 % 1013,2 hPa 0,0 mm 1,5 km/h (1 Bft) S-SO 165 ° 0 min 0,000 mm 0,0 UV-I 0 W/m² 3,6 °C 7,2 °C 3,2 km/h (1 Bft)
01.04.2017 00:59 7,2 °C 7,2 °C 77 % 1013,2 hPa 0,0 mm 1,3 km/h (1 Bft) S-SO 165 ° 0 min 0,000 mm 0,0 UV-I 0 W/m² 3,4 °C 7,2 °C 1,6 km/h (1 Bft)
01.04.2017 01:00 7,2 °C 7,2 °C 77 % 1013,2 hPa 0,0 mm 0,3 km/h (0 Bft) S-SO 165 ° 0 min 0,025 mm 0,0 UV-I 0 W/m² 3,4 °C 7,2 °C 1,6 km/h (1 Bft)
01.04.2017 01:01 7,2 °C 7,2 °C 77 % 1013,1 hPa 0,0 mm 0,0 km/h (0 Bft) S-SO 165 ° 0 min 0,000 mm 0,0 UV-I 0 W/m² 3,4 °C 7,2 °C 0,0 km/h (0 Bft)
01.04.2017 01:02 7,2 °C 7,2 °C 78 % 1013,1 hPa 0,0 mm 0,0 km/h (0 Bft) S-SO 165 ° 0 min 0,000 mm 0,0 UV-I 0 W/m² 3,6 °C 7,2 °C 0,0 km/h (0 Bft)
01.04.2017 01:03 7,2 °C 7,2 °C 78 % 1013,1 hPa 0,0 mm 0,3 km/h (0 Bft) S-SO 165 ° 0 min 0,000 mm 0,0 UV-I 0 W/m² 3,6 °C 7,2 °C 1,6 km/h (1 Bft)
01.04.2017 01:04 7,2 °C 7,2 °C 77 % 1013,1 hPa 0,0 mm 1,3 km/h (1 Bft) S 175 ° 0 min 0,000 mm 0,0 UV-I 0 W/m² 3,4 °C 7,2 °C 3,2 km/h (1 Bft)
01.04.2017 01:05 7,1 °C 7,2 °C 77 % 1013,1 hPa 0,0 mm 1,5 km/h (1 Bft) S 175 ° 0 min 0,000 mm 0,0 UV-I 0 W/m² 3,3 °C 7,1 °C 3,2 km/h (1 Bft)
01.04.2017 01:06 6,9 °C 7,1 °C 78 % 1013,1 hPa 0,0 mm 0,1 km/h (0 Bft) S 175 ° 0 min 0,000 mm 0,0 UV-I 0 W/m² 3,3 °C 6,9 °C 1,6 km/h (1 Bft)
01.04.2017 01:07 6,8 °C 6,9 °C 78 % 1013,1 hPa 0,0 mm 1,5 km/h (1 Bft) S 175 ° 0 min 0,000 mm 0,0 UV-I 0 W/m² 3,2 °C 6,8 °C 3,2 km/h (1 Bft)
01.04.2017 01:08 6,8 °C 6,8 °C 79 % 1013,1 hPa 0,0 mm 3,2 km/h (1 Bft) S 175 ° 0 min 0,000 mm 0,0 UV-I 0 W/m² 3,4 °C 6,8 °C 4,8 km/h (1 Bft)
01.04.2017 01:09 6,8 °C 6,8 °C 79 % 1013,1 hPa 0,0 mm 2,3 km/h (1 Bft) S 175 ° 0 min 0,000 mm 0,0 UV-I 0 W/m² 3,4 °C 6,8 °C 4,8 km/h (1 Bft)
01.04.2017 01:10 7,1 °C 7,1 °C 78 % 1013,0 hPa 0,0 mm 1,1 km/h (1 Bft) S 175 ° 0 min 0,000 mm 0,0 UV-I 0 W/m² 3,5 °C 7,1 °C 1,6 km/h (1 Bft)
01.04.2017 01:11 7,3 °C 7,4 °C 77 % 1013,1 hPa 0,0 mm 0,3 km/h (0 Bft) S-SW 207 ° 0 min 0,000 mm 0,0 UV-I 0 W/m² 3,5 °C 7,3 °C 4,8 km/h (1 Bft)
01.04.2017 01:12 7,4 °C 7,4 °C 77 % 1013,1 hPa 0,0 mm 7,8 km/h (2 Bft) S-SW 198 ° 0 min 0,000 mm 0,0 UV-I 0 W/m² 3,6 °C 6,0 °C 9,7 km/h (2 Bft)
01.04.2017 01:13 7,4 °C 7,4 °C 77 % 1013,1 hPa 0,0 mm 6,4 km/h (2 Bft) S 186 ° 0 min 0,000 mm 0,0 UV-I 0 W/m² 3,6 °C 6,4 °C 8,0 km/h (2 Bft)
01.04.2017 01:14 7,5 °C 7,5 °C 76 % 1013,1 hPa 0,0 mm 3,6 km/h (1 Bft) S 178 ° 0 min 0,000 mm 0,0 UV-I 0 W/m² 3,5 °C 7,5 °C 4,8 km/h (1 Bft)
01.04.2017 01:15 7,6 °C 7,6 °C 76 % 1013,1 hPa 0,0 mm 3,2 km/h (1 Bft) S 178 ° 0 min 0,000 mm 0,0 UV-I 0 W/m² 3,6 °C 7,6 °C 4,8 km/h (1 Bft)
01.04.2017 01:16 7,7 °C 7,7 °C 75 % 1013,1 hPa 0,0 mm 4,2 km/h (1 Bft) S 177 ° 0 min 0,000 mm 0,0 UV-I 0 W/m² 3,6 °C 7,7 °C 6,4 km/h (2 Bft)
01.04.2017 01:17 7,8 °C 7,8 °C 75 % 1013,1 hPa 0,0 mm 3,9 km/h (1 Bft) S 177 ° 0 min 0,000 mm 0,0 UV-I 0 W/m² 3,7 °C 7,8 °C 6,4 km/h (2 Bft)
01.04.2017 01:18 7,8 °C 7,8 °C 75 % 1013,1 hPa 0,0 mm 3,3 km/h (1 Bft) S 176 ° 0 min 0,000 mm 0,0 UV-I 0 W/m² 3,7 °C 7,8 °C 4,8 km/h (1 Bft)
01.04.2017 01:19 7,9 °C 7,9 °C 74 % 1013,0 hPa 0,0 mm 5,3 km/h (1 Bft) S 177 ° 0 min 0,000 mm 0,0 UV-I 0 W/m² 3,6 °C 7,3 °C 8,0 km/h (2 Bft)
01.04.2017 01:20 7,9 °C 7,9 °C 75 % 1013,0 hPa 0,0 mm 7,5 km/h (2 Bft) S 182 ° 0 min 0,000 mm 0,0 UV-I 0 W/m² 3,7 °C 6,7 °C 9,7 km/h (2 Bft)
01.04.2017 01:21 7,9 °C 7,9 °C 74 % 1013,0 hPa 0,0 mm 6,4 km/h (2 Bft) S 182 ° 0 min 0,000 mm 0,0 UV-I 0 W/m² 3,6 °C 6,9 °C 8,0 km/h (2 Bft)
01.04.2017 01:22 7,8 °C 7,9 °C 74 % 1013,0 hPa 0,0 mm 7,5 km/h (2 Bft) S-SO 161 ° 0 min 0,000 mm 0,0 UV-I 0 W/m² 3,5 °C 6,5 °C 9,7 km/h (2 Bft)
01.04.2017 01:23 7,8 °C 7,9 °C 74 % 1013,0 hPa 0,0 mm 8,0 km/h (2 Bft) SO 141 ° 0 min 0,000 mm 0,0 UV-I 0 W/m² 3,5 °C 6,4 °C 14,5 km/h (3 Bft)
01.04.2017 01:24 7,9 °C 7,9 °C 74 % 1013,0 hPa 0,0 mm 9,6 km/h (2 Bft) S-SO 167 ° 0 min 0,000 mm 0,0 UV-I 0 W/m² 3,6 °C 6,2 °C 12,9 km/h (3 Bft)
01.04.2017 01:25 8,0 °C 8,0 °C 74 % 1013,0 hPa 0,0 mm 9,3 km/h (2 Bft) S 171 ° 0 min 0,000 mm 0,0 UV-I 0 W/m² 3,7 °C 6,4 °C 11,3 km/h (2 Bft)
01.04.2017 01:26 8,0 °C 8,0 °C 74 % 1013,0 hPa 0,0 mm 10,1 km/h (2 Bft) S-SO 153 ° 0 min 0,000 mm 0,0 UV-I 0 W/m² 3,7 °C 6,2 °C 12,9 km/h (3 Bft)
01.04.2017 01:27 8,0 °C 8,1 °C 73 % 1013,0 hPa 0,0 mm 12,4 km/h (3 Bft) S-SO 148 ° 0 min 0,000 mm 0,0 UV-I 0 W/m² 3,5 °C 5,8 °C 14,5 km/h (3 Bft)
01.04.2017 01:28 8,0 °C 8,1 °C 74 % 1013,0 hPa 0,0 mm 13,0 km/h (3 Bft) S-SO 148 ° 0 min 0,000 mm 0,0 UV-I 0 W/m² 3,7 °C 5,7 °C 14,5 km/h (3 Bft)
01.04.2017 01:29 7,9 °C 8,0 °C 74 % 1013,0 hPa 0,0 mm 10,0 km/h (2 Bft) S-SO 158 ° 0 min 0,000 mm 0,0 UV-I 0 W/m² 3,6 °C 6,1 °C 11,3 km/h (2 Bft)
01.04.2017 01:30 7,9 °C 7,9 °C 74 % 1013,0 hPa 0,0 mm 9,0 km/h (2 Bft) SO 145 ° 0 min 0,000 mm 0,0 UV-I 0 W/m² 3,6 °C 6,3 °C 11,3 km/h (2 Bft)
01.04.2017 01:31 8,1 °C 8,1 °C 74 % 1013,0 hPa 0,0 mm 9,5 km/h (2 Bft) S-SO 148 ° 0 min 0,000 mm 0,0 UV-I 0 W/m² 3,8 °C 6,5 °C 11,3 km/h (2 Bft)
01.04.2017 01:32 8,2 °C 8,2 °C 73 % 1013,0 hPa 0,0 mm 8,0 km/h (2 Bft) S-SO 148 ° 0 min 0,000 mm 0,0 UV-I 0 W/m² 3,7 °C 6,9 °C 9,7 km/h (2 Bft)
01.04.2017 01:33 8,3 °C 8,3 °C 72 % 1013,0 hPa 0,0 mm 7,0 km/h (2 Bft) SO 130 ° 0 min 0,000 mm 0,0 UV-I 0 W/m² 3,6 °C 7,2 °C 8,0 km/h (2 Bft)
01.04.2017 01:34 8,4 °C 8,4 °C 71 % 1013,0 hPa 0,0 mm 6,4 km/h (2 Bft) S-SO 148 ° 0 min 0,000 mm 0,0 UV-I 0 W/m² 3,5 °C 7,5 °C 8,0 km/h (2 Bft)
01.04.2017 01:35 8,6 °C 8,6 °C 71 % 1013,0 hPa 0,0 mm 6,1 km/h (2 Bft) S-SO 148 ° 0 min 0,000 mm 0,0 UV-I 0 W/m² 3,6 °C 7,8 °C 8,0 km/h (2 Bft)
01.04.2017 01:36 8,7 °C 8,7 °C 71 % 1013,0 hPa 0,0 mm 6,0 km/h (2 Bft) S-SO 155 ° 0 min 0,000 mm 0,0 UV-I 0 W/m² 3,7 °C 8,0 °C 8,0 km/h (2 Bft)
01.04.2017 01:37 8,8 °C 8,8 °C 70 % 1013,0 hPa 0,0 mm 6,1 km/h (2 Bft) S-SO 155 ° 0 min 0,000 mm 0,0 UV-I 0 W/m² 3,6 °C 8,1 °C 9,7 km/h (2 Bft)
01.04.2017 01:38 8,8 °C 8,8 °C 70 % 1013,0 hPa 0,0 mm 6,8 km/h (2 Bft) SO 143 ° 0 min 0,000 mm 0,0 UV-I 0 W/m² 3,6 °C 7,9 °C 8,0 km/h (2 Bft)
01.04.2017 01:39 8,9 °C 8,9 °C 69 % 1013,0 hPa 0,0 mm 6,3 km/h (2 Bft) SO 144 ° 0 min 0,000 mm 0,0 UV-I 0 W/m² 3,5 °C 8,1 °C 8,0 km/h (2 Bft)
01.04.2017 01:40 9,1 °C 9,1 °C 68 % 1013,0 hPa 0,0 mm 6,4 km/h (2 Bft) SO 144 ° 0 min 0,000 mm 0,0 UV-I 0 W/m² 3,5 °C 8,3 °C 6,4 km/h (2 Bft)
01.04.2017 01:41 9,2 °C 9,2 °C 68 % 1012,9 hPa 0,0 mm 6,2 km/h (2 Bft) SO 138 ° 0 min 0,000 mm 0,0 UV-I 0 W/m² 3,6 °C 8,5 °C 6,4 km/h (2 Bft)
01.04.2017 01:42 9,4 °C 9,4 °C 67 % 1012,9 hPa 0,0 mm 6,5 km/h (2 Bft) SO 140 ° 0 min 0,000 mm 0,0 UV-I 0 W/m² 3,6 °C 8,7 °C 8,0 km/h (2 Bft)
01.04.2017 01:43 9,6 °C 9,6 °C 67 % 1012,9 hPa 0,0 mm 6,1 km/h (2 Bft) SO 140 ° 0 min 0,000 mm 0,0 UV-I 0 W/m² 3,8 °C 9,0 °C 6,4 km/h (2 Bft)
01.04.2017 01:44 9,7 °C 9,7 °C 66 % 1012,9 hPa 0,0 mm 5,8 km/h (2 Bft) SO 140 ° 0 min 0,000 mm 0,0 UV-I 0 W/m² 3,7 °C 9,2 °C 8,0 km/h (2 Bft)
01.04.2017 01:45 9,7 °C 9,7 °C 66 % 1012,9 hPa 0,0 mm 5,4 km/h (1 Bft) SO 140 ° 0 min 0,000 mm 0,0 UV-I 0 W/m² 3,7 °C 9,3 °C 6,4 km/h (2 Bft)
01.04.2017 01:46 9,8 °C 9,8 °C 65 % 1012,9 hPa 0,0 mm 6,4 km/h (2 Bft) SO 140 ° 0 min 0,000 mm 0,0 UV-I 0 W/m² 3,5 °C 9,1 °C 8,0 km/h (2 Bft)
01.04.2017 01:47 9,8 °C 9,8 °C 65 % 1012,8 hPa 0,0 mm 5,7 km/h (1 Bft) SO 141 ° 0 min 0,000 mm 0,0 UV-I 0 W/m² 3,5 °C 9,3 °C 6,4 km/h (2 Bft)
01.04.2017 01:48 9,9 °C 9,9 °C 64 % 1012,8 hPa 0,0 mm 5,6 km/h (1 Bft) SO 141 ° 0 min 0,000 mm 0,0 UV-I 0 W/m² 3,4 °C 9,5 °C 6,4 km/h (2 Bft)
01.04.2017 01:49 10,0 °C 10,0 °C 65 % 1012,8 hPa 0,0 mm 6,2 km/h (2 Bft) SO 141 ° 0 min 0,000 mm 0,0 UV-I 0 W/m² 3,7 °C 9,4 °C 6,4 km/h (2 Bft)
01.04.2017 01:50 10,1 °C 10,1 °C 64 % 1012,8 hPa 0,0 mm 6,7 km/h (2 Bft) SO 141 ° 0 min 0,000 mm 0,0 UV-I 0 W/m² 3,6 °C 10,1 °C 8,0 km/h (2 Bft)
01.04.2017 01:51 10,2 °C 10,2 °C 63 % 1012,8 hPa 0,0 mm 6,2 km/h (2 Bft) SO 141 ° 0 min 0,000 mm 0,0 UV-I 0 W/m² 3,5 °C 10,2 °C 8,0 km/h (2 Bft)
01.04.2017 01:52 10,2 °C 10,3 °C 62 % 1012,7 hPa 0,0 mm 4,8 km/h (1 Bft) SO 141 ° 0 min 0,000 mm 0,0 UV-I 0 W/m² 3,3 °C 10,2 °C 6,4 km/h (2 Bft)
01.04.2017 01:53 10,3 °C 10,3 °C 63 % 1012,7 hPa 0,0 mm 4,0 km/h (1 Bft) SO 141 ° 0 min 0,000 mm 0,0 UV-I 0 W/m² 3,6 °C 10,3 °C 4,8 km/h (1 Bft)
01.04.2017 01:54 10,4 °C 10,4 °C 62 % 1012,7 hPa 0,0 mm 2,4 km/h (1 Bft) SO 142 ° 0 min 0,000 mm 0,0 UV-I 0 W/m² 3,4 °C 10,4 °C 4,8 km/h (1 Bft)
01.04.2017 01:55 10,4 °C 10,4 °C 62 % 1012,8 hPa 0,0 mm 2,5 km/h (1 Bft) SO 145 ° 0 min 0,000 mm 0,0 UV-I 0 W/m² 3,4 °C 10,4 °C 4,8 km/h (1 Bft)
01.04.2017 01:56 10,4 °C 10,4 °C 61 % 1012,7 hPa 0,0 mm 3,3 km/h (1 Bft) SO 145 ° 0 min 0,000 mm 0,0 UV-I 0 W/m² 3,2 °C 10,4 °C 4,8 km/h (1 Bft)
01.04.2017 01:57 10,4 °C 10,4 °C 61 % 1012,7 hPa 0,0 mm 2,2 km/h (1 Bft) SO 145 ° 0 min 0,000 mm 0,0 UV-I 0 W/m² 3,2 °C 10,4 °C 4,8 km/h (1 Bft)
01.04.2017 01:58 10,4 °C 10,4 °C 61 % 1012,7 hPa 0,0 mm 2,9 km/h (1 Bft) S-SO 153 ° 0 min 0,000 mm 0,0 UV-I 0 W/m² 3,2 °C 10,4 °C 4,8 km/h (1 Bft)
01.04.2017 01:59 10,3 °C 10,4 °C 62 % 1012,7 hPa 0,0 mm 5,7 km/h (1 Bft) S-SO 162 ° 0 min 0,000 mm 0,0 UV-I 0 W/m² 3,3 °C 10,3 °C 8,0 km/h (2 Bft)
01.04.2017 02:00 10,2 °C 10,3 °C 63 % 1012,7 hPa 0,0 mm 6,2 km/h (2 Bft) S-SO 163 ° 0 min 0,026 mm 0,0 UV-I 0 W/m² 3,5 °C 10,2 °C 8,0 km/h (2 Bft)
01.04.2017 02:01 10,1 °C 10,2 °C 63 % 1012,7 hPa 0,0 mm 7,0 km/h (2 Bft) S-SO 163 ° 0 min 0,000 mm 0,0 UV-I 0 W/m² 3,4 °C 10,1 °C 8,0 km/h (2 Bft)
01.04.2017 02:02 9,9 °C 10,1 °C 63 % 1012,6 hPa 0,0 mm 5,0 km/h (1 Bft) S-SO 163 ° 0 min 0,000 mm 0,0 UV-I 0 W/m² 3,2 °C 9,6 °C 8,0 km/h (2 Bft)
01.04.2017 02:03 9,8 °C 9,9 °C 63 % 1012,6 hPa 0,0 mm 3,9 km/h (1 Bft) S-SO 163 ° 0 min 0,000 mm 0,0 UV-I 0 W/m² 3,1 °C 9,8 °C 6,4 km/h (2 Bft)
01.04.2017 02:04 9,6 °C 9,8 °C 64 % 1012,6 hPa 0,0 mm 5,2 km/h (1 Bft) S 181 ° 0 min 0,000 mm 0,0 UV-I 0 W/m² 3,1 °C 9,2 °C 8,0 km/h (2 Bft)
01.04.2017 02:05 9,5 °C 9,6 °C 65 % 1012,6 hPa 0,0 mm 5,6 km/h (1 Bft) S 169 ° 0 min 0,000 mm 0,0 UV-I 0 W/m² 3,3 °C 9,0 °C 6,4 km/h (2 Bft)
01.04.2017 02:06 9,3 °C 9,5 °C 65 % 1012,6 hPa 0,0 mm 4,9 km/h (1 Bft) S-SW 197 ° 0 min 0,000 mm 0,0 UV-I 0 W/m² 3,1 °C 9,0 °C 6,4 km/h (2 Bft)
01.04.2017 02:07 9,2 °C 9,3 °C 66 % 1012,6 hPa 0,0 mm 5,5 km/h (1 Bft) S 182 ° 0 min 0,000 mm 0,0 UV-I 0 W/m² 3,2 °C 8,7 °C 8,0 km/h (2 Bft)
01.04.2017 02:08 8,9 °C 9,2 °C 67 % 1012,6 hPa 0,0 mm 3,5 km/h (1 Bft) S 178 ° 0 min 0,000 mm 0,0 UV-I 0 W/m² 3,1 °C 8,9 °C 4,8 km/h (1 Bft)
01.04.2017 02:09 8,7 °C 8,9 °C 68 % 1012,6 hPa 0,0 mm 3,4 km/h (1 Bft) S 178 ° 0 min 0,000 mm 0,0 UV-I 0 W/m² 3,1 °C 8,7 °C 4,8 km/h (1 Bft)
01.04.2017 02:10 8,6 °C 8,7 °C 68 % 1012,6 hPa 0,0 mm 2,7 km/h (1 Bft) S 178 ° 0 min 0,000 mm 0,0 UV-I 0 W/m² 3,0 °C 8,6 °C 3,2 km/h (1 Bft)
01.04.2017 02:11 8,4 °C 8,6 °C 69 % 1012,6 hPa 0,0 mm 2,0 km/h (1 Bft) S 178 ° 0 min 0,000 mm 0,0 UV-I 0 W/m² 3,0 °C 8,4 °C 3,2 km/h (1 Bft)
01.04.2017 02:12 8,3 °C 8,4 °C 69 % 1012,6 hPa 0,0 mm 1,5 km/h (1 Bft) S 178 ° 0 min 0,000 mm 0,0 UV-I 0 W/m² 3,0 °C 8,3 °C 1,6 km/h (1 Bft)
01.04.2017 02:13 8,3 °C 8,4 °C 69 % 1012,6 hPa 0,0 mm 1,9 km/h (1 Bft) S 178 ° 0 min 0,000 mm 0,0 UV-I 0 W/m² 3,0 °C 8,3 °C 3,2 km/h (1 Bft)
01.04.2017 02:14 8,1 °C 8,3 °C 69 % 1012,5 hPa 0,0 mm 1,5 km/h (1 Bft) S 178 ° 0 min 0,000 mm 0,0 UV-I 0 W/m² 2,8 °C 8,1 °C 3,2 km/h (1 Bft)
01.04.2017 02:15 7,8 °C 8,1 °C 71 % 1012,6 hPa 0,0 mm 2,1 km/h (1 Bft) S 178 ° 0 min 0,000 mm 0,0 UV-I 0 W/m² 2,9 °C 7,8 °C 3,2 km/h (1 Bft)
01.04.2017 02:16 7,6 °C 7,8 °C 71 % 1012,6 hPa 0,0 mm 1,5 km/h (1 Bft) S 178 ° 0 min 0,000 mm 0,0 UV-I 0 W/m² 2,7 °C 7,6 °C 3,2 km/h (1 Bft)
01.04.2017 02:17 7,4 °C 7,6 °C 73 % 1012,6 hPa 0,0 mm 0,0 km/h (0 Bft) S 178 ° 0 min 0,000 mm 0,0 UV-I 0 W/m² 2,9 °C 7,4 °C 0,0 km/h (0 Bft)
01.04.2017 02:18 7,1 °C 7,4 °C 73 % 1012,5 hPa 0,0 mm 0,1 km/h (0 Bft) S 178 ° 0 min 0,000 mm 0,0 UV-I 0 W/m² 2,6 °C 7,1 °C 1,6 km/h (1 Bft)
01.04.2017 02:19 6,9 °C 7,1 °C 74 % 1012,5 hPa 0,0 mm 0,0 km/h (0 Bft) S 178 ° 0 min 0,000 mm 0,0 UV-I 0 W/m² 2,6 °C 6,9 °C 0,0 km/h (0 Bft)
01.04.2017 02:20 6,8 °C 6,9 °C 75 % 1012,5 hPa 0,0 mm 0,0 km/h (0 Bft) S 178 ° 0 min 0,000 mm 0,0 UV-I 0 W/m² 2,7 °C 6,8 °C 0,0 km/h (0 Bft)
01.04.2017 02:21 6,8 °C 6,8 °C 76 % 1012,5 hPa 0,0 mm 0,0 km/h (0 Bft) S 178 ° 0 min 0,000 mm 0,0 UV-I 0 W/m² 2,9 °C 6,8 °C 0,0 km/h (0 Bft)
01.04.2017 02:22 6,7 °C 6,8 °C 76 % 1012,5 hPa 0,0 mm 0,0 km/h (0 Bft) S 178 ° 0 min 0,000 mm 0,0 UV-I 0 W/m² 2,8 °C 6,7 °C 0,0 km/h (0 Bft)
01.04.2017 02:23 6,6 °C 6,7 °C 76 % 1012,4 hPa 0,0 mm 0,3 km/h (0 Bft) S 178 ° 0 min 0,000 mm 0,0 UV-I 0 W/m² 2,7 °C 6,6 °C 1,6 km/h (1 Bft)
01.04.2017 02:24 6,6 °C 6,6 °C 76 % 1012,4 hPa 0,0 mm 0,5 km/h (0 Bft) S 178 ° 0 min 0,000 mm 0,0 UV-I 0 W/m² 2,7 °C 6,6 °C 1,6 km/h (1 Bft)
01.04.2017 02:25 6,6 °C 6,6 °C 76 % 1012,4 hPa 0,0 mm 0,3 km/h (0 Bft) S 178 ° 0 min 0,000 mm 0,0 UV-I 0 W/m² 2,7 °C 6,6 °C 1,6 km/h (1 Bft)
01.04.2017 02:26 6,6 °C 6,6 °C 76 % 1012,4 hPa 0,0 mm 0,0 km/h (0 Bft) S 178 ° 0 min 0,000 mm 0,0 UV-I 0 W/m² 2,7 °C 6,6 °C 0,0 km/h (0 Bft)
01.04.2017 02:27 6,6 °C 6,6 °C 76 % 1012,4 hPa 0,0 mm 0,2 km/h (0 Bft) S 178 ° 0 min 0,000 mm 0,0 UV-I 0 W/m² 2,7 °C 6,6 °C 1,6 km/h (1 Bft)
01.04.2017 02:28 6,4 °C 6,6 °C 76 % 1012,4 hPa 0,0 mm 0,2 km/h (0 Bft) S 178 ° 0 min 0,000 mm 0,0 UV-I 0 W/m² 2,5 °C 6,4 °C 1,6 km/h (1 Bft)
01.04.2017 02:29 6,3 °C 6,4 °C 77 % 1012,3 hPa 0,0 mm 0,0 km/h (0 Bft) S 178 ° 0 min 0,000 mm 0,0 UV-I 0 W/m² 2,6 °C 6,3 °C 0,0 km/h (0 Bft)
01.04.2017 02:30 6,2 °C 6,3 °C 77 % 1012,4 hPa 0,0 mm 0,0 km/h (0 Bft) S 178 ° 0 min 0,000 mm 0,0 UV-I 0 W/m² 2,5 °C 6,2 °C 0,0 km/h (0 Bft)
01.04.2017 02:31 6,1 °C 6,2 °C 78 % 1012,3 hPa 0,0 mm 0,4 km/h (0 Bft) S 178 ° 0 min 0,000 mm 0,0 UV-I 0 W/m² 2,6 °C 6,1 °C 1,6 km/h (1 Bft)
01.04.2017 02:32 6,0 °C 6,1 °C 79 % 1012,3 hPa 0,0 mm 0,8 km/h (0 Bft) S 178 ° 0 min 0,000 mm 0,0 UV-I 0 W/m² 2,6 °C 6,0 °C 1,6 km/h (1 Bft)
01.04.2017 02:33 6,0 °C 6,0 °C 79 % 1012,3 hPa 0,0 mm 0,0 km/h (0 Bft) S 178 ° 0 min 0,000 mm 0,0 UV-I 0 W/m² 2,6 °C 6,0 °C 0,0 km/h (0 Bft)
01.04.2017 02:34 5,9 °C 6,0 °C 78 % 1012,3 hPa 0,0 mm 0,6 km/h (0 Bft) S 178 ° 0 min 0,000 mm 0,0 UV-I 0 W/m² 2,4 °C 5,9 °C 1,6 km/h (1 Bft)
01.04.2017 02:35 5,9 °C 5,9 °C 79 % 1012,3 hPa 0,0 mm 0,9 km/h (0 Bft) S 178 ° 0 min 0,000 mm 0,0 UV-I 0 W/m² 2,5 °C 5,9 °C 1,6 km/h (1 Bft)
01.04.2017 02:36 5,8 °C 5,9 °C 78 % 1012,3 hPa 0,0 mm 0,0 km/h (0 Bft) S 178 ° 0 min 0,000 mm 0,0 UV-I 0 W/m² 2,3 °C 5,8 °C 0,0 km/h (0 Bft)
01.04.2017 02:37 5,7 °C 5,8 °C 79 % 1012,3 hPa 0,0 mm 0,5 km/h (0 Bft) S 178 ° 0 min 0,000 mm 0,0 UV-I 0 W/m² 2,3 °C 5,7 °C 1,6 km/h (1 Bft)
01.04.2017 02:38 5,6 °C 5,7 °C 79 % 1012,3 hPa 0,0 mm 0,9 km/h (0 Bft) S 178 ° 0 min 0,000 mm 0,0 UV-I 0 W/m² 2,3 °C 5,6 °C 1,6 km/h (1 Bft)
01.04.2017 02:39 5,5 °C 5,6 °C 80 % 1012,3 hPa 0,0 mm 0,4 km/h (0 Bft) S 178 ° 0 min 0,000 mm 0,0 UV-I 0 W/m² 2,3 °C 5,5 °C 1,6 km/h (1 Bft)
01.04.2017 02:40 5,6 °C 5,6 °C 80 % 1012,3 hPa 0,0 mm 1,3 km/h (1 Bft) S 178 ° 0 min 0,000 mm 0,0 UV-I 0 W/m² 2,4 °C 5,6 °C 1,6 km/h (1 Bft)
01.04.2017 02:41 5,6 °C 5,6 °C 80 % 1012,3 hPa 0,0 mm 1,3 km/h (1 Bft) S 178 ° 0 min 0,000 mm 0,0 UV-I 0 W/m² 2,4 °C 5,6 °C 1,6 km/h (1 Bft)
01.04.2017 02:42 5,6 °C 5,6 °C 80 % 1012,3 hPa 0,0 mm 0,6 km/h (0 Bft) S 178 ° 0 min 0,000 mm 0,0 UV-I 0 W/m² 2,4 °C 5,6 °C 1,6 km/h (1 Bft)
01.04.2017 02:43 5,6 °C 5,6 °C 80 % 1012,3 hPa 0,0 mm 0,8 km/h (0 Bft) S 178 ° 0 min 0,000 mm 0,0 UV-I 0 W/m² 2,4 °C 5,6 °C 3,2 km/h (1 Bft)
01.04.2017 02:44 5,4 °C 5,6 °C 80 % 1012,3 hPa 0,0 mm 1,5 km/h (1 Bft) S 178 ° 0 min 0,000 mm 0,0 UV-I 0 W/m² 2,2 °C 5,4 °C 3,2 km/h (1 Bft)
01.04.2017 02:45 5,4 °C 5,4 °C 80 % 1012,3 hPa 0,0 mm 3,8 km/h (1 Bft) O 87 ° 0 min 0,000 mm 0,0 UV-I 0 W/m² 2,2 °C 5,4 °C 4,8 km/h (1 Bft)
01.04.2017 02:46 5,3 °C 5,4 °C 80 % 1012,3 hPa 0,0 mm 2,3 km/h (1 Bft) O 87 ° 0 min 0,000 mm 0,0 UV-I 0 W/m² 2,1 °C 5,3 °C 4,8 km/h (1 Bft)
01.04.2017 02:47 5,2 °C 5,3 °C 81 % 1012,3 hPa 0,0 mm 3,0 km/h (1 Bft) O 87 ° 0 min 0,000 mm 0,0 UV-I 0 W/m² 2,2 °C 5,2 °C 4,8 km/h (1 Bft)
01.04.2017 02:48 5,2 °C 5,2 °C 81 % 1012,3 hPa 0,0 mm 2,3 km/h (1 Bft) O 87 ° 0 min 0,000 mm 0,0 UV-I 0 W/m² 2,2 °C 5,2 °C 3,2 km/h (1 Bft)
01.04.2017 02:49 5,2 °C 5,2 °C 81 % 1012,3 hPa 0,0 mm 3,2 km/h (1 Bft) O 87 ° 0 min 0,000 mm 0,0 UV-I 0 W/m² 2,2 °C 5,2 °C 4,8 km/h (1 Bft)
01.04.2017 02:50 5,3 °C 5,3 °C 81 % 1012,3 hPa 0,0 mm 2,2 km/h (1 Bft) O 87 ° 0 min 0,000 mm 0,0 UV-I 0 W/m² 2,3 °C 5,3 °C 3,2 km/h (1 Bft)
01.04.2017 02:51 5,3 °C 5,3 °C 81 % 1012,2 hPa 0,0 mm 1,4 km/h (1 Bft) O 87 ° 0 min 0,000 mm 0,0 UV-I 0 W/m² 2,3 °C 5,3 °C 3,2 km/h (1 Bft)
01.04.2017 02:52 5,4 °C 5,4 °C 81 % 1012,3 hPa 0,0 mm 1,5 km/h (1 Bft) O 87 ° 0 min 0,000 mm 0,0 UV-I 0 W/m² 2,4 °C 5,4 °C 3,2 km/h (1 Bft)
01.04.2017 02:53 5,4 °C 5,4 °C 81 % 1012,2 hPa 0,0 mm 0,0 km/h (0 Bft) O 87 ° 0 min 0,000 mm 0,0 UV-I 0 W/m² 2,4 °C 5,4 °C 0,0 km/h (0 Bft)
01.04.2017 02:54 5,4 °C 5,4 °C 81 % 1012,2 hPa 0,0 mm 0,0 km/h (0 Bft) O 87 ° 0 min 0,000 mm 0,0 UV-I 0 W/m² 2,4 °C 5,4 °C 0,0 km/h (0 Bft)
01.04.2017 02:55 5,5 °C 5,5 °C 80 % 1012,2 hPa 0,0 mm 0,0 km/h (0 Bft) O 87 ° 0 min 0,000 mm 0,0 UV-I 0 W/m² 2,3 °C 5,5 °C 0,0 km/h (0 Bft)
01.04.2017 02:56 5,5 °C 5,5 °C 80 % 1012,2 hPa 0,0 mm 0,0 km/h (0 Bft) O 87 ° 0 min 0,000 mm 0,0 UV-I 0 W/m² 2,3 °C 5,5 °C 0,0 km/h (0 Bft)
01.04.2017 02:57 5,5 °C 5,5 °C 80 % 1012,2 hPa 0,0 mm 0,0 km/h (0 Bft) O 87 ° 0 min 0,000 mm 0,0 UV-I 0 W/m² 2,3 °C 5,5 °C 0,0 km/h (0 Bft)
01.04.2017 02:58 5,5 °C 5,5 °C 80 % 1012,3 hPa 0,0 mm 0,0 km/h (0 Bft) O 87 ° 0 min 0,000 mm 0,0 UV-I 0 W/m² 2,3 °C 5,5 °C 0,0 km/h (0 Bft)
01.04.2017 02:59 5,5 °C 5,5 °C 80 % 1012,3 hPa 0,0 mm 0,1 km/h (0 Bft) O 87 ° 0 min 0,000 mm 0,0 UV-I 0 W/m² 2,3 °C 5,5 °C 1,6 km/h (1 Bft)
01.04.2017 03:00 5,6 °C 5,6 °C 80 % 1012,2 hPa 0,0 mm 0,3 km/h (0 Bft) O 87 ° 0 min 0,025 mm 0,0 UV-I 0 W/m² 2,4 °C 5,6 °C 1,6 km/h (1 Bft)
01.04.2017 03:01 5,7 °C 5,7 °C 80 % 1012,2 hPa 0,0 mm 1,1 km/h (1 Bft) O 87 ° 0 min 0,000 mm 0,0 UV-I 0 W/m² 2,5 °C 5,7 °C 1,6 km/h (1 Bft)
01.04.2017 03:02 5,8 °C 5,8 °C 80 % 1012,2 hPa 0,0 mm 0,1 km/h (0 Bft) O 87 ° 0 min 0,000 mm 0,0 UV-I 0 W/m² 2,6 °C 5,8 °C 1,6 km/h (1 Bft)
01.04.2017 03:03 5,8 °C 5,8 °C 80 % 1012,2 hPa 0,0 mm 0,0 km/h (0 Bft) O 87 ° 0 min 0,000 mm 0,0 UV-I 0 W/m² 2,6 °C 5,8 °C 0,0 km/h (0 Bft)
01.04.2017 03:04 5,8 °C 5,8 °C 80 % 1012,2 hPa 0,0 mm 1,5 km/h (1 Bft) O 87 ° 0 min 0,000 mm 0,0 UV-I 0 W/m² 2,6 °C 5,8 °C 3,2 km/h (1 Bft)
01.04.2017 03:05 5,7 °C 5,8 °C 79 % 1012,1 hPa 0,0 mm 0,2 km/h (0 Bft) O 87 ° 0 min 0,000 mm 0,0 UV-I 0 W/m² 2,3 °C 5,7 °C 1,6 km/h (1 Bft)
01.04.2017 03:06 5,6 °C 5,7 °C 79 % 1012,2 hPa 0,0 mm 0,1 km/h (0 Bft) O 87 ° 0 min 0,000 mm 0,0 UV-I 0 W/m² 2,3 °C 5,6 °C 1,6 km/h (1 Bft)
01.04.2017 03:07 5,6 °C 5,6 °C 79 % 1012,2 hPa 0,0 mm 0,0 km/h (0 Bft) O 87 ° 0 min 0,000 mm 0,0 UV-I 0 W/m² 2,3 °C 5,6 °C 0,0 km/h (0 Bft)
01.04.2017 03:08 5,5 °C 5,6 °C 80 % 1012,2 hPa 0,0 mm 0,0 km/h (0 Bft) O 87 ° 0 min 0,000 mm 0,0 UV-I 0 W/m² 2,3 °C 5,5 °C 0,0 km/h (0 Bft)
01.04.2017 03:09 5,6 °C 5,6 °C 80 % 1012,2 hPa 0,0 mm 0,7 km/h (0 Bft) O 87 ° 0 min 0,000 mm 0,0 UV-I 0 W/m² 2,4 °C 5,6 °C 1,6 km/h (1 Bft)
01.04.2017 03:10 5,7 °C 5,7 °C 80 % 1012,1 hPa 0,0 mm 2,1 km/h (1 Bft) O 87 ° 0 min 0,000 mm 0,0 UV-I 0 W/m² 2,5 °C 5,7 °C 3,2 km/h (1 Bft)
01.04.2017 03:11 5,8 °C 5,8 °C 80 % 1012,2 hPa 0,0 mm 1,3 km/h (1 Bft) O 87 ° 0 min 0,000 mm 0,0 UV-I 0 W/m² 2,6 °C 5,8 °C 3,2 km/h (1 Bft)
01.04.2017 03:12 5,7 °C 5,8 °C 80 % 1012,2 hPa 0,0 mm 0,1 km/h (0 Bft) O 87 ° 0 min 0,000 mm 0,0 UV-I 0 W/m² 2,5 °C 5,7 °C 1,6 km/h (1 Bft)
01.04.2017 03:13 5,6 °C 5,7 °C 79 % 1012,1 hPa 0,0 mm 0,3 km/h (0 Bft) O 87 ° 0 min 0,000 mm 0,0 UV-I 0 W/m² 2,3 °C 5,6 °C 1,6 km/h (1 Bft)
01.04.2017 03:14 5,5 °C 5,6 °C 79 % 1012,2 hPa 0,0 mm 1,1 km/h (1 Bft) O 87 ° 0 min 0,000 mm 0,0 UV-I 0 W/m² 2,2 °C 5,5 °C 3,2 km/h (1 Bft)
01.04.2017 03:15 5,4 °C 5,5 °C 80 % 1012,2 hPa 0,0 mm 0,6 km/h (0 Bft) O 87 ° 0 min 0,000 mm 0,0 UV-I 0 W/m² 2,2 °C 5,4 °C 1,6 km/h (1 Bft)
01.04.2017 03:16 5,3 °C 5,4 °C 80 % 1012,2 hPa 0,0 mm 0,5 km/h (0 Bft) O 87 ° 0 min 0,000 mm 0,0 UV-I 0 W/m² 2,1 °C 5,3 °C 1,6 km/h (1 Bft)
01.04.2017 03:17 5,3 °C 5,3 °C 80 % 1012,2 hPa 0,0 mm 1,0 km/h (0 Bft) O 87 ° 0 min 0,000 mm 0,0 UV-I 0 W/m² 2,1 °C 5,3 °C 1,6 km/h (1 Bft)
01.04.2017 03:18 5,3 °C 5,3 °C 81 % 1012,2 hPa 0,0 mm 2,8 km/h (1 Bft) O 87 ° 0 min 0,000 mm 0,0 UV-I 0 W/m² 2,3 °C 5,3 °C 3,2 km/h (1 Bft)
01.04.2017 03:19 5,4 °C 5,4 °C 81 % 1012,1 hPa 0,0 mm 3,0 km/h (1 Bft) O 87 ° 0 min 0,000 mm 0,0 UV-I 0 W/m² 2,4 °C 5,4 °C 4,8 km/h (1 Bft)
01.04.2017 03:20 5,6 °C 5,6 °C 81 % 1012,1 hPa 0,0 mm 4,0 km/h (1 Bft) O 88 ° 0 min 0,000 mm 0,0 UV-I 0 W/m² 2,6 °C 5,6 °C 6,4 km/h (2 Bft)
01.04.2017 03:21 5,8 °C 5,8 °C 80 % 1012,1 hPa 0,0 mm 4,4 km/h (1 Bft) SO 134 ° 0 min 0,000 mm 0,0 UV-I 0 W/m² 2,6 °C 5,8 °C 6,4 km/h (2 Bft)
01.04.2017 03:22 6,1 °C 6,1 °C 79 % 1012,1 hPa 0,0 mm 4,5 km/h (1 Bft) SO 135 ° 0 min 0,000 mm 0,0 UV-I 0 W/m² 2,7 °C 6,1 °C 4,8 km/h (1 Bft)
01.04.2017 03:23 6,2 °C 6,2 °C 79 % 1012,1 hPa 0,0 mm 2,4 km/h (1 Bft) SO 135 ° 0 min 0,000 mm 0,0 UV-I 0 W/m² 2,8 °C 6,2 °C 3,2 km/h (1 Bft)
01.04.2017 03:24 6,3 °C 6,3 °C 78 % 1012,1 hPa 0,0 mm 1,9 km/h (1 Bft) SO 135 ° 0 min 0,000 mm 0,0 UV-I 0 W/m² 2,8 °C 6,3 °C 4,8 km/h (1 Bft)
01.04.2017 03:25 6,4 °C 6,4 °C 78 % 1012,1 hPa 0,0 mm 1,9 km/h (1 Bft) SO 135 ° 0 min 0,000 mm 0,0 UV-I 0 W/m² 2,8 °C 6,4 °C 3,2 km/h (1 Bft)
01.04.2017 03:26 6,3 °C 6,4 °C 76 % 1012,1 hPa 0,0 mm 3,1 km/h (1 Bft) SW 223 ° 0 min 0,000 mm 0,0 UV-I 0 W/m² 2,4 °C 6,3 °C 3,2 km/h (1 Bft)
01.04.2017 03:27 6,1 °C 6,3 °C 77 % 1012,1 hPa 0,0 mm 3,7 km/h (1 Bft) SW 230 ° 0 min 0,000 mm 0,0 UV-I 0 W/m² 2,4 °C 6,1 °C 4,8 km/h (1 Bft)
01.04.2017 03:28 5,9 °C 6,1 °C 77 % 1012,1 hPa 0,0 mm 2,5 km/h (1 Bft) SW 231 ° 0 min 0,000 mm 0,0 UV-I 0 W/m² 2,2 °C 5,9 °C 3,2 km/h (1 Bft)
01.04.2017 03:29 5,7 °C 5,9 °C 78 % 1012,1 hPa 0,0 mm 0,1 km/h (0 Bft) SW 231 ° 0 min 0,000 mm 0,0 UV-I 0 W/m² 2,2 °C 5,7 °C 1,6 km/h (1 Bft)
01.04.2017 03:30 5,5 °C 5,7 °C 79 % 1012,1 hPa 0,0 mm 0,3 km/h (0 Bft) SW 231 ° 0 min 0,000 mm 0,0 UV-I 0 W/m² 2,2 °C 5,5 °C 1,6 km/h (1 Bft)
01.04.2017 03:31 5,3 °C 5,5 °C 79 % 1012,2 hPa 0,0 mm 0,0 km/h (0 Bft) SW 231 ° 0 min 0,000 mm 0,0 UV-I 0 W/m² 2,0 °C 5,3 °C 0,0 km/h (0 Bft)
01.04.2017 03:32 5,2 °C 5,3 °C 80 % 1012,1 hPa 0,0 mm 0,8 km/h (0 Bft) SW 230 ° 0 min 0,000 mm 0,0 UV-I 0 W/m² 2,0 °C 5,2 °C 1,6 km/h (1 Bft)
01.04.2017 03:33 5,2 °C 5,2 °C 80 % 1012,0 hPa 0,0 mm 0,3 km/h (0 Bft) SW 230 ° 0 min 0,000 mm 0,0 UV-I 0 W/m² 2,0 °C 5,2 °C 1,6 km/h (1 Bft)
01.04.2017 03:34 5,1 °C 5,2 °C 80 % 1012,1 hPa 0,0 mm 0,1 km/h (0 Bft) SW 230 ° 0 min 0,000 mm 0,0 UV-I 0 W/m² 1,9 °C 5,1 °C 1,6 km/h (1 Bft)
01.04.2017 03:35 5,1 °C 5,1 °C 81 % 1012,1 hPa 0,0 mm 0,3 km/h (0 Bft) SW 230 ° 0 min 0,000 mm 0,0 UV-I 0 W/m² 2,1 °C 5,1 °C 1,6 km/h (1 Bft)
01.04.2017 03:36 5,1 °C 5,1 °C 81 % 1012,1 hPa 0,0 mm 2,3 km/h (1 Bft) W-SW 245 ° 0 min 0,000 mm 0,0 UV-I 0 W/m² 2,1 °C 5,1 °C 4,8 km/h (1 Bft)
01.04.2017 03:37 5,1 °C 5,1 °C 81 % 1012,2 hPa 0,0 mm 1,2 km/h (1 Bft) W-SW 245 ° 0 min 0,000 mm 0,0 UV-I 0 W/m² 2,1 °C 5,1 °C 3,2 km/h (1 Bft)
01.04.2017 03:38 5,1 °C 5,1 °C 81 % 1012,1 hPa 0,0 mm 0,3 km/h (0 Bft) W-SW 245 ° 0 min 0,000 mm 0,0 UV-I 0 W/m² 2,1 °C 5,1 °C 1,6 km/h (1 Bft)
01.04.2017 03:39 5,2 °C 5,2 °C 81 % 1012,1 hPa 0,0 mm 2,3 km/h (1 Bft) W-SW 245 ° 0 min 0,000 mm 0,0 UV-I 0 W/m² 2,2 °C 5,2 °C 3,2 km/h (1 Bft)
01.04.2017 03:40 5,2 °C 5,3 °C 82 % 1012,1 hPa 0,0 mm 3,1 km/h (1 Bft) W-SW 245 ° 0 min 0,000 mm 0,0 UV-I 0 W/m² 2,4 °C 5,2 °C 3,2 km/h (1 Bft)
01.04.2017 03:41 5,4 °C 5,4 °C 82 % 1012,1 hPa 0,0 mm 1,9 km/h (1 Bft) W-SW 245 ° 0 min 0,000 mm 0,0 UV-I 0 W/m² 2,6 °C 5,4 °C 3,2 km/h (1 Bft)
01.04.2017 03:42 5,6 °C 5,6 °C 81 % 1012,0 hPa 0,0 mm 0,3 km/h (0 Bft) W-SW 245 ° 0 min 0,000 mm 0,0 UV-I 0 W/m² 2,6 °C 5,6 °C 1,6 km/h (1 Bft)
01.04.2017 03:43 5,7 °C 5,7 °C 79 % 1012,0 hPa 0,0 mm 1,0 km/h (0 Bft) W-SW 245 ° 0 min 0,000 mm 0,0 UV-I 0 W/m² 2,3 °C 5,7 °C 3,2 km/h (1 Bft)
01.04.2017 03:44 5,5 °C 5,7 °C 79 % 1012,0 hPa 0,0 mm 0,3 km/h (0 Bft) W-SW 245 ° 0 min 0,000 mm 0,0 UV-I 0 W/m² 2,2 °C 5,5 °C 1,6 km/h (1 Bft)
01.04.2017 03:45 5,3 °C 5,5 °C 80 % 1012,1 hPa 0,0 mm 0,3 km/h (0 Bft) W-SW 245 ° 0 min 0,000 mm 0,0 UV-I 0 W/m² 2,1 °C 5,3 °C 1,6 km/h (1 Bft)
01.04.2017 03:46 5,3 °C 5,3 °C 80 % 1012,0 hPa 0,0 mm 3,1 km/h (1 Bft) W-SW 245 ° 0 min 0,000 mm 0,0 UV-I 0 W/m² 2,1 °C 5,3 °C 4,8 km/h (1 Bft)
01.04.2017 03:47 5,2 °C 5,3 °C 80 % 1012,1 hPa 0,0 mm 4,2 km/h (1 Bft) SW 215 ° 0 min 0,000 mm 0,0 UV-I 0 W/m² 2,0 °C 5,2 °C 4,8 km/h (1 Bft)
01.04.2017 03:48 5,4 °C 5,4 °C 80 % 1012,1 hPa 0,0 mm 6,8 km/h (2 Bft) S 173 ° 0 min 0,000 mm 0,0 UV-I 0 W/m² 2,2 °C 3,9 °C 9,7 km/h (2 Bft)
01.04.2017 03:49 5,6 °C 5,6 °C 80 % 1012,0 hPa 0,0 mm 4,2 km/h (1 Bft) S-SO 168 ° 0 min 0,000 mm 0,0 UV-I 0 W/m² 2,4 °C 5,6 °C 8,0 km/h (2 Bft)
01.04.2017 03:50 5,8 °C 5,8 °C 79 % 1012,0 hPa 0,0 mm 1,5 km/h (1 Bft) S 173 ° 0 min 0,000 mm 0,0 UV-I 0 W/m² 2,4 °C 5,8 °C 6,4 km/h (2 Bft)
01.04.2017 03:51 6,1 °C 6,1 °C 78 % 1012,0 hPa 0,0 mm 1,4 km/h (1 Bft) S 173 ° 0 min 0,000 mm 0,0 UV-I 0 W/m² 2,6 °C 6,1 °C 3,2 km/h (1 Bft)
01.04.2017 03:52 6,1 °C 6,1 °C 77 % 1012,0 hPa 0,0 mm 0,6 km/h (0 Bft) S 173 ° 0 min 0,000 mm 0,0 UV-I 0 W/m² 2,4 °C 6,1 °C 1,6 km/h (1 Bft)
01.04.2017 03:53 5,9 °C 6,1 °C 77 % 1012,0 hPa 0,0 mm 1,3 km/h (1 Bft) S 173 ° 0 min 0,000 mm 0,0 UV-I 0 W/m² 2,2 °C 5,9 °C 1,6 km/h (1 Bft)
01.04.2017 03:54 6,0 °C 6,0 °C 78 % 1012,0 hPa 0,0 mm 1,1 km/h (1 Bft) S 173 ° 0 min 0,000 mm 0,0 UV-I 0 W/m² 2,5 °C 6,0 °C 1,6 km/h (1 Bft)
01.04.2017 03:55 6,2 °C 6,2 °C 77 % 1012,1 hPa 0,0 mm 5,0 km/h (1 Bft) S 188 ° 0 min 0,000 mm 0,0 UV-I 0 W/m² 2,5 °C 5,4 °C 9,7 km/h (2 Bft)
01.04.2017 03:56 6,5 °C 6,5 °C 76 % 1012,1 hPa 0,0 mm 2,1 km/h (1 Bft) SW 227 ° 0 min 0,000 mm 0,0 UV-I 0 W/m² 2,6 °C 6,5 °C 3,2 km/h (1 Bft)
01.04.2017 03:57 6,3 °C 6,5 °C 75 % 1012,1 hPa 0,0 mm 1,2 km/h (1 Bft) SW 227 ° 0 min 0,000 mm 0,0 UV-I 0 W/m² 2,2 °C 6,3 °C 3,2 km/h (1 Bft)
01.04.2017 03:58 6,1 °C 6,3 °C 75 % 1012,0 hPa 0,0 mm 0,7 km/h (0 Bft) S-SO 150 ° 0 min 0,000 mm 0,0 UV-I 0 W/m² 2,0 °C 6,1 °C 3,2 km/h (1 Bft)
01.04.2017 03:59 5,8 °C 6,1 °C 76 % 1012,0 hPa 0,0 mm 3,6 km/h (1 Bft) SO 133 ° 0 min 0,000 mm 0,0 UV-I 0 W/m² 1,9 °C 5,8 °C 4,8 km/h (1 Bft)
01.04.2017 04:00 5,9 °C 5,9 °C 78 % 1012,0 hPa 0,0 mm 0,7 km/h (0 Bft) SO 144 ° 0 min 0,000 mm 0,0 UV-I 0 W/m² 2,4 °C 5,9 °C 3,2 km/h (1 Bft)
01.04.2017 04:01 5,9 °C 5,9 °C 78 % 1011,9 hPa 0,0 mm 1,6 km/h (1 Bft) SO 144 ° 0 min 0,026 mm 0,0 UV-I 0 W/m² 2,4 °C 5,9 °C 1,6 km/h (1 Bft)
01.04.2017 04:02 6,3 °C 6,3 °C 76 % 1011,9 hPa 0,0 mm 1,6 km/h (1 Bft) S 180 ° 0 min 0,000 mm 0,0 UV-I 0 W/m² 2,4 °C 6,3 °C 3,2 km/h (1 Bft)
01.04.2017 04:03 6,4 °C 6,4 °C 76 % 1012,0 hPa 0,0 mm 1,6 km/h (1 Bft) S 180 ° 0 min 0,000 mm 0,0 UV-I 0 W/m² 2,5 °C 6,4 °C 3,2 km/h (1 Bft)
01.04.2017 04:04 6,1 °C 6,3 °C 75 % 1011,9 hPa 0,0 mm 1,6 km/h (1 Bft) S 180 ° 0 min 0,000 mm 0,0 UV-I 0 W/m² 2,0 °C 6,1 °C 3,2 km/h (1 Bft)
01.04.2017 04:05 5,8 °C 6,1 °C 76 % 1012,0 hPa 0,0 mm 0,0 km/h (0 Bft) S 180 ° 0 min 0,000 mm 0,0 UV-I 0 W/m² 1,9 °C 5,8 °C 1,6 km/h (1 Bft)
01.04.2017 04:06 5,4 °C 5,7 °C 77 % 1011,9 hPa 0,0 mm 0,0 km/h (0 Bft) S 180 ° 0 min 0,000 mm 0,0 UV-I 0 W/m² 1,7 °C 5,4 °C 1,6 km/h (1 Bft)
01.04.2017 04:07 5,2 °C 5,4 °C 78 % 1012,0 hPa 0,0 mm 1,6 km/h (1 Bft) S 180 ° 0 min 0,000 mm 0,0 UV-I 0 W/m² 1,7 °C 5,2 °C 3,2 km/h (1 Bft)
01.04.2017 04:08 4,9 °C 5,1 °C 79 % 1011,9 hPa 0,0 mm 1,6 km/h (1 Bft) S 180 ° 0 min 0,000 mm 0,0 UV-I 0 W/m² 1,6 °C 4,9 °C 3,2 km/h (1 Bft)
01.04.2017 04:09 4,8 °C 4,9 °C 79 % 1011,9 hPa 0,0 mm 1,6 km/h (1 Bft) S 180 ° 0 min 0,000 mm 0,0 UV-I 0 W/m² 1,5 °C 4,8 °C 3,2 km/h (1 Bft)
01.04.2017 04:10 4,9 °C 4,9 °C 81 % 1012,0 hPa 0,0 mm 1,6 km/h (1 Bft) S 180 ° 0 min 0,000 mm 0,0 UV-I 0 W/m² 1,9 °C 4,9 °C 3,2 km/h (1 Bft)
01.04.2017 04:11 5,2 °C 5,2 °C 80 % 1011,9 hPa 0,0 mm 0,0 km/h (0 Bft) S 180 ° 0 min 0,000 mm 0,0 UV-I 0 W/m² 2,0 °C 5,2 °C 1,6 km/h (1 Bft)
01.04.2017 04:12 5,1 °C 5,1 °C 80 % 1011,9 hPa 0,0 mm 1,6 km/h (1 Bft) S 180 ° 0 min 0,000 mm 0,0 UV-I 0 W/m² 1,9 °C 5,1 °C 1,6 km/h (1 Bft)
01.04.2017 04:13 4,9 °C 5,1 °C 79 % 1011,9 hPa 0,0 mm 1,6 km/h (1 Bft) S 180 ° 0 min 0,000 mm 0,0 UV-I 0 W/m² 1,6 °C 4,9 °C 3,2 km/h (1 Bft)
01.04.2017 04:14 4,8 °C 4,9 °C 80 % 1011,9 hPa 0,0 mm 0,0 km/h (0 Bft) S 180 ° 0 min 0,000 mm 0,0 UV-I 0 W/m² 1,6 °C 4,8 °C 1,6 km/h (1 Bft)
01.04.2017 04:15 4,7 °C 4,8 °C 80 % 1011,9 hPa 0,0 mm 1,6 km/h (1 Bft) S 180 ° 0 min 0,000 mm 0,0 UV-I 0 W/m² 1,6 °C 4,7 °C 3,2 km/h (1 Bft)
01.04.2017 04:16 4,5 °C 4,7 °C 80 % 1011,9 hPa 0,0 mm 3,2 km/h (1 Bft) W-NW 292 ° 0 min 0,000 mm 0,0 UV-I 0 W/m² 1,4 °C 4,5 °C 4,8 km/h (1 Bft)
01.04.2017 04:17 4,3 °C 4,5 °C 81 % 1012,0 hPa 0,0 mm 1,6 km/h (1 Bft) W-NW 292 ° 0 min 0,000 mm 0,0 UV-I 0 W/m² 1,3 °C 4,3 °C 3,2 km/h (1 Bft)
01.04.2017 04:18 4,3 °C 4,3 °C 81 % 1011,9 hPa 0,0 mm 1,6 km/h (1 Bft) SW 225 ° 0 min 0,000 mm 0,0 UV-I 0 W/m² 1,3 °C 4,3 °C 3,2 km/h (1 Bft)
01.04.2017 04:19 4,2 °C 4,3 °C 82 % 1011,9 hPa 0,0 mm 0,0 km/h (0 Bft) SW 225 ° 0 min 0,000 mm 0,0 UV-I 0 W/m² 1,4 °C 4,2 °C 1,6 km/h (1 Bft)
01.04.2017 04:20 4,2 °C 4,2 °C 82 % 1011,9 hPa 0,0 mm 1,6 km/h (1 Bft) SW 225 ° 0 min 0,000 mm 0,0 UV-I 0 W/m² 1,4 °C 4,2 °C 3,2 km/h (1 Bft)
01.04.2017 04:21 4,3 °C 4,3 °C 83 % 1011,9 hPa 0,0 mm 1,6 km/h (1 Bft) SW 225 ° 0 min 0,000 mm 0,0 UV-I 0 W/m² 1,7 °C 4,3 °C 3,2 km/h (1 Bft)
01.04.2017 04:22 4,8 °C 4,8 °C 83 % 1012,0 hPa 0,0 mm 1,6 km/h (1 Bft) SW 225 ° 0 min 0,000 mm 0,0 UV-I 0 W/m² 2,2 °C 4,8 °C 3,2 km/h (1 Bft)
01.04.2017 04:23 5,3 °C 5,3 °C 80 % 1011,9 hPa 0,0 mm 1,6 km/h (1 Bft) S-SW 202 ° 0 min 0,000 mm 0,0 UV-I 0 W/m² 2,1 °C 5,3 °C 3,2 km/h (1 Bft)
01.04.2017 04:24 5,6 °C 5,6 °C 79 % 1011,9 hPa 0,0 mm 3,2 km/h (1 Bft) S-SW 202 ° 0 min 0,000 mm 0,0 UV-I 0 W/m² 2,3 °C 5,6 °C 3,2 km/h (1 Bft)
01.04.2017 04:25 6,1 °C 6,1 °C 78 % 1011,8 hPa 0,0 mm 3,2 km/h (1 Bft) S 180 ° 0 min 0,000 mm 0,0 UV-I 0 W/m² 2,6 °C 6,1 °C 4,8 km/h (1 Bft)
01.04.2017 04:26 6,4 °C 6,4 °C 77 % 1011,9 hPa 0,0 mm 3,2 km/h (1 Bft) S 180 ° 0 min 0,000 mm 0,0 UV-I 0 W/m² 2,7 °C 6,4 °C 4,8 km/h (1 Bft)
01.04.2017 04:27 6,7 °C 6,7 °C 75 % 1011,9 hPa 0,0 mm 4,8 km/h (1 Bft) S 180 ° 0 min 0,000 mm 0,0 UV-I 0 W/m² 2,6 °C 6,1 °C 6,4 km/h (2 Bft)
01.04.2017 04:28 6,9 °C 6,9 °C 74 % 1011,9 hPa 0,0 mm 3,2 km/h (1 Bft) S-SW 202 ° 0 min 0,000 mm 0,0 UV-I 0 W/m² 2,6 °C 6,9 °C 4,8 km/h (1 Bft)
01.04.2017 04:29 7,2 °C 7,2 °C 72 % 1011,8 hPa 0,0 mm 4,8 km/h (1 Bft) S 180 ° 0 min 0,000 mm 0,0 UV-I 0 W/m² 2,5 °C 6,7 °C 6,4 km/h (2 Bft)
01.04.2017 04:30 7,4 °C 7,4 °C 72 % 1011,8 hPa 0,0 mm 3,2 km/h (1 Bft) SO 135 ° 0 min 0,000 mm 0,0 UV-I 0 W/m² 2,7 °C 7,4 °C 6,4 km/h (2 Bft)
01.04.2017 04:31 7,5 °C 7,5 °C 72 % 1011,8 hPa 0,0 mm 0,0 km/h (0 Bft) S 180 ° 0 min 0,000 mm 0,0 UV-I 0 W/m² 2,8 °C 7,5 °C 1,6 km/h (1 Bft)
01.04.2017 04:32 7,5 °C 7,6 °C 71 % 1011,8 hPa 0,0 mm 0,0 km/h (0 Bft) S 180 ° 0 min 0,000 mm 0,0 UV-I 0 W/m² 2,6 °C 7,5 °C 1,6 km/h (1 Bft)
01.04.2017 04:33 7,3 °C 7,5 °C 71 % 1011,8 hPa 0,0 mm 0,0 km/h (0 Bft) N 0 ° 0 min 0,000 mm 0,0 UV-I 0 W/m² 2,4 °C 7,3 °C 0,0 km/h (0 Bft)
01.04.2017 04:34 7,0 °C 7,2 °C 72 % 1011,8 hPa 0,0 mm 0,0 km/h (0 Bft) N 0 ° 0 min 0,000 mm 0,0 UV-I 0 W/m² 2,3 °C 7,0 °C 0,0 km/h (0 Bft)
01.04.2017 04:35 6,8 °C 6,9 °C 73 % 1011,8 hPa 0,0 mm 0,0 km/h (0 Bft) S 180 ° 0 min 0,000 mm 0,0 UV-I 0 W/m² 2,3 °C 6,8 °C 1,6 km/h (1 Bft)
01.04.2017 04:36 6,4 °C 6,7 °C 74 % 1011,7 hPa 0,0 mm 1,6 km/h (1 Bft) S 180 ° 0 min 0,000 mm 0,0 UV-I 0 W/m² 2,1 °C 6,4 °C 6,4 km/h (2 Bft)
01.04.2017 04:37 6,3 °C 6,4 °C 74 % 1011,7 hPa 0,0 mm 3,2 km/h (1 Bft) S 180 ° 0 min 0,000 mm 0,0 UV-I 0 W/m² 2,0 °C 6,3 °C 8,0 km/h (2 Bft)
01.04.2017 04:38 6,4 °C 6,4 °C 74 % 1011,6 hPa 0,0 mm 3,2 km/h (1 Bft) S 180 ° 0 min 0,000 mm 0,0 UV-I 0 W/m² 2,1 °C 6,4 °C 6,4 km/h (2 Bft)
01.04.2017 04:39 6,8 °C 6,8 °C 73 % 1011,7 hPa 0,0 mm 4,8 km/h (1 Bft) S 180 ° 0 min 0,000 mm 0,0 UV-I 0 W/m² 2,3 °C 6,2 °C 6,4 km/h (2 Bft)
01.04.2017 04:40 7,1 °C 7,1 °C 72 % 1011,7 hPa 0,0 mm 3,2 km/h (1 Bft) S 180 ° 0 min 0,000 mm 0,0 UV-I 0 W/m² 2,4 °C 7,1 °C 6,4 km/h (2 Bft)
01.04.2017 04:41 7,3 °C 7,3 °C 70 % 1011,7 hPa 0,0 mm 3,2 km/h (1 Bft) S 180 ° 0 min 0,000 mm 0,0 UV-I 0 W/m² 2,2 °C 7,3 °C 6,4 km/h (2 Bft)
01.04.2017 04:42 7,6 °C 7,6 °C 69 % 1011,7 hPa 0,0 mm 4,8 km/h (1 Bft) SO 135 ° 0 min 0,000 mm 0,0 UV-I 0 W/m² 2,3 °C 7,1 °C 8,0 km/h (2 Bft)
01.04.2017 04:43 7,9 °C 7,9 °C 68 % 1011,7 hPa 0,0 mm 6,4 km/h (2 Bft) S 180 ° 0 min 0,000 mm 0,0 UV-I 0 W/m² 2,4 °C 6,9 °C 8,0 km/h (2 Bft)
01.04.2017 04:44 8,2 °C 8,2 °C 67 % 1011,6 hPa 0,0 mm 6,4 km/h (2 Bft) S-SW 202 ° 0 min 0,000 mm 0,0 UV-I 0 W/m² 2,4 °C 7,3 °C 8,0 km/h (2 Bft)
01.04.2017 04:45 8,2 °C 8,3 °C 67 % 1011,6 hPa 0,0 mm 1,6 km/h (1 Bft) S 180 ° 0 min 0,000 mm 0,0 UV-I 0 W/m² 2,4 °C 8,2 °C 4,8 km/h (1 Bft)
01.04.2017 04:46 7,8 °C 8,2 °C 67 % 1011,6 hPa 0,0 mm 1,6 km/h (1 Bft) S-SW 202 ° 0 min 0,000 mm 0,0 UV-I 0 W/m² 2,1 °C 7,8 °C 3,2 km/h (1 Bft)
01.04.2017 04:47 7,0 °C 7,7 °C 69 % 1011,6 hPa 0,0 mm 0,0 km/h (0 Bft) N 0 ° 0 min 0,000 mm 0,0 UV-I 0 W/m² 1,7 °C 7,0 °C 0,0 km/h (0 Bft)
01.04.2017 04:48 6,2 °C 6,9 °C 72 % 1011,6 hPa 0,0 mm 1,6 km/h (1 Bft) S-SW 202 ° 0 min 0,000 mm 0,0 UV-I 0 W/m² 1,5 °C 6,2 °C 3,2 km/h (1 Bft)
01.04.2017 04:49 5,6 °C 6,1 °C 74 % 1011,6 hPa 0,0 mm 3,2 km/h (1 Bft) S-SO 157 ° 0 min 0,000 mm 0,0 UV-I 0 W/m² 1,3 °C 5,6 °C 4,8 km/h (1 Bft)
01.04.2017 04:50 5,8 °C 5,8 °C 75 % 1011,6 hPa 0,0 mm 3,2 km/h (1 Bft) S-SO 157 ° 0 min 0,000 mm 0,0 UV-I 0 W/m² 1,7 °C 5,8 °C 6,4 km/h (2 Bft)
01.04.2017 04:51 6,2 °C 6,2 °C 74 % 1011,6 hPa 0,0 mm 3,2 km/h (1 Bft) S-SO 157 ° 0 min 0,000 mm 0,0 UV-I 0 W/m² 1,9 °C 6,2 °C 6,4 km/h (2 Bft)
01.04.2017 04:52 6,7 °C 6,7 °C 71 % 1011,6 hPa 0,0 mm 3,2 km/h (1 Bft) S-SO 157 ° 0 min 0,000 mm 0,0 UV-I 0 W/m² 1,8 °C 6,7 °C 6,4 km/h (2 Bft)
01.04.2017 04:53 7,2 °C 7,2 °C 70 % 1011,6 hPa 0,0 mm 4,8 km/h (1 Bft) S-SO 157 ° 0 min 0,000 mm 0,0 UV-I 0 W/m² 2,1 °C 6,7 °C 8,0 km/h (2 Bft)
01.04.2017 04:54 7,6 °C 7,6 °C 69 % 1011,6 hPa 0,0 mm 4,8 km/h (1 Bft) S-SO 157 ° 0 min 0,000 mm 0,0 UV-I 0 W/m² 2,3 °C 7,1 °C 6,4 km/h (2 Bft)
01.04.2017 04:55 7,9 °C 7,9 °C 68 % 1011,6 hPa 0,0 mm 1,6 km/h (1 Bft) S-SO 157 ° 0 min 0,000 mm 0,0 UV-I 0 W/m² 2,4 °C 7,9 °C 6,4 km/h (2 Bft)
01.04.2017 04:56 8,1 °C 8,1 °C 67 % 1011,6 hPa 0,0 mm 0,0 km/h (0 Bft) S-SO 157 ° 0 min 0,000 mm 0,0 UV-I 0 W/m² 2,3 °C 8,1 °C 4,8 km/h (1 Bft)
01.04.2017 04:57 8,1 °C 8,2 °C 67 % 1011,6 hPa 0,0 mm 3,2 km/h (1 Bft) S-SO 157 ° 0 min 0,000 mm 0,0 UV-I 0 W/m² 2,3 °C 8,1 °C 4,8 km/h (1 Bft)
01.04.2017 04:58 7,4 °C 7,9 °C 69 % 1011,6 hPa 0,0 mm 0,0 km/h (0 Bft) W 270 ° 0 min 0,000 mm 0,0 UV-I 0 W/m² 2,1 °C 7,4 °C 3,2 km/h (1 Bft)
01.04.2017 04:59 6,9 °C 7,3 °C 71 % 1011,6 hPa 0,0 mm 1,6 km/h (1 Bft) W 270 ° 0 min 0,000 mm 0,0 UV-I 0 W/m² 2,0 °C 6,9 °C 3,2 km/h (1 Bft)
01.04.2017 05:00 6,7 °C 6,9 °C 72 % 1011,5 hPa 0,0 mm 3,2 km/h (1 Bft) S-SW 202 ° 0 min 0,025 mm 0,0 UV-I 0 W/m² 2,0 °C 6,7 °C 4,8 km/h (1 Bft)
01.04.2017 05:01 6,8 °C 6,8 °C 71 % 1011,5 hPa 0,0 mm 3,2 km/h (1 Bft) S 180 ° 0 min 0,000 mm 0,0 UV-I 0 W/m² 1,9 °C 6,8 °C 4,8 km/h (1 Bft)
01.04.2017 05:02 7,1 °C 7,1 °C 71 % 1011,6 hPa 0,0 mm 1,6 km/h (1 Bft) S 180 ° 0 min 0,000 mm 0,0 UV-I 0 W/m² 2,2 °C 7,1 °C 3,2 km/h (1 Bft)
01.04.2017 05:03 7,3 °C 7,3 °C 70 % 1011,5 hPa 0,0 mm 0,0 km/h (0 Bft) S 180 ° 0 min 0,000 mm 0,0 UV-I 0 W/m² 2,2 °C 7,3 °C 1,6 km/h (1 Bft)
01.04.2017 05:04 7,6 °C 7,6 °C 69 % 1011,5 hPa 0,0 mm 1,6 km/h (1 Bft) S 180 ° 0 min 0,000 mm 0,0 UV-I 0 W/m² 2,3 °C 7,6 °C 3,2 km/h (1 Bft)
01.04.2017 05:05 7,3 °C 7,6 °C 70 % 1011,5 hPa 0,0 mm 3,2 km/h (1 Bft) S 180 ° 0 min 0,000 mm 0,0 UV-I 0 W/m² 2,2 °C 7,3 °C 3,2 km/h (1 Bft)
01.04.2017 05:06 7,0 °C 7,3 °C 71 % 1011,5 hPa 0,0 mm 3,2 km/h (1 Bft) S 180 ° 0 min 0,000 mm 0,0 UV-I 0 W/m² 2,1 °C 7,0 °C 3,2 km/h (1 Bft)
01.04.2017 05:07 6,4 °C 6,9 °C 72 % 1011,5 hPa 0,0 mm 0,0 km/h (0 Bft) S 180 ° 0 min 0,000 mm 0,0 UV-I 0 W/m² 1,7 °C 6,4 °C 1,6 km/h (1 Bft)
01.04.2017 05:08 5,9 °C 6,3 °C 73 % 1011,5 hPa 0,0 mm 1,6 km/h (1 Bft) S 180 ° 0 min 0,000 mm 0,0 UV-I 0 W/m² 1,4 °C 5,9 °C 1,6 km/h (1 Bft)
01.04.2017 05:09 5,6 °C 5,9 °C 75 % 1011,5 hPa 0,0 mm 1,6 km/h (1 Bft) S 180 ° 0 min 0,000 mm 0,0 UV-I 0 W/m² 1,5 °C 5,6 °C 3,2 km/h (1 Bft)
01.04.2017 05:10 5,5 °C 5,6 °C 76 % 1011,5 hPa 0,0 mm 1,6 km/h (1 Bft) S 180 ° 0 min 0,000 mm 0,0 UV-I 0 W/m² 1,6 °C 5,5 °C 3,2 km/h (1 Bft)
01.04.2017 05:11 5,4 °C 5,5 °C 77 % 1011,5 hPa 0,0 mm 0,0 km/h (0 Bft) S 180 ° 0 min 0,000 mm 0,0 UV-I 0 W/m² 1,7 °C 5,4 °C 1,6 km/h (1 Bft)
01.04.2017 05:12 5,4 °C 5,4 °C 77 % 1011,4 hPa 0,0 mm 3,2 km/h (1 Bft) S 180 ° 0 min 0,000 mm 0,0 UV-I 0 W/m² 1,7 °C 5,4 °C 3,2 km/h (1 Bft)
01.04.2017 05:13 5,7 °C 5,7 °C 76 % 1011,4 hPa 0,0 mm 3,2 km/h (1 Bft) S 180 ° 0 min 0,000 mm 0,0 UV-I 0 W/m² 1,8 °C 5,7 °C 6,4 km/h (2 Bft)
01.04.2017 05:14 6,1 °C 6,1 °C 75 % 1011,4 hPa 0,0 mm 1,6 km/h (1 Bft) S 180 ° 0 min 0,000 mm 0,0 UV-I 0 W/m² 2,0 °C 6,1 °C 1,6 km/h (1 Bft)
01.04.2017 05:15 6,3 °C 6,3 °C 74 % 1011,4 hPa 0,0 mm 1,6 km/h (1 Bft) S 180 ° 0 min 0,000 mm 0,0 UV-I 0 W/m² 2,0 °C 6,3 °C 3,2 km/h (1 Bft)
01.04.2017 05:16 6,3 °C 6,3 °C 74 % 1011,4 hPa 0,0 mm 1,6 km/h (1 Bft) S 180 ° 0 min 0,000 mm 0,0 UV-I 0 W/m² 2,0 °C 6,3 °C 3,2 km/h (1 Bft)
01.04.2017 05:17 6,1 °C 6,3 °C 75 % 1011,4 hPa 0,0 mm 0,0 km/h (0 Bft) S 180 ° 0 min 0,000 mm 0,0 UV-I 0 W/m² 2,0 °C 6,1 °C 1,6 km/h (1 Bft)
01.04.2017 05:18 6,0 °C 6,1 °C 75 % 1011,4 hPa 0,0 mm 0,0 km/h (0 Bft) N 0 ° 0 min 0,000 mm 0,0 UV-I 0 W/m² 1,9 °C 6,0 °C 0,0 km/h (0 Bft)
01.04.2017 05:19 5,9 °C 5,9 °C 75 % 1011,4 hPa 0,0 mm 0,0 km/h (0 Bft) N 0 ° 0 min 0,000 mm 0,0 UV-I 0 W/m² 1,8 °C 5,9 °C 0,0 km/h (0 Bft)
01.04.2017 05:20 5,7 °C 5,9 °C 75 % 1011,4 hPa 0,0 mm 0,0 km/h (0 Bft) N 0 ° 0 min 0,000 mm 0,0 UV-I 0 W/m² 1,6 °C 5,7 °C 0,0 km/h (0 Bft)
01.04.2017 05:21 5,5 °C 5,7 °C 76 % 1011,4 hPa 0,0 mm 0,0 km/h (0 Bft) N 0 ° 0 min 0,000 mm 0,0 UV-I 0 W/m² 1,6 °C 5,5 °C 0,0 km/h (0 Bft)
01.04.2017 05:22 5,2 °C 5,4 °C 77 % 1011,3 hPa 0,0 mm 0,0 km/h (0 Bft) N 0 ° 0 min 0,000 mm 0,0 UV-I 0 W/m² 1,5 °C 5,2 °C 0,0 km/h (0 Bft)
01.04.2017 05:23 5,1 °C 5,2 °C 78 % 1011,4 hPa 0,0 mm 0,0 km/h (0 Bft) S 180 ° 0 min 0,000 mm 0,0 UV-I 0 W/m² 1,6 °C 5,1 °C 1,6 km/h (1 Bft)
01.04.2017 05:24 4,9 °C 5,1 °C 78 % 1011,3 hPa 0,0 mm 0,0 km/h (0 Bft) S 180 ° 0 min 0,000 mm 0,0 UV-I 0 W/m² 1,4 °C 4,9 °C 1,6 km/h (1 Bft)
01.04.2017 05:25 4,8 °C 4,9 °C 79 % 1011,3 hPa 0,0 mm 0,0 km/h (0 Bft) N 0 ° 0 min 0,000 mm 0,0 UV-I 0 W/m² 1,5 °C 4,8 °C 0,0 km/h (0 Bft)
01.04.2017 05:26 4,8 °C 4,8 °C 79 % 1011,3 hPa 0,0 mm 0,0 km/h (0 Bft) N 0 ° 0 min 0,000 mm 0,0 UV-I 0 W/m² 1,5 °C 4,8 °C 0,0 km/h (0 Bft)
01.04.2017 05:27 4,8 °C 4,8 °C 80 % 1011,3 hPa 0,0 mm 0,0 km/h (0 Bft) N 0 ° 0 min 0,000 mm 0,0 UV-I 0 W/m² 1,6 °C 4,8 °C 0,0 km/h (0 Bft)
01.04.2017 05:28 4,8 °C 4,8 °C 79 % 1011,4 hPa 0,0 mm 0,0 km/h (0 Bft) N 0 ° 0 min 0,000 mm 0,0 UV-I 0 W/m² 1,5 °C 4,8 °C 0,0 km/h (0 Bft)
01.04.2017 05:29 4,8 °C 4,8 °C 80 % 1011,4 hPa 0,0 mm 0,0 km/h (0 Bft) N 0 ° 0 min 0,000 mm 0,0 UV-I 0 W/m² 1,6 °C 4,8 °C 0,0 km/h (0 Bft)
01.04.2017 05:30 4,9 °C 4,9 °C 80 % 1011,3 hPa 0,0 mm 0,0 km/h (0 Bft) N 0 ° 0 min 0,000 mm 0,0 UV-I 0 W/m² 1,7 °C 4,9 °C 0,0 km/h (0 Bft)
01.04.2017 05:31 5,0 °C 5,0 °C 79 % 1011,3 hPa 0,0 mm 0,0 km/h (0 Bft) N 0 ° 0 min 0,000 mm 0,0 UV-I 0 W/m² 1,7 °C 5,0 °C 0,0 km/h (0 Bft)
01.04.2017 05:32 5,0 °C 5,1 °C 79 % 1011,3 hPa 0,0 mm 0,0 km/h (0 Bft) N 0 ° 0 min 0,000 mm 0,0 UV-I 0 W/m² 1,7 °C 5,0 °C 0,0 km/h (0 Bft)
01.04.2017 05:33 5,0 °C 5,0 °C 79 % 1011,3 hPa 0,0 mm 0,0 km/h (0 Bft) N 0 ° 0 min 0,000 mm 0,0 UV-I 0 W/m² 1,7 °C 5,0 °C 0,0 km/h (0 Bft)
01.04.2017 05:34 4,9 °C 5,0 °C 79 % 1011,3 hPa 0,0 mm 0,0 km/h (0 Bft) N 0 ° 0 min 0,000 mm 0,0 UV-I 0 W/m² 1,6 °C 4,9 °C 0,0 km/h (0 Bft)
01.04.2017 05:35 5,0 °C 5,0 °C 79 % 1011,3 hPa 0,0 mm 0,0 km/h (0 Bft) S 180 ° 0 min 0,000 mm 0,0 UV-I 0 W/m² 1,7 °C 5,0 °C 1,6 km/h (1 Bft)
01.04.2017 05:36 5,1 °C 5,2 °C 79 % 1011,2 hPa 0,0 mm 0,0 km/h (0 Bft) S 180 ° 0 min 0,000 mm 0,0 UV-I 0 W/m² 1,8 °C 5,1 °C 1,6 km/h (1 Bft)
01.04.2017 05:37 5,2 °C 5,2 °C 79 % 1011,2 hPa 0,0 mm 0,0 km/h (0 Bft) N 0 ° 0 min 0,000 mm 0,0 UV-I 0 W/m² 1,9 °C 5,2 °C 0,0 km/h (0 Bft)
01.04.2017 05:38 5,3 °C 5,3 °C 79 % 1011,2 hPa 0,0 mm 0,0 km/h (0 Bft) S 180 ° 0 min 0,000 mm 0,0 UV-I 0 W/m² 2,0 °C 5,3 °C 1,6 km/h (1 Bft)
01.04.2017 05:39 5,3 °C 5,3 °C 78 % 1011,2 hPa 0,0 mm 0,0 km/h (0 Bft) S 180 ° 0 min 0,000 mm 0,0 UV-I 0 W/m² 1,8 °C 5,3 °C 1,6 km/h (1 Bft)
01.04.2017 05:40 5,3 °C 5,3 °C 78 % 1011,2 hPa 0,0 mm 0,0 km/h (0 Bft) N 0 ° 0 min 0,000 mm 0,0 UV-I 0 W/m² 1,8 °C 5,3 °C 0,0 km/h (0 Bft)
01.04.2017 05:41 5,2 °C 5,3 °C 78 % 1011,2 hPa 0,0 mm 1,6 km/h (1 Bft) S 180 ° 0 min 0,000 mm 0,0 UV-I 0 W/m² 1,7 °C 5,2 °C 3,2 km/h (1 Bft)
01.04.2017 05:42 5,0 °C 5,2 °C 78 % 1011,2 hPa 0,0 mm 1,6 km/h (1 Bft) S 180 ° 0 min 0,000 mm 0,0 UV-I 0 W/m² 1,5 °C 5,0 °C 1,6 km/h (1 Bft)
01.04.2017 05:43 4,8 °C 4,9 °C 79 % 1011,2 hPa 0,0 mm 1,6 km/h (1 Bft) S 180 ° 0 min 0,000 mm 0,0 UV-I 0 W/m² 1,5 °C 4,8 °C 1,6 km/h (1 Bft)
01.04.2017 05:44 4,7 °C 4,8 °C 79 % 1011,2 hPa 0,0 mm 0,0 km/h (0 Bft) N 0 ° 0 min 0,000 mm 0,0 UV-I 0 W/m² 1,4 °C 4,7 °C 0,0 km/h (0 Bft)
01.04.2017 05:45 4,5 °C 4,7 °C 80 % 1011,3 hPa 0,0 mm 0,0 km/h (0 Bft) N 0 ° 0 min 0,000 mm 0,0 UV-I 0 W/m² 1,4 °C 4,5 °C 0,0 km/h (0 Bft)
01.04.2017 05:46 4,3 °C 4,5 °C 80 % 1011,2 hPa 0,0 mm 0,0 km/h (0 Bft) N 0 ° 0 min 0,000 mm 0,0 UV-I 0 W/m² 1,2 °C 4,3 °C 0,0 km/h (0 Bft)
01.04.2017 05:47 4,2 °C 4,3 °C 81 % 1011,2 hPa 0,0 mm 0,0 km/h (0 Bft) N 0 ° 0 min 0,000 mm 0,0 UV-I 0 W/m² 1,2 °C 4,2 °C 0,0 km/h (0 Bft)
01.04.2017 05:48 4,1 °C 4,2 °C 81 % 1011,2 hPa 0,0 mm 0,0 km/h (0 Bft) N 0 ° 0 min 0,000 mm 0,0 UV-I 0 W/m² 1,1 °C 4,1 °C 0,0 km/h (0 Bft)
01.04.2017 05:49 3,9 °C 4,1 °C 82 % 1011,2 hPa 0,0 mm 0,0 km/h (0 Bft) N 0 ° 0 min 0,000 mm 0,0 UV-I 0 W/m² 1,1 °C 3,9 °C 0,0 km/h (0 Bft)
01.04.2017 05:50 3,9 °C 4,0 °C 82 % 1011,3 hPa 0,0 mm 0,0 km/h (0 Bft) N 0 ° 0 min 0,000 mm 0,0 UV-I 0 W/m² 1,1 °C 3,9 °C 0,0 km/h (0 Bft)
01.04.2017 05:51 4,0 °C 4,0 °C 83 % 1011,3 hPa 0,0 mm 0,0 km/h (0 Bft) N 0 ° 0 min 0,000 mm 0,0 UV-I 0 W/m² 1,4 °C 4,0 °C 0,0 km/h (0 Bft)
01.04.2017 05:52 4,1 °C 4,1 °C 83 % 1011,2 hPa 0,0 mm 0,0 km/h (0 Bft) N 0 ° 0 min 0,000 mm 0,0 UV-I 0 W/m² 1,5 °C 4,1 °C 0,0 km/h (0 Bft)
01.04.2017 05:53 4,2 °C 4,2 °C 84 % 1011,3 hPa 0,0 mm 0,0 km/h (0 Bft) N 0 ° 0 min 0,000 mm 0,0 UV-I 0 W/m² 1,7 °C 4,2 °C 0,0 km/h (0 Bft)
01.04.2017 05:54 4,4 °C 4,4 °C 83 % 1011,2 hPa 0,0 mm 1,6 km/h (1 Bft) S 180 ° 0 min 0,000 mm 0,0 UV-I 0 W/m² 1,8 °C 4,4 °C 3,2 km/h (1 Bft)
01.04.2017 05:55 4,7 °C 4,7 °C 82 % 1011,2 hPa 0,0 mm 1,6 km/h (1 Bft) S 180 ° 0 min 0,000 mm 0,0 UV-I 0 W/m² 1,9 °C 4,7 °C 3,2 km/h (1 Bft)
01.04.2017 05:56 4,9 °C 4,9 °C 81 % 1011,3 hPa 0,0 mm 0,0 km/h (0 Bft) S 180 ° 0 min 0,000 mm 0,0 UV-I 0 W/m² 1,9 °C 4,9 °C 1,6 km/h (1 Bft)
01.04.2017 05:57 5,2 °C 5,2 °C 79 % 1011,3 hPa 0,0 mm 0,0 km/h (0 Bft) S 180 ° 0 min 0,000 mm 0,0 UV-I 0 W/m² 1,9 °C 5,2 °C 1,6 km/h (1 Bft)
01.04.2017 05:58 5,2 °C 5,2 °C 78 % 1011,3 hPa 0,0 mm 0,0 km/h (0 Bft) S 180 ° 0 min 0,000 mm 0,0 UV-I 0 W/m² 1,7 °C 5,2 °C 1,6 km/h (1 Bft)
01.04.2017 05:59 5,2 °C 5,2 °C 78 % 1011,3 hPa 0,0 mm 1,6 km/h (1 Bft) S 180 ° 0 min 0,000 mm 0,0 UV-I 0 W/m² 1,7 °C 5,2 °C 3,2 km/h (1 Bft)
01.04.2017 06:00 5,2 °C 5,2 °C 78 % 1011,3 hPa 0,0 mm 1,6 km/h (1 Bft) S 180 ° 0 min 0,025 mm 0,0 UV-I 0 W/m² 1,7 °C 5,2 °C 3,2 km/h (1 Bft)
01.04.2017 06:01 5,3 °C 5,3 °C 78 % 1011,2 hPa 0,0 mm 1,6 km/h (1 Bft) S 180 ° 0 min 0,000 mm 0,0 UV-I 0 W/m² 1,8 °C 5,3 °C 3,2 km/h (1 Bft)
01.04.2017 06:02 5,1 °C 5,3 °C 77 % 1011,2 hPa 0,0 mm 0,0 km/h (0 Bft) S 180 ° 0 min 0,000 mm 0,0 UV-I 0 W/m² 1,4 °C 5,1 °C 1,6 km/h (1 Bft)
01.04.2017 06:03 4,9 °C 5,1 °C 77 % 1011,2 hPa 0,0 mm 0,0 km/h (0 Bft) N 0 ° 0 min 0,000 mm 0,0 UV-I 0 W/m² 1,2 °C 4,9 °C 0,0 km/h (0 Bft)
01.04.2017 06:04 4,7 °C 4,8 °C 79 % 1011,2 hPa 0,0 mm 0,0 km/h (0 Bft) S 180 ° 0 min 0,000 mm 0,0 UV-I 0 W/m² 1,4 °C 4,7 °C 1,6 km/h (1 Bft)
01.04.2017 06:05 4,6 °C 4,7 °C 79 % 1011,2 hPa 0,0 mm 0,0 km/h (0 Bft) N 0 ° 0 min 0,000 mm 0,0 UV-I 0 W/m² 1,3 °C 4,6 °C 0,0 km/h (0 Bft)
01.04.2017 06:06 4,4 °C 4,6 °C 80 % 1011,2 hPa 0,0 mm 0,0 km/h (0 Bft) N 0 ° 0 min 0,000 mm 0,0 UV-I 0 W/m² 1,3 °C 4,4 °C 0,0 km/h (0 Bft)
01.04.2017 06:07 4,3 °C 4,4 °C 80 % 1011,2 hPa 0,0 mm 0,0 km/h (0 Bft) N 0 ° 0 min 0,000 mm 0,0 UV-I 0 W/m² 1,2 °C 4,3 °C 0,0 km/h (0 Bft)
01.04.2017 06:08 4,3 °C 4,3 °C 81 % 1011,2 hPa 0,0 mm 0,0 km/h (0 Bft) N 0 ° 0 min 0,000 mm 0,0 UV-I 0 W/m² 1,3 °C 4,3 °C 0,0 km/h (0 Bft)
01.04.2017 06:09 4,2 °C 4,3 °C 81 % 1011,2 hPa 0,0 mm 0,0 km/h (0 Bft) N 0 ° 0 min 0,000 mm 0,0 UV-I 0 W/m² 1,2 °C 4,2 °C 0,0 km/h (0 Bft)
01.04.2017 06:10 4,2 °C 4,2 °C 82 % 1011,1 hPa 0,0 mm 0,0 km/h (0 Bft) N 0 ° 0 min 0,000 mm 0,0 UV-I 0 W/m² 1,4 °C 4,2 °C 0,0 km/h (0 Bft)
01.04.2017 06:11 4,2 °C 4,2 °C 82 % 1011,1 hPa 0,0 mm 0,0 km/h (0 Bft) N 0 ° 0 min 0,000 mm 0,0 UV-I 0 W/m² 1,4 °C 4,2 °C 0,0 km/h (0 Bft)
01.04.2017 06:12 4,3 °C 4,3 °C 82 % 1011,1 hPa 0,0 mm 0,0 km/h (0 Bft) N 0 ° 0 min 0,000 mm 0,0 UV-I 0 W/m² 1,5 °C 4,3 °C 0,0 km/h (0 Bft)
01.04.2017 06:13 4,2 °C 4,3 °C 82 % 1011,1 hPa 0,0 mm 0,0 km/h (0 Bft) N 0 ° 0 min 0,000 mm 0,0 UV-I 0 W/m² 1,4 °C 4,2 °C 0,0 km/h (0 Bft)
01.04.2017 06:14 4,2 °C 4,2 °C 81 % 1011,1 hPa 0,0 mm 0,0 km/h (0 Bft) N 0 ° 0 min 0,000 mm 0,0 UV-I 0 W/m² 1,2 °C 4,2 °C 0,0 km/h (0 Bft)
01.04.2017 06:15 4,0 °C 4,2 °C 81 % 1011,1 hPa 0,0 mm 0,0 km/h (0 Bft) N 0 ° 0 min 0,000 mm 0,0 UV-I 0 W/m² 1,0 °C 4,0 °C 0,0 km/h (0 Bft)
01.04.2017 06:16 3,8 °C 4,0 °C 82 % 1011,1 hPa 0,0 mm 0,0 km/h (0 Bft) N 0 ° 0 min 0,000 mm 0,0 UV-I 0 W/m² 1,0 °C 3,8 °C 0,0 km/h (0 Bft)
01.04.2017 06:17 3,6 °C 3,8 °C 82 % 1011,1 hPa 0,0 mm 0,0 km/h (0 Bft) N 0 ° 0 min 0,000 mm 0,0 UV-I 0 W/m² 0,8 °C 3,6 °C 0,0 km/h (0 Bft)
01.04.2017 06:18 3,4 °C 3,6 °C 82 % 1011,1 hPa 0,0 mm 0,0 km/h (0 Bft) N 0 ° 0 min 0,000 mm 0,0 UV-I 0 W/m² 0,6 °C 3,4 °C 0,0 km/h (0 Bft)
01.04.2017 06:19 3,2 °C 3,3 °C 82 % 1011,1 hPa 0,0 mm 0,0 km/h (0 Bft) N 0 ° 0 min 0,000 mm 0,0 UV-I 0 W/m² 0,4 °C 3,2 °C 0,0 km/h (0 Bft)
01.04.2017 06:20 3,1 °C 3,2 °C 84 % 1011,1 hPa 0,0 mm 0,0 km/h (0 Bft) N 0 ° 0 min 0,000 mm 0,0 UV-I 0 W/m² 0,7 °C 3,1 °C 0,0 km/h (0 Bft)
01.04.2017 06:21 2,9 °C 3,0 °C 84 % 1011,1 hPa 0,0 mm 0,0 km/h (0 Bft) N 0 ° 0 min 0,000 mm 0,0 UV-I 0 W/m² 0,5 °C 2,9 °C 0,0 km/h (0 Bft)
01.04.2017 06:22 2,8 °C 2,9 °C 84 % 1011,1 hPa 0,0 mm 0,0 km/h (0 Bft) N 0 ° 0 min 0,000 mm 0,0 UV-I 0 W/m² 0,4 °C 2,8 °C 0,0 km/h (0 Bft)
01.04.2017 06:23 2,7 °C 2,8 °C 84 % 1011,1 hPa 0,0 mm 0,0 km/h (0 Bft) N 0 ° 0 min 0,000 mm 0,0 UV-I 0 W/m² 0,3 °C 2,7 °C 0,0 km/h (0 Bft)
01.04.2017 06:24 2,6 °C 2,7 °C 85 % 1011,1 hPa 0,0 mm 0,0 km/h (0 Bft) N 0 ° 0 min 0,000 mm 0,0 UV-I 0 W/m² 0,3 °C 2,6 °C 0,0 km/h (0 Bft)
01.04.2017 06:25 2,6 °C 2,6 °C 85 % 1011,1 hPa 0,0 mm 0,0 km/h (0 Bft) N 0 ° 0 min 0,000 mm 0,0 UV-I 0 W/m² 0,3 °C 2,6 °C 0,0 km/h (0 Bft)
01.04.2017 06:26 2,6 °C 2,6 °C 86 % 1011,1 hPa 0,0 mm 0,0 km/h (0 Bft) N 0 ° 0 min 0,000 mm 0,0 UV-I 0 W/m² 0,5 °C 2,6 °C 0,0 km/h (0 Bft)
01.04.2017 06:27 2,6 °C 2,6 °C 86 % 1011,1 hPa 0,0 mm 0,0 km/h (0 Bft) N 0 ° 0 min 0,000 mm 0,0 UV-I 0 W/m² 0,5 °C 2,6 °C 0,0 km/h (0 Bft)
01.04.2017 06:28 2,6 °C 2,6 °C 86 % 1011,0 hPa 0,0 mm 0,0 km/h (0 Bft) N 0 ° 0 min 0,000 mm 0,0 UV-I 0 W/m² 0,5 °C 2,6 °C 0,0 km/h (0 Bft)
01.04.2017 06:29 2,6 °C 2,6 °C 87 % 1011,1 hPa 0,0 mm 0,0 km/h (0 Bft) N 0 ° 0 min 0,000 mm 0,0 UV-I 0 W/m² 0,7 °C 2,6 °C 0,0 km/h (0 Bft)
01.04.2017 06:30 2,7 °C 2,7 °C 87 % 1011,1 hPa 0,0 mm 0,0 km/h (0 Bft) N 0 ° 0 min 0,000 mm 0,0 UV-I 0 W/m² 0,8 °C 2,7 °C 0,0 km/h (0 Bft)
01.04.2017 06:31 2,7 °C 2,8 °C 86 % 1011,1 hPa 0,0 mm 0,0 km/h (0 Bft) N 0 ° 0 min 0,000 mm 0,0 UV-I 0 W/m² 0,6 °C 2,7 °C 0,0 km/h (0 Bft)
01.04.2017 06:32 2,8 °C 2,8 °C 87 % 1011,1 hPa 0,0 mm 0,0 km/h (0 Bft) N 0 ° 0 min 0,000 mm 0,0 UV-I 0 W/m² 0,9 °C 2,8 °C 0,0 km/h (0 Bft)
01.04.2017 06:33 2,9 °C 2,9 °C 87 % 1011,1 hPa 0,0 mm 0,0 km/h (0 Bft) N 0 ° 0 min 0,000 mm 0,0 UV-I 0 W/m² 1,0 °C 2,9 °C 0,0 km/h (0 Bft)
01.04.2017 06:34 2,9 °C 2,9 °C 86 % 1011,1 hPa 0,0 mm 0,0 km/h (0 Bft) N 0 ° 0 min 0,000 mm 0,0 UV-I 0 W/m² 0,8 °C 2,9 °C 0,0 km/h (0 Bft)
01.04.2017 06:35 2,9 °C 2,9 °C 86 % 1011,1 hPa 0,0 mm 0,0 km/h (0 Bft) N 0 ° 0 min 0,000 mm 0,0 UV-I 0 W/m² 0,8 °C 2,9 °C 0,0 km/h (0 Bft)
01.04.2017 06:36 2,9 °C 2,9 °C 85 % 1011,1 hPa 0,0 mm 0,0 km/h (0 Bft) N 0 ° 0 min 0,000 mm 0,0 UV-I 0 W/m² 0,6 °C 2,9 °C 0,0 km/h (0 Bft)
01.04.2017 06:37 2,8 °C 2,9 °C 85 % 1011,1 hPa 0,0 mm 0,0 km/h (0 Bft) S 180 ° 0 min 0,000 mm 0,0 UV-I 0 W/m² 0,5 °C 2,8 °C 3,2 km/h (1 Bft)
01.04.2017 06:38 2,7 °C 2,8 °C 85 % 1011,1 hPa 0,0 mm 1,6 km/h (1 Bft) S 180 ° 0 min 0,000 mm 0,0 UV-I 0 W/m² 0,4 °C 2,7 °C 1,6 km/h (1 Bft)
01.04.2017 06:39 2,7 °C 2,7 °C 86 % 1011,1 hPa 0,0 mm 1,6 km/h (1 Bft) S 180 ° 0 min 0,000 mm 0,0 UV-I 0 W/m² 0,6 °C 2,7 °C 1,6 km/h (1 Bft)
01.04.2017 06:40 2,7 °C 2,7 °C 86 % 1011,1 hPa 0,0 mm 1,6 km/h (1 Bft) S 180 ° 0 min 0,000 mm 0,0 UV-I 0 W/m² 0,6 °C 2,7 °C 3,2 km/h (1 Bft)
01.04.2017 06:41 2,7 °C 2,7 °C 86 % 1011,1 hPa 0,0 mm 1,6 km/h (1 Bft) S 180 ° 0 min 0,000 mm 0,0 UV-I 0 W/m² 0,6 °C 2,7 °C 1,6 km/h (1 Bft)
01.04.2017 06:42 2,8 °C 2,8 °C 86 % 1011,1 hPa 0,0 mm 1,6 km/h (1 Bft) S 180 ° 0 min 0,000 mm 0,0 UV-I 0 W/m² 0,7 °C 2,8 °C 1,6 km/h (1 Bft)
01.04.2017 06:43 2,8 °C 2,8 °C 86 % 1011,1 hPa 0,0 mm 0,0 km/h (0 Bft) S 180 ° 0 min 0,000 mm 0,0 UV-I 0 W/m² 0,7 °C 2,8 °C 1,6 km/h (1 Bft)
01.04.2017 06:44 2,8 °C 2,8 °C 87 % 1011,1 hPa 0,0 mm 0,0 km/h (0 Bft) N 0 ° 0 min 0,000 mm 0,0 UV-I 0 W/m² 0,9 °C 2,8 °C 0,0 km/h (0 Bft)
01.04.2017 06:45 2,8 °C 2,8 °C 87 % 1011,1 hPa 0,0 mm 0,0 km/h (0 Bft) S 180 ° 0 min 0,000 mm 0,0 UV-I 0 W/m² 0,9 °C 2,8 °C 1,6 km/h (1 Bft)
01.04.2017 06:46 2,9 °C 2,9 °C 87 % 1011,1 hPa 0,0 mm 0,0 km/h (0 Bft) N 0 ° 0 min 0,000 mm 0,0 UV-I 0 W/m² 1,0 °C 2,9 °C 0,0 km/h (0 Bft)
01.04.2017 06:47 3,0 °C 3,0 °C 87 % 1011,1 hPa 0,0 mm 0,0 km/h (0 Bft) N 0 ° 0 min 0,000 mm 0,0 UV-I 0 W/m² 1,1 °C 3,0 °C 0,0 km/h (0 Bft)
01.04.2017 06:48 3,0 °C 3,0 °C 87 % 1011,1 hPa 0,0 mm 0,0 km/h (0 Bft) N 0 ° 0 min 0,000 mm 0,0 UV-I 0 W/m² 1,1 °C 3,0 °C 0,0 km/h (0 Bft)
01.04.2017 06:49 2,9 °C 3,0 °C 85 % 1011,1 hPa 0,0 mm 0,0 km/h (0 Bft) N 0 ° 0 min 0,000 mm 0,0 UV-I 0 W/m² 0,6 °C 2,9 °C 0,0 km/h (0 Bft)
01.04.2017 06:50 2,9 °C 2,9 °C 86 % 1011,2 hPa 0,0 mm 0,0 km/h (0 Bft) N 0 ° 0 min 0,000 mm 0,0 UV-I 0 W/m² 0,8 °C 2,9 °C 0,0 km/h (0 Bft)
01.04.2017 06:51 2,9 °C 2,9 °C 86 % 1011,1 hPa 0,0 mm 0,0 km/h (0 Bft) N 0 ° 0 min 0,000 mm 0,0 UV-I 0 W/m² 0,8 °C 2,9 °C 0,0 km/h (0 Bft)
01.04.2017 06:52 2,9 °C 2,9 °C 86 % 1011,1 hPa 0,0 mm 0,0 km/h (0 Bft) N 0 ° 0 min 0,000 mm 0,0 UV-I 0 W/m² 0,8 °C 2,9 °C 0,0 km/h (0 Bft)
01.04.2017 06:53 3,1 °C 3,1 °C 86 % 1011,1 hPa 0,0 mm 0,0 km/h (0 Bft) N 0 ° 0 min 0,000 mm 0,0 UV-I 0 W/m² 1,0 °C 3,1 °C 0,0 km/h (0 Bft)
01.04.2017 06:54 3,1 °C 3,2 °C 86 % 1011,1 hPa 0,0 mm 0,0 km/h (0 Bft) N 0 ° 0 min 0,000 mm 0,0 UV-I 0 W/m² 1,0 °C 3,1 °C 0,0 km/h (0 Bft)
01.04.2017 06:55 3,1 °C 3,2 °C 86 % 1011,1 hPa 0,0 mm 0,0 km/h (0 Bft) N 0 ° 0 min 0,000 mm 0,0 UV-I 5 W/m² 1,0 °C 3,1 °C 0,0 km/h (0 Bft)
01.04.2017 06:56 3,1 °C 3,1 °C 86 % 1011,1 hPa 0,0 mm 0,0 km/h (0 Bft) N 0 ° 0 min 0,000 mm 0,0 UV-I 5 W/m² 1,0 °C 3,1 °C 0,0 km/h (0 Bft)
01.04.2017 06:57 3,1 °C 3,1 °C 86 % 1011,1 hPa 0,0 mm 0,0 km/h (0 Bft) S 180 ° 0 min 0,000 mm 0,0 UV-I 5 W/m² 1,0 °C 3,1 °C 1,6 km/h (1 Bft)
01.04.2017 06:58 3,0 °C 3,1 °C 86 % 1011,1 hPa 0,0 mm 0,0 km/h (0 Bft) S 180 ° 0 min 0,000 mm 0,0 UV-I 5 W/m² 0,9 °C 3,0 °C 1,6 km/h (1 Bft)
01.04.2017 06:59 3,0 °C 3,0 °C 86 % 1011,1 hPa 0,0 mm 0,0 km/h (0 Bft) S 180 ° 0 min 0,000 mm 0,0 UV-I 5 W/m² 0,9 °C 3,0 °C 1,6 km/h (1 Bft)
01.04.2017 07:00 2,8 °C 2,9 °C 85 % 1011,1 hPa 0,0 mm 0,0 km/h (0 Bft) N 0 ° 0 min 0,000 mm 0,0 UV-I 7 W/m² 0,5 °C 2,8 °C 0,0 km/h (0 Bft)
01.04.2017 07:01 2,7 °C 2,8 °C 85 % 1011,1 hPa 0,0 mm 0,0 km/h (0 Bft) N 0 ° 0 min 0,000 mm 0,0 UV-I 7 W/m² 0,4 °C 2,7 °C 0,0 km/h (0 Bft)
01.04.2017 07:02 2,6 °C 2,6 °C 86 % 1011,1 hPa 0,0 mm 0,0 km/h (0 Bft) N 0 ° 0 min 0,000 mm 0,0 UV-I 7 W/m² 0,5 °C 2,6 °C 0,0 km/h (0 Bft)
01.04.2017 07:03 2,4 °C 2,5 °C 87 % 1011,1 hPa 0,0 mm 0,0 km/h (0 Bft) S 180 ° 0 min 0,000 mm 0,0 UV-I 7 W/m² 0,5 °C 2,4 °C 1,6 km/h (1 Bft)
01.04.2017 07:04 2,5 °C 2,5 °C 87 % 1011,1 hPa 0,0 mm 1,6 km/h (1 Bft) S 180 ° 0 min 0,000 mm 0,0 UV-I 9 W/m² 0,6 °C 2,5 °C 1,6 km/h (1 Bft)
01.04.2017 07:05 2,6 °C 2,6 °C 88 % 1011,1 hPa 0,0 mm 0,0 km/h (0 Bft) N 0 ° 0 min 0,000 mm 0,0 UV-I 9 W/m² 0,8 °C 2,6 °C 0,0 km/h (0 Bft)
01.04.2017 07:06 2,7 °C 2,7 °C 88 % 1011,1 hPa 0,0 mm 0,0 km/h (0 Bft) N 0 ° 0 min 0,000 mm 0,0 UV-I 11 W/m² 0,9 °C 2,7 °C 0,0 km/h (0 Bft)
01.04.2017 07:07 2,7 °C 2,7 °C 87 % 1011,1 hPa 0,0 mm 0,0 km/h (0 Bft) N 0 ° 0 min 0,000 mm 0,0 UV-I 11 W/m² 0,8 °C 2,7 °C 0,0 km/h (0 Bft)
01.04.2017 07:08 2,7 °C 2,7 °C 86 % 1011,1 hPa 0,0 mm 0,0 km/h (0 Bft) N 0 ° 0 min 0,000 mm 0,0 UV-I 11 W/m² 0,6 °C 2,7 °C 0,0 km/h (0 Bft)
01.04.2017 07:09 2,7 °C 2,7 °C 87 % 1011,1 hPa 0,0 mm 0,0 km/h (0 Bft) N 0 ° 0 min 0,000 mm 0,0 UV-I 12 W/m² 0,8 °C 2,7 °C 0,0 km/h (0 Bft)
01.04.2017 07:10 2,7 °C 2,7 °C 87 % 1011,0 hPa 0,0 mm 0,0 km/h (0 Bft) N 0 ° 0 min 0,000 mm 0,0 UV-I 12 W/m² 0,8 °C 2,7 °C 0,0 km/h (0 Bft)
01.04.2017 07:11 2,8 °C 2,8 °C 87 % 1011,0 hPa 0,0 mm 0,0 km/h (0 Bft) N 0 ° 0 min 0,000 mm 0,0 UV-I 12 W/m² 0,9 °C 2,8 °C 0,0 km/h (0 Bft)
01.04.2017 07:12 2,9 °C 2,9 °C 87 % 1011,1 hPa 0,0 mm 0,0 km/h (0 Bft) S 180 ° 0 min 0,000 mm 0,0 UV-I 12 W/m² 1,0 °C 2,9 °C 1,6 km/h (1 Bft)
01.04.2017 07:13 2,9 °C 2,9 °C 87 % 1011,0 hPa 0,0 mm 0,0 km/h (0 Bft) S 180 ° 0 min 0,000 mm 0,0 UV-I 14 W/m² 1,0 °C 2,9 °C 1,6 km/h (1 Bft)
01.04.2017 07:14 2,9 °C 2,9 °C 86 % 1011,1 hPa 0,0 mm 0,0 km/h (0 Bft) N 0 ° 0 min 0,000 mm 0,0 UV-I 14 W/m² 0,8 °C 2,9 °C 0,0 km/h (0 Bft)
01.04.2017 07:15 2,9 °C 2,9 °C 86 % 1011,0 hPa 0,0 mm 0,0 km/h (0 Bft) N 0 ° 0 min 0,000 mm 0,0 UV-I 16 W/m² 0,8 °C 2,9 °C 0,0 km/h (0 Bft)
01.04.2017 07:16 2,8 °C 2,9 °C 86 % 1011,1 hPa 0,0 mm 0,0 km/h (0 Bft) N 0 ° 0 min 0,000 mm 0,0 UV-I 16 W/m² 0,7 °C 2,8 °C 0,0 km/h (0 Bft)
01.04.2017 07:17 2,8 °C 2,8 °C 86 % 1011,1 hPa 0,0 mm 0,0 km/h (0 Bft) N 0 ° 0 min 0,000 mm 0,0 UV-I 16 W/m² 0,7 °C 2,8 °C 0,0 km/h (0 Bft)
01.04.2017 07:18 2,7 °C 2,7 °C 86 % 1011,0 hPa 0,0 mm 0,0 km/h (0 Bft) N 0 ° 0 min 0,000 mm 0,0 UV-I 16 W/m² 0,6 °C 2,7 °C 0,0 km/h (0 Bft)
01.04.2017 07:19 2,7 °C 2,7 °C 86 % 1011,1 hPa 0,0 mm 0,0 km/h (0 Bft) N 0 ° 0 min 0,000 mm 0,0 UV-I 18 W/m² 0,6 °C 2,7 °C 0,0 km/h (0 Bft)
01.04.2017 07:20 2,7 °C 2,7 °C 87 % 1011,0 hPa 0,0 mm 0,0 km/h (0 Bft) N 0 ° 0 min 0,000 mm 0,0 UV-I 18 W/m² 0,8 °C 2,7 °C 0,0 km/h (0 Bft)
01.04.2017 07:21 2,7 °C 2,8 °C 87 % 1011,0 hPa 0,0 mm 0,0 km/h (0 Bft) N 0 ° 0 min 0,000 mm 0,0 UV-I 19 W/m² 0,8 °C 2,7 °C 0,0 km/h (0 Bft)
01.04.2017 07:22 2,8 °C 2,8 °C 86 % 1011,0 hPa 0,0 mm 0,0 km/h (0 Bft) N 0 ° 0 min 0,000 mm 0,0 UV-I 19 W/m² 0,7 °C 2,8 °C 0,0 km/h (0 Bft)
01.04.2017 07:23 2,8 °C 2,8 °C 86 % 1011,0 hPa 0,0 mm 0,0 km/h (0 Bft) N 0 ° 0 min 0,000 mm 0,0 UV-I 19 W/m² 0,7 °C 2,8 °C 0,0 km/h (0 Bft)
01.04.2017 07:24 2,8 °C 2,8 °C 86 % 1011,0 hPa 0,0 mm 0,0 km/h (0 Bft) N 0 ° 0 min 0,000 mm 0,0 UV-I 19 W/m² 0,7 °C 2,8 °C 0,0 km/h (0 Bft)
01.04.2017 07:25 2,7 °C 2,8 °C 86 % 1011,0 hPa 0,0 mm 0,0 km/h (0 Bft) N 0 ° 0 min 0,000 mm 0,0 UV-I 21 W/m² 0,6 °C 2,7 °C 0,0 km/h (0 Bft)
01.04.2017 07:26 2,7 °C 2,7 °C 86 % 1011,0 hPa 0,0 mm 0,0 km/h (0 Bft) N 0 ° 0 min 0,000 mm 0,0 UV-I 21 W/m² 0,6 °C 2,7 °C 0,0 km/h (0 Bft)
01.04.2017 07:27 2,7 °C 2,7 °C 86 % 1011,0 hPa 0,0 mm 0,0 km/h (0 Bft) N 0 ° 0 min 0,000 mm 0,0 UV-I 21 W/m² 0,6 °C 2,7 °C 0,0 km/h (0 Bft)
01.04.2017 07:28 2,8 °C 2,8 °C 87 % 1011,0 hPa 0,0 mm 0,0 km/h (0 Bft) N 0 ° 0 min 0,000 mm 0,0 UV-I 23 W/m² 0,9 °C 2,8 °C 0,0 km/h (0 Bft)
01.04.2017 07:29 2,7 °C 2,7 °C 87 % 1011,0 hPa 0,0 mm 0,0 km/h (0 Bft) N 0 ° 0 min 0,000 mm 0,0 UV-I 23 W/m² 0,8 °C 2,7 °C 0,0 km/h (0 Bft)
01.04.2017 07:30 2,8 °C 2,8 °C 87 % 1011,0 hPa 0,0 mm 0,0 km/h (0 Bft) S 180 ° 0 min 0,000 mm 0,0 UV-I 23 W/m² 0,9 °C 2,8 °C 1,6 km/h (1 Bft)
01.04.2017 07:31 2,9 °C 2,9 °C 88 % 1011,0 hPa 0,0 mm 0,0 km/h (0 Bft) N 0 ° 0 min 0,000 mm 0,0 UV-I 23 W/m² 1,1 °C 2,9 °C 0,0 km/h (0 Bft)
01.04.2017 07:32 2,9 °C 2,9 °C 87 % 1011,0 hPa 0,0 mm 1,6 km/h (1 Bft) S 180 ° 0 min 0,000 mm 0,0 UV-I 25 W/m² 1,0 °C 2,9 °C 3,2 km/h (1 Bft)
01.04.2017 07:33 2,9 °C 2,9 °C 85 % 1011,0 hPa 0,0 mm 0,0 km/h (0 Bft) S 180 ° 0 min 0,000 mm 0,0 UV-I 25 W/m² 0,6 °C 2,9 °C 1,6 km/h (1 Bft)
01.04.2017 07:34 2,8 °C 2,9 °C 85 % 1011,0 hPa 0,0 mm 0,0 km/h (0 Bft) N 0 ° 0 min 0,000 mm 0,0 UV-I 25 W/m² 0,5 °C 2,8 °C 0,0 km/h (0 Bft)
01.04.2017 07:35 2,8 °C 2,8 °C 86 % 1011,0 hPa 0,0 mm 0,0 km/h (0 Bft) N 0 ° 0 min 0,000 mm 0,0 UV-I 26 W/m² 0,7 °C 2,8 °C 0,0 km/h (0 Bft)
01.04.2017 07:36 2,8 °C 2,8 °C 87 % 1011,0 hPa 0,0 mm 0,0 km/h (0 Bft) N 0 ° 0 min 0,000 mm 0,0 UV-I 26 W/m² 0,9 °C 2,8 °C 0,0 km/h (0 Bft)
01.04.2017 07:37 2,9 °C 2,9 °C 87 % 1011,0 hPa 0,0 mm 0,0 km/h (0 Bft) N 0 ° 0 min 0,000 mm 0,0 UV-I 26 W/m² 1,0 °C 2,9 °C 0,0 km/h (0 Bft)
01.04.2017 07:38 2,9 °C 2,9 °C 87 % 1011,0 hPa 0,0 mm 0,0 km/h (0 Bft) N 0 ° 0 min 0,000 mm 0,0 UV-I 26 W/m² 1,0 °C 2,9 °C 0,0 km/h (0 Bft)
01.04.2017 07:39 3,0 °C 3,0 °C 87 % 1011,0 hPa 0,0 mm 0,0 km/h (0 Bft) N 0 ° 0 min 0,000 mm 0,0 UV-I 28 W/m² 1,1 °C 3,0 °C 0,0 km/h (0 Bft)
01.04.2017 07:40 2,9 °C 3,0 °C 87 % 1010,9 hPa 0,0 mm 0,0 km/h (0 Bft) N 0 ° 0 min 0,000 mm 0,0 UV-I 28 W/m² 1,0 °C 2,9 °C 0,0 km/h (0 Bft)
01.04.2017 07:41 2,9 °C 3,0 °C 87 % 1010,9 hPa 0,0 mm 0,0 km/h (0 Bft) N 0 ° 0 min 0,000 mm 0,0 UV-I 28 W/m² 1,0 °C 2,9 °C 0,0 km/h (0 Bft)
01.04.2017 07:42 2,9 °C 3,0 °C 86 % 1010,9 hPa 0,0 mm 0,0 km/h (0 Bft) S 180 ° 0 min 0,000 mm 0,0 UV-I 28 W/m² 0,8 °C 2,9 °C 1,6 km/h (1 Bft)
01.04.2017 07:43 2,9 °C 2,9 °C 86 % 1010,9 hPa 0,0 mm 0,0 km/h (0 Bft) S 180 ° 0 min 0,000 mm 0,0 UV-I 30 W/m² 0,8 °C 2,9 °C 1,6 km/h (1 Bft)
01.04.2017 07:44 2,9 °C 3,0 °C 86 % 1010,9 hPa 0,0 mm 1,6 km/h (1 Bft) S 180 ° 0 min 0,000 mm 0,0 UV-I 30 W/m² 0,8 °C 2,9 °C 3,2 km/h (1 Bft)
01.04.2017 07:45 3,0 °C 3,0 °C 86 % 1010,9 hPa 0,0 mm 3,2 km/h (1 Bft) S 180 ° 0 min 0,000 mm 0,0 UV-I 30 W/m² 0,9 °C 3,0 °C 3,2 km/h (1 Bft)
01.04.2017 07:46 3,2 °C 3,2 °C 87 % 1010,9 hPa 0,0 mm 1,6 km/h (1 Bft) S 180 ° 0 min 0,000 mm 0,0 UV-I 32 W/m² 1,2 °C 3,2 °C 1,6 km/h (1 Bft)
01.04.2017 07:47 3,3 °C 3,3 °C 87 % 1010,9 hPa 0,0 mm 0,0 km/h (0 Bft) N 0 ° 0 min 0,000 mm 0,0 UV-I 32 W/m² 1,3 °C 3,3 °C 0,0 km/h (0 Bft)
01.04.2017 07:48 3,3 °C 3,3 °C 86 % 1010,9 hPa 0,0 mm 0,0 km/h (0 Bft) N 0 ° 0 min 0,000 mm 0,0 UV-I 32 W/m² 1,2 °C 3,3 °C 0,0 km/h (0 Bft)
01.04.2017 07:49 3,4 °C 3,4 °C 86 % 1010,9 hPa 0,0 mm 0,0 km/h (0 Bft) N 0 ° 0 min 0,000 mm 0,0 UV-I 32 W/m² 1,3 °C 3,4 °C 0,0 km/h (0 Bft)
01.04.2017 07:50 3,4 °C 3,4 °C 86 % 1010,8 hPa 0,0 mm 0,0 km/h (0 Bft) N 0 ° 0 min 0,000 mm 0,0 UV-I 33 W/m² 1,3 °C 3,4 °C 0,0 km/h (0 Bft)
01.04.2017 07:51 3,6 °C 3,6 °C 87 % 1010,8 hPa 0,0 mm 0,0 km/h (0 Bft) N 0 ° 0 min 0,000 mm 0,0 UV-I 33 W/m² 1,6 °C 3,6 °C 0,0 km/h (0 Bft)
01.04.2017 07:52 3,6 °C 3,6 °C 86 % 1010,8 hPa 0,0 mm 0,0 km/h (0 Bft) N 0 ° 0 min 0,000 mm 0,0 UV-I 33 W/m² 1,5 °C 3,6 °C 0,0 km/h (0 Bft)
01.04.2017 07:53 3,7 °C 3,7 °C 86 % 1010,8 hPa 0,0 mm 0,0 km/h (0 Bft) S 180 ° 0 min 0,000 mm 0,0 UV-I 33 W/m² 1,6 °C 3,7 °C 3,2 km/h (1 Bft)
01.04.2017 07:54 3,8 °C 3,8 °C 85 % 1010,9 hPa 0,0 mm 1,6 km/h (1 Bft) S 180 ° 0 min 0,000 mm 0,0 UV-I 33 W/m² 1,5 °C 3,8 °C 3,2 km/h (1 Bft)
01.04.2017 07:55 3,8 °C 3,8 °C 85 % 1010,8 hPa 0,0 mm 0,0 km/h (0 Bft) N 0 ° 0 min 0,000 mm 0,0 UV-I 35 W/m² 1,5 °C 3,8 °C 0,0 km/h (0 Bft)
01.04.2017 07:56 3,7 °C 3,8 °C 84 % 1010,8 hPa 0,0 mm 0,0 km/h (0 Bft) S 180 ° 0 min 0,000 mm 0,0 UV-I 35 W/m² 1,3 °C 3,7 °C 1,6 km/h (1 Bft)
01.04.2017 07:57 3,6 °C 3,7 °C 85 % 1010,8 hPa 0,0 mm 0,0 km/h (0 Bft) S 180 ° 0 min 0,000 mm 0,0 UV-I 35 W/m² 1,3 °C 3,6 °C 1,6 km/h (1 Bft)
01.04.2017 07:58 3,6 °C 3,6 °C 85 % 1010,8 hPa 0,0 mm 0,0 km/h (0 Bft) S 180 ° 0 min 0,000 mm 0,0 UV-I 35 W/m² 1,3 °C 3,6 °C 1,6 km/h (1 Bft)
01.04.2017 07:59 3,6 °C 3,6 °C 85 % 1010,8 hPa 0,0 mm 0,0 km/h (0 Bft) S 180 ° 0 min 0,000 mm 0,0 UV-I 37 W/m² 1,3 °C 3,6 °C 1,6 km/h (1 Bft)
01.04.2017 08:00 3,5 °C 3,6 °C 85 % 1010,8 hPa 0,0 mm 0,0 km/h (0 Bft) S 180 ° 0 min 0,000 mm 0,0 UV-I 37 W/m² 1,2 °C 3,5 °C 1,6 km/h (1 Bft)
01.04.2017 08:01 3,5 °C 3,5 °C 86 % 1010,9 hPa 0,0 mm 0,0 km/h (0 Bft) N 0 ° 0 min 0,000 mm 0,0 UV-I 37 W/m² 1,4 °C 3,5 °C 0,0 km/h (0 Bft)
01.04.2017 08:02 3,6 °C 3,6 °C 86 % 1010,8 hPa 0,0 mm 0,0 km/h (0 Bft) S 180 ° 0 min 0,000 mm 0,0 UV-I 37 W/m² 1,5 °C 3,6 °C 1,6 km/h (1 Bft)
01.04.2017 08:03 3,6 °C 3,6 °C 86 % 1010,8 hPa 0,0 mm 0,0 km/h (0 Bft) S 180 ° 0 min 0,000 mm 0,0 UV-I 39 W/m² 1,5 °C 3,6 °C 1,6 km/h (1 Bft)
01.04.2017 08:04 3,7 °C 3,7 °C 86 % 1010,7 hPa 0,0 mm 0,0 km/h (0 Bft) S 180 ° 0 min 0,000 mm 0,0 UV-I 39 W/m² 1,6 °C 3,7 °C 1,6 km/h (1 Bft)
01.04.2017 08:05 3,7 °C 3,7 °C 85 % 1010,8 hPa 0,0 mm 0,0 km/h (0 Bft) S 180 ° 0 min 0,000 mm 0,0 UV-I 39 W/m² 1,4 °C 3,7 °C 1,6 km/h (1 Bft)
01.04.2017 08:06 3,7 °C 3,8 °C 85 % 1010,8 hPa 0,0 mm 0,0 km/h (0 Bft) N 0 ° 0 min 0,000 mm 0,0 UV-I 39 W/m² 1,4 °C 3,7 °C 0,0 km/h (0 Bft)
01.04.2017 08:07 3,8 °C 3,8 °C 85 % 1010,8 hPa 0,0 mm 1,6 km/h (1 Bft) S 180 ° 0 min 0,000 mm 0,0 UV-I 44 W/m² 1,5 °C 3,8 °C 3,2 km/h (1 Bft)
01.04.2017 08:08 3,9 °C 3,9 °C 85 % 1010,8 hPa 0,0 mm 1,6 km/h (1 Bft) S 180 ° 0 min 0,000 mm 0,0 UV-I 81 W/m² 1,6 °C 3,9 °C 3,2 km/h (1 Bft)
01.04.2017 08:09 4,2 °C 4,2 °C 85 % 1010,8 hPa 0,0 mm 1,6 km/h (1 Bft) S 180 ° 0 min 0,000 mm 0,5 UV-I 114 W/m² 1,9 °C 4,2 °C 3,2 km/h (1 Bft)
01.04.2017 08:10 4,4 °C 4,4 °C 85 % 1010,8 hPa 0,0 mm 1,6 km/h (1 Bft) S 180 ° 0 min 0,000 mm 0,5 UV-I 137 W/m² 2,1 °C 4,4 °C 1,6 km/h (1 Bft)
01.04.2017 08:11 4,8 °C 4,8 °C 83 % 1010,8 hPa 0,0 mm 1,6 km/h (1 Bft) S 180 ° 0 min 0,000 mm 0,5 UV-I 146 W/m² 2,2 °C 4,8 °C 1,6 km/h (1 Bft)
01.04.2017 08:12 5,0 °C 5,0 °C 82 % 1010,8 hPa 0,0 mm 0,0 km/h (0 Bft) S 180 ° 0 min 0,000 mm 0,5 UV-I 149 W/m² 2,2 °C 5,0 °C 1,6 km/h (1 Bft)
01.04.2017 08:13 5,2 °C 5,2 °C 82 % 1010,8 hPa 0,0 mm 0,0 km/h (0 Bft) S 180 ° 0 min 0,000 mm 0,5 UV-I 153 W/m² 2,4 °C 5,2 °C 1,6 km/h (1 Bft)
01.04.2017 08:14 5,4 °C 5,4 °C 81 % 1010,7 hPa 0,0 mm 1,6 km/h (1 Bft) S 180 ° 0 min 0,000 mm 0,5 UV-I 156 W/m² 2,4 °C 5,4 °C 3,2 km/h (1 Bft)
01.04.2017 08:15 5,6 °C 5,6 °C 81 % 1010,7 hPa 0,0 mm 3,2 km/h (1 Bft) S 180 ° 0 min 0,000 mm 0,6 UV-I 146 W/m² 2,6 °C 5,6 °C 3,2 km/h (1 Bft)
01.04.2017 08:16 5,6 °C 5,6 °C 81 % 1010,7 hPa 0,0 mm 1,6 km/h (1 Bft) S 180 ° 0 min 0,000 mm 0,6 UV-I 146 W/m² 2,6 °C 5,6 °C 3,2 km/h (1 Bft)
01.04.2017 08:17 5,6 °C 5,6 °C 81 % 1010,7 hPa 0,0 mm 1,6 km/h (1 Bft) S 180 ° 0 min 0,000 mm 0,6 UV-I 128 W/m² 2,6 °C 5,6 °C 3,2 km/h (1 Bft)
01.04.2017 08:18 5,4 °C 5,5 °C 81 % 1010,7 hPa 0,0 mm 0,0 km/h (0 Bft) N 0 ° 0 min 0,000 mm 0,6 UV-I 125 W/m² 2,4 °C 5,4 °C 0,0 km/h (0 Bft)
01.04.2017 08:19 5,4 °C 5,4 °C 82 % 1010,8 hPa 0,0 mm 0,0 km/h (0 Bft) N 0 ° 0 min 0,000 mm 0,6 UV-I 123 W/m² 2,6 °C 5,4 °C 0,0 km/h (0 Bft)
01.04.2017 08:20 5,4 °C 5,5 °C 82 % 1010,7 hPa 0,0 mm 0,0 km/h (0 Bft) N 0 ° 0 min 0,000 mm 0,6 UV-I 123 W/m² 2,6 °C 5,4 °C 0,0 km/h (0 Bft)
01.04.2017 08:21 5,5 °C 5,5 °C 82 % 1010,7 hPa 0,0 mm 0,0 km/h (0 Bft) N 0 ° 0 min 0,000 mm 0,6 UV-I 118 W/m² 2,7 °C 5,5 °C 0,0 km/h (0 Bft)
01.04.2017 08:22 5,6 °C 5,6 °C 82 % 1010,7 hPa 0,0 mm 0,0 km/h (0 Bft) N 0 ° 0 min 0,000 mm 0,6 UV-I 90 W/m² 2,8 °C 5,6 °C 0,0 km/h (0 Bft)
01.04.2017 08:23 5,6 °C 5,6 °C 81 % 1010,7 hPa 0,0 mm 1,6 km/h (1 Bft) S 180 ° 0 min 0,000 mm 0,7 UV-I 146 W/m² 2,6 °C 5,6 °C 3,2 km/h (1 Bft)
01.04.2017 08:24 5,6 °C 5,6 °C 81 % 1010,7 hPa 0,0 mm 1,6 km/h (1 Bft) S 180 ° 0 min 0,000 mm 0,7 UV-I 167 W/m² 2,6 °C 5,6 °C 1,6 km/h (1 Bft)
01.04.2017 08:25 5,6 °C 5,6 °C 81 % 1010,7 hPa 0,0 mm 0,0 km/h (0 Bft) S 180 ° 0 min 0,000 mm 0,7 UV-I 171 W/m² 2,6 °C 5,6 °C 1,6 km/h (1 Bft)
01.04.2017 08:26 5,4 °C 5,6 °C 82 % 1010,7 hPa 0,0 mm 0,0 km/h (0 Bft) S 180 ° 0 min 0,000 mm 0,7 UV-I 163 W/m² 2,6 °C 5,4 °C 1,6 km/h (1 Bft)
01.04.2017 08:27 5,5 °C 5,5 °C 82 % 1010,7 hPa 0,0 mm 0,0 km/h (0 Bft) N 0 ° 0 min 0,000 mm 0,7 UV-I 156 W/m² 2,7 °C 5,5 °C 0,0 km/h (0 Bft)
01.04.2017 08:28 5,6 °C 5,6 °C 83 % 1010,6 hPa 0,0 mm 0,0 km/h (0 Bft) N 0 ° 0 min 0,000 mm 0,7 UV-I 155 W/m² 2,9 °C 5,6 °C 0,0 km/h (0 Bft)
01.04.2017 08:29 5,7 °C 5,7 °C 83 % 1010,7 hPa 0,0 mm 1,6 km/h (1 Bft) S 180 ° 0 min 0,000 mm 0,7 UV-I 151 W/m² 3,0 °C 5,7 °C 3,2 km/h (1 Bft)
01.04.2017 08:30 5,9 °C 5,9 °C 82 % 1010,7 hPa 0,0 mm 1,6 km/h (1 Bft) S 180 ° 0 min 0,000 mm 0,7 UV-I 158 W/m² 3,1 °C 5,9 °C 3,2 km/h (1 Bft)
01.04.2017 08:31 5,9 °C 5,9 °C 82 % 1010,7 hPa 0,0 mm 0,0 km/h (0 Bft) N 0 ° 0 min 0,000 mm 0,7 UV-I 127 W/m² 3,1 °C 5,9 °C 0,0 km/h (0 Bft)
01.04.2017 08:32 6,0 °C 6,0 °C 81 % 1010,6 hPa 0,0 mm 0,0 km/h (0 Bft) N 0 ° 0 min 0,000 mm 0,7 UV-I 141 W/m² 3,0 °C 6,0 °C 0,0 km/h (0 Bft)
01.04.2017 08:33 6,1 °C 6,1 °C 80 % 1010,6 hPa 0,0 mm 0,0 km/h (0 Bft) N 0 ° 0 min 0,000 mm 0,8 UV-I 148 W/m² 2,9 °C 6,1 °C 0,0 km/h (0 Bft)
01.04.2017 08:34 6,1 °C 6,1 °C 80 % 1010,6 hPa 0,0 mm 0,0 km/h (0 Bft) N 0 ° 0 min 0,000 mm 0,8 UV-I 114 W/m² 2,9 °C 6,1 °C 0,0 km/h (0 Bft)
01.04.2017 08:35 6,2 °C 6,2 °C 80 % 1010,6 hPa 0,0 mm 0,0 km/h (0 Bft) N 0 ° 0 min 0,000 mm 0,8 UV-I 102 W/m² 3,0 °C 6,2 °C 0,0 km/h (0 Bft)
01.04.2017 08:36 6,2 °C 6,2 °C 80 % 1010,6 hPa 0,0 mm 0,0 km/h (0 Bft) S 180 ° 0 min 0,000 mm 0,8 UV-I 88 W/m² 3,0 °C 6,2 °C 3,2 km/h (1 Bft)
01.04.2017 08:37 6,3 °C 6,3 °C 80 % 1010,6 hPa 0,0 mm 3,2 km/h (1 Bft) S 180 ° 0 min 0,000 mm 0,8 UV-I 84 W/m² 3,1 °C 6,3 °C 3,2 km/h (1 Bft)
01.04.2017 08:38 6,4 °C 6,4 °C 79 % 1010,5 hPa 0,0 mm 1,6 km/h (1 Bft) S 180 ° 0 min 0,000 mm 0,8 UV-I 69 W/m² 3,0 °C 6,4 °C 3,2 km/h (1 Bft)
01.04.2017 08:39 6,7 °C 6,7 °C 79 % 1010,6 hPa 0,0 mm 1,6 km/h (1 Bft) S 180 ° 0 min 0,000 mm 0,8 UV-I 74 W/m² 3,3 °C 6,7 °C 3,2 km/h (1 Bft)
01.04.2017 08:40 6,9 °C 6,9 °C 77 % 1010,5 hPa 0,0 mm 1,6 km/h (1 Bft) S 180 ° 0 min 0,000 mm 0,8 UV-I 67 W/m² 3,2 °C 6,9 °C 1,6 km/h (1 Bft)
01.04.2017 08:41 7,1 °C 7,1 °C 78 % 1010,5 hPa 0,0 mm 1,6 km/h (1 Bft) S 180 ° 0 min 0,000 mm 0,8 UV-I 62 W/m² 3,5 °C 7,1 °C 1,6 km/h (1 Bft)
01.04.2017 08:42 7,2 °C 7,2 °C 78 % 1010,5 hPa 0,0 mm 1,6 km/h (1 Bft) S 180 ° 0 min 0,000 mm 0,8 UV-I 65 W/m² 3,6 °C 7,2 °C 1,6 km/h (1 Bft)
01.04.2017 08:43 7,2 °C 7,2 °C 78 % 1010,5 hPa 0,0 mm 0,0 km/h (0 Bft) S 180 ° 0 min 0,000 mm 0,8 UV-I 62 W/m² 3,6 °C 7,2 °C 1,6 km/h (1 Bft)
01.04.2017 08:44 7,2 °C 7,2 °C 79 % 1010,5 hPa 0,0 mm 0,0 km/h (0 Bft) N 0 ° 0 min 0,000 mm 0,8 UV-I 65 W/m² 3,8 °C 7,2 °C 0,0 km/h (0 Bft)
01.04.2017 08:45 7,2 °C 7,2 °C 80 % 1010,5 hPa 0,0 mm 0,0 km/h (0 Bft) S 180 ° 0 min 0,000 mm 0,9 UV-I 74 W/m² 4,0 °C 7,2 °C 1,6 km/h (1 Bft)
01.04.2017 08:46 7,3 °C 7,3 °C 80 % 1010,4 hPa 0,0 mm 0,0 km/h (0 Bft) N 0 ° 0 min 0,000 mm 0,9 UV-I 88 W/m² 4,1 °C 7,3 °C 0,0 km/h (0 Bft)
01.04.2017 08:47 7,3 °C 7,3 °C 79 % 1010,4 hPa 0,0 mm 0,0 km/h (0 Bft) N 0 ° 0 min 0,000 mm 0,9 UV-I 132 W/m² 3,9 °C 7,3 °C 0,0 km/h (0 Bft)
01.04.2017 08:48 7,5 °C 7,5 °C 79 % 1010,5 hPa 0,0 mm 0,0 km/h (0 Bft) N 0 ° 0 min 0,000 mm 1,0 UV-I 207 W/m² 4,1 °C 7,5 °C 0,0 km/h (0 Bft)
01.04.2017 08:49 7,7 °C 7,7 °C 77 % 1010,4 hPa 0,0 mm 0,0 km/h (0 Bft) N 0 ° 0 min 0,000 mm 1,0 UV-I 267 W/m² 3,9 °C 7,7 °C 0,0 km/h (0 Bft)
01.04.2017 08:50 7,7 °C 7,7 °C 76 % 1010,4 hPa 0,0 mm 0,0 km/h (0 Bft) N 0 ° 0 min 0,000 mm 1,1 UV-I 269 W/m² 3,7 °C 7,7 °C 0,0 km/h (0 Bft)
01.04.2017 08:51 7,8 °C 7,8 °C 75 % 1010,4 hPa 0,0 mm 0,0 km/h (0 Bft) N 0 ° 0 min 0,000 mm 1,1 UV-I 272 W/m² 3,7 °C 7,8 °C 0,0 km/h (0 Bft)
01.04.2017 08:52 7,9 °C 7,9 °C 74 % 1010,4 hPa 0,0 mm 0,0 km/h (0 Bft) N 0 ° 0 min 0,000 mm 1,1 UV-I 274 W/m² 3,6 °C 7,9 °C 0,0 km/h (0 Bft)
01.04.2017 08:53 8,0 °C 8,0 °C 73 % 1010,4 hPa 0,0 mm 0,0 km/h (0 Bft) S 180 ° 0 min 0,000 mm 1,1 UV-I 276 W/m² 3,5 °C 8,0 °C 1,6 km/h (1 Bft)
01.04.2017 08:54 8,1 °C 8,1 °C 72 % 1010,4 hPa 0,0 mm 0,0 km/h (0 Bft) S 180 ° 0 min 0,000 mm 1,1 UV-I 279 W/m² 3,4 °C 8,1 °C 1,6 km/h (1 Bft)
01.04.2017 08:55 8,2 °C 8,2 °C 72 % 1010,4 hPa 0,0 mm 1,6 km/h (1 Bft) S 180 ° 0 min 0,000 mm 1,2 UV-I 288 W/m² 3,5 °C 8,2 °C 1,6 km/h (1 Bft)
01.04.2017 08:56 8,3 °C 8,3 °C 72 % 1010,4 hPa 0,0 mm 0,0 km/h (0 Bft) S 180 ° 1 min 0,000 mm 1,2 UV-I 294 W/m² 3,6 °C 8,3 °C 1,6 km/h (1 Bft)
01.04.2017 08:57 8,3 °C 8,3 °C 71 % 1010,4 hPa 0,0 mm 0,0 km/h (0 Bft) S 180 ° 1 min 0,000 mm 1,2 UV-I 295 W/m² 3,4 °C 8,3 °C 1,6 km/h (1 Bft)
01.04.2017 08:58 8,4 °C 8,4 °C 71 % 1010,4 hPa 0,0 mm 0,0 km/h (0 Bft) N 0 ° 1 min 0,000 mm 1,2 UV-I 297 W/m² 3,5 °C 8,4 °C 0,0 km/h (0 Bft)
01.04.2017 08:59 8,5 °C 8,5 °C 71 % 1010,3 hPa 0,0 mm 0,0 km/h (0 Bft) N 0 ° 1 min 0,000 mm 1,2 UV-I 299 W/m² 3,5 °C 8,5 °C 0,0 km/h (0 Bft)
01.04.2017 09:00 8,7 °C 8,7 °C 72 % 1010,3 hPa 0,0 mm 0,0 km/h (0 Bft) N 0 ° 1 min 0,051 mm 1,2 UV-I 302 W/m² 3,9 °C 8,7 °C 0,0 km/h (0 Bft)
01.04.2017 09:01 8,8 °C 8,8 °C 72 % 1010,3 hPa 0,0 mm 0,0 km/h (0 Bft) N 0 ° 1 min 0,000 mm 1,3 UV-I 308 W/m² 4,0 °C 8,8 °C 0,0 km/h (0 Bft)
01.04.2017 09:02 8,9 °C 8,9 °C 77 % 1010,3 hPa 0,0 mm 0,0 km/h (0 Bft) N 0 ° 1 min 0,000 mm 1,3 UV-I 309 W/m² 5,1 °C 8,9 °C 0,0 km/h (0 Bft)
01.04.2017 09:03 9,1 °C 9,1 °C 72 % 1010,3 hPa 0,0 mm 0,0 km/h (0 Bft) N 0 ° 1 min 0,000 mm 1,3 UV-I 313 W/m² 4,3 °C 9,1 °C 0,0 km/h (0 Bft)
01.04.2017 09:04 9,4 °C 9,4 °C 75 % 1010,3 hPa 0,0 mm 0,0 km/h (0 Bft) N 0 ° 1 min 0,000 mm 1,3 UV-I 316 W/m² 5,2 °C 9,4 °C 0,0 km/h (0 Bft)
01.04.2017 09:05 9,5 °C 9,5 °C 74 % 1010,4 hPa 0,0 mm 1,6 km/h (1 Bft) S 180 ° 1 min 0,000 mm 1,3 UV-I 320 W/m² 5,1 °C 9,5 °C 3,2 km/h (1 Bft)
01.04.2017 09:06 9,6 °C 9,6 °C 72 % 1010,3 hPa 0,0 mm 0,0 km/h (0 Bft) S 180 ° 1 min 0,000 mm 1,4 UV-I 323 W/m² 4,8 °C 9,6 °C 1,6 km/h (1 Bft)
01.04.2017 09:07 9,8 °C 9,8 °C 74 % 1010,3 hPa 0,0 mm 1,6 km/h (1 Bft) S 180 ° 1 min 0,000 mm 1,4 UV-I 327 W/m² 5,4 °C 9,8 °C 1,6 km/h (1 Bft)
01.04.2017 09:08 10,1 °C 10,1 °C 73 % 1010,3 hPa 0,0 mm 1,6 km/h (1 Bft) S 180 ° 1 min 0,000 mm 1,4 UV-I 329 W/m² 5,5 °C 10,1 °C 3,2 km/h (1 Bft)
01.04.2017 09:09 10,2 °C 10,2 °C 71 % 1010,3 hPa 0,0 mm 0,0 km/h (0 Bft) S 180 ° 1 min 0,000 mm 1,4 UV-I 332 W/m² 5,2 °C 10,2 °C 1,6 km/h (1 Bft)
01.04.2017 09:10 10,2 °C 10,2 °C 71 % 1010,3 hPa 0,0 mm 0,0 km/h (0 Bft) S 180 ° 1 min 0,000 mm 1,5 UV-I 334 W/m² 5,2 °C 10,2 °C 1,6 km/h (1 Bft)
01.04.2017 09:11 10,3 °C 10,3 °C 71 % 1010,3 hPa 0,0 mm 0,0 km/h (0 Bft) S 180 ° 1 min 0,000 mm 1,5 UV-I 338 W/m² 5,3 °C 10,3 °C 1,6 km/h (1 Bft)
01.04.2017 09:12 10,3 °C 10,3 °C 68 % 1010,2 hPa 0,0 mm 1,6 km/h (1 Bft) S 180 ° 1 min 0,000 mm 1,5 UV-I 343 W/m² 4,7 °C 10,3 °C 3,2 km/h (1 Bft)
01.04.2017 09:13 10,3 °C 10,3 °C 67 % 1010,2 hPa 0,0 mm 0,0 km/h (0 Bft) S 180 ° 1 min 0,000 mm 1,5 UV-I 346 W/m² 4,4 °C 10,3 °C 3,2 km/h (1 Bft)
01.04.2017 09:14 10,3 °C 10,3 °C 66 % 1010,2 hPa 0,0 mm 1,6 km/h (1 Bft) S 180 ° 1 min 0,000 mm 1,6 UV-I 350 W/m² 4,2 °C 10,3 °C 4,8 km/h (1 Bft)
01.04.2017 09:15 10,3 °C 10,3 °C 66 % 1010,2 hPa 0,0 mm 1,6 km/h (1 Bft) S 180 ° 1 min 0,000 mm 1,6 UV-I 352 W/m² 4,2 °C 10,3 °C 4,8 km/h (1 Bft)
01.04.2017 09:16 10,4 °C 10,4 °C 65 % 1010,2 hPa 0,0 mm 1,6 km/h (1 Bft) S 180 ° 1 min 0,000 mm 1,6 UV-I 355 W/m² 4,1 °C 10,4 °C 1,6 km/h (1 Bft)
01.04.2017 09:17 10,4 °C 10,4 °C 66 % 1010,2 hPa 0,0 mm 1,6 km/h (1 Bft) S 180 ° 1 min 0,000 mm 1,6 UV-I 357 W/m² 4,3 °C 10,4 °C 4,8 km/h (1 Bft)
01.04.2017 09:18 10,4 °C 10,4 °C 66 % 1010,2 hPa 0,0 mm 1,6 km/h (1 Bft) S 180 ° 1 min 0,000 mm 1,6 UV-I 360 W/m² 4,3 °C 10,4 °C 3,2 km/h (1 Bft)
01.04.2017 09:19 10,3 °C 10,4 °C 66 % 1010,2 hPa 0,0 mm 1,6 km/h (1 Bft) S 180 ° 1 min 0,000 mm 1,7 UV-I 364 W/m² 4,2 °C 10,3 °C 3,2 km/h (1 Bft)
01.04.2017 09:20 10,4 °C 10,4 °C 66 % 1010,2 hPa 0,0 mm 1,6 km/h (1 Bft) S 180 ° 1 min 0,000 mm 1,7 UV-I 369 W/m² 4,3 °C 10,4 °C 3,2 km/h (1 Bft)
01.04.2017 09:21 10,4 °C 10,4 °C 66 % 1010,1 hPa 0,0 mm 1,6 km/h (1 Bft) S 180 ° 1 min 0,000 mm 1,7 UV-I 364 W/m² 4,3 °C 10,4 °C 3,2 km/h (1 Bft)
01.04.2017 09:22 10,6 °C 10,6 °C 67 % 1010,2 hPa 0,0 mm 1,6 km/h (1 Bft) S 180 ° 1 min 0,000 mm 1,7 UV-I 369 W/m² 4,7 °C 10,6 °C 1,6 km/h (1 Bft)
01.04.2017 09:23 10,6 °C 10,6 °C 66 % 1010,2 hPa 0,0 mm 0,0 km/h (0 Bft) S 180 ° 1 min 0,000 mm 1,7 UV-I 380 W/m² 4,5 °C 10,6 °C 1,6 km/h (1 Bft)
01.04.2017 09:24 10,8 °C 10,8 °C 65 % 1010,2 hPa 0,0 mm 0,0 km/h (0 Bft) S 180 ° 1 min 0,000 mm 1,7 UV-I 380 W/m² 4,5 °C 10,8 °C 1,6 km/h (1 Bft)
01.04.2017 09:25 10,9 °C 10,9 °C 65 % 1010,2 hPa 0,0 mm 0,0 km/h (0 Bft) S 180 ° 1 min 0,000 mm 1,7 UV-I 350 W/m² 4,6 °C 10,9 °C 1,6 km/h (1 Bft)
01.04.2017 09:26 11,3 °C 11,3 °C 68 % 1010,1 hPa 0,0 mm 0,0 km/h (0 Bft) N 0 ° 1 min 0,000 mm 1,6 UV-I 341 W/m² 5,6 °C 11,3 °C 0,0 km/h (0 Bft)
01.04.2017 09:27 11,6 °C 11,6 °C 66 % 1010,2 hPa 0,0 mm 0,0 km/h (0 Bft) N 0 ° 1 min 0,000 mm 1,7 UV-I 336 W/m² 5,5 °C 11,6 °C 0,0 km/h (0 Bft)
01.04.2017 09:28 11,8 °C 11,8 °C 68 % 1010,2 hPa 0,0 mm 0,0 km/h (0 Bft) N 0 ° 0 min 0,000 mm 1,6 UV-I 288 W/m² 6,1 °C 11,8 °C 0,0 km/h (0 Bft)
01.04.2017 09:29 11,9 °C 11,9 °C 67 % 1010,1 hPa 0,0 mm 1,6 km/h (1 Bft) W-NW 292 ° 1 min 0,000 mm 1,7 UV-I 306 W/m² 6,0 °C 11,9 °C 4,8 km/h (1 Bft)
01.04.2017 09:30 12,1 °C 12,1 °C 65 % 1010,2 hPa 0,0 mm 1,6 km/h (1 Bft) W-NW 292 ° 0 min 0,000 mm 1,7 UV-I 281 W/m² 5,7 °C 12,1 °C 3,2 km/h (1 Bft)
01.04.2017 09:31 12,1 °C 12,1 °C 67 % 1010,2 hPa 0,0 mm 1,6 km/h (1 Bft) W-NW 292 ° 0 min 0,000 mm 1,7 UV-I 260 W/m² 6,2 °C 12,1 °C 3,2 km/h (1 Bft)
01.04.2017 09:32 12,3 °C 12,3 °C 67 % 1010,2 hPa 0,0 mm 1,6 km/h (1 Bft) W-NW 292 ° 0 min 0,000 mm 1,7 UV-I 260 W/m² 6,4 °C 12,3 °C 3,2 km/h (1 Bft)
01.04.2017 09:33 12,4 °C 12,4 °C 65 % 1010,2 hPa 0,0 mm 1,6 km/h (1 Bft) W-NW 292 ° 0 min 0,000 mm 1,7 UV-I 269 W/m² 6,0 °C 12,4 °C 3,2 km/h (1 Bft)
01.04.2017 09:34 12,5 °C 12,5 °C 65 % 1010,1 hPa 0,0 mm 0,0 km/h (0 Bft) W-NW 292 ° 1 min 0,000 mm 1,8 UV-I 316 W/m² 6,1 °C 12,5 °C 1,6 km/h (1 Bft)
01.04.2017 09:35 12,5 °C 12,6 °C 66 % 1010,1 hPa 0,0 mm 0,0 km/h (0 Bft) W-NW 292 ° 1 min 0,000 mm 1,9 UV-I 413 W/m² 6,3 °C 12,5 °C 1,6 km/h (1 Bft)
01.04.2017 09:36 12,7 °C 12,7 °C 69 % 1010,2 hPa 0,0 mm 1,6 km/h (1 Bft) W-NW 292 ° 1 min 0,000 mm 2,0 UV-I 411 W/m² 7,2 °C 12,7 °C 1,6 km/h (1 Bft)
01.04.2017 09:37 12,9 °C 12,9 °C 68 % 1010,1 hPa 0,0 mm 0,0 km/h (0 Bft) W-NW 292 ° 1 min 0,000 mm 2,0 UV-I 378 W/m² 7,1 °C 12,9 °C 1,6 km/h (1 Bft)
01.04.2017 09:38 13,2 °C 13,2 °C 66 % 1010,1 hPa 0,0 mm 0,0 km/h (0 Bft) W-NW 292 ° 1 min 0,000 mm 2,0 UV-I 401 W/m² 7,0 °C 13,2 °C 1,6 km/h (1 Bft)
01.04.2017 09:39 13,4 °C 13,4 °C 63 % 1010,1 hPa 0,0 mm 0,0 km/h (0 Bft) W-NW 292 ° 1 min 0,000 mm 2,0 UV-I 408 W/m² 6,5 °C 13,4 °C 1,6 km/h (1 Bft)
01.04.2017 09:40 13,5 °C 13,5 °C 64 % 1010,1 hPa 0,0 mm 0,0 km/h (0 Bft) W-NW 292 ° 1 min 0,000 mm 2,0 UV-I 345 W/m² 6,8 °C 13,5 °C 1,6 km/h (1 Bft)
01.04.2017 09:41 13,6 °C 13,6 °C 65 % 1010,1 hPa 0,0 mm 0,0 km/h (0 Bft) W-NW 292 ° 1 min 0,000 mm 2,1 UV-I 399 W/m² 7,1 °C 13,6 °C 1,6 km/h (1 Bft)
01.04.2017 09:42 13,6 °C 13,6 °C 64 % 1010,1 hPa 0,0 mm 1,6 km/h (1 Bft) W-NW 292 ° 1 min 0,000 mm 2,1 UV-I 429 W/m² 6,9 °C 13,6 °C 1,6 km/h (1 Bft)
01.04.2017 09:43 13,7 °C 13,7 °C 66 % 1010,0 hPa 0,0 mm 3,2 km/h (1 Bft) NW 315 ° 1 min 0,000 mm 2,0 UV-I 390 W/m² 7,5 °C 13,7 °C 4,8 km/h (1 Bft)
01.04.2017 09:44 13,7 °C 13,7 °C 63 % 1010,0 hPa 0,0 mm 3,2 km/h (1 Bft) NW 315 ° 1 min 0,000 mm 2,1 UV-I 399 W/m² 6,8 °C 13,7 °C 4,8 km/h (1 Bft)
01.04.2017 09:45 13,8 °C 13,8 °C 60 % 1010,1 hPa 0,0 mm 0,0 km/h (0 Bft) NW 315 ° 1 min 0,000 mm 2,2 UV-I 408 W/m² 6,2 °C 13,8 °C 1,6 km/h (1 Bft)
01.04.2017 09:46 13,9 °C 13,9 °C 64 % 1010,0 hPa 0,0 mm 0,0 km/h (0 Bft) N 0 ° 1 min 0,000 mm 2,2 UV-I 388 W/m² 7,2 °C 13,9 °C 0,0 km/h (0 Bft)
01.04.2017 09:47 14,1 °C 14,1 °C 58 % 1010,0 hPa 0,0 mm 0,0 km/h (0 Bft) NW 315 ° 1 min 0,000 mm 2,1 UV-I 410 W/m² 6,0 °C 14,1 °C 1,6 km/h (1 Bft)
01.04.2017 09:48 14,1 °C 14,1 °C 59 % 1010,0 hPa 0,0 mm 0,0 km/h (0 Bft) NW 315 ° 1 min 0,000 mm 2,2 UV-I 455 W/m² 6,2 °C 14,1 °C 1,6 km/h (1 Bft)
01.04.2017 09:49 14,3 °C 14,3 °C 55 % 1010,0 hPa 0,0 mm 1,6 km/h (1 Bft) NW 315 ° 1 min 0,000 mm 2,3 UV-I 459 W/m² 5,4 °C 14,3 °C 3,2 km/h (1 Bft)
01.04.2017 09:50 14,5 °C 14,5 °C 59 % 1010,0 hPa 0,0 mm 1,6 km/h (1 Bft) NW 315 ° 1 min 0,000 mm 2,3 UV-I 461 W/m² 6,6 °C 14,5 °C 1,6 km/h (1 Bft)
01.04.2017 09:51 14,7 °C 14,7 °C 54 % 1010,0 hPa 0,0 mm 1,6 km/h (1 Bft) NW 315 ° 1 min 0,000 mm 2,3 UV-I 446 W/m² 5,5 °C 14,7 °C 3,2 km/h (1 Bft)
01.04.2017 09:52 14,9 °C 14,9 °C 53 % 1010,0 hPa 0,0 mm 0,0 km/h (0 Bft) S 180 ° 1 min 0,000 mm 2,3 UV-I 462 W/m² 5,4 °C 14,9 °C 1,6 km/h (1 Bft)
01.04.2017 09:53 15,2 °C 15,2 °C 58 % 1010,0 hPa 0,0 mm 0,0 km/h (0 Bft) N 0 ° 1 min 0,000 mm 2,2 UV-I 403 W/m² 7,0 °C 15,2 °C 0,0 km/h (0 Bft)
01.04.2017 09:54 15,2 °C 15,2 °C 52 % 1010,0 hPa 0,0 mm 0,0 km/h (0 Bft) N 0 ° 1 min 0,000 mm 2,1 UV-I 348 W/m² 5,4 °C 15,2 °C 0,0 km/h (0 Bft)
01.04.2017 09:55 15,2 °C 15,2 °C 51 % 1010,0 hPa 0,0 mm 0,0 km/h (0 Bft) N 0 ° 1 min 0,000 mm 2,2 UV-I 374 W/m² 5,1 °C 15,2 °C 0,0 km/h (0 Bft)
01.04.2017 09:56 15,2 °C 15,2 °C 50 % 1010,0 hPa 0,0 mm 0,0 km/h (0 Bft) N 0 ° 1 min 0,000 mm 2,3 UV-I 425 W/m² 4,8 °C 15,2 °C 0,0 km/h (0 Bft)
01.04.2017 09:57 15,3 °C 15,3 °C 49 % 1010,0 hPa 0,0 mm 0,0 km/h (0 Bft) N 0 ° 1 min 0,000 mm 2,3 UV-I 424 W/m² 4,7 °C 15,3 °C 0,0 km/h (0 Bft)
01.04.2017 09:58 15,5 °C 15,5 °C 60 % 1010,0 hPa 0,0 mm 0,0 km/h (0 Bft) N 0 ° 1 min 0,000 mm 2,3 UV-I 404 W/m² 7,8 °C 15,5 °C 0,0 km/h (0 Bft)
01.04.2017 09:59 15,6 °C 15,6 °C 52 % 1010,0 hPa 0,0 mm 0,0 km/h (0 Bft) N 0 ° 1 min 0,000 mm 2,2 UV-I 385 W/m² 5,8 °C 15,6 °C 0,0 km/h (0 Bft)
01.04.2017 10:00 15,5 °C 15,6 °C 45 % 1010,0 hPa 0,0 mm 0,0 km/h (0 Bft) S 180 ° 1 min 0,178 mm 2,3 UV-I 380 W/m² 3,6 °C 15,5 °C 1,6 km/h (1 Bft)
01.04.2017 10:01 15,5 °C 15,5 °C 46 % 1010,0 hPa 0,0 mm 0,0 km/h (0 Bft) S 180 ° 1 min 0,000 mm 2,3 UV-I 424 W/m² 3,9 °C 15,5 °C 1,6 km/h (1 Bft)
01.04.2017 10:02 15,6 °C 15,6 °C 46 % 1010,0 hPa 0,0 mm 1,6 km/h (1 Bft) S 180 ° 1 min 0,000 mm 2,2 UV-I 362 W/m² 4,0 °C 15,6 °C 1,6 km/h (1 Bft)
01.04.2017 10:03 15,7 °C 15,7 °C 45 % 1009,9 hPa 0,0 mm 3,2 km/h (1 Bft) SW 225 ° 1 min 0,000 mm 2,3 UV-I 432 W/m² 3,8 °C 15,7 °C 6,4 km/h (2 Bft)
01.04.2017 10:04 15,9 °C 15,9 °C 38 % 1010,0 hPa 0,0 mm 1,6 km/h (1 Bft) S-SW 202 ° 1 min 0,000 mm 2,2 UV-I 378 W/m² 1,6 °C 15,9 °C 3,2 km/h (1 Bft)
01.04.2017 10:05 16,1 °C 16,1 °C 42 % 1010,0 hPa 0,0 mm 1,6 km/h (1 Bft) S 180 ° 1 min 0,000 mm 2,5 UV-I 466 W/m² 3,2 °C 16,1 °C 4,8 km/h (1 Bft)
01.04.2017 10:06 15,9 °C 16,1 °C 42 % 1010,0 hPa 0,0 mm 1,6 km/h (1 Bft) S 180 ° 1 min 0,000 mm 2,4 UV-I 404 W/m² 3,0 °C 15,9 °C 4,8 km/h (1 Bft)
01.04.2017 10:07 15,7 °C 15,9 °C 44 % 1010,0 hPa 0,0 mm 0,0 km/h (0 Bft) S 180 ° 1 min 0,000 mm 2,4 UV-I 381 W/m² 3,5 °C 15,7 °C 1,6 km/h (1 Bft)
01.04.2017 10:08 15,6 °C 15,7 °C 44 % 1009,9 hPa 0,0 mm 0,0 km/h (0 Bft) S-SW 202 ° 1 min 0,000 mm 2,4 UV-I 396 W/m² 3,4 °C 15,6 °C 1,6 km/h (1 Bft)
01.04.2017 10:09 15,7 °C 15,7 °C 45 % 1010,0 hPa 0,0 mm 3,2 km/h (1 Bft) W-NW 292 ° 1 min 0,000 mm 2,5 UV-I 436 W/m² 3,8 °C 15,7 °C 4,8 km/h (1 Bft)
01.04.2017 10:10 15,8 °C 15,8 °C 45 % 1009,9 hPa 0,0 mm 1,6 km/h (1 Bft) W-NW 292 ° 1 min 0,000 mm 2,6 UV-I 434 W/m² 3,9 °C 15,8 °C 3,2 km/h (1 Bft)
01.04.2017 10:11 15,9 °C 15,9 °C 54 % 1009,9 hPa 0,0 mm 0,0 km/h (0 Bft) W-NW 292 ° 1 min 0,000 mm 2,5 UV-I 452 W/m² 6,6 °C 15,9 °C 1,6 km/h (1 Bft)
01.04.2017 10:12 15,7 °C 15,8 °C 49 % 1009,9 hPa 0,0 mm 0,0 km/h (0 Bft) N 0 ° 1 min 0,000 mm 2,6 UV-I 452 W/m² 5,0 °C 15,7 °C 0,0 km/h (0 Bft)
01.04.2017 10:13 15,6 °C 15,7 °C 50 % 1009,9 hPa 0,0 mm 0,0 km/h (0 Bft) W-NW 292 ° 1 min 0,000 mm 2,6 UV-I 434 W/m² 5,2 °C 15,6 °C 1,6 km/h (1 Bft)
01.04.2017 10:14 15,6 °C 15,6 °C 52 % 1009,9 hPa 0,0 mm 3,2 km/h (1 Bft) W-NW 292 ° 1 min 0,000 mm 2,6 UV-I 434 W/m² 5,8 °C 15,6 °C 4,8 km/h (1 Bft)
01.04.2017 10:15 15,7 °C 15,7 °C 44 % 1009,9 hPa 0,0 mm 1,6 km/h (1 Bft) S-SW 202 ° 1 min 0,000 mm 2,6 UV-I 439 W/m² 3,5 °C 15,7 °C 3,2 km/h (1 Bft)
01.04.2017 10:16 15,9 °C 15,9 °C 39 % 1009,9 hPa 0,0 mm 3,2 km/h (1 Bft) N-NW 337 ° 1 min 0,000 mm 2,6 UV-I 441 W/m² 2,0 °C 15,9 °C 4,8 km/h (1 Bft)
01.04.2017 10:17 16,2 °C 16,2 °C 40 % 1009,9 hPa 0,0 mm 3,2 km/h (1 Bft) N-NO 22 ° 1 min 0,000 mm 2,6 UV-I 462 W/m² 2,6 °C 16,2 °C 4,8 km/h (1 Bft)
01.04.2017 10:18 16,2 °C 16,2 °C 38 % 1009,9 hPa 0,0 mm 1,6 km/h (1 Bft) N-NO 22 ° 1 min 0,000 mm 2,7 UV-I 424 W/m² 1,9 °C 16,2 °C 3,2 km/h (1 Bft)
01.04.2017 10:19 16,1 °C 16,2 °C 38 % 1009,9 hPa 0,0 mm 0,0 km/h (0 Bft) N-NO 22 ° 1 min 0,000 mm 2,8 UV-I 492 W/m² 1,8 °C 16,1 °C 3,2 km/h (1 Bft)
01.04.2017 10:20 16,1 °C 16,1 °C 42 % 1009,9 hPa 0,0 mm 4,8 km/h (1 Bft) O 90 ° 1 min 0,000 mm 2,6 UV-I 410 W/m² 3,2 °C 16,1 °C 8,0 km/h (2 Bft)
01.04.2017 10:21 16,1 °C 16,1 °C 41 % 1009,9 hPa 0,0 mm 3,2 km/h (1 Bft) SO 135 ° 1 min 0,000 mm 2,9 UV-I 483 W/m² 2,8 °C 16,1 °C 9,7 km/h (2 Bft)
01.04.2017 10:22 16,1 °C 16,2 °C 43 % 1009,8 hPa 0,0 mm 1,6 km/h (1 Bft) NO 45 ° 1 min 0,000 mm 2,9 UV-I 529 W/m² 3,5 °C 16,1 °C 3,2 km/h (1 Bft)
01.04.2017 10:23 16,2 °C 16,2 °C 41 % 1009,9 hPa 0,0 mm 1,6 km/h (1 Bft) NO 45 ° 1 min 0,000 mm 2,9 UV-I 526 W/m² 2,9 °C 16,2 °C 4,8 km/h (1 Bft)
01.04.2017 10:24 16,3 °C 16,3 °C 41 % 1009,9 hPa 0,0 mm 4,8 km/h (1 Bft) SO 135 ° 1 min 0,000 mm 2,9 UV-I 501 W/m² 3,0 °C 16,3 °C 6,4 km/h (2 Bft)
01.04.2017 10:25 16,3 °C 16,3 °C 41 % 1009,8 hPa 0,0 mm 1,6 km/h (1 Bft) S-SO 157 ° 1 min 0,000 mm 3,0 UV-I 543 W/m² 3,0 °C 16,3 °C 4,8 km/h (1 Bft)
01.04.2017 10:26 16,4 °C 16,4 °C 40 % 1009,8 hPa 0,0 mm 3,2 km/h (1 Bft) O 90 ° 1 min 0,000 mm 3,0 UV-I 536 W/m² 2,8 °C 16,4 °C 6,4 km/h (2 Bft)
01.04.2017 10:27 16,4 °C 16,4 °C 40 % 1009,8 hPa 0,0 mm 1,6 km/h (1 Bft) O 90 ° 1 min 0,000 mm 3,0 UV-I 487 W/m² 2,8 °C 16,4 °C 3,2 km/h (1 Bft)
01.04.2017 10:28 16,5 °C 16,5 °C 51 % 1009,8 hPa 0,0 mm 3,2 km/h (1 Bft) O 90 ° 1 min 0,000 mm 3,1 UV-I 563 W/m² 6,3 °C 16,5 °C 6,4 km/h (2 Bft)
01.04.2017 10:29 16,7 °C 16,7 °C 45 % 1009,8 hPa 0,0 mm 3,2 km/h (1 Bft) O-NO 67 ° 1 min 0,000 mm 3,1 UV-I 554 W/m² 4,7 °C 16,7 °C 4,8 km/h (1 Bft)
01.04.2017 10:30 16,7 °C 16,7 °C 40 % 1009,8 hPa 0,0 mm 4,8 km/h (1 Bft) O-NO 67 ° 1 min 0,000 mm 3,1 UV-I 557 W/m² 3,0 °C 16,7 °C 6,4 km/h (2 Bft)
01.04.2017 10:31 16,8 °C 16,8 °C 36 % 1009,8 hPa 0,0 mm 3,2 km/h (1 Bft) SO 135 ° 1 min 0,000 mm 3,1 UV-I 552 W/m² 1,7 °C 16,8 °C 6,4 km/h (2 Bft)
01.04.2017 10:32 16,9 °C 16,9 °C 35 % 1009,8 hPa 0,0 mm 1,6 km/h (1 Bft) SO 135 ° 1 min 0,000 mm 3,2 UV-I 561 W/m² 1,3 °C 16,9 °C 4,8 km/h (1 Bft)
01.04.2017 10:33 17,0 °C 17,1 °C 38 % 1009,8 hPa 0,0 mm 4,8 km/h (1 Bft) O-SO 112 ° 1 min 0,000 mm 3,2 UV-I 571 W/m² 2,6 °C 17,0 °C 8,0 km/h (2 Bft)
01.04.2017 10:34 17,1 °C 17,1 °C 36 % 1009,8 hPa 0,0 mm 3,2 km/h (1 Bft) S-SO 157 ° 1 min 0,000 mm 3,3 UV-I 587 W/m² 1,9 °C 17,1 °C 4,8 km/h (1 Bft)
01.04.2017 10:35 17,2 °C 17,2 °C 34 % 1009,8 hPa 0,0 mm 4,8 km/h (1 Bft) O 90 ° 1 min 0,000 mm 3,2 UV-I 582 W/m² 1,2 °C 17,2 °C 9,7 km/h (2 Bft)
01.04.2017 10:36 17,2 °C 17,2 °C 42 % 1009,8 hPa 0,0 mm 3,2 km/h (1 Bft) NO 45 ° 1 min 0,000 mm 3,3 UV-I 564 W/m² 4,2 °C 17,2 °C 8,0 km/h (2 Bft)
01.04.2017 10:37 17,3 °C 17,3 °C 42 % 1009,8 hPa 0,0 mm 1,6 km/h (1 Bft) NO 45 ° 1 min 0,000 mm 3,2 UV-I 559 W/m² 4,3 °C 17,3 °C 3,2 km/h (1 Bft)
01.04.2017 10:38 17,3 °C 17,3 °C 40 % 1009,8 hPa 0,0 mm 3,2 km/h (1 Bft) NO 45 ° 1 min 0,000 mm 3,2 UV-I 550 W/m² 3,6 °C 17,3 °C 4,8 km/h (1 Bft)
01.04.2017 10:39 17,3 °C 17,3 °C 34 % 1009,8 hPa 0,0 mm 3,2 km/h (1 Bft) NO 45 ° 1 min 0,000 mm 3,2 UV-I 527 W/m² 1,3 °C 17,3 °C 8,0 km/h (2 Bft)
01.04.2017 10:40 17,4 °C 17,4 °C 34 % 1009,8 hPa 0,0 mm 4,8 km/h (1 Bft) NO 45 ° 1 min 0,000 mm 3,1 UV-I 534 W/m² 1,4 °C 17,4 °C 8,0 km/h (2 Bft)
01.04.2017 10:41 17,4 °C 17,4 °C 34 % 1009,8 hPa 0,0 mm 3,2 km/h (1 Bft) O 90 ° 1 min 0,000 mm 3,2 UV-I 529 W/m² 1,4 °C 17,4 °C 3,2 km/h (1 Bft)
01.04.2017 10:42 17,5 °C 17,5 °C 34 % 1009,8 hPa 0,0 mm 3,2 km/h (1 Bft) N 360 ° 1 min 0,000 mm 3,1 UV-I 504 W/m² 1,5 °C 17,5 °C 4,8 km/h (1 Bft)
01.04.2017 10:43 17,7 °C 17,7 °C 37 % 1009,8 hPa 0,0 mm 1,6 km/h (1 Bft) NO 45 ° 1 min 0,000 mm 3,1 UV-I 454 W/m² 2,8 °C 17,7 °C 4,8 km/h (1 Bft)
01.04.2017 10:44 17,7 °C 17,7 °C 34 % 1009,8 hPa 0,0 mm 4,8 km/h (1 Bft) NO 45 ° 1 min 0,000 mm 3,1 UV-I 454 W/m² 1,6 °C 17,7 °C 6,4 km/h (2 Bft)
01.04.2017 10:45 17,7 °C 17,7 °C 37 % 1009,8 hPa 0,0 mm 3,2 km/h (1 Bft) O 90 ° 1 min 0,000 mm 3,2 UV-I 545 W/m² 2,8 °C 17,7 °C 9,7 km/h (2 Bft)
01.04.2017 10:46 17,7 °C 17,7 °C 35 % 1009,8 hPa 0,0 mm 1,6 km/h (1 Bft) O 90 ° 1 min 0,000 mm 3,2 UV-I 529 W/m² 2,1 °C 17,7 °C 3,2 km/h (1 Bft)
01.04.2017 10:47 17,7 °C 17,8 °C 35 % 1009,8 hPa 0,0 mm 3,2 km/h (1 Bft) O 90 ° 1 min 0,000 mm 3,3 UV-I 555 W/m² 2,1 °C 17,7 °C 9,7 km/h (2 Bft)
01.04.2017 10:48 17,6 °C 17,7 °C 34 % 1009,8 hPa 0,0 mm 3,2 km/h (1 Bft) O-SO 112 ° 1 min 0,000 mm 3,4 UV-I 515 W/m² 1,6 °C 17,6 °C 11,3 km/h (2 Bft)
01.04.2017 10:49 17,4 °C 17,5 °C 37 % 1009,8 hPa 0,0 mm 4,8 km/h (1 Bft) O 90 ° 1 min 0,000 mm 3,5 UV-I 598 W/m² 2,6 °C 17,4 °C 11,3 km/h (2 Bft)
01.04.2017 10:50 17,4 °C 17,5 °C 44 % 1009,8 hPa 0,0 mm 6,4 km/h (2 Bft) O 90 ° 1 min 0,000 mm 3,4 UV-I 587 W/m² 5,0 °C 17,4 °C 8,0 km/h (2 Bft)
01.04.2017 10:51 17,5 °C 17,5 °C 35 % 1009,8 hPa 0,0 mm 1,6 km/h (1 Bft) O 90 ° 1 min 0,000 mm 3,4 UV-I 561 W/m² 1,9 °C 17,5 °C 3,2 km/h (1 Bft)
01.04.2017 10:52 17,6 °C 17,6 °C 39 % 1009,8 hPa 0,0 mm 3,2 km/h (1 Bft) NW 315 ° 1 min 0,000 mm 3,4 UV-I 587 W/m² 3,5 °C 17,6 °C 4,8 km/h (1 Bft)
01.04.2017 10:53 17,7 °C 17,7 °C 34 % 1009,7 hPa 0,0 mm 3,2 km/h (1 Bft) NW 315 ° 1 min 0,000 mm 3,4 UV-I 591 W/m² 1,6 °C 17,7 °C 6,4 km/h (2 Bft)
01.04.2017 10:54 17,8 °C 17,8 °C 36 % 1009,7 hPa 0,0 mm 3,2 km/h (1 Bft) N-NW 337 ° 1 min 0,000 mm 3,5 UV-I 554 W/m² 2,5 °C 17,8 °C 6,4 km/h (2 Bft)
01.04.2017 10:55 17,9 °C 17,9 °C 36 % 1009,7 hPa 0,0 mm 1,6 km/h (1 Bft) N 360 ° 1 min 0,000 mm 3,4 UV-I 570 W/m² 2,6 °C 17,9 °C 3,2 km/h (1 Bft)
01.04.2017 10:56 17,9 °C 17,9 °C 34 % 1009,7 hPa 0,0 mm 1,6 km/h (1 Bft) N 360 ° 1 min 0,000 mm 3,5 UV-I 575 W/m² 1,8 °C 17,9 °C 3,2 km/h (1 Bft)
01.04.2017 10:57 17,7 °C 17,8 °C 34 % 1009,7 hPa 0,0 mm 1,6 km/h (1 Bft) N 360 ° 1 min 0,000 mm 3,6 UV-I 613 W/m² 1,6 °C 17,7 °C 3,2 km/h (1 Bft)
01.04.2017 10:58 17,8 °C 17,8 °C 36 % 1009,7 hPa 0,0 mm 1,6 km/h (1 Bft) N 360 ° 1 min 0,000 mm 3,6 UV-I 575 W/m² 2,5 °C 17,8 °C 3,2 km/h (1 Bft)
01.04.2017 10:59 17,8 °C 17,8 °C 31 % 1009,7 hPa 0,0 mm 3,2 km/h (1 Bft) W 270 ° 1 min 0,000 mm 3,6 UV-I 573 W/m² 0,5 °C 17,8 °C 4,8 km/h (1 Bft)
01.04.2017 11:00 17,8 °C 17,8 °C 31 % 1009,7 hPa 0,0 mm 1,6 km/h (1 Bft) W 270 ° 1 min 0,305 mm 3,5 UV-I 555 W/m² 0,5 °C 17,8 °C 3,2 km/h (1 Bft)
01.04.2017 11:01 17,8 °C 17,8 °C 36 % 1009,7 hPa 0,0 mm 1,6 km/h (1 Bft) W 270 ° 1 min 0,000 mm 3,5 UV-I 550 W/m² 2,5 °C 17,8 °C 3,2 km/h (1 Bft)
01.04.2017 11:02 17,9 °C 17,9 °C 36 % 1009,7 hPa 0,0 mm 8,0 km/h (2 Bft) O 90 ° 1 min 0,000 mm 3,5 UV-I 580 W/m² 2,6 °C 17,9 °C 12,9 km/h (3 Bft)
01.04.2017 11:03 17,8 °C 17,9 °C 32 % 1009,7 hPa 0,0 mm 6,4 km/h (2 Bft) O-NO 67 ° 1 min 0,000 mm 3,5 UV-I 568 W/m² 0,9 °C 17,8 °C 8,0 km/h (2 Bft)
01.04.2017 11:04 17,8 °C 17,8 °C 33 % 1009,7 hPa 0,0 mm 1,6 km/h (1 Bft) O 90 ° 1 min 0,000 mm 3,6 UV-I 589 W/m² 1,3 °C 17,8 °C 3,2 km/h (1 Bft)
01.04.2017 11:05 17,8 °C 17,9 °C 33 % 1009,7 hPa 0,0 mm 1,6 km/h (1 Bft) NO 45 ° 1 min 0,000 mm 3,6 UV-I 589 W/m² 1,3 °C 17,8 °C 3,2 km/h (1 Bft)
01.04.2017 11:06 17,8 °C 17,9 °C 36 % 1009,7 hPa 0,0 mm 1,6 km/h (1 Bft) N 360 ° 1 min 0,000 mm 3,5 UV-I 594 W/m² 2,5 °C 17,8 °C 3,2 km/h (1 Bft)
01.04.2017 11:07 17,8 °C 17,8 °C 36 % 1009,7 hPa 0,0 mm 1,6 km/h (1 Bft) N 360 ° 1 min 0,000 mm 3,5 UV-I 547 W/m² 2,5 °C 17,8 °C 3,2 km/h (1 Bft)
01.04.2017 11:08 17,9 °C 17,9 °C 34 % 1009,6 hPa 0,0 mm 1,6 km/h (1 Bft) N 360 ° 1 min 0,000 mm 3,6 UV-I 536 W/m² 1,8 °C 17,9 °C 4,8 km/h (1 Bft)
01.04.2017 11:09 17,9 °C 17,9 °C 33 % 1009,7 hPa 0,0 mm 3,2 km/h (1 Bft) NO 45 ° 1 min 0,000 mm 3,5 UV-I 610 W/m² 1,4 °C 17,9 °C 6,4 km/h (2 Bft)
01.04.2017 11:10 17,9 °C 17,9 °C 33 % 1009,6 hPa 0,0 mm 4,8 km/h (1 Bft) W 270 ° 1 min 0,000 mm 3,8 UV-I 624 W/m² 1,4 °C 17,9 °C 6,4 km/h (2 Bft)
01.04.2017 11:11 18,0 °C 18,0 °C 30 % 1009,6 hPa 0,0 mm 3,2 km/h (1 Bft) W 270 ° 1 min 0,000 mm 3,7 UV-I 587 W/m² 0,2 °C 18,0 °C 6,4 km/h (2 Bft)
01.04.2017 11:12 17,8 °C 18,0 °C 38 % 1009,6 hPa 0,0 mm 3,2 km/h (1 Bft) S 180 ° 1 min 0,000 mm 3,5 UV-I 527 W/m² 3,3 °C 17,8 °C 6,4 km/h (2 Bft)
01.04.2017 11:13 17,8 °C 17,9 °C 32 % 1009,6 hPa 0,0 mm 4,8 km/h (1 Bft) O-NO 67 ° 1 min 0,000 mm 3,8 UV-I 612 W/m² 0,9 °C 17,8 °C 8,0 km/h (2 Bft)
01.04.2017 11:14 17,8 °C 17,9 °C 40 % 1009,6 hPa 0,0 mm 6,4 km/h (2 Bft) O-NO 67 ° 1 min 0,000 mm 3,7 UV-I 584 W/m² 4,0 °C 17,8 °C 11,3 km/h (2 Bft)
01.04.2017 11:15 17,8 °C 17,8 °C 41 % 1009,6 hPa 0,0 mm 8,0 km/h (2 Bft) O-NO 67 ° 1 min 0,000 mm 3,6 UV-I 582 W/m² 4,4 °C 17,8 °C 11,3 km/h (2 Bft)
01.04.2017 11:16 18,0 °C 18,0 °C 38 % 1009,6 hPa 0,0 mm 1,6 km/h (1 Bft) O-NO 67 ° 1 min 0,000 mm 3,7 UV-I 594 W/m² 3,5 °C 18,0 °C 4,8 km/h (1 Bft)
01.04.2017 11:17 18,3 °C 18,3 °C 38 % 1009,6 hPa 0,0 mm 0,0 km/h (0 Bft) O-NO 67 ° 1 min 0,000 mm 4,0 UV-I 594 W/m² 3,7 °C 18,3 °C 1,6 km/h (1 Bft)
01.04.2017 11:18 18,6 °C 18,6 °C 34 % 1009,6 hPa 0,0 mm 4,8 km/h (1 Bft) NW 315 ° 1 min 0,000 mm 3,8 UV-I 533 W/m² 2,4 °C 18,6 °C 8,0 km/h (2 Bft)
01.04.2017 11:19 18,6 °C 18,6 °C 35 % 1009,5 hPa 0,0 mm 4,8 km/h (1 Bft) S-SO 157 ° 1 min 0,000 mm 4,0 UV-I 533 W/m² 2,8 °C 18,6 °C 8,0 km/h (2 Bft)
01.04.2017 11:20 18,3 °C 18,5 °C 30 % 1009,6 hPa 0,0 mm 4,8 km/h (1 Bft) S-SO 157 ° 1 min 0,000 mm 3,8 UV-I 533 W/m² 0,4 °C 18,3 °C 8,0 km/h (2 Bft)
01.04.2017 11:21 18,3 °C 18,3 °C 30 % 1009,6 hPa 0,0 mm 4,8 km/h (1 Bft) S 180 ° 1 min 0,000 mm 3,8 UV-I 659 W/m² 0,4 °C 18,3 °C 8,0 km/h (2 Bft)
01.04.2017 11:22 18,2 °C 18,2 °C 31 % 1009,5 hPa 0,0 mm 1,6 km/h (1 Bft) S-SW 202 ° 1 min 0,000 mm 4,1 UV-I 664 W/m² 0,8 °C 18,2 °C 4,8 km/h (1 Bft)
01.04.2017 11:23 18,2 °C 18,2 °C 31 % 1009,5 hPa 0,0 mm 0,0 km/h (0 Bft) S-SW 202 ° 1 min 0,000 mm 3,5 UV-I 664 W/m² 0,8 °C 18,2 °C 3,2 km/h (1 Bft)
01.04.2017 11:24 18,2 °C 18,2 °C 35 % 1009,5 hPa 0,0 mm 1,6 km/h (1 Bft) S-SW 202 ° 1 min 0,000 mm 3,4 UV-I 536 W/m² 2,5 °C 18,2 °C 3,2 km/h (1 Bft)
01.04.2017 11:25 18,1 °C 18,2 °C 32 % 1009,5 hPa 0,0 mm 3,2 km/h (1 Bft) N-NW 337 ° 1 min 0,000 mm 3,5 UV-I 536 W/m² 1,2 °C 18,1 °C 6,4 km/h (2 Bft)
01.04.2017 11:26 18,1 °C 18,2 °C 30 % 1009,5 hPa 0,0 mm 1,6 km/h (1 Bft) N-NW 337 ° 1 min 0,000 mm 4,1 UV-I 659 W/m² 0,3 °C 18,1 °C 4,8 km/h (1 Bft)
01.04.2017 11:27 18,2 °C 18,2 °C 31 % 1009,5 hPa 0,0 mm 1,6 km/h (1 Bft) O 90 ° 1 min 0,000 mm 3,7 UV-I 659 W/m² 0,8 °C 18,2 °C 4,8 km/h (1 Bft)
01.04.2017 11:28 18,2 °C 18,2 °C 29 % 1009,5 hPa 0,0 mm 1,6 km/h (1 Bft) O 90 ° 1 min 0,000 mm 3,9 UV-I 628 W/m² -0,1 °C 18,2 °C 3,2 km/h (1 Bft)
01.04.2017 11:29 18,2 °C 18,2 °C 30 % 1009,5 hPa 0,0 mm 3,2 km/h (1 Bft) SW 225 ° 1 min 0,000 mm 4,2 UV-I 628 W/m² 0,3 °C 18,2 °C 3,2 km/h (1 Bft)
01.04.2017 11:30 18,3 °C 18,3 °C 32 % 1009,5 hPa 0,0 mm 4,8 km/h (1 Bft) NO 45 ° 1 min 0,000 mm 3,9 UV-I 652 W/m² 1,3 °C 18,3 °C 8,0 km/h (2 Bft)
01.04.2017 11:31 18,4 °C 18,4 °C 30 % 1009,4 hPa 0,0 mm 6,4 km/h (2 Bft) O-NO 67 ° 1 min 0,000 mm 3,5 UV-I 652 W/m² 0,5 °C 18,4 °C 11,3 km/h (2 Bft)
01.04.2017 11:32 18,4 °C 18,4 °C 32 % 1009,4 hPa 0,0 mm 3,2 km/h (1 Bft) O 90 ° 1 min 0,000 mm 3,5 UV-I 473 W/m² 1,4 °C 18,4 °C 8,0 km/h (2 Bft)
01.04.2017 11:33 18,4 °C 18,4 °C 34 % 1009,5 hPa 0,0 mm 3,2 km/h (1 Bft) O 90 ° 1 min 0,000 mm 3,5 UV-I 473 W/m² 2,3 °C 18,4 °C 4,8 km/h (1 Bft)
01.04.2017 11:34 18,3 °C 18,3 °C 34 % 1009,4 hPa 0,0 mm 1,6 km/h (1 Bft) O 90 ° 1 min 0,000 mm 3,6 UV-I 487 W/m² 2,2 °C 18,3 °C 4,8 km/h (1 Bft)
01.04.2017 11:35 18,2 °C 18,2 °C 32 % 1009,4 hPa 0,0 mm 4,8 km/h (1 Bft) O 90 ° 1 min 0,000 mm 3,6 UV-I 487 W/m² 1,2 °C 18,2 °C 6,4 km/h (2 Bft)
01.04.2017 11:36 18,2 °C 18,2 °C 35 % 1009,4 hPa 0,0 mm 8,0 km/h (2 Bft) O-NO 67 ° 1 min 0,000 mm 3,5 UV-I 522 W/m² 2,5 °C 18,2 °C 14,5 km/h (3 Bft)
01.04.2017 11:37 18,2 °C 18,2 °C 37 % 1009,4 hPa 0,0 mm 6,4 km/h (2 Bft) O-NO 67 ° 1 min 0,000 mm 3,8 UV-I 543 W/m² 3,3 °C 18,2 °C 11,3 km/h (2 Bft)
01.04.2017 11:38 18,2 °C 18,2 °C 34 % 1009,4 hPa 0,0 mm 4,8 km/h (1 Bft) O-NO 67 ° 1 min 0,000 mm 3,9 UV-I 594 W/m² 2,1 °C 18,2 °C 12,9 km/h (3 Bft)
01.04.2017 11:39 18,2 °C 18,2 °C 34 % 1009,4 hPa 0,0 mm 8,0 km/h (2 Bft) NO 45 ° 1 min 0,000 mm 3,9 UV-I 654 W/m² 2,1 °C 18,2 °C 12,9 km/h (3 Bft)
01.04.2017 11:40 18,4 °C 18,4 °C 32 % 1009,4 hPa 0,0 mm 3,2 km/h (1 Bft) NO 45 ° 1 min 0,000 mm 4,1 UV-I 615 W/m² 1,4 °C 18,4 °C 4,8 km/h (1 Bft)
01.04.2017 11:41 18,6 °C 18,6 °C 33 % 1009,4 hPa 0,0 mm 1,6 km/h (1 Bft) W-NW 292 ° 1 min 0,000 mm 4,3 UV-I 668 W/m² 2,0 °C 18,6 °C 3,2 km/h (1 Bft)
01.04.2017 11:42 18,6 °C 18,6 °C 30 % 1009,3 hPa 0,0 mm 3,2 km/h (1 Bft) O-NO 67 ° 1 min 0,000 mm 4,1 UV-I 592 W/m² 0,7 °C 18,6 °C 4,8 km/h (1 Bft)
01.04.2017 11:43 18,7 °C 18,7 °C 32 % 1009,4 hPa 0,0 mm 1,6 km/h (1 Bft) O 90 ° 1 min 0,000 mm 4,0 UV-I 587 W/m² 1,7 °C 18,7 °C 3,2 km/h (1 Bft)
01.04.2017 11:44 18,7 °C 18,7 °C 33 % 1009,4 hPa 0,0 mm 1,6 km/h (1 Bft) O 90 ° 1 min 0,000 mm 4,2 UV-I 587 W/m² 2,1 °C 18,7 °C 3,2 km/h (1 Bft)
01.04.2017 11:45 18,7 °C 18,8 °C 30 % 1009,3 hPa 0,0 mm 1,6 km/h (1 Bft) O 90 ° 1 min 0,000 mm 4,3 UV-I 689 W/m² 0,8 °C 18,7 °C 3,2 km/h (1 Bft)
01.04.2017 11:46 18,6 °C 18,7 °C 29 % 1009,3 hPa 0,0 mm 1,6 km/h (1 Bft) O 90 ° 1 min 0,000 mm 4,4 UV-I 677 W/m² 0,2 °C 18,6 °C 3,2 km/h (1 Bft)
01.04.2017 11:47 18,6 °C 18,6 °C 31 % 1009,3 hPa 0,0 mm 1,6 km/h (1 Bft) O 90 ° 1 min 0,000 mm 4,5 UV-I 731 W/m² 1,1 °C 18,6 °C 1,6 km/h (1 Bft)
01.04.2017 11:48 18,6 °C 18,7 °C 29 % 1009,3 hPa 0,0 mm 3,2 km/h (1 Bft) O 90 ° 1 min 0,000 mm 4,3 UV-I 661 W/m² 0,2 °C 18,6 °C 6,4 km/h (2 Bft)
01.04.2017 11:49 18,7 °C 18,7 °C 32 % 1009,3 hPa 0,0 mm 4,8 km/h (1 Bft) NO 45 ° 1 min 0,000 mm 4,4 UV-I 707 W/m² 1,7 °C 18,7 °C 6,4 km/h (2 Bft)
01.04.2017 11:50 18,8 °C 18,8 °C 31 % 1009,3 hPa 0,0 mm 6,4 km/h (2 Bft) NO 45 ° 1 min 0,000 mm 4,2 UV-I 682 W/m² 1,3 °C 18,8 °C 8,0 km/h (2 Bft)
01.04.2017 11:51 18,8 °C 18,9 °C 31 % 1009,3 hPa 0,0 mm 6,4 km/h (2 Bft) NO 45 ° 1 min 0,000 mm 4,1 UV-I 670 W/m² 1,3 °C 18,8 °C 12,9 km/h (3 Bft)
01.04.2017 11:52 18,9 °C 18,9 °C 30 % 1009,3 hPa 0,0 mm 11,3 km/h (2 Bft) O-NO 67 ° 1 min 0,000 mm 4,1 UV-I 666 W/m² 1,0 °C 18,9 °C 14,5 km/h (3 Bft)
01.04.2017 11:53 18,9 °C 18,9 °C 30 % 1009,3 hPa 0,0 mm 9,7 km/h (2 Bft) NO 45 ° 1 min 0,000 mm 4,1 UV-I 652 W/m² 1,0 °C 18,9 °C 16,1 km/h (3 Bft)
01.04.2017 11:54 18,9 °C 18,9 °C 29 % 1009,3 hPa 0,0 mm 11,3 km/h (2 Bft) O-NO 67 ° 1 min 0,000 mm 4,3 UV-I 677 W/m² 0,5 °C 18,9 °C 16,1 km/h (3 Bft)
01.04.2017 11:55 18,8 °C 18,8 °C 29 % 1009,3 hPa 0,0 mm 6,4 km/h (2 Bft) O-NO 67 ° 1 min 0,000 mm 4,2 UV-I 650 W/m² 0,4 °C 18,8 °C 16,1 km/h (3 Bft)
01.04.2017 11:56 18,7 °C 18,8 °C 29 % 1009,3 hPa 0,0 mm 4,8 km/h (1 Bft) NO 45 ° 1 min 0,000 mm 4,4 UV-I 657 W/m² 0,3 °C 18,7 °C 6,4 km/h (2 Bft)
01.04.2017 11:57 18,8 °C 18,8 °C 31 % 1009,2 hPa 0,0 mm 8,0 km/h (2 Bft) O-NO 67 ° 1 min 0,000 mm 4,4 UV-I 673 W/m² 1,3 °C 18,8 °C 12,9 km/h (3 Bft)
01.04.2017 11:58 18,7 °C 18,8 °C 29 % 1009,3 hPa 0,0 mm 11,3 km/h (2 Bft) NO 45 ° 1 min 0,000 mm 4,5 UV-I 682 W/m² 0,3 °C 18,7 °C 16,1 km/h (3 Bft)
01.04.2017 11:59 18,7 °C 18,7 °C 29 % 1009,2 hPa 0,0 mm 8,0 km/h (2 Bft) O-NO 67 ° 1 min 0,000 mm 4,5 UV-I 731 W/m² 0,3 °C 18,7 °C 12,9 km/h (3 Bft)
01.04.2017 12:00 18,8 °C 18,8 °C 34 % 1009,2 hPa 0,0 mm 8,0 km/h (2 Bft) O-NO 67 ° 1 min 0,381 mm 4,3 UV-I 710 W/m² 2,6 °C 18,8 °C 12,9 km/h (3 Bft)
01.04.2017 12:01 18,9 °C 18,9 °C 30 % 1009,2 hPa 0,0 mm 6,4 km/h (2 Bft) O 90 ° 1 min 0,000 mm 4,6 UV-I 740 W/m² 1,0 °C 18,9 °C 16,1 km/h (3 Bft)
01.04.2017 12:02 18,9 °C 18,9 °C 34 % 1009,2 hPa 0,0 mm 6,4 km/h (2 Bft) O-NO 67 ° 1 min 0,000 mm 4,5 UV-I 712 W/m² 2,7 °C 18,9 °C 11,3 km/h (2 Bft)
01.04.2017 12:03 19,1 °C 19,1 °C 33 % 1009,3 hPa 0,0 mm 4,8 km/h (1 Bft) O 90 ° 1 min 0,000 mm 4,6 UV-I 733 W/m² 2,5 °C 19,1 °C 8,0 km/h (2 Bft)
01.04.2017 12:04 19,2 °C 19,2 °C 32 % 1009,2 hPa 0,0 mm 3,2 km/h (1 Bft) S 180 ° 1 min 0,000 mm 4,5 UV-I 698 W/m² 2,1 °C 19,2 °C 4,8 km/h (1 Bft)
01.04.2017 12:05 19,3 °C 19,3 °C 33 % 1009,2 hPa 0,0 mm 3,2 km/h (1 Bft) S 180 ° 1 min 0,000 mm 4,5 UV-I 712 W/m² 2,6 °C 19,3 °C 8,0 km/h (2 Bft)
01.04.2017 12:06 19,3 °C 19,3 °C 28 % 1009,2 hPa 0,0 mm 4,8 km/h (1 Bft) NO 45 ° 1 min 0,000 mm 4,6 UV-I 710 W/m² 0,3 °C 19,3 °C 8,0 km/h (2 Bft)
01.04.2017 12:07 19,2 °C 19,3 °C 28 % 1009,2 hPa 0,0 mm 3,2 km/h (1 Bft) O-NO 67 ° 1 min 0,000 mm 4,4 UV-I 731 W/m² 0,3 °C 19,2 °C 6,4 km/h (2 Bft)
01.04.2017 12:08 19,1 °C 19,1 °C 30 % 1009,3 hPa 0,0 mm 1,6 km/h (1 Bft) O-NO 67 ° 1 min 0,000 mm 4,4 UV-I 694 W/m² 1,1 °C 19,1 °C 3,2 km/h (1 Bft)
01.04.2017 12:09 19,1 °C 19,1 °C 29 % 1009,2 hPa 0,0 mm 1,6 km/h (1 Bft) SO 135 ° 1 min 0,000 mm 4,5 UV-I 724 W/m² 0,7 °C 19,1 °C 4,8 km/h (1 Bft)
01.04.2017 12:10 19,1 °C 19,1 °C 28 % 1009,2 hPa 0,0 mm 3,2 km/h (1 Bft) N-NW 337 ° 1 min 0,000 mm 4,2 UV-I 671 W/m² 0,2 °C 19,1 °C 6,4 km/h (2 Bft)
01.04.2017 12:11 19,2 °C 19,2 °C 28 % 1009,2 hPa 0,0 mm 3,2 km/h (1 Bft) W 270 ° 1 min 0,000 mm 4,2 UV-I 629 W/m² 0,3 °C 19,2 °C 4,8 km/h (1 Bft)
01.04.2017 12:12 19,2 °C 19,2 °C 29 % 1009,2 hPa 0,0 mm 4,8 km/h (1 Bft) SO 135 ° 1 min 0,000 mm 4,3 UV-I 635 W/m² 0,7 °C 19,2 °C 8,0 km/h (2 Bft)
01.04.2017 12:13 19,2 °C 19,2 °C 29 % 1009,2 hPa 0,0 mm 1,6 km/h (1 Bft) SO 135 ° 1 min 0,000 mm 4,5 UV-I 700 W/m² 0,7 °C 19,2 °C 3,2 km/h (1 Bft)
01.04.2017 12:14 19,3 °C 19,3 °C 29 % 1009,1 hPa 0,0 mm 4,8 km/h (1 Bft) N 360 ° 1 min 0,000 mm 4,4 UV-I 673 W/m² 0,8 °C 19,3 °C 9,7 km/h (2 Bft)
01.04.2017 12:15 19,4 °C 19,4 °C 33 % 1009,1 hPa 0,0 mm 6,4 km/h (2 Bft) O-NO 67 ° 1 min 0,000 mm 4,4 UV-I 643 W/m² 2,7 °C 19,4 °C 16,1 km/h (3 Bft)
01.04.2017 12:16 19,3 °C 19,4 °C 27 % 1009,1 hPa 0,0 mm 8,0 km/h (2 Bft) NO 45 ° 1 min 0,000 mm 4,2 UV-I 612 W/m² -0,2 °C 19,3 °C 12,9 km/h (3 Bft)
01.04.2017 12:17 19,2 °C 19,3 °C 29 % 1009,1 hPa 0,0 mm 9,7 km/h (2 Bft) N-NO 22 ° 1 min 0,000 mm 4,1 UV-I 570 W/m² 0,7 °C 19,2 °C 14,5 km/h (3 Bft)
01.04.2017 12:18 19,2 °C 19,2 °C 28 % 1009,1 hPa 0,0 mm 9,7 km/h (2 Bft) O-NO 67 ° 1 min 0,000 mm 4,0 UV-I 568 W/m² 0,3 °C 19,2 °C 14,5 km/h (3 Bft)
01.04.2017 12:19 19,1 °C 19,2 °C 29 % 1009,1 hPa 0,0 mm 9,7 km/h (2 Bft) NO 45 ° 1 min 0,000 mm 3,9 UV-I 585 W/m² 0,7 °C 19,1 °C 14,5 km/h (3 Bft)
01.04.2017 12:20 19,1 °C 19,1 °C 29 % 1009,1 hPa 0,0 mm 9,7 km/h (2 Bft) O-NO 67 ° 1 min 0,000 mm 4,1 UV-I 617 W/m² 0,7 °C 19,1 °C 14,5 km/h (3 Bft)
01.04.2017 12:21 19,1 °C 19,1 °C 30 % 1009,1 hPa 0,0 mm 9,7 km/h (2 Bft) O-NO 67 ° 1 min 0,000 mm 4,2 UV-I 638 W/m² 1,1 °C 19,1 °C 14,5 km/h (3 Bft)
01.04.2017 12:23 19,1 °C 19,1 °C 28 % 1009,1 hPa 0,0 mm 4,5 km/h (1 Bft) O-NO 59 ° 2 min 0,000 mm 4,0 UV-I 547 W/m² 0,2 °C 19,1 °C 6,4 km/h (2 Bft)
01.04.2017 12:24 19,0 °C 19,1 °C 28 % 1009,1 hPa 0,0 mm 2,2 km/h (1 Bft) O-NO 57 ° 1 min 0,000 mm 3,9 UV-I 548 W/m² 0,1 °C 19,0 °C 4,8 km/h (1 Bft)
01.04.2017 12:25 19,1 °C 19,1 °C 29 % 1009,1 hPa 0,0 mm 1,7 km/h (1 Bft) O-NO 57 ° 1 min 0,000 mm 4,2 UV-I 621 W/m² 0,7 °C 19,1 °C 6,4 km/h (2 Bft)
01.04.2017 12:26 19,2 °C 19,2 °C 30 % 1009,1 hPa 0,0 mm 4,2 km/h (1 Bft) N-NO 28 ° 1 min 0,000 mm 4,1 UV-I 591 W/m² 1,2 °C 19,2 °C 6,4 km/h (2 Bft)
01.04.2017 12:27 19,2 °C 19,2 °C 30 % 1009,1 hPa 0,0 mm 5,9 km/h (2 Bft) O-NO 69 ° 1 min 0,000 mm 3,9 UV-I 550 W/m² 1,2 °C 19,2 °C 9,7 km/h (2 Bft)
01.04.2017 12:28 19,2 °C 19,2 °C 31 % 1009,1 hPa 0,0 mm 4,2 km/h (1 Bft) SO 146 ° 1 min 0,000 mm 4,0 UV-I 617 W/m² 1,7 °C 19,2 °C 11,3 km/h (2 Bft)
01.04.2017 12:29 19,2 °C 19,2 °C 28 % 1009,1 hPa 0,0 mm 2,4 km/h (1 Bft) NO 44 ° 1 min 0,000 mm 3,9 UV-I 601 W/m² 0,3 °C 19,2 °C 4,8 km/h (1 Bft)
01.04.2017 12:30 19,1 °C 19,2 °C 29 % 1009,1 hPa 0,0 mm 3,6 km/h (1 Bft) N-NO 32 ° 1 min 0,000 mm 4,3 UV-I 605 W/m² 0,7 °C 19,1 °C 8,0 km/h (2 Bft)
01.04.2017 12:31 19,1 °C 19,1 °C 31 % 1009,0 hPa 0,0 mm 8,9 km/h (2 Bft) SO 124 ° 1 min 0,000 mm 4,0 UV-I 575 W/m² 1,6 °C 19,1 °C 12,9 km/h (3 Bft)
01.04.2017 12:32 19,2 °C 19,2 °C 30 % 1009,1 hPa 0,0 mm 7,6 km/h (2 Bft) S-SW 202 ° 1 min 0,000 mm 4,2 UV-I 599 W/m² 1,2 °C 19,2 °C 12,9 km/h (3 Bft)
01.04.2017 12:33 19,2 °C 19,2 °C 29 % 1009,0 hPa 0,0 mm 5,4 km/h (1 Bft) S-SO 161 ° 1 min 0,000 mm 4,2 UV-I 582 W/m² 0,7 °C 19,2 °C 9,7 km/h (2 Bft)
01.04.2017 12:34 19,2 °C 19,2 °C 29 % 1009,1 hPa 0,0 mm 2,9 km/h (1 Bft) SW 229 ° 1 min 0,000 mm 4,3 UV-I 582 W/m² 0,7 °C 19,2 °C 6,4 km/h (2 Bft)
01.04.2017 12:35 19,2 °C 19,2 °C 31 % 1009,0 hPa 0,0 mm 3,0 km/h (1 Bft) W-NW 302 ° 1 min 0,000 mm 4,2 UV-I 608 W/m² 1,7 °C 19,2 °C 6,4 km/h (2 Bft)
01.04.2017 12:36 19,3 °C 19,3 °C 32 % 1009,0 hPa 0,0 mm 4,6 km/h (1 Bft) W 260 ° 1 min 0,000 mm 4,0 UV-I 548 W/m² 2,2 °C 19,3 °C 6,4 km/h (2 Bft)
01.04.2017 12:37 19,5 °C 19,5 °C 33 % 1009,0 hPa 0,0 mm 3,1 km/h (1 Bft) NW 317 ° 1 min 0,000 mm 4,0 UV-I 557 W/m² 2,8 °C 19,5 °C 8,0 km/h (2 Bft)
01.04.2017 12:38 19,5 °C 19,5 °C 30 % 1009,0 hPa 0,0 mm 3,9 km/h (1 Bft) W-NW 282 ° 1 min 0,000 mm 3,6 UV-I 478 W/m² 1,5 °C 19,5 °C 6,4 km/h (2 Bft)
01.04.2017 12:39 19,5 °C 19,5 °C 29 % 1009,0 hPa 0,0 mm 2,7 km/h (1 Bft) W-NW 284 ° 1 min 0,000 mm 3,6 UV-I 536 W/m² 1,0 °C 19,5 °C 6,4 km/h (2 Bft)
01.04.2017 12:40 19,4 °C 19,5 °C 28 % 1009,0 hPa 0,0 mm 4,6 km/h (1 Bft) W 271 ° 1 min 0,000 mm 4,1 UV-I 584 W/m² 0,4 °C 19,4 °C 8,0 km/h (2 Bft)
01.04.2017 12:41 19,5 °C 19,5 °C 29 % 1009,0 hPa 0,0 mm 4,9 km/h (1 Bft) SW 219 ° 1 min 0,000 mm 3,9 UV-I 548 W/m² 1,0 °C 19,5 °C 9,7 km/h (2 Bft)
01.04.2017 12:42 19,4 °C 19,5 °C 28 % 1009,0 hPa 0,0 mm 4,3 km/h (1 Bft) W 267 ° 1 min 0,000 mm 4,1 UV-I 559 W/m² 0,4 °C 19,4 °C 6,4 km/h (2 Bft)
01.04.2017 12:43 19,3 °C 19,4 °C 30 % 1009,0 hPa 0,0 mm 1,5 km/h (1 Bft) W 267 ° 1 min 0,000 mm 3,9 UV-I 550 W/m² 1,3 °C 19,3 °C 3,2 km/h (1 Bft)
01.04.2017 12:44 19,3 °C 19,3 °C 27 % 1009,0 hPa 0,0 mm 2,8 km/h (1 Bft) S 170 ° 1 min 0,000 mm 3,9 UV-I 550 W/m² -0,2 °C 19,3 °C 8,0 km/h (2 Bft)
01.04.2017 12:45 19,2 °C 19,3 °C 29 % 1008,9 hPa 0,0 mm 6,3 km/h (2 Bft) S 178 ° 1 min 0,000 mm 4,0 UV-I 570 W/m² 0,7 °C 19,2 °C 11,3 km/h (2 Bft)
01.04.2017 12:46 19,3 °C 19,3 °C 27 % 1008,9 hPa 0,0 mm 7,5 km/h (2 Bft) W 270 ° 1 min 0,000 mm 3,9 UV-I 550 W/m² -0,2 °C 19,3 °C 12,9 km/h (3 Bft)
01.04.2017 12:47 19,3 °C 19,3 °C 28 % 1008,9 hPa 0,0 mm 5,9 km/h (2 Bft) S-SW 197 ° 1 min 0,000 mm 3,9 UV-I 541 W/m² 0,3 °C 19,3 °C 8,0 km/h (2 Bft)
01.04.2017 12:48 19,3 °C 19,3 °C 28 % 1008,9 hPa 0,0 mm 7,6 km/h (2 Bft) SW 216 ° 1 min 0,000 mm 4,1 UV-I 585 W/m² 0,3 °C 19,3 °C 11,3 km/h (2 Bft)
01.04.2017 12:49 19,3 °C 19,3 °C 28 % 1008,9 hPa 0,0 mm 5,8 km/h (2 Bft) S-SW 211 ° 1 min 0,000 mm 3,9 UV-I 536 W/m² 0,3 °C 19,3 °C 8,0 km/h (2 Bft)
01.04.2017 12:50 19,3 °C 19,3 °C 29 % 1008,9 hPa 0,0 mm 5,4 km/h (1 Bft) W 273 ° 1 min 0,000 mm 3,9 UV-I 533 W/m² 0,8 °C 19,3 °C 11,3 km/h (2 Bft)
01.04.2017 12:51 19,3 °C 19,3 °C 27 % 1008,9 hPa 0,0 mm 5,3 km/h (1 Bft) W 271 ° 1 min 0,000 mm 3,9 UV-I 543 W/m² -0,2 °C 19,3 °C 9,7 km/h (2 Bft)
01.04.2017 12:52 19,3 °C 19,3 °C 29 % 1008,9 hPa 0,0 mm 3,9 km/h (1 Bft) W-NW 296 ° 1 min 0,000 mm 3,9 UV-I 568 W/m² 0,8 °C 19,3 °C 4,8 km/h (1 Bft)
01.04.2017 12:53 19,3 °C 19,4 °C 28 % 1009,0 hPa 0,0 mm 2,5 km/h (1 Bft) W 281 ° 1 min 0,000 mm 3,6 UV-I 568 W/m² 0,3 °C 19,3 °C 4,8 km/h (1 Bft)
01.04.2017 12:54 19,3 °C 19,4 °C 29 % 1009,0 hPa 0,0 mm 3,8 km/h (1 Bft) NW 318 ° 1 min 0,000 mm 3,5 UV-I 452 W/m² 0,8 °C 19,3 °C 6,4 km/h (2 Bft)
01.04.2017 12:55 19,4 °C 19,4 °C 32 % 1009,0 hPa 0,0 mm 5,0 km/h (1 Bft) W-NW 293 ° 1 min 0,000 mm 3,6 UV-I 443 W/m² 2,3 °C 19,4 °C 6,4 km/h (2 Bft)
01.04.2017 12:56 19,3 °C 19,4 °C 32 % 1009,0 hPa 0,0 mm 5,7 km/h (1 Bft) W 275 ° 1 min 0,000 mm 3,6 UV-I 494 W/m² 2,2 °C 19,3 °C 9,7 km/h (2 Bft)
01.04.2017 12:57 19,3 °C 19,4 °C 28 % 1009,0 hPa 0,0 mm 4,2 km/h (1 Bft) W-NW 288 ° 1 min 0,000 mm 3,7 UV-I 478 W/m² 0,3 °C 19,3 °C 6,4 km/h (2 Bft)
01.04.2017 12:58 19,2 °C 19,3 °C 30 % 1009,0 hPa 0,0 mm 2,4 km/h (1 Bft) W-NW 288 ° 1 min 0,000 mm 3,4 UV-I 454 W/m² 1,2 °C 19,2 °C 3,2 km/h (1 Bft)
01.04.2017 12:59 19,1 °C 19,2 °C 27 % 1008,9 hPa 0,0 mm 0,6 km/h (0 Bft) W-NW 288 ° 1 min 0,000 mm 3,4 UV-I 432 W/m² -0,3 °C 19,1 °C 1,6 km/h (1 Bft)
01.04.2017 13:00 19,1 °C 19,1 °C 27 % 1009,0 hPa 0,0 mm 0,3 km/h (0 Bft) W-NW 288 ° 1 min 0,381 mm 3,4 UV-I 445 W/m² -0,3 °C 19,1 °C 1,6 km/h (1 Bft)
01.04.2017 13:01 19,1 °C 19,1 °C 29 % 1008,9 hPa 0,0 mm 0,9 km/h (0 Bft) W-NW 288 ° 1 min 0,000 mm 3,5 UV-I 462 W/m² 0,7 °C 19,1 °C 3,2 km/h (1 Bft)
01.04.2017 13:02 19,2 °C 19,2 °C 32 % 1008,9 hPa 0,0 mm 4,7 km/h (1 Bft) N-NW 333 ° 1 min 0,000 mm 3,3 UV-I 418 W/m² 2,1 °C 19,2 °C 6,4 km/h (2 Bft)
01.04.2017 13:03 19,2 °C 19,2 °C 30 % 1008,9 hPa 0,0 mm 4,2 km/h (1 Bft) N-NW 345 ° 1 min 0,000 mm 3,3 UV-I 413 W/m² 1,2 °C 19,2 °C 4,8 km/h (1 Bft)
01.04.2017 13:04 19,3 °C 19,3 °C 29 % 1008,9 hPa 0,0 mm 5,4 km/h (1 Bft) W-NW 288 ° 1 min 0,000 mm 3,2 UV-I 392 W/m² 0,8 °C 19,3 °C 9,7 km/h (2 Bft)
01.04.2017 13:05 19,3 °C 19,3 °C 30 % 1008,8 hPa 0,0 mm 3,2 km/h (1 Bft) W-NW 301 ° 1 min 0,000 mm 3,1 UV-I 371 W/m² 1,3 °C 19,3 °C 6,4 km/h (2 Bft)
01.04.2017 13:06 19,2 °C 19,3 °C 29 % 1008,9 hPa 0,0 mm 7,1 km/h (2 Bft) W-NW 294 ° 1 min 0,000 mm 3,1 UV-I 357 W/m² 0,7 °C 19,2 °C 11,3 km/h (2 Bft)
01.04.2017 13:07 19,1 °C 19,2 °C 29 % 1008,8 hPa 0,0 mm 4,9 km/h (1 Bft) W 275 ° 1 min 0,000 mm 3,0 UV-I 359 W/m² 0,7 °C 19,1 °C 8,0 km/h (2 Bft)
01.04.2017 13:08 19,0 °C 19,1 °C 28 % 1008,8 hPa 0,0 mm 5,0 km/h (1 Bft) W-NW 289 ° 1 min 0,000 mm 3,1 UV-I 364 W/m² 0,1 °C 19,0 °C 9,7 km/h (2 Bft)
01.04.2017 13:09 18,9 °C 19,0 °C 31 % 1008,9 hPa 0,0 mm 7,0 km/h (2 Bft) W 269 ° 1 min 0,000 mm 3,1 UV-I 367 W/m² 1,4 °C 18,9 °C 9,7 km/h (2 Bft)
01.04.2017 13:10 18,9 °C 18,9 °C 28 % 1008,9 hPa 0,0 mm 5,2 km/h (1 Bft) W-NW 282 ° 1 min 0,000 mm 3,1 UV-I 364 W/m² -0,0 °C 18,9 °C 6,4 km/h (2 Bft)
01.04.2017 13:11 18,9 °C 18,9 °C 30 % 1008,9 hPa 0,0 mm 3,3 km/h (1 Bft) W-NW 286 ° 1 min 0,000 mm 3,1 UV-I 371 W/m² 1,0 °C 18,9 °C 4,8 km/h (1 Bft)
01.04.2017 13:12 18,8 °C 18,9 °C 28 % 1008,9 hPa 0,0 mm 2,4 km/h (1 Bft) W-NW 286 ° 1 min 0,000 mm 3,1 UV-I 376 W/m² -0,1 °C 18,8 °C 4,8 km/h (1 Bft)
01.04.2017 13:13 18,8 °C 18,8 °C 32 % 1008,9 hPa 0,0 mm 4,2 km/h (1 Bft) W 276 ° 1 min 0,000 mm 3,1 UV-I 383 W/m² 1,8 °C 18,8 °C 6,4 km/h (2 Bft)
01.04.2017 13:14 18,8 °C 18,8 °C 29 % 1008,9 hPa 0,0 mm 4,6 km/h (1 Bft) NW 304 ° 1 min 0,000 mm 3,2 UV-I 387 W/m² 0,4 °C 18,8 °C 6,4 km/h (2 Bft)
01.04.2017 13:15 18,8 °C 18,8 °C 28 % 1008,9 hPa 0,0 mm 1,5 km/h (1 Bft) W-NW 293 ° 1 min 0,000 mm 3,1 UV-I 380 W/m² -0,1 °C 18,8 °C 1,6 km/h (1 Bft)
01.04.2017 13:16 18,8 °C 18,8 °C 28 % 1008,8 hPa 0,0 mm 3,0 km/h (1 Bft) W-NW 293 ° 1 min 0,000 mm 3,2 UV-I 388 W/m² -0,1 °C 18,8 °C 4,8 km/h (1 Bft)
01.04.2017 13:17 18,8 °C 18,8 °C 29 % 1008,9 hPa 0,0 mm 3,4 km/h (1 Bft) W-NW 302 ° 1 min 0,000 mm 3,1 UV-I 378 W/m² 0,4 °C 18,8 °C 6,4 km/h (2 Bft)
01.04.2017 13:18 18,8 °C 18,8 °C 30 % 1008,9 hPa 0,0 mm 3,5 km/h (1 Bft) W-NW 302 ° 1 min 0,000 mm 3,1 UV-I 371 W/m² 0,9 °C 18,8 °C 4,8 km/h (1 Bft)
01.04.2017 13:19 18,8 °C 18,8 °C 33 % 1008,8 hPa 0,0 mm 2,0 km/h (1 Bft) W-NW 302 ° 1 min 0,000 mm 3,1 UV-I 362 W/m² 2,2 °C 18,8 °C 3,2 km/h (1 Bft)
01.04.2017 13:20 18,8 °C 18,9 °C 29 % 1008,9 hPa 0,0 mm 2,7 km/h (1 Bft) NW 313 ° 1 min 0,000 mm 3,0 UV-I 359 W/m² 0,4 °C 18,8 °C 6,4 km/h (2 Bft)
01.04.2017 13:21 18,9 °C 18,9 °C 31 % 1008,9 hPa 0,0 mm 6,9 km/h (2 Bft) W-NW 284 ° 1 min 0,000 mm 3,0 UV-I 355 W/m² 1,4 °C 18,9 °C 9,7 km/h (2 Bft)
01.04.2017 13:22 18,8 °C 18,9 °C 29 % 1008,9 hPa 0,0 mm 4,8 km/h (1 Bft) W 267 ° 1 min 0,000 mm 2,9 UV-I 343 W/m² 0,4 °C 18,8 °C 9,7 km/h (2 Bft)
01.04.2017 13:23 18,8 °C 18,8 °C 28 % 1008,9 hPa 0,0 mm 3,2 km/h (1 Bft) W 267 ° 1 min 0,000 mm 2,9 UV-I 341 W/m² -0,1 °C 18,8 °C 4,8 km/h (1 Bft)
01.04.2017 13:24 18,7 °C 18,8 °C 28 % 1008,8 hPa 0,0 mm 2,0 km/h (1 Bft) NW 308 ° 1 min 0,000 mm 2,9 UV-I 329 W/m² -0,2 °C 18,7 °C 3,2 km/h (1 Bft)
01.04.2017 13:25 18,7 °C 18,7 °C 29 % 1008,8 hPa 0,0 mm 3,7 km/h (1 Bft) W-NW 289 ° 1 min 0,000 mm 2,8 UV-I 327 W/m² 0,3 °C 18,7 °C 6,4 km/h (2 Bft)
01.04.2017 13:26 18,6 °C 18,7 °C 27 % 1008,8 hPa 0,0 mm 5,1 km/h (1 Bft) W-NW 294 ° 1 min 0,000 mm 2,8 UV-I 322 W/m² -0,8 °C 18,6 °C 6,4 km/h (2 Bft)
01.04.2017 13:27 18,6 °C 18,7 °C 29 % 1008,8 hPa 0,0 mm 4,8 km/h (1 Bft) W-NW 288 ° 1 min 0,000 mm 2,8 UV-I 320 W/m² 0,2 °C 18,6 °C 6,4 km/h (2 Bft)
01.04.2017 13:28 18,7 °C 18,7 °C 30 % 1008,8 hPa 0,0 mm 5,0 km/h (1 Bft) NW 323 ° 1 min 0,000 mm 2,8 UV-I 316 W/m² 0,8 °C 18,7 °C 6,4 km/h (2 Bft)
01.04.2017 13:29 18,7 °C 18,7 °C 29 % 1008,8 hPa 0,0 mm 5,1 km/h (1 Bft) W-NW 301 ° 1 min 0,000 mm 2,7 UV-I 313 W/m² 0,3 °C 18,7 °C 6,4 km/h (2 Bft)
01.04.2017 13:30 18,7 °C 18,7 °C 29 % 1008,8 hPa 0,0 mm 3,7 km/h (1 Bft) W-NW 296 ° 1 min 0,000 mm 2,7 UV-I 311 W/m² 0,3 °C 18,7 °C 6,4 km/h (2 Bft)
01.04.2017 13:31 18,6 °C 18,7 °C 27 % 1008,8 hPa 0,0 mm 2,3 km/h (1 Bft) W-NW 296 ° 1 min 0,000 mm 2,7 UV-I 309 W/m² -0,8 °C 18,6 °C 3,2 km/h (1 Bft)
01.04.2017 13:32 18,6 °C 18,6 °C 28 % 1008,8 hPa 0,0 mm 4,0 km/h (1 Bft) W 281 ° 1 min 0,000 mm 2,7 UV-I 308 W/m² -0,3 °C 18,6 °C 6,4 km/h (2 Bft)
01.04.2017 13:33 18,6 °C 18,6 °C 28 % 1008,8 hPa 0,0 mm 2,4 km/h (1 Bft) W 281 ° 1 min 0,000 mm 2,7 UV-I 306 W/m² -0,3 °C 18,6 °C 4,8 km/h (1 Bft)
01.04.2017 13:34 18,5 °C 18,6 °C 28 % 1008,8 hPa 0,0 mm 0,5 km/h (0 Bft) W 281 ° 1 min 0,000 mm 2,6 UV-I 302 W/m² -0,3 °C 18,5 °C 1,6 km/h (1 Bft)
01.04.2017 13:35 18,5 °C 18,5 °C 32 % 1008,8 hPa 0,0 mm 1,9 km/h (1 Bft) W-NW 298 ° 1 min 0,000 mm 2,6 UV-I 297 W/m² 1,5 °C 18,5 °C 3,2 km/h (1 Bft)
01.04.2017 13:36 18,6 °C 18,6 °C 31 % 1008,8 hPa 0,0 mm 4,6 km/h (1 Bft) W-NW 292 ° 1 min 0,000 mm 2,6 UV-I 292 W/m² 1,1 °C 18,6 °C 6,4 km/h (2 Bft)
01.04.2017 13:37 18,6 °C 18,6 °C 30 % 1008,8 hPa 0,0 mm 3,7 km/h (1 Bft) W-NW 298 ° 1 min 0,000 mm 2,5 UV-I 290 W/m² 0,7 °C 18,6 °C 6,4 km/h (2 Bft)
01.04.2017 13:38 18,6 °C 18,6 °C 32 % 1008,8 hPa 0,0 mm 3,2 km/h (1 Bft) NW 304 ° 1 min 0,000 mm 2,5 UV-I 290 W/m² 1,6 °C 18,6 °C 6,4 km/h (2 Bft)
01.04.2017 13:39 18,5 °C 18,6 °C 31 % 1008,8 hPa 0,0 mm 4,8 km/h (1 Bft) W-NW 284 ° 1 min 0,000 mm 2,5 UV-I 290 W/m² 1,1 °C 18,5 °C 6,4 km/h (2 Bft)
01.04.2017 13:40 18,5 °C 18,5 °C 33 % 1008,8 hPa 0,0 mm 3,8 km/h (1 Bft) NW 317 ° 1 min 0,000 mm 2,5 UV-I 292 W/m² 1,9 °C 18,5 °C 9,7 km/h (2 Bft)
01.04.2017 13:41 18,4 °C 18,5 °C 33 % 1008,8 hPa 0,0 mm 4,8 km/h (1 Bft) NW 313 ° 1 min 0,000 mm 2,5 UV-I 292 W/m² 1,8 °C 18,4 °C 8,0 km/h (2 Bft)
01.04.2017 13:42 18,5 °C 18,5 °C 34 % 1008,8 hPa 0,0 mm 3,4 km/h (1 Bft) NW 311 ° 1 min 0,000 mm 2,5 UV-I 292 W/m² 2,3 °C 18,5 °C 6,4 km/h (2 Bft)
01.04.2017 13:43 18,6 °C 18,6 °C 34 % 1008,8 hPa 0,0 mm 5,0 km/h (1 Bft) NW 311 ° 1 min 0,000 mm 2,5 UV-I 292 W/m² 2,4 °C 18,6 °C 8,0 km/h (2 Bft)
01.04.2017 13:44 18,6 °C 18,6 °C 34 % 1008,8 hPa 0,0 mm 5,5 km/h (1 Bft) NW 312 ° 1 min 0,000 mm 2,5 UV-I 292 W/m² 2,4 °C 18,6 °C 8,0 km/h (2 Bft)
01.04.2017 13:45 18,6 °C 18,6 °C 33 % 1008,8 hPa 0,0 mm 3,2 km/h (1 Bft) W-NW 288 ° 1 min 0,000 mm 2,5 UV-I 292 W/m² 2,0 °C 18,6 °C 4,8 km/h (1 Bft)
01.04.2017 13:46 18,6 °C 18,6 °C 31 % 1008,8 hPa 0,0 mm 4,7 km/h (1 Bft) NW 309 ° 1 min 0,000 mm 2,5 UV-I 292 W/m² 1,1 °C 18,6 °C 6,4 km/h (2 Bft)
01.04.2017 13:47 18,6 °C 18,6 °C 30 % 1008,8 hPa 0,0 mm 5,0 km/h (1 Bft) W-NW 302 ° 1 min 0,000 mm 2,5 UV-I 292 W/m² 0,7 °C 18,6 °C 8,0 km/h (2 Bft)
01.04.2017 13:48 18,6 °C 18,6 °C 29 % 1008,8 hPa 0,0 mm 3,6 km/h (1 Bft) W-NW 302 ° 1 min 0,000 mm 2,4 UV-I 292 W/m² 0,2 °C 18,6 °C 4,8 km/h (1 Bft)
01.04.2017 13:49 18,6 °C 18,6 °C 30 % 1008,8 hPa 0,0 mm 4,4 km/h (1 Bft) NW 313 ° 1 min 0,000 mm 2,4 UV-I 292 W/m² 0,7 °C 18,6 °C 4,8 km/h (1 Bft)
01.04.2017 13:50 18,6 °C 18,6 °C 28 % 1008,8 hPa 0,0 mm 3,7 km/h (1 Bft) NW 313 ° 1 min 0,000 mm 2,4 UV-I 290 W/m² -0,3 °C 18,6 °C 4,8 km/h (1 Bft)
01.04.2017 13:51 18,5 °C 18,6 °C 28 % 1008,8 hPa 0,0 mm 2,3 km/h (1 Bft) NW 313 ° 0 min 0,000 mm 2,4 UV-I 287 W/m² -0,3 °C 18,5 °C 3,2 km/h (1 Bft)
01.04.2017 13:52 18,4 °C 18,5 °C 28 % 1008,8 hPa 0,0 mm 2,2 km/h (1 Bft) NW 313 ° 0 min 0,000 mm 2,4 UV-I 285 W/m² -0,4 °C 18,4 °C 3,2 km/h (1 Bft)
01.04.2017 13:53 18,4 °C 18,4 °C 31 % 1008,7 hPa 0,0 mm 0,7 km/h (0 Bft) NW 313 ° 0 min 0,000 mm 2,4 UV-I 279 W/m² 1,0 °C 18,4 °C 1,6 km/h (1 Bft)
01.04.2017 13:54 18,4 °C 18,4 °C 27 % 1008,8 hPa 0,0 mm 2,5 km/h (1 Bft) NW 313 ° 0 min 0,000 mm 2,3 UV-I 276 W/m² -0,9 °C 18,4 °C 4,8 km/h (1 Bft)
01.04.2017 13:55 18,4 °C 18,4 °C 27 % 1008,8 hPa 0,0 mm 2,2 km/h (1 Bft) W 278 ° 0 min 0,000 mm 2,3 UV-I 274 W/m² -0,9 °C 18,4 °C 4,8 km/h (1 Bft)
01.04.2017 13:56 18,4 °C 18,4 °C 30 % 1008,8 hPa 0,0 mm 3,0 km/h (1 Bft) W 279 ° 0 min 0,000 mm 2,3 UV-I 274 W/m² 0,5 °C 18,4 °C 4,8 km/h (1 Bft)
01.04.2017 13:57 18,4 °C 18,4 °C 31 % 1008,8 hPa 0,0 mm 3,3 km/h (1 Bft) NW 307 ° 0 min 0,000 mm 2,3 UV-I 274 W/m² 1,0 °C 18,4 °C 4,8 km/h (1 Bft)
01.04.2017 13:58 18,4 °C 18,4 °C 30 % 1008,8 hPa 0,0 mm 4,0 km/h (1 Bft) NW 307 ° 0 min 0,000 mm 2,3 UV-I 274 W/m² 0,5 °C 18,4 °C 6,4 km/h (2 Bft)
01.04.2017 13:59 18,5 °C 18,5 °C 33 % 1008,8 hPa 0,0 mm 3,0 km/h (1 Bft) NW 307 ° 0 min 0,000 mm 2,3 UV-I 274 W/m² 1,9 °C 18,5 °C 4,8 km/h (1 Bft)
01.04.2017 14:00 18,5 °C 18,6 °C 29 % 1008,8 hPa 0,0 mm 1,8 km/h (1 Bft) NW 307 ° 0 min 0,228 mm 2,3 UV-I 274 W/m² 0,1 °C 18,5 °C 3,2 km/h (1 Bft)
01.04.2017 14:01 18,5 °C 18,6 °C 28 % 1008,7 hPa 0,0 mm 2,5 km/h (1 Bft) NW 307 ° 0 min 0,000 mm 2,3 UV-I 276 W/m² -0,3 °C 18,5 °C 4,8 km/h (1 Bft)
01.04.2017 14:02 18,5 °C 18,5 °C 28 % 1008,7 hPa 0,0 mm 4,3 km/h (1 Bft) NW 307 ° 0 min 0,000 mm 2,3 UV-I 276 W/m² -0,3 °C 18,5 °C 4,8 km/h (1 Bft)
01.04.2017 14:03 18,5 °C 18,5 °C 28 % 1008,7 hPa 0,0 mm 2,5 km/h (1 Bft) NW 307 ° 0 min 0,000 mm 2,3 UV-I 278 W/m² -0,3 °C 18,5 °C 4,8 km/h (1 Bft)
01.04.2017 14:04 18,5 °C 18,5 °C 27 % 1008,7 hPa 0,0 mm 1,9 km/h (1 Bft) NW 307 ° 0 min 0,000 mm 2,3 UV-I 278 W/m² -0,8 °C 18,5 °C 3,2 km/h (1 Bft)
01.04.2017 14:05 18,5 °C 18,5 °C 29 % 1008,7 hPa 0,0 mm 1,5 km/h (1 Bft) NW 307 ° 0 min 0,000 mm 2,3 UV-I 278 W/m² 0,1 °C 18,5 °C 3,2 km/h (1 Bft)
01.04.2017 14:06 18,5 °C 18,5 °C 29 % 1008,7 hPa 0,0 mm 1,6 km/h (1 Bft) NW 307 ° 0 min 0,000 mm 2,3 UV-I 276 W/m² 0,1 °C 18,5 °C 3,2 km/h (1 Bft)
01.04.2017 14:07 18,6 °C 18,6 °C 31 % 1008,8 hPa 0,0 mm 3,9 km/h (1 Bft) NW 315 ° 0 min 0,000 mm 2,2 UV-I 274 W/m² 1,1 °C 18,6 °C 6,4 km/h (2 Bft)
01.04.2017 14:08 18,6 °C 18,6 °C 29 % 1008,8 hPa 0,0 mm 3,4 km/h (1 Bft) NW 315 ° 0 min 0,000 mm 2,2 UV-I 274 W/m² 0,2 °C 18,6 °C 4,8 km/h (1 Bft)
01.04.2017 14:09 18,6 °C 18,6 °C 29 % 1008,7 hPa 0,0 mm 1,5 km/h (1 Bft) NW 315 ° 0 min 0,000 mm 2,2 UV-I 272 W/m² 0,2 °C 18,6 °C 3,2 km/h (1 Bft)
01.04.2017 14:10 18,6 °C 18,6 °C 29 % 1008,8 hPa 0,0 mm 0,9 km/h (0 Bft) NW 315 ° 0 min 0,000 mm 2,2 UV-I 272 W/m² 0,2 °C 18,6 °C 3,2 km/h (1 Bft)
01.04.2017 14:11 18,6 °C 18,6 °C 28 % 1008,8 hPa 0,0 mm 1,3 km/h (1 Bft) NW 315 ° 0 min 0,000 mm 2,2 UV-I 271 W/m² -0,3 °C 18,6 °C 1,6 km/h (1 Bft)
01.04.2017 14:12 18,5 °C 18,6 °C 29 % 1008,7 hPa 0,0 mm 1,2 km/h (1 Bft) NW 315 ° 0 min 0,000 mm 2,2 UV-I 269 W/m² 0,1 °C 18,5 °C 3,2 km/h (1 Bft)
01.04.2017 14:13 18,5 °C 18,5 °C 28 % 1008,7 hPa 0,0 mm 0,7 km/h (0 Bft) NW 315 ° 0 min 0,000 mm 2,2 UV-I 269 W/m² -0,3 °C 18,5 °C 1,6 km/h (1 Bft)
01.04.2017 14:14 18,5 °C 18,6 °C 29 % 1008,7 hPa 0,0 mm 1,3 km/h (1 Bft) NW 315 ° 0 min 0,000 mm 2,2 UV-I 269 W/m² 0,1 °C 18,5 °C 1,6 km/h (1 Bft)
01.04.2017 14:15 18,5 °C 18,5 °C 30 % 1008,7 hPa 0,0 mm 1,7 km/h (1 Bft) NW 315 ° 0 min 0,000 mm 2,2 UV-I 269 W/m² 0,6 °C 18,5 °C 3,2 km/h (1 Bft)
01.04.2017 14:16 18,5 °C 18,5 °C 34 % 1008,7 hPa 0,0 mm 1,3 km/h (1 Bft) NW 315 ° 0 min 0,000 mm 2,2 UV-I 269 W/m² 2,3 °C 18,5 °C 3,2 km/h (1 Bft)
01.04.2017 14:17 18,4 °C 18,5 °C 28 % 1008,7 hPa 0,0 mm 3,8 km/h (1 Bft) N-NW 345 ° 0 min 0,000 mm 2,2 UV-I 269 W/m² -0,4 °C 18,4 °C 4,8 km/h (1 Bft)
01.04.2017 14:18 18,5 °C 18,5 °C 28 % 1008,7 hPa 0,0 mm 2,3 km/h (1 Bft) N-NW 345 ° 0 min 0,000 mm 2,2 UV-I 269 W/m² -0,3 °C 18,5 °C 3,2 km/h (1 Bft)
01.04.2017 14:19 18,5 °C 18,5 °C 30 % 1008,8 hPa 0,0 mm 1,3 km/h (1 Bft) N-NW 345 ° 0 min 0,000 mm 2,2 UV-I 269 W/m² 0,6 °C 18,5 °C 3,2 km/h (1 Bft)
01.04.2017 14:20 18,5 °C 18,5 °C 29 % 1008,7 hPa 0,0 mm 0,0 km/h (0 Bft) N-NW 345 ° 0 min 0,000 mm 2,2 UV-I 271 W/m² 0,1 °C 18,5 °C 0,0 km/h (0 Bft)
01.04.2017 14:21 18,5 °C 18,5 °C 28 % 1008,7 hPa 0,0 mm 0,0 km/h (0 Bft) N-NW 345 ° 0 min 0,000 mm 2,2 UV-I 271 W/m² -0,3 °C 18,5 °C 0,0 km/h (0 Bft)
01.04.2017 14:22 18,4 °C 18,5 °C 28 % 1008,7 hPa 0,0 mm 0,0 km/h (0 Bft) N-NW 345 ° 0 min 0,000 mm 2,2 UV-I 272 W/m² -0,4 °C 18,4 °C 0,0 km/h (0 Bft)
01.04.2017 14:23 18,5 °C 18,5 °C 29 % 1008,7 hPa 0,0 mm 0,0 km/h (0 Bft) N-NW 345 ° 0 min 0,000 mm 2,2 UV-I 283 W/m² 0,1 °C 18,5 °C 0,0 km/h (0 Bft)
01.04.2017 14:24 18,5 °C 18,5 °C 31 % 1008,7 hPa 0,0 mm 0,0 km/h (0 Bft) N-NW 345 ° 0 min 0,000 mm 2,2 UV-I 281 W/m² 1,1 °C 18,5 °C 0,0 km/h (0 Bft)
01.04.2017 14:25 18,5 °C 18,6 °C 28 % 1008,7 hPa 0,0 mm 0,0 km/h (0 Bft) N-NW 345 ° 0 min 0,000 mm 2,2 UV-I 283 W/m² -0,3 °C 18,5 °C 0,0 km/h (0 Bft)
01.04.2017 14:26 18,5 °C 18,6 °C 28 % 1008,7 hPa 0,0 mm 3,6 km/h (1 Bft) W 268 ° 0 min 0,000 mm 2,2 UV-I 283 W/m² -0,3 °C 18,5 °C 4,8 km/h (1 Bft)
01.04.2017 14:27 18,4 °C 18,5 °C 28 % 1008,7 hPa 0,0 mm 2,9 km/h (1 Bft) NW 319 ° 0 min 0,000 mm 2,2 UV-I 281 W/m² -0,4 °C 18,4 °C 4,8 km/h (1 Bft)
01.04.2017 14:28 18,5 °C 18,5 °C 29 % 1008,7 hPa 0,0 mm 0,9 km/h (0 Bft) NW 319 ° 0 min 0,000 mm 2,2 UV-I 279 W/m² 0,1 °C 18,5 °C 1,6 km/h (1 Bft)
01.04.2017 14:29 18,5 °C 18,5 °C 30 % 1008,7 hPa 0,0 mm 1,2 km/h (1 Bft) NW 319 ° 0 min 0,000 mm 2,2 UV-I 276 W/m² 0,6 °C 18,5 °C 3,2 km/h (1 Bft)
01.04.2017 14:30 18,5 °C 18,6 °C 31 % 1008,7 hPa 0,0 mm 2,3 km/h (1 Bft) N 5 ° 0 min 0,000 mm 2,2 UV-I 274 W/m² 1,1 °C 18,5 °C 4,8 km/h (1 Bft)
01.04.2017 14:31 18,5 °C 18,5 °C 29 % 1008,7 hPa 0,0 mm 2,5 km/h (1 Bft) N 5 ° 0 min 0,000 mm 2,2 UV-I 274 W/m² 0,1 °C 18,5 °C 4,8 km/h (1 Bft)
01.04.2017 14:32 18,4 °C 18,5 °C 29 % 1008,6 hPa 0,0 mm 1,3 km/h (1 Bft) N 5 ° 0 min 0,000 mm 2,2 UV-I 272 W/m² 0,1 °C 18,4 °C 3,2 km/h (1 Bft)
01.04.2017 14:33 18,6 °C 18,6 °C 34 % 1008,6 hPa 0,0 mm 1,9 km/h (1 Bft) N 9 ° 0 min 0,000 mm 2,2 UV-I 272 W/m² 2,4 °C 18,6 °C 3,2 km/h (1 Bft)
01.04.2017 14:34 18,6 °C 18,6 °C 29 % 1008,6 hPa 0,0 mm 2,4 km/h (1 Bft) NO 50 ° 0 min 0,000 mm 2,2 UV-I 272 W/m² 0,2 °C 18,6 °C 4,8 km/h (1 Bft)
01.04.2017 14:35 18,5 °C 18,6 °C 29 % 1008,6 hPa 0,0 mm 0,3 km/h (0 Bft) NO 50 ° 0 min 0,000 mm 2,2 UV-I 272 W/m² 0,1 °C 18,5 °C 1,6 km/h (1 Bft)
01.04.2017 14:36 18,6 °C 18,6 °C 33 % 1008,6 hPa 0,0 mm 1,1 km/h (1 Bft) NO 50 ° 0 min 0,000 mm 2,2 UV-I 272 W/m² 2,0 °C 18,6 °C 3,2 km/h (1 Bft)
01.04.2017 14:37 18,6 °C 18,6 °C 31 % 1008,6 hPa 0,0 mm 2,2 km/h (1 Bft) O-NO 61 ° 0 min 0,000 mm 2,2 UV-I 272 W/m² 1,1 °C 18,6 °C 4,8 km/h (1 Bft)
01.04.2017 14:38 18,6 °C 18,6 °C 29 % 1008,6 hPa 0,0 mm 0,6 km/h (0 Bft) O-NO 61 ° 0 min 0,000 mm 2,2 UV-I 272 W/m² 0,2 °C 18,6 °C 1,6 km/h (1 Bft)
01.04.2017 14:39 18,6 °C 18,6 °C 30 % 1008,6 hPa 0,0 mm 2,7 km/h (1 Bft) O-NO 61 ° 0 min 0,000 mm 2,2 UV-I 271 W/m² 0,7 °C 18,6 °C 4,8 km/h (1 Bft)
01.04.2017 14:40 18,6 °C 18,6 °C 32 % 1008,6 hPa 0,0 mm 3,4 km/h (1 Bft) O-NO 61 ° 0 min 0,000 mm 2,2 UV-I 267 W/m² 1,6 °C 18,6 °C 4,8 km/h (1 Bft)
01.04.2017 14:41 18,5 °C 18,6 °C 29 % 1008,6 hPa 0,0 mm 3,9 km/h (1 Bft) O-NO 65 ° 0 min 0,000 mm 2,1 UV-I 264 W/m² 0,1 °C 18,5 °C 6,4 km/h (2 Bft)
01.04.2017 14:42 18,4 °C 18,5 °C 30 % 1008,5 hPa 0,0 mm 1,7 km/h (1 Bft) O-NO 65 ° 0 min 0,000 mm 2,1 UV-I 262 W/m² 0,5 °C 18,4 °C 3,2 km/h (1 Bft)
01.04.2017 14:43 18,4 °C 18,4 °C 29 % 1008,6 hPa 0,0 mm 2,9 km/h (1 Bft) O 84 ° 0 min 0,000 mm 2,1 UV-I 260 W/m² 0,1 °C 18,4 °C 8,0 km/h (2 Bft)
01.04.2017 14:44 18,4 °C 18,4 °C 28 % 1008,6 hPa 0,0 mm 1,7 km/h (1 Bft) O 84 ° 0 min 0,000 mm 2,1 UV-I 258 W/m² -0,4 °C 18,4 °C 3,2 km/h (1 Bft)
01.04.2017 14:45 18,4 °C 18,4 °C 29 % 1008,5 hPa 0,0 mm 0,2 km/h (0 Bft) O 84 ° 0 min 0,000 mm 2,1 UV-I 257 W/m² 0,1 °C 18,4 °C 1,6 km/h (1 Bft)
01.04.2017 14:46 18,4 °C 18,4 °C 30 % 1008,5 hPa 0,0 mm 3,7 km/h (1 Bft) NW 307 ° 0 min 0,000 mm 2,1 UV-I 257 W/m² 0,5 °C 18,4 °C 4,8 km/h (1 Bft)
01.04.2017 14:47 18,4 °C 18,4 °C 29 % 1008,5 hPa 0,0 mm 2,5 km/h (1 Bft) NW 307 ° 0 min 0,000 mm 2,0 UV-I 255 W/m² 0,1 °C 18,4 °C 4,8 km/h (1 Bft)
01.04.2017 14:48 18,4 °C 18,4 °C 32 % 1008,5 hPa 0,0 mm 1,9 km/h (1 Bft) NW 308 ° 0 min 0,000 mm 2,0 UV-I 255 W/m² 1,4 °C 18,4 °C 3,2 km/h (1 Bft)
01.04.2017 14:49 18,5 °C 18,5 °C 31 % 1008,5 hPa 0,0 mm 1,1 km/h (1 Bft) NW 308 ° 0 min 0,000 mm 2,0 UV-I 255 W/m² 1,1 °C 18,5 °C 1,6 km/h (1 Bft)
01.04.2017 14:50 18,5 °C 18,5 °C 31 % 1008,5 hPa 0,0 mm 0,5 km/h (0 Bft) NW 308 ° 0 min 0,000 mm 2,0 UV-I 253 W/m² 1,1 °C 18,5 °C 1,6 km/h (1 Bft)
01.04.2017 14:51 18,6 °C 18,6 °C 31 % 1008,6 hPa 0,0 mm 0,1 km/h (0 Bft) NW 308 ° 0 min 0,000 mm 2,0 UV-I 251 W/m² 1,1 °C 18,6 °C 1,6 km/h (1 Bft)
01.04.2017 14:52 18,6 °C 18,6 °C 29 % 1008,6 hPa 0,0 mm 1,7 km/h (1 Bft) N-NW 331 ° 0 min 0,000 mm 2,0 UV-I 246 W/m² 0,2 °C 18,6 °C 3,2 km/h (1 Bft)
01.04.2017 14:53 18,5 °C 18,6 °C 32 % 1008,6 hPa 0,0 mm 0,5 km/h (0 Bft) N-NW 331 ° 0 min 0,000 mm 2,0 UV-I 244 W/m² 1,5 °C 18,5 °C 1,6 km/h (1 Bft)
01.04.2017 14:54 18,5 °C 18,5 °C 29 % 1008,6 hPa 0,0 mm 0,0 km/h (0 Bft) N-NW 331 ° 0 min 0,000 mm 1,9 UV-I 244 W/m² 0,1 °C 18,5 °C 0,0 km/h (0 Bft)
01.04.2017 14:55 18,4 °C 18,5 °C 30 % 1008,5 hPa 0,0 mm 0,0 km/h (0 Bft) N-NW 331 ° 0 min 0,000 mm 1,9 UV-I 237 W/m² 0,5 °C 18,4 °C 0,0 km/h (0 Bft)
01.04.2017 14:56 18,4 °C 18,4 °C 33 % 1008,5 hPa 0,0 mm 0,0 km/h (0 Bft) N-NW 331 ° 0 min 0,000 mm 1,9 UV-I 237 W/m² 1,8 °C 18,4 °C 0,0 km/h (0 Bft)
01.04.2017 14:57 18,4 °C 18,4 °C 31 % 1008,6 hPa 0,0 mm 0,3 km/h (0 Bft) N 360 ° 0 min 0,000 mm 1,9 UV-I 230 W/m² 1,0 °C 18,4 °C 1,6 km/h (1 Bft)
01.04.2017 14:58 18,4 °C 18,4 °C 32 % 1008,6 hPa 0,0 mm 3,1 km/h (1 Bft) N 360 ° 0 min 0,000 mm 1,9 UV-I 225 W/m² 1,4 °C 18,4 °C 3,2 km/h (1 Bft)
01.04.2017 14:59 18,4 °C 18,4 °C 31 % 1008,5 hPa 0,0 mm 3,8 km/h (1 Bft) N 11 ° 0 min 0,000 mm 1,8 UV-I 223 W/m² 1,0 °C 18,4 °C 4,8 km/h (1 Bft)
01.04.2017 15:00 18,4 °C 18,4 °C 31 % 1008,5 hPa 0,0 mm 1,9 km/h (1 Bft) N 11 ° 0 min 0,178 mm 1,8 UV-I 220 W/m² 1,0 °C 18,4 °C 3,2 km/h (1 Bft)
01.04.2017 15:01 18,4 °C 18,4 °C 32 % 1008,5 hPa 0,0 mm 2,2 km/h (1 Bft) N 11 ° 0 min 0,000 mm 1,7 UV-I 218 W/m² 1,4 °C 18,4 °C 4,8 km/h (1 Bft)
01.04.2017 15:02 18,4 °C 18,4 °C 31 % 1008,5 hPa 0,0 mm 3,1 km/h (1 Bft) N 11 ° 0 min 0,000 mm 1,7 UV-I 216 W/m² 1,0 °C 18,4 °C 4,8 km/h (1 Bft)
01.04.2017 15:03 18,4 °C 18,4 °C 31 % 1008,5 hPa 0,0 mm 2,9 km/h (1 Bft) N 11 ° 0 min 0,000 mm 1,7 UV-I 213 W/m² 1,0 °C 18,4 °C 6,4 km/h (2 Bft)
01.04.2017 15:04 18,4 °C 18,4 °C 32 % 1008,5 hPa 0,0 mm 3,6 km/h (1 Bft) O-NO 65 ° 0 min 0,000 mm 1,7 UV-I 211 W/m² 1,4 °C 18,4 °C 4,8 km/h (1 Bft)
01.04.2017 15:05 18,4 °C 18,4 °C 30 % 1008,5 hPa 0,0 mm 2,4 km/h (1 Bft) O-NO 65 ° 0 min 0,000 mm 1,6 UV-I 209 W/m² 0,5 °C 18,4 °C 4,8 km/h (1 Bft)
01.04.2017 15:06 18,3 °C 18,4 °C 32 % 1008,5 hPa 0,0 mm 4,5 km/h (1 Bft) O-NO 69 ° 0 min 0,000 mm 1,6 UV-I 207 W/m² 1,3 °C 18,3 °C 6,4 km/h (2 Bft)
01.04.2017 15:07 18,3 °C 18,3 °C 35 % 1008,4 hPa 0,0 mm 3,2 km/h (1 Bft) O-NO 69 ° 0 min 0,000 mm 1,6 UV-I 204 W/m² 2,6 °C 18,3 °C 3,2 km/h (1 Bft)
01.04.2017 15:08 18,3 °C 18,3 °C 33 % 1008,4 hPa 0,0 mm 5,0 km/h (1 Bft) O-NO 60 ° 0 min 0,000 mm 1,6 UV-I 202 W/m² 1,8 °C 18,3 °C 6,4 km/h (2 Bft)
01.04.2017 15:09 18,3 °C 18,3 °C 32 % 1008,4 hPa 0,0 mm 3,6 km/h (1 Bft) O-NO 60 ° 0 min 0,000 mm 1,5 UV-I 197 W/m² 1,3 °C 18,3 °C 6,4 km/h (2 Bft)
01.04.2017 15:10 18,2 °C 18,3 °C 33 % 1008,4 hPa 0,0 mm 1,5 km/h (1 Bft) O-NO 60 ° 0 min 0,000 mm 1,5 UV-I 195 W/m² 1,7 °C 18,2 °C 3,2 km/h (1 Bft)
01.04.2017 15:11 18,2 °C 18,2 °C 35 % 1008,4 hPa 0,0 mm 2,7 km/h (1 Bft) O-NO 60 ° 0 min 0,000 mm 1,5 UV-I 192 W/m² 2,5 °C 18,2 °C 3,2 km/h (1 Bft)
01.04.2017 15:12 18,2 °C 18,2 °C 34 % 1008,4 hPa 0,0 mm 2,0 km/h (1 Bft) O-NO 59 ° 0 min 0,000 mm 1,5 UV-I 190 W/m² 2,1 °C 18,2 °C 4,8 km/h (1 Bft)
01.04.2017 15:13 18,2 °C 18,2 °C 37 % 1008,4 hPa 0,0 mm 1,3 km/h (1 Bft) O-NO 59 ° 0 min 0,000 mm 1,4 UV-I 186 W/m² 3,3 °C 18,2 °C 3,2 km/h (1 Bft)
01.04.2017 15:14 18,2 °C 18,2 °C 32 % 1008,4 hPa 0,0 mm 1,7 km/h (1 Bft) O-NO 59 ° 0 min 0,000 mm 1,4 UV-I 185 W/m² 1,2 °C 18,2 °C 3,2 km/h (1 Bft)
01.04.2017 15:15 18,2 °C 18,2 °C 34 % 1008,3 hPa 0,0 mm 0,9 km/h (0 Bft) O-NO 59 ° 0 min 0,000 mm 1,4 UV-I 181 W/m² 2,1 °C 18,2 °C 1,6 km/h (1 Bft)
01.04.2017 15:16 18,2 °C 18,2 °C 35 % 1008,3 hPa 0,0 mm 1,7 km/h (1 Bft) O-NO 59 ° 0 min 0,000 mm 1,4 UV-I 178 W/m² 2,5 °C 18,2 °C 3,2 km/h (1 Bft)
01.04.2017 15:17 18,2 °C 18,2 °C 37 % 1008,3 hPa 0,0 mm 1,7 km/h (1 Bft) O-NO 59 ° 0 min 0,000 mm 1,3 UV-I 176 W/m² 3,3 °C 18,2 °C 3,2 km/h (1 Bft)
01.04.2017 15:18 18,1 °C 18,2 °C 40 % 1008,3 hPa 0,0 mm 1,5 km/h (1 Bft) O-NO 59 ° 0 min 0,000 mm 1,3 UV-I 174 W/m² 4,3 °C 18,1 °C 3,2 km/h (1 Bft)
01.04.2017 15:19 18,1 °C 18,1 °C 33 % 1008,3 hPa 0,0 mm 1,7 km/h (1 Bft) O-NO 59 ° 0 min 0,000 mm 1,3 UV-I 172 W/m² 1,6 °C 18,1 °C 3,2 km/h (1 Bft)
01.04.2017 15:20 18,1 °C 18,1 °C 35 % 1008,3 hPa 0,0 mm 1,9 km/h (1 Bft) O-NO 59 ° 0 min 0,000 mm 1,3 UV-I 171 W/m² 2,4 °C 18,1 °C 3,2 km/h (1 Bft)
01.04.2017 15:21 18,1 °C 18,1 °C 37 % 1008,3 hPa 0,0 mm 1,9 km/h (1 Bft) O-NO 59 ° 0 min 0,000 mm 1,3 UV-I 167 W/m² 3,2 °C 18,1 °C 3,2 km/h (1 Bft)
01.04.2017 15:22 18,1 °C 18,1 °C 33 % 1008,2 hPa 0,0 mm 2,1 km/h (1 Bft) O-NO 59 ° 0 min 0,000 mm 1,3 UV-I 165 W/m² 1,6 °C 18,1 °C 3,2 km/h (1 Bft)
01.04.2017 15:23 18,1 °C 18,1 °C 33 % 1008,3 hPa 0,0 mm 2,7 km/h (1 Bft) O-NO 58 ° 0 min 0,000 mm 1,3 UV-I 163 W/m² 1,6 °C 18,1 °C 4,8 km/h (1 Bft)
01.04.2017 15:24 18,2 °C 18,2 °C 36 % 1008,2 hPa 0,0 mm 3,2 km/h (1 Bft) NO 49 ° 0 min 0,000 mm 1,3 UV-I 162 W/m² 2,9 °C 18,2 °C 4,8 km/h (1 Bft)
01.04.2017 15:25 18,2 °C 18,2 °C 31 % 1008,3 hPa 0,0 mm 3,6 km/h (1 Bft) NO 49 ° 0 min 0,000 mm 1,2 UV-I 162 W/m² 0,8 °C 18,2 °C 4,8 km/h (1 Bft)
01.04.2017 15:26 18,2 °C 18,2 °C 31 % 1008,2 hPa 0,0 mm 4,4 km/h (1 Bft) N 360 ° 0 min 0,000 mm 1,2 UV-I 160 W/m² 0,8 °C 18,2 °C 6,4 km/h (2 Bft)
01.04.2017 15:27 18,2 °C 18,2 °C 33 % 1008,2 hPa 0,0 mm 5,2 km/h (1 Bft) N 355 ° 0 min 0,000 mm 1,2 UV-I 156 W/m² 1,7 °C 18,2 °C 6,4 km/h (2 Bft)
01.04.2017 15:28 18,2 °C 18,3 °C 33 % 1008,2 hPa 0,0 mm 5,0 km/h (1 Bft) N 5 ° 0 min 0,000 mm 1,2 UV-I 155 W/m² 1,7 °C 18,2 °C 8,0 km/h (2 Bft)
01.04.2017 15:29 18,2 °C 18,3 °C 35 % 1008,2 hPa 0,0 mm 4,6 km/h (1 Bft) NO 56 ° 0 min 0,000 mm 1,2 UV-I 155 W/m² 2,5 °C 18,2 °C 6,4 km/h (2 Bft)
01.04.2017 15:30 18,2 °C 18,2 °C 36 % 1008,3 hPa 0,0 mm 4,3 km/h (1 Bft) O-NO 68 ° 0 min 0,000 mm 1,2 UV-I 153 W/m² 2,9 °C 18,2 °C 6,4 km/h (2 Bft)
01.04.2017 15:31 18,1 °C 18,2 °C 39 % 1008,2 hPa 0,0 mm 2,3 km/h (1 Bft) O-NO 67 ° 0 min 0,000 mm 1,1 UV-I 151 W/m² 3,9 °C 18,1 °C 4,8 km/h (1 Bft)
01.04.2017 15:32 17,9 °C 18,1 °C 37 % 1008,2 hPa 0,0 mm 2,1 km/h (1 Bft) O-NO 67 ° 0 min 0,000 mm 1,1 UV-I 149 W/m² 3,0 °C 17,9 °C 3,2 km/h (1 Bft)
01.04.2017 15:33 17,9 °C 17,9 °C 41 % 1008,2 hPa 0,0 mm 3,3 km/h (1 Bft) NO 55 ° 0 min 0,000 mm 1,1 UV-I 146 W/m² 4,5 °C 17,9 °C 4,8 km/h (1 Bft)
01.04.2017 15:34 17,8 °C 17,9 °C 39 % 1008,2 hPa 0,0 mm 5,6 km/h (1 Bft) O-NO 61 ° 0 min 0,000 mm 1,1 UV-I 144 W/m² 3,7 °C 17,8 °C 6,4 km/h (2 Bft)
01.04.2017 15:35 17,8 °C 17,8 °C 35 % 1008,2 hPa 0,0 mm 5,0 km/h (1 Bft) NO 55 ° 0 min 0,000 mm 1,1 UV-I 142 W/m² 2,1 °C 17,8 °C 6,4 km/h (2 Bft)
01.04.2017 15:36 17,8 °C 17,8 °C 33 % 1008,2 hPa 0,0 mm 0,6 km/h (0 Bft) NO 55 ° 0 min 0,000 mm 1,1 UV-I 141 W/m² 1,3 °C 17,8 °C 1,6 km/h (1 Bft)
01.04.2017 15:37 17,8 °C 17,8 °C 37 % 1008,2 hPa 0,0 mm 0,0 km/h (0 Bft) NO 55 ° 0 min 0,000 mm 1,1 UV-I 139 W/m² 2,9 °C 17,8 °C 0,0 km/h (0 Bft)
01.04.2017 15:38 17,8 °C 17,8 °C 37 % 1008,2 hPa 0,0 mm 0,1 km/h (0 Bft) NO 55 ° 0 min 0,000 mm 1,0 UV-I 139 W/m² 2,9 °C 17,8 °C 3,2 km/h (1 Bft)
01.04.2017 15:39 17,7 °C 17,8 °C 41 % 1008,2 hPa 0,0 mm 1,9 km/h (1 Bft) NO 55 ° 0 min 0,000 mm 1,0 UV-I 135 W/m² 4,3 °C 17,7 °C 4,8 km/h (1 Bft)
01.04.2017 15:40 17,7 °C 17,7 °C 37 % 1008,2 hPa 0,0 mm 1,6 km/h (1 Bft) NO 55 ° 0 min 0,000 mm 1,0 UV-I 134 W/m² 2,8 °C 17,7 °C 1,6 km/h (1 Bft)
01.04.2017 15:41 17,6 °C 17,7 °C 41 % 1008,1 hPa 0,0 mm 0,3 km/h (0 Bft) NO 55 ° 0 min 0,000 mm 1,0 UV-I 132 W/m² 4,2 °C 17,6 °C 1,6 km/h (1 Bft)
01.04.2017 15:42 17,6 °C 17,6 °C 37 % 1008,2 hPa 0,0 mm 0,3 km/h (0 Bft) NO 55 ° 0 min 0,000 mm 1,0 UV-I 130 W/m² 2,7 °C 17,6 °C 1,6 km/h (1 Bft)
01.04.2017 15:43 17,7 °C 17,7 °C 37 % 1008,1 hPa 0,0 mm 0,8 km/h (0 Bft) NO 55 ° 0 min 0,000 mm 1,0 UV-I 128 W/m² 2,8 °C 17,7 °C 1,6 km/h (1 Bft)
01.04.2017 15:44 17,7 °C 17,7 °C 35 % 1008,2 hPa 0,0 mm 0,0 km/h (0 Bft) NO 55 ° 0 min 0,000 mm 0,9 UV-I 127 W/m² 2,1 °C 17,7 °C 0,0 km/h (0 Bft)
01.04.2017 15:45 17,7 °C 17,7 °C 35 % 1008,2 hPa 0,0 mm 0,3 km/h (0 Bft) NO 55 ° 0 min 0,000 mm 0,9 UV-I 125 W/m² 2,1 °C 17,7 °C 1,6 km/h (1 Bft)
01.04.2017 15:46 17,7 °C 17,7 °C 38 % 1008,1 hPa 0,0 mm 0,0 km/h (0 Bft) NO 55 ° 0 min 0,000 mm 0,9 UV-I 123 W/m² 3,2 °C 17,7 °C 0,0 km/h (0 Bft)
01.04.2017 15:47 17,7 °C 17,7 °C 34 % 1008,1 hPa 0,0 mm 0,0 km/h (0 Bft) NO 55 ° 0 min 0,000 mm 0,9 UV-I 123 W/m² 1,6 °C 17,7 °C 0,0 km/h (0 Bft)
01.04.2017 15:48 17,7 °C 17,8 °C 35 % 1008,1 hPa 0,0 mm 0,0 km/h (0 Bft) NO 55 ° 0 min 0,000 mm 0,9 UV-I 121 W/m² 2,1 °C 17,7 °C 0,0 km/h (0 Bft)
01.04.2017 15:49 17,7 °C 17,8 °C 36 % 1008,1 hPa 0,0 mm 0,2 km/h (0 Bft) O 93 ° 0 min 0,000 mm 0,9 UV-I 121 W/m² 2,4 °C 17,7 °C 1,6 km/h (1 Bft)
01.04.2017 15:50 17,7 °C 17,7 °C 39 % 1008,1 hPa 0,0 mm 2,6 km/h (1 Bft) O 93 ° 0 min 0,000 mm 0,9 UV-I 121 W/m² 3,6 °C 17,7 °C 4,8 km/h (1 Bft)
01.04.2017 15:51 17,6 °C 17,7 °C 40 % 1008,1 hPa 0,0 mm 1,5 km/h (1 Bft) O 93 ° 0 min 0,000 mm 0,9 UV-I 121 W/m² 3,8 °C 17,6 °C 3,2 km/h (1 Bft)
01.04.2017 15:52 17,5 °C 17,6 °C 39 % 1008,1 hPa 0,0 mm 0,0 km/h (0 Bft) O 93 ° 0 min 0,000 mm 0,9 UV-I 121 W/m² 3,4 °C 17,5 °C 0,0 km/h (0 Bft)
01.04.2017 15:53 17,4 °C 17,5 °C 39 % 1008,0 hPa 0,0 mm 0,0 km/h (0 Bft) O 93 ° 0 min 0,000 mm 0,9 UV-I 120 W/m² 3,3 °C 17,4 °C 0,0 km/h (0 Bft)
01.04.2017 15:54 17,5 °C 17,5 °C 36 % 1008,1 hPa 0,0 mm 0,1 km/h (0 Bft) O 93 ° 0 min 0,000 mm 0,9 UV-I 120 W/m² 2,3 °C 17,5 °C 1,6 km/h (1 Bft)
01.04.2017 15:55 17,4 °C 17,5 °C 41 % 1008,1 hPa 0,0 mm 0,6 km/h (0 Bft) O 93 ° 0 min 0,000 mm 0,9 UV-I 120 W/m² 4,0 °C 17,4 °C 1,6 km/h (1 Bft)
01.04.2017 15:56 17,4 °C 17,4 °C 37 % 1007,9 hPa 0,0 mm 0,4 km/h (0 Bft) O 93 ° 0 min 0,000 mm 0,9 UV-I 120 W/m² 2,6 °C 17,4 °C 1,6 km/h (1 Bft)
01.04.2017 15:57 17,3 °C 17,4 °C 39 % 1008,0 hPa 0,0 mm 1,7 km/h (1 Bft) O 93 ° 0 min 0,000 mm 0,9 UV-I 118 W/m² 3,2 °C 17,3 °C 3,2 km/h (1 Bft)
01.04.2017 15:58 17,3 °C 17,3 °C 42 % 1008,0 hPa 0,0 mm 0,6 km/h (0 Bft) O 93 ° 0 min 0,000 mm 0,9 UV-I 118 W/m² 4,3 °C 17,3 °C 1,6 km/h (1 Bft)
01.04.2017 15:59 17,1 °C 17,3 °C 48 % 1007,9 hPa 0,0 mm 0,0 km/h (0 Bft) O 93 ° 0 min 0,000 mm 0,9 UV-I 118 W/m² 6,0 °C 17,1 °C 0,0 km/h (0 Bft)
01.04.2017 16:00 17,2 °C 17,2 °C 39 % 1007,9 hPa 0,0 mm 1,1 km/h (1 Bft) O 93 ° 0 min 0,102 mm 0,9 UV-I 118 W/m² 3,1 °C 17,2 °C 3,2 km/h (1 Bft)
01.04.2017 16:01 17,1 °C 17,2 °C 46 % 1008,0 hPa 0,0 mm 2,1 km/h (1 Bft) O 93 ° 0 min 0,000 mm 0,8 UV-I 118 W/m² 5,4 °C 17,1 °C 3,2 km/h (1 Bft)
01.04.2017 16:02 17,1 °C 17,1 °C 39 % 1008,0 hPa 0,0 mm 0,6 km/h (0 Bft) O 93 ° 0 min 0,000 mm 0,8 UV-I 116 W/m² 3,0 °C 17,1 °C 1,6 km/h (1 Bft)
01.04.2017 16:03 17,1 °C 17,1 °C 42 % 1008,0 hPa 0,0 mm 0,3 km/h (0 Bft) O 93 ° 0 min 0,000 mm 0,8 UV-I 116 W/m² 4,1 °C 17,1 °C 1,6 km/h (1 Bft)
01.04.2017 16:04 17,1 °C 17,1 °C 39 % 1008,0 hPa 0,0 mm 0,0 km/h (0 Bft) O 93 ° 0 min 0,000 mm 0,8 UV-I 118 W/m² 3,0 °C 17,1 °C 0,0 km/h (0 Bft)
01.04.2017 16:05 17,1 °C 17,1 °C 39 % 1007,9 hPa 0,0 mm 0,0 km/h (0 Bft) O 93 ° 0 min 0,000 mm 0,8 UV-I 118 W/m² 3,0 °C 17,1 °C 0,0 km/h (0 Bft)
01.04.2017 16:06 17,2 °C 17,2 °C 38 % 1008,0 hPa 0,0 mm 0,0 km/h (0 Bft) O 93 ° 0 min 0,000 mm 0,8 UV-I 118 W/m² 2,8 °C 17,2 °C 0,0 km/h (0 Bft)
01.04.2017 16:07 17,2 °C 17,2 °C 40 % 1007,9 hPa 0,0 mm 0,0 km/h (0 Bft) O 93 ° 0 min 0,000 mm 0,8 UV-I 118 W/m² 3,5 °C 17,2 °C 0,0 km/h (0 Bft)
01.04.2017 16:08 17,2 °C 17,2 °C 37 % 1008,0 hPa 0,0 mm 0,0 km/h (0 Bft) O 93 ° 0 min 0,000 mm 0,8 UV-I 118 W/m² 2,4 °C 17,2 °C 0,0 km/h (0 Bft)
01.04.2017 16:09 17,2 °C 17,2 °C 39 % 1008,0 hPa 0,0 mm 0,0 km/h (0 Bft) O 93 ° 0 min 0,000 mm 0,8 UV-I 118 W/m² 3,1 °C 17,2 °C 0,0 km/h (0 Bft)
01.04.2017 16:10 17,3 °C 17,3 °C 38 % 1008,0 hPa 0,0 mm 0,0 km/h (0 Bft) O 93 ° 0 min 0,000 mm 0,8 UV-I 120 W/m² 2,9 °C 17,3 °C 0,0 km/h (0 Bft)
01.04.2017 16:11 17,3 °C 17,3 °C 37 % 1007,9 hPa 0,0 mm 0,0 km/h (0 Bft) O 93 ° 0 min 0,000 mm 0,8 UV-I 120 W/m² 2,5 °C 17,3 °C 0,0 km/h (0 Bft)
01.04.2017 16:12 17,3 °C 17,3 °C 37 % 1007,9 hPa 0,0 mm 0,0 km/h (0 Bft) O 93 ° 0 min 0,000 mm 0,8 UV-I 120 W/m² 2,5 °C 17,3 °C 0,0 km/h (0 Bft)
01.04.2017 16:13 17,3 °C 17,3 °C 39 % 1007,9 hPa 0,0 mm 0,0 km/h (0 Bft) O 93 ° 0 min 0,000 mm 0,8 UV-I 121 W/m² 3,2 °C 17,3 °C 0,0 km/h (0 Bft)
01.04.2017 16:14 17,2 °C 17,3 °C 42 % 1007,9 hPa 0,0 mm 0,0 km/h (0 Bft) O 93 ° 0 min 0,000 mm 0,9 UV-I 121 W/m² 4,2 °C 17,2 °C 0,0 km/h (0 Bft)
01.04.2017 16:15 17,1 °C 17,2 °C 41 % 1007,9 hPa 0,0 mm 0,0 km/h (0 Bft) O 93 ° 0 min 0,000 mm 0,9 UV-I 121 W/m² 3,7 °C 17,1 °C 0,0 km/h (0 Bft)
01.04.2017 16:16 17,1 °C 17,2 °C 39 % 1007,9 hPa 0,0 mm 0,0 km/h (0 Bft) O 93 ° 0 min 0,000 mm 0,9 UV-I 121 W/m² 3,0 °C 17,1 °C 0,0 km/h (0 Bft)
01.04.2017 16:17 17,1 °C 17,1 °C 42 % 1007,9 hPa 0,0 mm 0,0 km/h (0 Bft) O 93 ° 0 min 0,000 mm 0,9 UV-I 121 W/m² 4,1 °C 17,1 °C 0,0 km/h (0 Bft)
01.04.2017 16:18 17,1 °C 17,1 °C 43 % 1007,9 hPa 0,0 mm 0,0 km/h (0 Bft) O 93 ° 0 min 0,000 mm 0,9 UV-I 121 W/m² 4,4 °C 17,1 °C 0,0 km/h (0 Bft)
01.04.2017 16:19 17,1 °C 17,1 °C 41 % 1007,9 hPa 0,0 mm 0,0 km/h (0 Bft) O 93 ° 0 min 0,000 mm 0,8 UV-I 121 W/m² 3,7 °C 17,1 °C 0,0 km/h (0 Bft)
01.04.2017 16:20 17,1 °C 17,1 °C 40 % 1007,9 hPa 0,0 mm 0,0 km/h (0 Bft) O 93 ° 0 min 0,000 mm 0,8 UV-I 121 W/m² 3,4 °C 17,1 °C 0,0 km/h (0 Bft)
01.04.2017 16:21 17,1 °C 17,1 °C 41 % 1007,9 hPa 0,0 mm 0,0 km/h (0 Bft) O 93 ° 0 min 0,000 mm 0,8 UV-I 121 W/m² 3,7 °C 17,1 °C 0,0 km/h (0 Bft)
01.04.2017 16:22 17,0 °C 17,1 °C 42 % 1007,9 hPa 0,0 mm 0,0 km/h (0 Bft) O 93 ° 0 min 0,000 mm 0,8 UV-I 121 W/m² 4,0 °C 17,0 °C 0,0 km/h (0 Bft)
01.04.2017 16:23 17,0 °C 17,1 °C 41 % 1007,9 hPa 0,0 mm 0,0 km/h (0 Bft) O 93 ° 0 min 0,000 mm 0,8 UV-I 121 W/m² 3,7 °C 17,0 °C 0,0 km/h (0 Bft)
01.04.2017 16:24 17,0 °C 17,1 °C 42 % 1007,9 hPa 0,0 mm 0,0 km/h (0 Bft) O 93 ° 0 min 0,000 mm 0,8 UV-I 123 W/m² 4,0 °C 17,0 °C 0,0 km/h (0 Bft)
01.04.2017 16:25 17,1 °C 17,1 °C 40 % 1007,9 hPa 0,0 mm 0,0 km/h (0 Bft) O 93 ° 0 min 0,000 mm 0,8 UV-I 123 W/m² 3,4 °C 17,1 °C 0,0 km/h (0 Bft)
01.04.2017 16:26 17,1 °C 17,1 °C 39 % 1007,9 hPa 0,0 mm 0,0 km/h (0 Bft) O 93 ° 0 min 0,000 mm 0,8 UV-I 123 W/m² 3,0 °C 17,1 °C 0,0 km/h (0 Bft)
01.04.2017 16:27 17,0 °C 17,1 °C 44 % 1007,9 hPa 0,0 mm 0,0 km/h (0 Bft) O 93 ° 0 min 0,000 mm 0,8 UV-I 125 W/m² 4,7 °C 17,0 °C 0,0 km/h (0 Bft)
01.04.2017 16:28 16,9 °C 17,0 °C 43 % 1007,9 hPa 0,0 mm 0,0 km/h (0 Bft) O 93 ° 0 min 0,000 mm 0,8 UV-I 125 W/m² 4,2 °C 16,9 °C 0,0 km/h (0 Bft)
01.04.2017 16:29 16,9 °C 16,9 °C 50 % 1007,9 hPa 0,0 mm 0,0 km/h (0 Bft) O 93 ° 0 min 0,000 mm 0,8 UV-I 125 W/m² 6,4 °C 16,9 °C 0,0 km/h (0 Bft)
01.04.2017 16:30 16,8 °C 16,9 °C 52 % 1007,9 hPa 0,0 mm 0,0 km/h (0 Bft) O 93 ° 0 min 0,000 mm 0,8 UV-I 127 W/m² 6,9 °C 16,8 °C 0,0 km/h (0 Bft)
01.04.2017 16:31 16,8 °C 16,8 °C 46 % 1007,9 hPa 0,0 mm 0,0 km/h (0 Bft) O 93 ° 0 min 0,000 mm 0,9 UV-I 127 W/m² 5,1 °C 16,8 °C 0,0 km/h (0 Bft)
01.04.2017 16:32 16,8 °C 16,8 °C 56 % 1007,8 hPa 0,0 mm 0,5 km/h (0 Bft) SO 125 ° 0 min 0,000 mm 0,9 UV-I 130 W/m² 8,0 °C 16,8 °C 4,8 km/h (1 Bft)
01.04.2017 16:33 16,7 °C 16,8 °C 55 % 1007,9 hPa 0,0 mm 1,8 km/h (1 Bft) SO 125 ° 0 min 0,000 mm 0,9 UV-I 132 W/m² 7,6 °C 16,7 °C 4,8 km/h (1 Bft)
01.04.2017 16:34 16,6 °C 16,7 °C 48 % 1007,9 hPa 0,0 mm 0,0 km/h (0 Bft) SO 125 ° 0 min 0,000 mm 0,9 UV-I 134 W/m² 5,5 °C 16,6 °C 0,0 km/h (0 Bft)
01.04.2017 16:35 16,6 °C 16,7 °C 53 % 1007,9 hPa 0,0 mm 0,0 km/h (0 Bft) SO 125 ° 0 min 0,000 mm 0,9 UV-I 134 W/m² 7,0 °C 16,6 °C 0,0 km/h (0 Bft)
01.04.2017 16:36 16,7 °C 16,7 °C 51 % 1007,8 hPa 0,0 mm 0,0 km/h (0 Bft) SO 125 ° 0 min 0,000 mm 0,9 UV-I 135 W/m² 6,5 °C 16,7 °C 0,0 km/h (0 Bft)
01.04.2017 16:37 16,6 °C 16,7 °C 55 % 1007,8 hPa 0,0 mm 0,0 km/h (0 Bft) SO 125 ° 0 min 0,000 mm 0,9 UV-I 137 W/m² 7,5 °C 16,6 °C 0,0 km/h (0 Bft)
01.04.2017 16:38 16,6 °C 16,7 °C 50 % 1007,8 hPa 0,0 mm 0,0 km/h (0 Bft) SO 125 ° 0 min 0,000 mm 0,9 UV-I 139 W/m² 6,1 °C 16,6 °C 0,0 km/h (0 Bft)
01.04.2017 16:39 16,7 °C 16,7 °C 47 % 1007,9 hPa 0,0 mm 2,2 km/h (1 Bft) SO 141 ° 0 min 0,000 mm 0,9 UV-I 141 W/m² 5,3 °C 16,7 °C 4,8 km/h (1 Bft)
01.04.2017 16:40 16,7 °C 16,7 °C 48 % 1007,8 hPa 0,0 mm 1,7 km/h (1 Bft) SO 141 ° 0 min 0,000 mm 0,9 UV-I 142 W/m² 5,6 °C 16,7 °C 3,2 km/h (1 Bft)
01.04.2017 16:41 16,8 °C 16,8 °C 46 % 1007,8 hPa 0,0 mm 1,2 km/h (1 Bft) SO 141 ° 0 min 0,000 mm 0,9 UV-I 142 W/m² 5,1 °C 16,8 °C 1,6 km/h (1 Bft)
01.04.2017 16:42 16,8 °C 16,8 °C 42 % 1007,8 hPa 0,0 mm 1,4 km/h (1 Bft) SO 141 ° 0 min 0,000 mm 0,9 UV-I 142 W/m² 3,8 °C 16,8 °C 3,2 km/h (1 Bft)
01.04.2017 16:43 16,8 °C 16,8 °C 43 % 1007,8 hPa 0,0 mm 1,3 km/h (1 Bft) SO 141 ° 0 min 0,000 mm 0,9 UV-I 144 W/m² 4,2 °C 16,8 °C 3,2 km/h (1 Bft)
01.04.2017 16:44 16,9 °C 16,9 °C 48 % 1007,8 hPa 0,0 mm 0,1 km/h (0 Bft) SO 141 ° 0 min 0,000 mm 0,9 UV-I 144 W/m² 5,8 °C 16,9 °C 1,6 km/h (1 Bft)
01.04.2017 16:45 16,8 °C 16,9 °C 50 % 1007,8 hPa 0,0 mm 0,0 km/h (0 Bft) SO 141 ° 0 min 0,000 mm 0,9 UV-I 146 W/m² 6,3 °C 16,8 °C 0,0 km/h (0 Bft)
01.04.2017 16:46 16,8 °C 16,8 °C 45 % 1007,8 hPa 0,0 mm 0,0 km/h (0 Bft) SO 141 ° 0 min 0,000 mm 0,9 UV-I 146 W/m² 4,8 °C 16,8 °C 0,0 km/h (0 Bft)
01.04.2017 16:47 16,8 °C 16,8 °C 42 % 1007,8 hPa 0,0 mm 0,2 km/h (0 Bft) SO 141 ° 0 min 0,000 mm 0,9 UV-I 146 W/m² 3,8 °C 16,8 °C 1,6 km/h (1 Bft)
01.04.2017 16:48 16,8 °C 16,8 °C 48 % 1007,8 hPa 0,0 mm 0,1 km/h (0 Bft) SO 141 ° 0 min 0,000 mm 0,9 UV-I 148 W/m² 5,7 °C 16,8 °C 1,6 km/h (1 Bft)
01.04.2017 16:49 16,8 °C 16,8 °C 44 % 1007,8 hPa 0,0 mm 0,0 km/h (0 Bft) SO 141 ° 0 min 0,000 mm 0,9 UV-I 149 W/m² 4,5 °C 16,8 °C 0,0 km/h (0 Bft)
01.04.2017 16:50 16,9 °C 16,9 °C 43 % 1007,8 hPa 0,0 mm 1,3 km/h (1 Bft) S 177 ° 0 min 0,000 mm 0,9 UV-I 149 W/m² 4,2 °C 16,9 °C 4,8 km/h (1 Bft)
01.04.2017 16:51 16,9 °C 16,9 °C 43 % 1007,7 hPa 0,0 mm 2,3 km/h (1 Bft) S 177 ° 0 min 0,000 mm 0,9 UV-I 151 W/m² 4,2 °C 16,9 °C 4,8 km/h (1 Bft)
01.04.2017 16:52 16,9 °C 16,9 °C 42 % 1007,7 hPa 0,0 mm 2,1 km/h (1 Bft) S 177 ° 0 min 0,000 mm 0,9 UV-I 151 W/m² 3,9 °C 16,9 °C 3,2 km/h (1 Bft)
01.04.2017 16:53 16,9 °C 17,0 °C 44 % 1007,8 hPa 0,0 mm 2,7 km/h (1 Bft) S 177 ° 0 min 0,000 mm 0,9 UV-I 153 W/m² 4,6 °C 16,9 °C 3,2 km/h (1 Bft)
01.04.2017 16:54 17,0 °C 17,0 °C 40 % 1007,7 hPa 0,0 mm 3,1 km/h (1 Bft) SW 217 ° 0 min 0,000 mm 0,9 UV-I 155 W/m² 3,3 °C 17,0 °C 4,8 km/h (1 Bft)
01.04.2017 16:55 17,1 °C 17,1 °C 39 % 1007,7 hPa 0,0 mm 3,6 km/h (1 Bft) SW 223 ° 0 min 0,000 mm 0,9 UV-I 160 W/m² 3,0 °C 17,1 °C 4,8 km/h (1 Bft)
01.04.2017 16:56 17,1 °C 17,1 °C 45 % 1007,8 hPa 0,0 mm 1,3 km/h (1 Bft) SW 223 ° 0 min 0,000 mm 1,0 UV-I 169 W/m² 5,1 °C 17,1 °C 3,2 km/h (1 Bft)
01.04.2017 16:57 17,1 °C 17,1 °C 45 % 1007,8 hPa 0,0 mm 1,3 km/h (1 Bft) SW 220 ° 0 min 0,000 mm 1,0 UV-I 169 W/m² 5,1 °C 17,1 °C 4,8 km/h (1 Bft)
01.04.2017 16:58 17,1 °C 17,1 °C 40 % 1007,7 hPa 0,0 mm 1,9 km/h (1 Bft) SW 217 ° 0 min 0,000 mm 1,0 UV-I 171 W/m² 3,4 °C 17,1 °C 3,2 km/h (1 Bft)
01.04.2017 16:59 17,1 °C 17,1 °C 42 % 1007,8 hPa 0,0 mm 0,1 km/h (0 Bft) SW 217 ° 0 min 0,000 mm 0,9 UV-I 165 W/m² 4,1 °C 17,1 °C 1,6 km/h (1 Bft)
01.04.2017 17:00 17,1 °C 17,1 °C 35 % 1007,8 hPa 0,0 mm 1,3 km/h (1 Bft) SW 217 ° 0 min 0,076 mm 0,9 UV-I 158 W/m² 1,5 °C 17,1 °C 3,2 km/h (1 Bft)
01.04.2017 17:01 17,2 °C 17,2 °C 36 % 1007,8 hPa 0,0 mm 0,4 km/h (0 Bft) SW 217 ° 0 min 0,000 mm 0,9 UV-I 151 W/m² 2,0 °C 17,2 °C 1,6 km/h (1 Bft)
01.04.2017 17:02 17,2 °C 17,3 °C 36 % 1007,8 hPa 0,0 mm 0,8 km/h (0 Bft) SW 217 ° 0 min 0,000 mm 0,9 UV-I 149 W/m² 2,0 °C 17,2 °C 1,6 km/h (1 Bft)
01.04.2017 17:03 17,3 °C 17,3 °C 39 % 1007,7 hPa 0,0 mm 0,9 km/h (0 Bft) SW 217 ° 0 min 0,000 mm 0,9 UV-I 149 W/m² 3,2 °C 17,3 °C 1,6 km/h (1 Bft)
01.04.2017 17:04 17,3 °C 17,3 °C 39 % 1007,7 hPa 0,0 mm 0,1 km/h (0 Bft) SW 217 ° 0 min 0,000 mm 0,9 UV-I 149 W/m² 3,2 °C 17,3 °C 1,6 km/h (1 Bft)
01.04.2017 17:05 17,3 °C 17,3 °C 46 % 1007,7 hPa 0,0 mm 0,7 km/h (0 Bft) SW 217 ° 0 min 0,000 mm 0,9 UV-I 148 W/m² 5,6 °C 17,3 °C 1,6 km/h (1 Bft)
01.04.2017 17:06 17,2 °C 17,3 °C 42 % 1007,7 hPa 0,0 mm 1,0 km/h (0 Bft) SW 217 ° 0 min 0,000 mm 0,9 UV-I 146 W/m² 4,2 °C 17,2 °C 1,6 km/h (1 Bft)
01.04.2017 17:07 17,2 °C 17,3 °C 49 % 1007,7 hPa 0,0 mm 0,0 km/h (0 Bft) SW 217 ° 0 min 0,000 mm 0,9 UV-I 141 W/m² 6,4 °C 17,2 °C 0,0 km/h (0 Bft)
01.04.2017 17:08 17,2 °C 17,2 °C 43 % 1007,7 hPa 0,0 mm 0,0 km/h (0 Bft) SW 217 ° 0 min 0,000 mm 0,8 UV-I 139 W/m² 4,5 °C 17,2 °C 0,0 km/h (0 Bft)
01.04.2017 17:09 17,1 °C 17,2 °C 44 % 1007,7 hPa 0,0 mm 0,0 km/h (0 Bft) SW 217 ° 0 min 0,000 mm 0,8 UV-I 139 W/m² 4,8 °C 17,1 °C 0,0 km/h (0 Bft)
01.04.2017 17:10 17,2 °C 17,2 °C 43 % 1007,7 hPa 0,0 mm 1,8 km/h (1 Bft) SW 218 ° 0 min 0,000 mm 0,8 UV-I 139 W/m² 4,5 °C 17,2 °C 3,2 km/h (1 Bft)
01.04.2017 17:11 17,1 °C 17,2 °C 43 % 1007,6 hPa 0,0 mm 2,5 km/h (1 Bft) SW 218 ° 0 min 0,000 mm 0,8 UV-I 139 W/m² 4,4 °C 17,1 °C 3,2 km/h (1 Bft)
01.04.2017 17:12 17,2 °C 17,2 °C 42 % 1007,6 hPa 0,0 mm 2,5 km/h (1 Bft) SW 218 ° 0 min 0,000 mm 0,8 UV-I 139 W/m² 4,2 °C 17,2 °C 3,2 km/h (1 Bft)
01.04.2017 17:13 17,2 °C 17,2 °C 38 % 1007,6 hPa 0,0 mm 1,6 km/h (1 Bft) SW 217 ° 0 min 0,000 mm 0,8 UV-I 139 W/m² 2,8 °C 17,2 °C 3,2 km/h (1 Bft)
01.04.2017 17:14 17,2 °C 17,2 °C 41 % 1007,7 hPa 0,0 mm 1,1 km/h (1 Bft) SW 217 ° 0 min 0,000 mm 0,8 UV-I 139 W/m² 3,8 °C 17,2 °C 1,6 km/h (1 Bft)
01.04.2017 17:15 17,2 °C 17,2 °C 38 % 1007,6 hPa 0,0 mm 1,3 km/h (1 Bft) SW 217 ° 0 min 0,000 mm 0,8 UV-I 139 W/m² 2,8 °C 17,2 °C 1,6 km/h (1 Bft)
01.04.2017 17:16 17,2 °C 17,2 °C 39 % 1007,6 hPa 0,0 mm 2,3 km/h (1 Bft) W-NW 296 ° 0 min 0,000 mm 0,8 UV-I 139 W/m² 3,1 °C 17,2 °C 4,8 km/h (1 Bft)
01.04.2017 17:17 17,2 °C 17,2 °C 40 % 1007,7 hPa 0,0 mm 4,3 km/h (1 Bft) NW 309 ° 0 min 0,000 mm 0,8 UV-I 139 W/m² 3,5 °C 17,2 °C 6,4 km/h (2 Bft)
01.04.2017 17:18 17,2 °C 17,2 °C 43 % 1007,7 hPa 0,0 mm 4,0 km/h (1 Bft) NW 309 ° 0 min 0,000 mm 0,8 UV-I 139 W/m² 4,5 °C 17,2 °C 6,4 km/h (2 Bft)
01.04.2017 17:19 17,2 °C 17,2 °C 44 % 1007,7 hPa 0,0 mm 2,1 km/h (1 Bft) NW 309 ° 0 min 0,000 mm 0,8 UV-I 139 W/m² 4,8 °C 17,2 °C 3,2 km/h (1 Bft)
01.04.2017 17:20 17,1 °C 17,2 °C 42 % 1007,7 hPa 0,0 mm 2,1 km/h (1 Bft) NW 309 ° 0 min 0,000 mm 0,8 UV-I 139 W/m² 4,1 °C 17,1 °C 3,2 km/h (1 Bft)
01.04.2017 17:21 17,1 °C 17,1 °C 43 % 1007,7 hPa 0,0 mm 5,1 km/h (1 Bft) NW 307 ° 0 min 0,000 mm 0,8 UV-I 141 W/m² 4,4 °C 17,1 °C 8,0 km/h (2 Bft)
01.04.2017 17:22 17,0 °C 17,1 °C 46 % 1007,7 hPa 0,0 mm 5,4 km/h (1 Bft) NW 312 ° 0 min 0,000 mm 0,8 UV-I 142 W/m² 5,3 °C 17,0 °C 8,0 km/h (2 Bft)
01.04.2017 17:24 16,8 °C 17,0 °C 49 % 1007,8 hPa 0,0 mm 5,1 km/h (1 Bft) NW 305 ° 0 min 0,000 mm 0,8 UV-I 146 W/m² 6,0 °C 16,8 °C 9,7 km/h (2 Bft)
01.04.2017 17:25 16,7 °C 16,8 °C 49 % 1007,8 hPa 0,0 mm 5,4 km/h (1 Bft) W 279 ° 0 min 0,000 mm 0,8 UV-I 146 W/m² 5,9 °C 16,7 °C 12,9 km/h (3 Bft)
01.04.2017 17:26 16,6 °C 16,7 °C 51 % 1007,7 hPa 0,0 mm 7,9 km/h (2 Bft) NW 313 ° 0 min 0,000 mm 0,8 UV-I 142 W/m² 6,4 °C 16,6 °C 12,9 km/h (3 Bft)
01.04.2017 17:27 16,5 °C 16,6 °C 53 % 1007,7 hPa 0,0 mm 9,5 km/h (2 Bft) W 273 ° 0 min 0,000 mm 0,8 UV-I 141 W/m² 6,9 °C 16,5 °C 16,1 km/h (3 Bft)
01.04.2017 17:28 16,3 °C 16,5 °C 56 % 1007,8 hPa 0,0 mm 9,6 km/h (2 Bft) W 271 ° 0 min 0,000 mm 0,8 UV-I 142 W/m² 7,5 °C 16,3 °C 14,5 km/h (3 Bft)
01.04.2017 17:29 16,2 °C 16,3 °C 56 % 1007,8 hPa 0,0 mm 8,8 km/h (2 Bft) W-NW 288 ° 0 min 0,000 mm 0,8 UV-I 139 W/m² 7,4 °C 16,2 °C 14,5 km/h (3 Bft)
01.04.2017 17:30 16,1 °C 16,2 °C 57 % 1007,8 hPa 0,0 mm 10,1 km/h (2 Bft) W 281 ° 0 min 0,000 mm 0,8 UV-I 137 W/m² 7,6 °C 16,1 °C 14,5 km/h (3 Bft)
01.04.2017 17:31 15,9 °C 16,1 °C 57 % 1007,8 hPa 0,0 mm 9,5 km/h (2 Bft) W-SW 255 ° 0 min 0,000 mm 0,8 UV-I 135 W/m² 7,4 °C 15,9 °C 12,9 km/h (3 Bft)
01.04.2017 17:32 15,8 °C 15,9 °C 57 % 1007,8 hPa 0,0 mm 5,9 km/h (2 Bft) W 272 ° 0 min 0,000 mm 0,8 UV-I 135 W/m² 7,3 °C 15,8 °C 11,3 km/h (2 Bft)
01.04.2017 17:33 15,7 °C 15,8 °C 57 % 1007,9 hPa 0,0 mm 7,5 km/h (2 Bft) W-NW 293 ° 0 min 0,000 mm 0,8 UV-I 134 W/m² 7,2 °C 15,7 °C 12,9 km/h (3 Bft)
01.04.2017 17:34 15,6 °C 15,7 °C 58 % 1007,9 hPa 0,0 mm 4,2 km/h (1 Bft) W-NW 298 ° 0 min 0,000 mm 0,7 UV-I 134 W/m² 7,4 °C 15,6 °C 6,4 km/h (2 Bft)
01.04.2017 17:35 15,6 °C 15,6 °C 59 % 1007,9 hPa 0,0 mm 5,7 km/h (1 Bft) W-NW 286 ° 0 min 0,000 mm 0,7 UV-I 132 W/m² 7,6 °C 15,6 °C 9,7 km/h (2 Bft)
01.04.2017 17:36 15,6 °C 15,6 °C 59 % 1007,9 hPa 0,0 mm 9,8 km/h (2 Bft) W 270 ° 0 min 0,000 mm 0,7 UV-I 130 W/m² 7,6 °C 15,6 °C 14,5 km/h (3 Bft)
01.04.2017 17:37 15,4 °C 15,6 °C 59 % 1007,9 hPa 0,0 mm 5,9 km/h (2 Bft) W 272 ° 0 min 0,000 mm 0,7 UV-I 130 W/m² 7,4 °C 15,4 °C 9,7 km/h (2 Bft)
01.04.2017 17:38 15,4 °C 15,4 °C 59 % 1007,9 hPa 0,0 mm 4,2 km/h (1 Bft) W 263 ° 0 min 0,000 mm 0,7 UV-I 127 W/m² 7,4 °C 15,4 °C 6,4 km/h (2 Bft)
01.04.2017 17:39 15,4 °C 15,4 °C 61 % 1007,9 hPa 0,0 mm 5,2 km/h (1 Bft) W-NW 288 ° 0 min 0,000 mm 0,7 UV-I 127 W/m² 7,9 °C 15,4 °C 6,4 km/h (2 Bft)
01.04.2017 17:40 15,3 °C 15,4 °C 61 % 1007,9 hPa 0,0 mm 4,5 km/h (1 Bft) W-NW 288 ° 0 min 0,000 mm 0,7 UV-I 125 W/m² 7,8 °C 15,3 °C 6,4 km/h (2 Bft)
01.04.2017 17:41 15,3 °C 15,3 °C 61 % 1007,9 hPa 0,0 mm 4,6 km/h (1 Bft) W-NW 286 ° 0 min 0,000 mm 0,7 UV-I 125 W/m² 7,8 °C 15,3 °C 9,7 km/h (2 Bft)
01.04.2017 17:42 15,3 °C 15,3 °C 61 % 1007,9 hPa 0,0 mm 7,8 km/h (2 Bft) W-NW 286 ° 0 min 0,000 mm 0,7 UV-I 123 W/m² 7,8 °C 15,3 °C 11,3 km/h (2 Bft)
01.04.2017 17:43 15,2 °C 15,3 °C 62 % 1008,0 hPa 0,0 mm 8,4 km/h (2 Bft) W 277 ° 0 min 0,000 mm 0,7 UV-I 123 W/m² 8,0 °C 15,2 °C 16,1 km/h (3 Bft)
01.04.2017 17:44 15,2 °C 15,2 °C 62 % 1008,0 hPa 0,0 mm 8,9 km/h (2 Bft) W 281 ° 0 min 0,000 mm 0,7 UV-I 123 W/m² 8,0 °C 15,2 °C 12,9 km/h (3 Bft)
01.04.2017 17:45 15,1 °C 15,2 °C 63 % 1008,0 hPa 0,0 mm 10,9 km/h (2 Bft) W 280 ° 0 min 0,000 mm 0,7 UV-I 120 W/m² 8,1 °C 15,1 °C 14,5 km/h (3 Bft)
01.04.2017 17:46 15,0 °C 15,1 °C 62 % 1008,0 hPa 0,0 mm 5,8 km/h (2 Bft) W 276 ° 0 min 0,000 mm 0,6 UV-I 118 W/m² 7,8 °C 15,0 °C 9,7 km/h (2 Bft)
01.04.2017 17:47 14,9 °C 15,0 °C 63 % 1008,0 hPa 0,0 mm 4,6 km/h (1 Bft) W-NW 285 ° 0 min 0,000 mm 0,6 UV-I 116 W/m² 7,9 °C 14,9 °C 9,7 km/h (2 Bft)
01.04.2017 17:48 14,9 °C 14,9 °C 64 % 1008,0 hPa 0,0 mm 6,3 km/h (2 Bft) W-NW 290 ° 0 min 0,000 mm 0,6 UV-I 113 W/m² 8,2 °C 14,9 °C 9,7 km/h (2 Bft)
01.04.2017 17:49 14,8 °C 14,9 °C 64 % 1008,0 hPa 0,0 mm 10,0 km/h (2 Bft) W-NW 292 ° 0 min 0,000 mm 0,6 UV-I 113 W/m² 8,1 °C 14,8 °C 12,9 km/h (3 Bft)
01.04.2017 17:50 14,8 °C 14,8 °C 65 % 1008,0 hPa 0,0 mm 8,2 km/h (2 Bft) W-NW 302 ° 0 min 0,000 mm 0,6 UV-I 111 W/m² 8,3 °C 14,8 °C 12,9 km/h (3 Bft)
01.04.2017 17:51 14,7 °C 14,8 °C 64 % 1008,0 hPa 0,0 mm 8,8 km/h (2 Bft) W-NW 298 ° 0 min 0,000 mm 0,6 UV-I 111 W/m² 8,0 °C 14,7 °C 12,9 km/h (3 Bft)
01.04.2017 17:52 14,7 °C 14,7 °C 63 % 1008,0 hPa 0,0 mm 5,8 km/h (2 Bft) NW 307 ° 0 min 0,000 mm 0,6 UV-I 111 W/m² 7,7 °C 14,7 °C 9,7 km/h (2 Bft)
01.04.2017 17:53 14,7 °C 14,7 °C 64 % 1008,1 hPa 0,0 mm 4,4 km/h (1 Bft) W-NW 300 ° 0 min 0,000 mm 0,6 UV-I 109 W/m² 8,0 °C 14,7 °C 8,0 km/h (2 Bft)
01.04.2017 17:54 14,6 °C 14,7 °C 64 % 1008,1 hPa 0,0 mm 7,9 km/h (2 Bft) W 278 ° 0 min 0,000 mm 0,6 UV-I 107 W/m² 7,9 °C 14,6 °C 11,3 km/h (2 Bft)
01.04.2017 17:55 14,6 °C 14,6 °C 64 % 1008,1 hPa 0,0 mm 11,7 km/h (2 Bft) W 270 ° 0 min 0,000 mm 0,6 UV-I 107 W/m² 7,9 °C 14,6 °C 14,5 km/h (3 Bft)
01.04.2017 17:56 14,5 °C 14,6 °C 64 % 1008,1 hPa 0,0 mm 10,8 km/h (2 Bft) W 260 ° 0 min 0,000 mm 0,6 UV-I 107 W/m² 7,8 °C 14,5 °C 12,9 km/h (3 Bft)
01.04.2017 17:57 14,4 °C 14,5 °C 64 % 1008,1 hPa 0,0 mm 8,5 km/h (2 Bft) W 266 ° 0 min 0,000 mm 0,6 UV-I 107 W/m² 7,7 °C 14,4 °C 12,9 km/h (3 Bft)
01.04.2017 17:58 14,4 °C 14,4 °C 64 % 1008,1 hPa 0,0 mm 5,3 km/h (1 Bft) W-NW 288 ° 0 min 0,000 mm 0,6 UV-I 107 W/m² 7,7 °C 14,4 °C 9,7 km/h (2 Bft)
01.04.2017 17:59 14,4 °C 14,4 °C 64 % 1008,1 hPa 0,0 mm 6,8 km/h (2 Bft) W 275 ° 0 min 0,000 mm 0,6 UV-I 109 W/m² 7,7 °C 14,4 °C 12,9 km/h (3 Bft)
01.04.2017 18:00 14,3 °C 14,4 °C 64 % 1008,1 hPa 0,0 mm 8,3 km/h (2 Bft) W-NW 293 ° 0 min 0,000 mm 0,6 UV-I 109 W/m² 7,6 °C 14,3 °C 12,9 km/h (3 Bft)
01.04.2017 18:01 14,3 °C 14,3 °C 63 % 1008,1 hPa 0,0 mm 4,1 km/h (1 Bft) W-NW 289 ° 0 min 0,102 mm 0,6 UV-I 111 W/m² 7,4 °C 14,3 °C 6,4 km/h (2 Bft)
01.04.2017 18:02 14,3 °C 14,3 °C 64 % 1008,2 hPa 0,0 mm 6,6 km/h (2 Bft) W-NW 290 ° 0 min 0,000 mm 0,6 UV-I 113 W/m² 7,6 °C 14,3 °C 11,3 km/h (2 Bft)
01.04.2017 18:03 14,3 °C 14,3 °C 64 % 1008,1 hPa 0,0 mm 3,8 km/h (1 Bft) W-NW 289 ° 0 min 0,000 mm 0,6 UV-I 113 W/m² 7,6 °C 14,3 °C 6,4 km/h (2 Bft)
01.04.2017 18:04 14,3 °C 14,3 °C 63 % 1008,2 hPa 0,0 mm 5,4 km/h (1 Bft) W-SW 245 ° 0 min 0,000 mm 0,6 UV-I 114 W/m² 7,4 °C 14,3 °C 9,7 km/h (2 Bft)
01.04.2017 18:05 14,3 °C 14,3 °C 62 % 1008,2 hPa 0,0 mm 8,2 km/h (2 Bft) W 263 ° 0 min 0,000 mm 0,6 UV-I 123 W/m² 7,1 °C 14,3 °C 12,9 km/h (3 Bft)
01.04.2017 18:06 14,3 °C 14,3 °C 62 % 1008,1 hPa 0,0 mm 8,0 km/h (2 Bft) W-NW 296 ° 0 min 0,000 mm 0,6 UV-I 128 W/m² 7,1 °C 14,3 °C 12,9 km/h (3 Bft)
01.04.2017 18:07 14,3 °C 14,3 °C 61 % 1008,2 hPa 0,0 mm 8,5 km/h (2 Bft) W-NW 294 ° 0 min 0,000 mm 0,6 UV-I 130 W/m² 6,9 °C 14,3 °C 14,5 km/h (3 Bft)
01.04.2017 18:08 14,3 °C 14,3 °C 60 % 1008,2 hPa 0,0 mm 3,5 km/h (1 Bft) NW 323 ° 0 min 0,000 mm 0,6 UV-I 132 W/m² 6,6 °C 14,3 °C 4,8 km/h (1 Bft)
01.04.2017 18:09 14,4 °C 14,4 °C 61 % 1008,1 hPa 0,0 mm 6,1 km/h (2 Bft) W-NW 286 ° 0 min 0,000 mm 0,6 UV-I 134 W/m² 7,0 °C 14,4 °C 11,3 km/h (2 Bft)
01.04.2017 18:10 14,5 °C 14,5 °C 62 % 1008,2 hPa 0,0 mm 6,6 km/h (2 Bft) NW 309 ° 0 min 0,000 mm 0,6 UV-I 130 W/m² 7,3 °C 14,5 °C 11,3 km/h (2 Bft)
01.04.2017 18:11 14,6 °C 14,6 °C 59 % 1008,2 hPa 0,0 mm 5,1 km/h (1 Bft) W-NW 286 ° 0 min 0,000 mm 0,6 UV-I 125 W/m² 6,7 °C 14,6 °C 11,3 km/h (2 Bft)
01.04.2017 18:12 14,6 °C 14,6 °C 60 % 1008,2 hPa 0,0 mm 7,2 km/h (2 Bft) W-NW 292 ° 0 min 0,000 mm 0,6 UV-I 121 W/m² 6,9 °C 14,6 °C 11,3 km/h (2 Bft)
01.04.2017 18:13 14,6 °C 14,6 °C 61 % 1008,2 hPa 0,0 mm 5,6 km/h (1 Bft) W 271 ° 0 min 0,000 mm 0,6 UV-I 121 W/m² 7,2 °C 14,6 °C 9,7 km/h (2 Bft)
01.04.2017 18:14 14,6 °C 14,6 °C 61 % 1008,2 hPa 0,0 mm 8,2 km/h (2 Bft) W-NW 285 ° 0 min 0,000 mm 0,5 UV-I 118 W/m² 7,2 °C 14,6 °C 11,3 km/h (2 Bft)
01.04.2017 18:15 14,7 °C 14,7 °C 61 % 1008,1 hPa 0,0 mm 5,7 km/h (1 Bft) W-NW 295 ° 0 min 0,000 mm 0,5 UV-I 114 W/m² 7,3 °C 14,7 °C 11,3 km/h (2 Bft)
01.04.2017 18:16 14,7 °C 14,7 °C 61 % 1008,2 hPa 0,0 mm 9,1 km/h (2 Bft) W 275 ° 0 min 0,000 mm 0,5 UV-I 111 W/m² 7,3 °C 14,7 °C 11,3 km/h (2 Bft)
01.04.2017 18:17 14,7 °C 14,7 °C 60 % 1008,2 hPa 0,0 mm 5,4 km/h (1 Bft) W 278 ° 0 min 0,000 mm 0,5 UV-I 107 W/m² 7,0 °C 14,7 °C 9,7 km/h (2 Bft)
01.04.2017 18:18 14,7 °C 14,7 °C 60 % 1008,2 hPa 0,0 mm 6,4 km/h (2 Bft) W 272 ° 0 min 0,000 mm 0,5 UV-I 105 W/m² 7,0 °C 14,7 °C 11,3 km/h (2 Bft)
01.04.2017 18:19 14,7 °C 14,7 °C 60 % 1008,2 hPa 0,0 mm 6,6 km/h (2 Bft) W 279 ° 0 min 0,000 mm 0,5 UV-I 104 W/m² 7,0 °C 14,7 °C 12,9 km/h (3 Bft)
01.04.2017 18:20 14,6 °C 14,7 °C 59 % 1008,2 hPa 0,0 mm 9,6 km/h (2 Bft) W 281 ° 0 min 0,000 mm 0,5 UV-I 100 W/m² 6,7 °C 14,6 °C 12,9 km/h (3 Bft)
01.04.2017 18:21 14,6 °C 14,6 °C 59 % 1008,2 hPa 0,0 mm 5,7 km/h (1 Bft) W-NW 283 ° 0 min 0,000 mm 0,5 UV-I 100 W/m² 6,7 °C 14,6 °C 9,7 km/h (2 Bft)
01.04.2017 18:22 14,6 °C 14,6 °C 57 % 1008,2 hPa 0,0 mm 8,6 km/h (2 Bft) W 271 ° 0 min 0,000 mm 0,5 UV-I 98 W/m² 6,2 °C 14,6 °C 12,9 km/h (3 Bft)
01.04.2017 18:23 14,5 °C 14,6 °C 58 % 1008,2 hPa 0,0 mm 7,1 km/h (2 Bft) W 275 ° 0 min 0,000 mm 0,5 UV-I 97 W/m² 6,3 °C 14,5 °C 11,3 km/h (2 Bft)
01.04.2017 18:24 14,4 °C 14,5 °C 59 % 1008,2 hPa 0,0 mm 9,0 km/h (2 Bft) W 277 ° 0 min 0,000 mm 0,0 UV-I 97 W/m² 6,5 °C 14,4 °C 14,5 km/h (3 Bft)
01.04.2017 18:25 14,3 °C 14,4 °C 57 % 1008,3 hPa 0,0 mm 7,7 km/h (2 Bft) W-NW 282 ° 0 min 0,000 mm 0,0 UV-I 97 W/m² 5,9 °C 14,3 °C 11,3 km/h (2 Bft)
01.04.2017 18:26 14,3 °C 14,3 °C 58 % 1008,2 hPa 0,0 mm 4,3 km/h (1 Bft) W-SW 252 ° 0 min 0,000 mm 0,0 UV-I 97 W/m² 6,2 °C 14,3 °C 6,4 km/h (2 Bft)
01.04.2017 18:27 14,3 °C 14,3 °C 58 % 1008,3 hPa 0,0 mm 6,1 km/h (2 Bft) NW 311 ° 0 min 0,000 mm 0,0 UV-I 97 W/m² 6,2 °C 14,3 °C 9,7 km/h (2 Bft)
01.04.2017 18:28 14,3 °C 14,3 °C 60 % 1008,3 hPa 0,0 mm 5,6 km/h (1 Bft) W 277 ° 0 min 0,000 mm 0,0 UV-I 95 W/m² 6,6 °C 14,3 °C 9,7 km/h (2 Bft)
01.04.2017 18:29 14,2 °C 14,3 °C 60 % 1008,3 hPa 0,0 mm 4,7 km/h (1 Bft) W 275 ° 0 min 0,000 mm 0,0 UV-I 93 W/m² 6,5 °C 14,2 °C 6,4 km/h (2 Bft)
01.04.2017 18:30 14,2 °C 14,2 °C 60 % 1008,3 hPa 0,0 mm 4,3 km/h (1 Bft) W 276 ° 0 min 0,000 mm 0,0 UV-I 93 W/m² 6,5 °C 14,2 °C 9,7 km/h (2 Bft)
01.04.2017 18:31 14,2 °C 14,2 °C 61 % 1008,3 hPa 0,0 mm 7,9 km/h (2 Bft) W-SW 254 ° 0 min 0,000 mm 0,0 UV-I 93 W/m² 6,8 °C 14,2 °C 11,3 km/h (2 Bft)
01.04.2017 18:32 14,2 °C 14,2 °C 60 % 1008,3 hPa 0,0 mm 10,0 km/h (2 Bft) W 271 ° 0 min 0,000 mm 0,0 UV-I 91 W/m² 6,5 °C 14,2 °C 14,5 km/h (3 Bft)
01.04.2017 18:33 14,1 °C 14,2 °C 60 % 1008,3 hPa 0,0 mm 5,5 km/h (1 Bft) W-SW 254 ° 0 min 0,000 mm 0,0 UV-I 91 W/m² 6,5 °C 14,1 °C 8,0 km/h (2 Bft)
01.04.2017 18:34 14,1 °C 14,2 °C 59 % 1008,3 hPa 0,0 mm 6,9 km/h (2 Bft) W-NW 285 ° 0 min 0,000 mm 0,0 UV-I 90 W/m² 6,2 °C 14,1 °C 11,3 km/h (2 Bft)
01.04.2017 18:35 14,1 °C 14,1 °C 60 % 1008,3 hPa 0,0 mm 4,6 km/h (1 Bft) W 274 ° 0 min 0,000 mm 0,0 UV-I 93 W/m² 6,5 °C 14,1 °C 9,7 km/h (2 Bft)
01.04.2017 18:36 14,0 °C 14,1 °C 60 % 1008,3 hPa 0,0 mm 2,6 km/h (1 Bft) W 273 ° 0 min 0,000 mm 0,0 UV-I 98 W/m² 6,4 °C 14,0 °C 4,8 km/h (1 Bft)
01.04.2017 18:37 14,0 °C 14,1 °C 60 % 1008,3 hPa 0,0 mm 3,7 km/h (1 Bft) W 259 ° 0 min 0,000 mm 0,0 UV-I 97 W/m² 6,4 °C 14,0 °C 6,4 km/h (2 Bft)
01.04.2017 18:38 13,9 °C 14,0 °C 60 % 1008,3 hPa 0,0 mm 4,5 km/h (1 Bft) W-SW 257 ° 0 min 0,000 mm 0,0 UV-I 97 W/m² 6,3 °C 13,9 °C 6,4 km/h (2 Bft)
01.04.2017 18:39 13,9 °C 14,0 °C 58 % 1008,3 hPa 0,0 mm 10,4 km/h (2 Bft) W 263 ° 0 min 0,000 mm 0,0 UV-I 97 W/m² 5,8 °C 13,9 °C 16,1 km/h (3 Bft)
01.04.2017 18:40 14,0 °C 14,0 °C 56 % 1008,3 hPa 0,0 mm 7,4 km/h (2 Bft) W-NW 294 ° 0 min 0,000 mm 0,0 UV-I 97 W/m² 5,4 °C 14,0 °C 14,5 km/h (3 Bft)
01.04.2017 18:41 13,9 °C 14,0 °C 57 % 1008,4 hPa 0,0 mm 9,6 km/h (2 Bft) SW 232 ° 0 min 0,000 mm 0,0 UV-I 90 W/m² 5,5 °C 13,9 °C 12,9 km/h (3 Bft)
01.04.2017 18:42 13,9 °C 14,0 °C 57 % 1008,4 hPa 0,0 mm 7,7 km/h (2 Bft) W-SW 256 ° 0 min 0,000 mm 0,0 UV-I 84 W/m² 5,5 °C 13,9 °C 12,9 km/h (3 Bft)
01.04.2017 18:43 13,9 °C 14,0 °C 55 % 1008,3 hPa 0,0 mm 5,6 km/h (1 Bft) W-SW 254 ° 0 min 0,000 mm 0,0 UV-I 81 W/m² 5,0 °C 13,9 °C 6,4 km/h (2 Bft)
01.04.2017 18:44 13,9 °C 14,0 °C 56 % 1008,4 hPa 0,0 mm 6,8 km/h (2 Bft) W-SW 254 ° 0 min 0,000 mm 0,0 UV-I 79 W/m² 5,3 °C 13,9 °C 9,7 km/h (2 Bft)
01.04.2017 18:45 13,9 °C 14,0 °C 56 % 1008,3 hPa 0,0 mm 4,4 km/h (1 Bft) W-SW 242 ° 0 min 0,000 mm 0,0 UV-I 76 W/m² 5,3 °C 13,9 °C 6,4 km/h (2 Bft)
01.04.2017 18:46 13,9 °C 13,9 °C 56 % 1008,4 hPa 0,0 mm 4,4 km/h (1 Bft) W-SW 251 ° 0 min 0,000 mm 0,0 UV-I 70 W/m² 5,3 °C 13,9 °C 6,4 km/h (2 Bft)
01.04.2017 18:47 13,9 °C 13,9 °C 57 % 1008,4 hPa 0,0 mm 8,2 km/h (2 Bft) W 264 ° 0 min 0,000 mm 0,0 UV-I 69 W/m² 5,5 °C 13,9 °C 12,9 km/h (3 Bft)
01.04.2017 18:48 13,8 °C 13,9 °C 56 % 1008,4 hPa 0,0 mm 4,0 km/h (1 Bft) W-SW 246 ° 0 min 0,000 mm 0,0 UV-I 67 W/m² 5,2 °C 13,8 °C 6,4 km/h (2 Bft)
01.04.2017 18:49 13,8 °C 13,8 °C 57 % 1008,4 hPa 0,0 mm 2,5 km/h (1 Bft) SW 229 ° 0 min 0,000 mm 0,0 UV-I 67 W/m² 5,4 °C 13,8 °C 4,8 km/h (1 Bft)
01.04.2017 18:50 13,8 °C 13,8 °C 57 % 1008,4 hPa 0,0 mm 2,7 km/h (1 Bft) W-SW 239 ° 0 min 0,000 mm 0,0 UV-I 63 W/m² 5,4 °C 13,8 °C 4,8 km/h (1 Bft)
01.04.2017 18:51 13,7 °C 13,8 °C 58 % 1008,4 hPa 0,0 mm 5,1 km/h (1 Bft) W-SW 252 ° 0 min 0,000 mm 0,0 UV-I 62 W/m² 5,6 °C 13,7 °C 6,4 km/h (2 Bft)
01.04.2017 18:52 13,6 °C 13,7 °C 56 % 1008,4 hPa 0,0 mm 3,0 km/h (1 Bft) SW 226 ° 0 min 0,000 mm 0,0 UV-I 60 W/m² 5,0 °C 13,6 °C 4,8 km/h (1 Bft)
01.04.2017 18:53 13,6 °C 13,6 °C 56 % 1008,4 hPa 0,0 mm 2,4 km/h (1 Bft) SW 227 ° 0 min 0,000 mm 0,0 UV-I 58 W/m² 5,0 °C 13,6 °C 3,2 km/h (1 Bft)
01.04.2017 18:54 13,5 °C 13,6 °C 56 % 1008,4 hPa 0,0 mm 2,5 km/h (1 Bft) SW 227 ° 0 min 0,000 mm 0,0 UV-I 58 W/m² 4,9 °C 13,5 °C 4,8 km/h (1 Bft)
01.04.2017 18:55 13,4 °C 13,5 °C 56 % 1008,4 hPa 0,0 mm 3,1 km/h (1 Bft) SW 227 ° 0 min 0,000 mm 0,0 UV-I 56 W/m² 4,8 °C 13,4 °C 4,8 km/h (1 Bft)
01.04.2017 18:56 13,4 °C 13,4 °C 56 % 1008,5 hPa 0,0 mm 4,1 km/h (1 Bft) W 261 ° 0 min 0,000 mm 0,0 UV-I 54 W/m² 4,8 °C 13,4 °C 6,4 km/h (2 Bft)
01.04.2017 18:57 13,4 °C 13,4 °C 56 % 1008,5 hPa 0,0 mm 6,4 km/h (2 Bft) S-SW 192 ° 0 min 0,000 mm 0,0 UV-I 54 W/m² 4,8 °C 13,4 °C 9,7 km/h (2 Bft)
01.04.2017 18:58 13,4 °C 13,4 °C 56 % 1008,5 hPa 0,0 mm 5,4 km/h (1 Bft) S-SW 207 ° 0 min 0,000 mm 0,0 UV-I 53 W/m² 4,8 °C 13,4 °C 8,0 km/h (2 Bft)
01.04.2017 18:59 13,3 °C 13,4 °C 56 % 1008,5 hPa 0,0 mm 5,9 km/h (2 Bft) W-SW 247 ° 0 min 0,000 mm 0,0 UV-I 51 W/m² 4,7 °C 13,3 °C 9,7 km/h (2 Bft)
01.04.2017 19:00 13,3 °C 13,3 °C 56 % 1008,5 hPa 0,0 mm 4,2 km/h (1 Bft) W-SW 248 ° 0 min 0,076 mm 0,0 UV-I 49 W/m² 4,7 °C 13,3 °C 6,4 km/h (2 Bft)
01.04.2017 19:01 13,3 °C 13,3 °C 56 % 1008,5 hPa 0,0 mm 3,0 km/h (1 Bft) W-SW 248 ° 0 min 0,000 mm 0,0 UV-I 47 W/m² 4,7 °C 13,3 °C 4,8 km/h (1 Bft)
01.04.2017 19:02 13,2 °C 13,3 °C 57 % 1008,6 hPa 0,0 mm 0,8 km/h (0 Bft) W-SW 248 ° 0 min 0,000 mm 0,0 UV-I 46 W/m² 4,9 °C 13,2 °C 1,6 km/h (1 Bft)
01.04.2017 19:03 13,2 °C 13,2 °C 57 % 1008,5 hPa 0,0 mm 3,7 km/h (1 Bft) SW 229 ° 0 min 0,000 mm 0,0 UV-I 44 W/m² 4,9 °C 13,2 °C 6,4 km/h (2 Bft)
01.04.2017 19:04 13,1 °C 13,2 °C 57 % 1008,6 hPa 0,0 mm 4,6 km/h (1 Bft) SW 233 ° 0 min 0,000 mm 0,0 UV-I 42 W/m² 4,8 °C 13,1 °C 9,7 km/h (2 Bft)
01.04.2017 19:05 13,1 °C 13,1 °C 57 % 1008,6 hPa 0,0 mm 3,2 km/h (1 Bft) SW 233 ° 0 min 0,000 mm 0,0 UV-I 42 W/m² 4,8 °C 13,1 °C 6,4 km/h (2 Bft)
01.04.2017 19:06 13,1 °C 13,1 °C 56 % 1008,6 hPa 0,0 mm 2,3 km/h (1 Bft) S-SW 213 ° 0 min 0,000 mm 0,0 UV-I 42 W/m² 4,5 °C 13,1 °C 4,8 km/h (1 Bft)
01.04.2017 19:07 13,1 °C 13,1 °C 57 % 1008,6 hPa 0,0 mm 6,0 km/h (2 Bft) W-SW 241 ° 0 min 0,000 mm 0,0 UV-I 42 W/m² 4,8 °C 13,1 °C 8,0 km/h (2 Bft)
01.04.2017 19:08 13,1 °C 13,1 °C 57 % 1008,6 hPa 0,0 mm 3,7 km/h (1 Bft) SW 229 ° 0 min 0,000 mm 0,0 UV-I 42 W/m² 4,8 °C 13,1 °C 8,0 km/h (2 Bft)
01.04.2017 19:09 13,0 °C 13,1 °C 56 % 1008,6 hPa 0,0 mm 5,2 km/h (1 Bft) SW 220 ° 0 min 0,000 mm 0,0 UV-I 40 W/m² 4,4 °C 13,0 °C 6,4 km/h (2 Bft)
01.04.2017 19:10 13,1 °C 13,1 °C 56 % 1008,7 hPa 0,0 mm 4,4 km/h (1 Bft) S-SW 201 ° 0 min 0,000 mm 0,0 UV-I 39 W/m² 4,5 °C 13,1 °C 6,4 km/h (2 Bft)
01.04.2017 19:11 13,1 °C 13,1 °C 56 % 1008,7 hPa 0,0 mm 6,2 km/h (2 Bft) SW 234 ° 0 min 0,000 mm 0,0 UV-I 37 W/m² 4,5 °C 13,1 °C 8,0 km/h (2 Bft)
01.04.2017 19:12 13,1 °C 13,1 °C 56 % 1008,7 hPa 0,0 mm 5,3 km/h (1 Bft) SW 223 ° 0 min 0,000 mm 0,0 UV-I 35 W/m² 4,5 °C 13,1 °C 9,7 km/h (2 Bft)
01.04.2017 19:13 13,1 °C 13,1 °C 55 % 1008,7 hPa 0,0 mm 4,6 km/h (1 Bft) W-SW 245 ° 0 min 0,000 mm 0,0 UV-I 35 W/m² 4,3 °C 13,1 °C 8,0 km/h (2 Bft)
01.04.2017 19:14 13,1 °C 13,1 °C 56 % 1008,7 hPa 0,0 mm 3,7 km/h (1 Bft) SW 215 ° 0 min 0,000 mm 0,0 UV-I 33 W/m² 4,5 °C 13,1 °C 6,4 km/h (2 Bft)
01.04.2017 19:15 13,0 °C 13,1 °C 56 % 1008,7 hPa 0,0 mm 3,4 km/h (1 Bft) SW 229 ° 0 min 0,000 mm 0,0 UV-I 33 W/m² 4,4 °C 13,0 °C 6,4 km/h (2 Bft)
01.04.2017 19:16 13,0 °C 13,1 °C 55 % 1008,7 hPa 0,0 mm 5,8 km/h (2 Bft) W-SW 240 ° 0 min 0,000 mm 0,0 UV-I 32 W/m² 4,2 °C 13,0 °C 8,0 km/h (2 Bft)
01.04.2017 19:17 13,0 °C 13,0 °C 56 % 1008,7 hPa 0,0 mm 4,0 km/h (1 Bft) S-SW 202 ° 0 min 0,000 mm 0,0 UV-I 30 W/m² 4,4 °C 13,0 °C 6,4 km/h (2 Bft)
01.04.2017 19:18 12,9 °C 13,0 °C 56 % 1008,7 hPa 0,0 mm 4,0 km/h (1 Bft) W-SW 240 ° 0 min 0,000 mm 0,0 UV-I 30 W/m² 4,3 °C 12,9 °C 6,4 km/h (2 Bft)
01.04.2017 19:19 12,9 °C 12,9 °C 56 % 1008,7 hPa 0,0 mm 5,7 km/h (1 Bft) SW 223 ° 0 min 0,000 mm 0,0 UV-I 28 W/m² 4,3 °C 12,9 °C 8,0 km/h (2 Bft)
01.04.2017 19:20 12,9 °C 12,9 °C 55 % 1008,7 hPa 0,0 mm 5,0 km/h (1 Bft) S 188 ° 0 min 0,000 mm 0,0 UV-I 28 W/m² 4,1 °C 12,9 °C 8,0 km/h (2 Bft)
01.04.2017 19:21 12,9 °C 12,9 °C 55 % 1008,7 hPa 0,0 mm 3,4 km/h (1 Bft) SW 227 ° 0 min 0,000 mm 0,0 UV-I 28 W/m² 4,1 °C 12,9 °C 6,4 km/h (2 Bft)
01.04.2017 19:22 12,9 °C 12,9 °C 56 % 1008,7 hPa 0,0 mm 4,2 km/h (1 Bft) W-SW 243 ° 0 min 0,000 mm 0,0 UV-I 25 W/m² 4,3 °C 12,9 °C 6,4 km/h (2 Bft)
01.04.2017 19:23 12,9 °C 12,9 °C 56 % 1008,8 hPa 0,0 mm 3,6 km/h (1 Bft) SW 233 ° 0 min 0,000 mm 0,0 UV-I 23 W/m² 4,3 °C 12,9 °C 6,4 km/h (2 Bft)
01.04.2017 19:24 12,9 °C 12,9 °C 55 % 1008,7 hPa 0,0 mm 4,7 km/h (1 Bft) W 265 ° 0 min 0,000 mm 0,0 UV-I 21 W/m² 4,1 °C 12,9 °C 11,3 km/h (2 Bft)
01.04.2017 19:25 12,8 °C 12,9 °C 55 % 1008,8 hPa 0,0 mm 3,3 km/h (1 Bft) W 265 ° 0 min 0,000 mm 0,0 UV-I 19 W/m² 4,0 °C 12,8 °C 4,8 km/h (1 Bft)
01.04.2017 19:26 12,8 °C 12,8 °C 55 % 1008,8 hPa 0,0 mm 4,1 km/h (1 Bft) S-SW 208 ° 0 min 0,000 mm 0,0 UV-I 19 W/m² 4,0 °C 12,8 °C 4,8 km/h (1 Bft)
01.04.2017 19:27 12,8 °C 12,8 °C 53 % 1008,7 hPa 0,0 mm 3,6 km/h (1 Bft) S-SW 192 ° 0 min 0,000 mm 0,0 UV-I 16 W/m² 3,5 °C 12,8 °C 6,4 km/h (2 Bft)
01.04.2017 19:28 12,8 °C 12,8 °C 54 % 1008,7 hPa 0,0 mm 4,7 km/h (1 Bft) S 179 ° 0 min 0,000 mm 0,0 UV-I 14 W/m² 3,7 °C 12,8 °C 8,0 km/h (2 Bft)
01.04.2017 19:29 12,9 °C 12,9 °C 54 % 1008,8 hPa 0,0 mm 4,8 km/h (1 Bft) S 181 ° 0 min 0,000 mm 0,0 UV-I 14 W/m² 3,8 °C 12,9 °C 6,4 km/h (2 Bft)
01.04.2017 19:30 12,8 °C 12,9 °C 54 % 1008,8 hPa 0,0 mm 5,2 km/h (1 Bft) S 190 ° 0 min 0,000 mm 0,0 UV-I 12 W/m² 3,7 °C 12,8 °C 6,4 km/h (2 Bft)
01.04.2017 19:31 12,8 °C 12,8 °C 54 % 1008,8 hPa 0,0 mm 4,6 km/h (1 Bft) S 184 ° 0 min 0,000 mm 0,0 UV-I 12 W/m² 3,7 °C 12,8 °C 8,0 km/h (2 Bft)
01.04.2017 19:32 12,8 °C 12,8 °C 54 % 1008,8 hPa 0,0 mm 3,4 km/h (1 Bft) S 185 ° 0 min 0,000 mm 0,0 UV-I 11 W/m² 3,7 °C 12,8 °C 4,8 km/h (1 Bft)
01.04.2017 19:33 12,8 °C 12,8 °C 53 % 1008,8 hPa 0,0 mm 4,7 km/h (1 Bft) S 180 ° 0 min 0,000 mm 0,0 UV-I 9 W/m² 3,5 °C 12,8 °C 6,4 km/h (2 Bft)
01.04.2017 19:34 12,9 °C 12,9 °C 53 % 1008,8 hPa 0,0 mm 6,7 km/h (2 Bft) S-SW 193 ° 0 min 0,000 mm 0,0 UV-I 9 W/m² 3,6 °C 12,9 °C 8,0 km/h (2 Bft)
01.04.2017 19:35 12,9 °C 12,9 °C 55 % 1008,9 hPa 0,0 mm 5,8 km/h (2 Bft) S 189 ° 0 min 0,000 mm 0,0 UV-I 9 W/m² 4,1 °C 12,9 °C 6,4 km/h (2 Bft)
01.04.2017 19:36 12,8 °C 12,9 °C 54 % 1008,9 hPa 0,0 mm 5,2 km/h (1 Bft) S-SW 205 ° 0 min 0,000 mm 0,0 UV-I 7 W/m² 3,7 °C 12,8 °C 6,4 km/h (2 Bft)
01.04.2017 19:37 12,8 °C 12,9 °C 53 % 1008,9 hPa 0,0 mm 5,8 km/h (2 Bft) S-SW 192 ° 0 min 0,000 mm 0,0 UV-I 7 W/m² 3,5 °C 12,8 °C 6,4 km/h (2 Bft)
01.04.2017 19:38 12,8 °C 12,9 °C 54 % 1008,9 hPa 0,0 mm 5,4 km/h (1 Bft) S-SW 192 ° 0 min 0,000 mm 0,0 UV-I 7 W/m² 3,7 °C 12,8 °C 8,0 km/h (2 Bft)
01.04.2017 19:39 12,8 °C 12,8 °C 55 % 1008,9 hPa 0,0 mm 6,2 km/h (2 Bft) S 186 ° 0 min 0,000 mm 0,0 UV-I 7 W/m² 4,0 °C 12,8 °C 8,0 km/h (2 Bft)
01.04.2017 19:40 12,8 °C 12,8 °C 53 % 1008,9 hPa 0,0 mm 4,0 km/h (1 Bft) S 189 ° 0 min 0,000 mm 0,0 UV-I 7 W/m² 3,5 °C 12,8 °C 6,4 km/h (2 Bft)
01.04.2017 19:41 12,7 °C 12,8 °C 54 % 1008,9 hPa 0,0 mm 6,1 km/h (2 Bft) S-SW 209 ° 0 min 0,000 mm 0,0 UV-I 5 W/m² 3,6 °C 12,7 °C 8,0 km/h (2 Bft)
01.04.2017 19:42 12,7 °C 12,7 °C 54 % 1009,0 hPa 0,0 mm 7,0 km/h (2 Bft) S-SW 202 ° 0 min 0,000 mm 0,0 UV-I 5 W/m² 3,6 °C 12,7 °C 9,7 km/h (2 Bft)
01.04.2017 19:43 12,6 °C 12,7 °C 54 % 1009,0 hPa 0,0 mm 5,7 km/h (1 Bft) S-SW 200 ° 0 min 0,000 mm 0,0 UV-I 5 W/m² 3,5 °C 12,6 °C 8,0 km/h (2 Bft)
01.04.2017 19:44 12,6 °C 12,6 °C 55 % 1009,0 hPa 0,0 mm 5,3 km/h (1 Bft) S-SW 202 ° 0 min 0,000 mm 0,0 UV-I 0 W/m² 3,8 °C 12,6 °C 8,0 km/h (2 Bft)
01.04.2017 19:45 12,6 °C 12,6 °C 54 % 1009,0 hPa 0,0 mm 5,0 km/h (1 Bft) SW 229 ° 0 min 0,000 mm 0,0 UV-I 0 W/m² 3,5 °C 12,6 °C 6,4 km/h (2 Bft)
01.04.2017 19:46 12,6 °C 12,6 °C 54 % 1009,0 hPa 0,0 mm 3,6 km/h (1 Bft) S 188 ° 0 min 0,000 mm 0,0 UV-I 0 W/m² 3,5 °C 12,6 °C 6,4 km/h (2 Bft)
01.04.2017 19:47 12,6 °C 12,6 °C 54 % 1009,0 hPa 0,0 mm 5,7 km/h (1 Bft) S-SW 193 ° 0 min 0,000 mm 0,0 UV-I 0 W/m² 3,5 °C 12,6 °C 8,0 km/h (2 Bft)
01.04.2017 19:48 12,6 °C 12,6 °C 54 % 1009,0 hPa 0,0 mm 4,6 km/h (1 Bft) S-SW 195 ° 0 min 0,000 mm 0,0 UV-I 0 W/m² 3,5 °C 12,6 °C 8,0 km/h (2 Bft)
01.04.2017 19:49 12,6 °C 12,6 °C 53 % 1009,0 hPa 0,0 mm 4,0 km/h (1 Bft) SW 234 ° 0 min 0,000 mm 0,0 UV-I 0 W/m² 3,3 °C 12,6 °C 6,4 km/h (2 Bft)
01.04.2017 19:50 12,6 °C 12,6 °C 53 % 1009,0 hPa 0,0 mm 3,2 km/h (1 Bft) W-SW 249 ° 0 min 0,000 mm 0,0 UV-I 0 W/m² 3,3 °C 12,6 °C 4,8 km/h (1 Bft)
01.04.2017 19:51 12,6 °C 12,6 °C 54 % 1009,0 hPa 0,0 mm 3,3 km/h (1 Bft) S 188 ° 0 min 0,000 mm 0,0 UV-I 0 W/m² 3,5 °C 12,6 °C 4,8 km/h (1 Bft)
01.04.2017 19:52 12,6 °C 12,6 °C 53 % 1009,1 hPa 0,0 mm 3,9 km/h (1 Bft) S-SW 205 ° 0 min 0,000 mm 0,0 UV-I 0 W/m² 3,3 °C 12,6 °C 6,4 km/h (2 Bft)
01.04.2017 19:53 12,5 °C 12,6 °C 54 % 1009,1 hPa 0,0 mm 5,9 km/h (2 Bft) S 188 ° 0 min 0,000 mm 0,0 UV-I 0 W/m² 3,5 °C 12,5 °C 8,0 km/h (2 Bft)
01.04.2017 19:54 12,5 °C 12,6 °C 54 % 1009,1 hPa 0,0 mm 5,3 km/h (1 Bft) S-SW 205 ° 0 min 0,000 mm 0,0 UV-I 0 W/m² 3,5 °C 12,5 °C 8,0 km/h (2 Bft)
01.04.2017 19:55 12,5 °C 12,5 °C 54 % 1009,1 hPa 0,0 mm 5,5 km/h (1 Bft) S-SW 211 ° 0 min 0,000 mm 0,0 UV-I 0 W/m² 3,5 °C 12,5 °C 6,4 km/h (2 Bft)
01.04.2017 19:56 12,5 °C 12,5 °C 53 % 1009,1 hPa 0,0 mm 5,4 km/h (1 Bft) S 182 ° 0 min 0,000 mm 0,0 UV-I 0 W/m² 3,2 °C 12,5 °C 9,7 km/h (2 Bft)
01.04.2017 19:57 12,4 °C 12,5 °C 54 % 1009,2 hPa 0,0 mm 6,0 km/h (2 Bft) S-SW 194 ° 0 min 0,000 mm 0,0 UV-I 0 W/m² 3,4 °C 12,4 °C 8,0 km/h (2 Bft)
01.04.2017 19:58 12,4 °C 12,4 °C 53 % 1009,1 hPa 0,0 mm 6,6 km/h (2 Bft) S-SW 198 ° 0 min 0,000 mm 0,0 UV-I 0 W/m² 3,1 °C 12,4 °C 9,7 km/h (2 Bft)
01.04.2017 19:59 12,4 °C 12,4 °C 54 % 1009,1 hPa 0,0 mm 5,8 km/h (2 Bft) S-SW 195 ° 0 min 0,000 mm 0,0 UV-I 0 W/m² 3,4 °C 12,4 °C 8,0 km/h (2 Bft)
01.04.2017 20:00 12,4 °C 12,4 °C 53 % 1009,2 hPa 0,0 mm 6,1 km/h (2 Bft) S 190 ° 0 min 0,051 mm 0,0 UV-I 0 W/m² 3,1 °C 12,4 °C 11,3 km/h (2 Bft)
01.04.2017 20:01 12,4 °C 12,4 °C 53 % 1009,2 hPa 0,0 mm 6,8 km/h (2 Bft) S-SW 201 ° 0 min 0,000 mm 0,0 UV-I 0 W/m² 3,1 °C 12,4 °C 9,7 km/h (2 Bft)
01.04.2017 20:02 12,4 °C 12,4 °C 53 % 1009,2 hPa 0,0 mm 6,0 km/h (2 Bft) S 189 ° 0 min 0,000 mm 0,0 UV-I 0 W/m² 3,1 °C 12,4 °C 8,0 km/h (2 Bft)
01.04.2017 20:03 12,4 °C 12,4 °C 53 % 1009,3 hPa 0,0 mm 6,2 km/h (2 Bft) S-SW 210 ° 0 min 0,000 mm 0,0 UV-I 0 W/m² 3,1 °C 12,4 °C 8,0 km/h (2 Bft)
01.04.2017 20:04 12,5 °C 12,5 °C 52 % 1009,3 hPa 0,0 mm 7,3 km/h (2 Bft) S-SW 207 ° 0 min 0,000 mm 0,0 UV-I 0 W/m² 2,9 °C 12,5 °C 9,7 km/h (2 Bft)
01.04.2017 20:05 12,4 °C 12,5 °C 53 % 1009,3 hPa 0,0 mm 6,7 km/h (2 Bft) S-SW 202 ° 0 min 0,000 mm 0,0 UV-I 0 W/m² 3,1 °C 12,4 °C 9,7 km/h (2 Bft)
01.04.2017 20:06 12,4 °C 12,4 °C 54 % 1009,3 hPa 0,0 mm 6,0 km/h (2 Bft) S 185 ° 0 min 0,000 mm 0,0 UV-I 0 W/m² 3,4 °C 12,4 °C 8,0 km/h (2 Bft)
01.04.2017 20:07 12,3 °C 12,4 °C 53 % 1009,4 hPa 0,0 mm 6,3 km/h (2 Bft) S 190 ° 0 min 0,000 mm 0,0 UV-I 0 W/m² 3,0 °C 12,3 °C 8,0 km/h (2 Bft)
01.04.2017 20:08 12,3 °C 12,3 °C 54 % 1009,4 hPa 0,0 mm 7,1 km/h (2 Bft) S-SW 209 ° 0 min 0,000 mm 0,0 UV-I 0 W/m² 3,3 °C 12,3 °C 9,7 km/h (2 Bft)
01.04.2017 20:09 12,3 °C 12,3 °C 53 % 1009,4 hPa 0,0 mm 5,5 km/h (1 Bft) S-SW 195 ° 0 min 0,000 mm 0,0 UV-I 0 W/m² 3,0 °C 12,3 °C 9,7 km/h (2 Bft)
01.04.2017 20:10 12,3 °C 12,3 °C 54 % 1009,4 hPa 0,0 mm 6,0 km/h (2 Bft) S-SW 195 ° 0 min 0,000 mm 0,0 UV-I 0 W/m² 3,3 °C 12,3 °C 9,7 km/h (2 Bft)
01.04.2017 20:11 12,2 °C 12,3 °C 53 % 1009,4 hPa 0,0 mm 7,6 km/h (2 Bft) S-SW 198 ° 0 min 0,000 mm 0,0 UV-I 0 W/m² 2,9 °C 12,2 °C 11,3 km/h (2 Bft)
01.04.2017 20:12 12,2 °C 12,2 °C 53 % 1009,4 hPa 0,0 mm 5,5 km/h (1 Bft) S-SW 204 ° 0 min 0,000 mm 0,0 UV-I 0 W/m² 2,9 °C 12,2 °C 8,0 km/h (2 Bft)
01.04.2017 20:13 12,2 °C 12,2 °C 53 % 1009,4 hPa 0,0 mm 6,7 km/h (2 Bft) S-SW 193 ° 0 min 0,000 mm 0,0 UV-I 0 W/m² 2,9 °C 12,2 °C 8,0 km/h (2 Bft)
01.04.2017 20:14 12,2 °C 12,2 °C 53 % 1009,4 hPa 0,0 mm 7,3 km/h (2 Bft) S-SW 206 ° 0 min 0,000 mm 0,0 UV-I 0 W/m² 2,9 °C 12,2 °C 9,7 km/h (2 Bft)
01.04.2017 20:15 12,2 °C 12,2 °C 53 % 1009,5 hPa 0,0 mm 7,5 km/h (2 Bft) S 188 ° 0 min 0,000 mm 0,0 UV-I 0 W/m² 2,9 °C 12,2 °C 12,9 km/h (3 Bft)
01.04.2017 20:16 12,2 °C 12,2 °C 53 % 1009,5 hPa 0,0 mm 6,9 km/h (2 Bft) S-SW 197 ° 0 min 0,000 mm 0,0 UV-I 0 W/m² 2,9 °C 12,2 °C 9,7 km/h (2 Bft)
01.04.2017 20:17 12,2 °C 12,2 °C 53 % 1009,5 hPa 0,0 mm 6,6 km/h (2 Bft) S 184 ° 0 min 0,000 mm 0,0 UV-I 0 W/m² 2,9 °C 12,2 °C 9,7 km/h (2 Bft)
01.04.2017 20:18 12,2 °C 12,2 °C 53 % 1009,5 hPa 0,0 mm 6,1 km/h (2 Bft) S-SW 199 ° 0 min 0,000 mm 0,0 UV-I 0 W/m² 2,9 °C 12,2 °C 8,0 km/h (2 Bft)
01.04.2017 20:19 12,2 °C 12,2 °C 53 % 1009,5 hPa 0,0 mm 7,4 km/h (2 Bft) S-SW 198 ° 0 min 0,000 mm 0,0 UV-I 0 W/m² 2,9 °C 12,2 °C 11,3 km/h (2 Bft)
01.04.2017 20:20 12,2 °C 12,2 °C 53 % 1009,5 hPa 0,0 mm 5,5 km/h (1 Bft) S 188 ° 0 min 0,000 mm 0,0 UV-I 0 W/m² 2,9 °C 12,2 °C 8,0 km/h (2 Bft)
01.04.2017 20:21 12,2 °C 12,2 °C 53 % 1009,5 hPa 0,0 mm 6,3 km/h (2 Bft) S-SW 192 ° 0 min 0,000 mm 0,0 UV-I 0 W/m² 2,9 °C 12,2 °C 9,7 km/h (2 Bft)
01.04.2017 20:22 12,2 °C 12,2 °C 53 % 1009,5 hPa 0,0 mm 6,2 km/h (2 Bft) S-SW 196 ° 0 min 0,000 mm 0,0 UV-I 0 W/m² 2,9 °C 12,2 °C 8,0 km/h (2 Bft)
01.04.2017 20:23 12,2 °C 12,2 °C 54 % 1009,6 hPa 0,0 mm 6,4 km/h (2 Bft) S-SW 196 ° 0 min 0,000 mm 0,0 UV-I 0 W/m² 3,2 °C 12,2 °C 8,0 km/h (2 Bft)
01.04.2017 20:24 12,2 °C 12,2 °C 53 % 1009,6 hPa 0,0 mm 4,4 km/h (1 Bft) SW 218 ° 0 min 0,000 mm 0,0 UV-I 0 W/m² 2,9 °C 12,2 °C 6,4 km/h (2 Bft)
01.04.2017 20:25 12,1 °C 12,2 °C 53 % 1009,6 hPa 0,0 mm 6,5 km/h (2 Bft) SW 220 ° 0 min 0,000 mm 0,0 UV-I 0 W/m² 2,8 °C 12,1 °C 9,7 km/h (2 Bft)
01.04.2017 20:26 12,1 °C 12,2 °C 52 % 1009,6 hPa 0,0 mm 5,0 km/h (1 Bft) S-SW 198 ° 0 min 0,000 mm 0,0 UV-I 0 W/m² 2,5 °C 12,1 °C 8,0 km/h (2 Bft)
01.04.2017 20:27 12,1 °C 12,1 °C 54 % 1009,6 hPa 0,0 mm 3,0 km/h (1 Bft) S-SW 195 ° 0 min 0,000 mm 0,0 UV-I 0 W/m² 3,1 °C 12,1 °C 4,8 km/h (1 Bft)
01.04.2017 20:28 12,0 °C 12,1 °C 53 % 1009,7 hPa 0,0 mm 5,0 km/h (1 Bft) S-SW 209 ° 0 min 0,000 mm 0,0 UV-I 0 W/m² 2,7 °C 12,0 °C 6,4 km/h (2 Bft)
01.04.2017 20:29 11,9 °C 12,0 °C 55 % 1009,7 hPa 0,0 mm 5,7 km/h (1 Bft) S-SW 197 ° 0 min 0,000 mm 0,0 UV-I 0 W/m² 3,2 °C 11,9 °C 8,0 km/h (2 Bft)
01.04.2017 20:30 11,8 °C 11,9 °C 54 % 1009,7 hPa 0,0 mm 5,4 km/h (1 Bft) S-SW 197 ° 0 min 0,000 mm 0,0 UV-I 0 W/m² 2,8 °C 11,8 °C 6,4 km/h (2 Bft)
01.04.2017 20:31 11,7 °C 11,8 °C 54 % 1009,7 hPa 0,0 mm 5,2 km/h (1 Bft) S 184 ° 0 min 0,000 mm 0,0 UV-I 0 W/m² 2,7 °C 11,7 °C 8,0 km/h (2 Bft)
01.04.2017 20:32 11,7 °C 11,7 °C 55 % 1009,7 hPa 0,0 mm 5,6 km/h (1 Bft) S-SO 163 ° 0 min 0,000 mm 0,0 UV-I 0 W/m² 3,0 °C 11,7 °C 8,0 km/h (2 Bft)
01.04.2017 20:33 11,7 °C 11,7 °C 55 % 1009,7 hPa 0,0 mm 5,3 km/h (1 Bft) S-SW 194 ° 0 min 0,000 mm 0,0 UV-I 0 W/m² 3,0 °C 11,7 °C 8,0 km/h (2 Bft)
01.04.2017 20:34 11,5 °C 11,7 °C 56 % 1009,7 hPa 0,0 mm 5,4 km/h (1 Bft) S-SW 200 ° 0 min 0,000 mm 0,0 UV-I 0 W/m² 3,0 °C 11,5 °C 8,0 km/h (2 Bft)
01.04.2017 20:35 11,3 °C 11,5 °C 56 % 1009,7 hPa 0,0 mm 4,9 km/h (1 Bft) S 178 ° 0 min 0,000 mm 0,0 UV-I 0 W/m² 2,8 °C 11,3 °C 9,7 km/h (2 Bft)
01.04.2017 20:36 11,3 °C 11,3 °C 57 % 1009,7 hPa 0,0 mm 7,4 km/h (2 Bft) S-SW 195 ° 0 min 0,000 mm 0,0 UV-I 0 W/m² 3,1 °C 11,3 °C 9,7 km/h (2 Bft)
01.04.2017 20:37 11,2 °C 11,3 °C 58 % 1009,8 hPa 0,0 mm 5,2 km/h (1 Bft) S-SW 204 ° 0 min 0,000 mm 0,0 UV-I 0 W/m² 3,2 °C 11,2 °C 8,0 km/h (2 Bft)
01.04.2017 20:38 11,2 °C 11,2 °C 56 % 1009,7 hPa 0,0 mm 6,1 km/h (2 Bft) S-SW 201 ° 0 min 0,000 mm 0,0 UV-I 0 W/m² 2,8 °C 11,2 °C 11,3 km/h (2 Bft)
01.04.2017 20:39 11,2 °C 11,2 °C 58 % 1009,7 hPa 0,0 mm 3,8 km/h (1 Bft) S-SW 213 ° 0 min 0,000 mm 0,0 UV-I 0 W/m² 3,2 °C 11,2 °C 4,8 km/h (1 Bft)
01.04.2017 20:40 11,0 °C 11,2 °C 59 % 1009,7 hPa 0,0 mm 2,8 km/h (1 Bft) S-SW 213 ° 0 min 0,000 mm 0,0 UV-I 0 W/m² 3,3 °C 11,0 °C 3,2 km/h (1 Bft)
01.04.2017 20:41 11,0 °C 11,0 °C 59 % 1009,7 hPa 0,0 mm 6,1 km/h (2 Bft) S-SW 197 ° 0 min 0,000 mm 0,0 UV-I 0 W/m² 3,3 °C 11,0 °C 11,3 km/h (2 Bft)
01.04.2017 20:42 10,9 °C 11,0 °C 59 % 1009,8 hPa 0,0 mm 5,2 km/h (1 Bft) S-SW 210 ° 0 min 0,000 mm 0,0 UV-I 0 W/m² 3,2 °C 10,9 °C 9,7 km/h (2 Bft)
01.04.2017 20:43 10,9 °C 10,9 °C 59 % 1009,7 hPa 0,0 mm 2,1 km/h (1 Bft) S 185 ° 0 min 0,000 mm 0,0 UV-I 0 W/m² 3,2 °C 10,9 °C 4,8 km/h (1 Bft)
01.04.2017 20:44 10,9 °C 10,9 °C 59 % 1009,8 hPa 0,0 mm 3,0 km/h (1 Bft) S-SW 196 ° 0 min 0,000 mm 0,0 UV-I 0 W/m² 3,2 °C 10,9 °C 4,8 km/h (1 Bft)
01.04.2017 20:45 10,9 °C 10,9 °C 59 % 1009,8 hPa 0,0 mm 5,0 km/h (1 Bft) S-SW 194 ° 0 min 0,000 mm 0,0 UV-I 0 W/m² 3,2 °C 10,9 °C 11,3 km/h (2 Bft)
01.04.2017 20:46 10,9 °C 10,9 °C 59 % 1009,8 hPa 0,0 mm 7,1 km/h (2 Bft) S-SW 208 ° 0 min 0,000 mm 0,0 UV-I 0 W/m² 3,2 °C 10,9 °C 11,3 km/h (2 Bft)
01.04.2017 20:47 10,9 °C 10,9 °C 59 % 1009,8 hPa 0,0 mm 4,7 km/h (1 Bft) S-SW 200 ° 0 min 0,000 mm 0,0 UV-I 0 W/m² 3,2 °C 10,9 °C 6,4 km/h (2 Bft)
01.04.2017 20:48 10,9 °C 10,9 °C 60 % 1009,8 hPa 0,0 mm 6,4 km/h (2 Bft) S-SO 156 ° 0 min 0,000 mm 0,0 UV-I 0 W/m² 3,4 °C 10,9 °C 9,7 km/h (2 Bft)
01.04.2017 20:49 10,8 °C 10,9 °C 60 % 1009,8 hPa 0,0 mm 3,4 km/h (1 Bft) S-SO 159 ° 0 min 0,000 mm 0,0 UV-I 0 W/m² 3,4 °C 10,8 °C 4,8 km/h (1 Bft)
01.04.2017 20:50 10,8 °C 10,8 °C 60 % 1009,9 hPa 0,0 mm 5,8 km/h (2 Bft) S 170 ° 0 min 0,000 mm 0,0 UV-I 0 W/m² 3,4 °C 10,8 °C 11,3 km/h (2 Bft)
01.04.2017 20:51 10,8 °C 10,8 °C 60 % 1009,8 hPa 0,0 mm 4,6 km/h (1 Bft) S 178 ° 0 min 0,000 mm 0,0 UV-I 0 W/m² 3,4 °C 10,8 °C 6,4 km/h (2 Bft)
01.04.2017 20:52 10,8 °C 10,8 °C 60 % 1009,9 hPa 0,0 mm 4,4 km/h (1 Bft) S-SW 194 ° 0 min 0,000 mm 0,0 UV-I 0 W/m² 3,4 °C 10,8 °C 8,0 km/h (2 Bft)
01.04.2017 20:53 10,8 °C 10,8 °C 60 % 1009,8 hPa 0,0 mm 6,2 km/h (2 Bft) S 172 ° 0 min 0,000 mm 0,0 UV-I 0 W/m² 3,4 °C 10,8 °C 9,7 km/h (2 Bft)
01.04.2017 20:54 10,8 °C 10,8 °C 60 % 1009,9 hPa 0,0 mm 3,0 km/h (1 Bft) S 172 ° 0 min 0,000 mm 0,0 UV-I 0 W/m² 3,4 °C 10,8 °C 4,8 km/h (1 Bft)
01.04.2017 20:55 10,8 °C 10,8 °C 60 % 1009,9 hPa 0,0 mm 1,8 km/h (1 Bft) S 172 ° 0 min 0,000 mm 0,0 UV-I 0 W/m² 3,4 °C 10,8 °C 3,2 km/h (1 Bft)
01.04.2017 20:56 10,8 °C 10,8 °C 61 % 1009,9 hPa 0,0 mm 2,3 km/h (1 Bft) S 172 ° 0 min 0,000 mm 0,0 UV-I 0 W/m² 3,6 °C 10,8 °C 4,8 km/h (1 Bft)
01.04.2017 20:57 10,9 °C 10,9 °C 61 % 1010,0 hPa 0,0 mm 2,3 km/h (1 Bft) S 172 ° 0 min 0,000 mm 0,0 UV-I 0 W/m² 3,7 °C 10,9 °C 4,8 km/h (1 Bft)
01.04.2017 20:58 10,9 °C 10,9 °C 61 % 1010,0 hPa 0,0 mm 3,3 km/h (1 Bft) S 184 ° 0 min 0,000 mm 0,0 UV-I 0 W/m² 3,7 °C 10,9 °C 4,8 km/h (1 Bft)
01.04.2017 20:59 10,8 °C 10,9 °C 62 % 1010,0 hPa 0,0 mm 1,7 km/h (1 Bft) S 181 ° 0 min 0,000 mm 0,0 UV-I 0 W/m² 3,8 °C 10,8 °C 3,2 km/h (1 Bft)
01.04.2017 21:00 10,7 °C 10,8 °C 63 % 1010,0 hPa 0,0 mm 1,2 km/h (1 Bft) S 181 ° 0 min 0,050 mm 0,0 UV-I 0 W/m² 3,9 °C 10,7 °C 1,6 km/h (1 Bft)
01.04.2017 21:01 10,7 °C 10,7 °C 63 % 1010,0 hPa 0,0 mm 2,1 km/h (1 Bft) S 169 ° 0 min 0,000 mm 0,0 UV-I 0 W/m² 3,9 °C 10,7 °C 3,2 km/h (1 Bft)
01.04.2017 21:02 10,6 °C 10,7 °C 64 % 1010,0 hPa 0,0 mm 1,0 km/h (0 Bft) S 169 ° 0 min 0,000 mm 0,0 UV-I 0 W/m² 4,1 °C 10,6 °C 1,6 km/h (1 Bft)
01.04.2017 21:03 10,6 °C 10,6 °C 64 % 1010,1 hPa 0,0 mm 0,9 km/h (0 Bft) S 169 ° 0 min 0,000 mm 0,0 UV-I 0 W/m² 4,1 °C 10,6 °C 3,2 km/h (1 Bft)
01.04.2017 21:04 10,4 °C 10,6 °C 64 % 1010,1 hPa 0,0 mm 1,3 km/h (1 Bft) S 169 ° 0 min 0,000 mm 0,0 UV-I 0 W/m² 3,9 °C 10,4 °C 3,2 km/h (1 Bft)
01.04.2017 21:05 10,4 °C 10,5 °C 64 % 1010,1 hPa 0,0 mm 2,6 km/h (1 Bft) S-SW 212 ° 0 min 0,000 mm 0,0 UV-I 0 W/m² 3,9 °C 10,4 °C 6,4 km/h (2 Bft)
01.04.2017 21:06 10,4 °C 10,4 °C 64 % 1010,1 hPa 0,0 mm 2,1 km/h (1 Bft) S-SW 212 ° 0 min 0,000 mm 0,0 UV-I 0 W/m² 3,9 °C 10,4 °C 3,2 km/h (1 Bft)
01.04.2017 21:07 10,4 °C 10,4 °C 64 % 1010,1 hPa 0,0 mm 1,8 km/h (1 Bft) S-SW 212 ° 0 min 0,000 mm 0,0 UV-I 0 W/m² 3,9 °C 10,4 °C 3,2 km/h (1 Bft)
01.04.2017 21:08 10,4 °C 10,4 °C 64 % 1010,1 hPa 0,0 mm 1,3 km/h (1 Bft) S-SW 212 ° 0 min 0,000 mm 0,0 UV-I 0 W/m² 3,9 °C 10,4 °C 3,2 km/h (1 Bft)
01.04.2017 21:09 10,5 °C 10,5 °C 63 % 1010,1 hPa 0,0 mm 1,2 km/h (1 Bft) S-SW 212 ° 0 min 0,000 mm 0,0 UV-I 0 W/m² 3,8 °C 10,5 °C 3,2 km/h (1 Bft)
01.04.2017 21:10 10,5 °C 10,5 °C 63 % 1010,1 hPa 0,0 mm 1,7 km/h (1 Bft) S-SW 196 ° 0 min 0,000 mm 0,0 UV-I 0 W/m² 3,8 °C 10,5 °C 4,8 km/h (1 Bft)
01.04.2017 21:11 10,6 °C 10,6 °C 63 % 1010,1 hPa 0,0 mm 3,0 km/h (1 Bft) S-SW 196 ° 0 min 0,000 mm 0,0 UV-I 0 W/m² 3,9 °C 10,6 °C 3,2 km/h (1 Bft)
01.04.2017 21:12 10,6 °C 10,6 °C 62 % 1010,1 hPa 0,0 mm 2,3 km/h (1 Bft) S-SW 196 ° 0 min 0,000 mm 0,0 UV-I 0 W/m² 3,6 °C 10,6 °C 3,2 km/h (1 Bft)
01.04.2017 21:13 10,6 °C 10,6 °C 62 % 1010,1 hPa 0,0 mm 1,4 km/h (1 Bft) S-SW 196 ° 0 min 0,000 mm 0,0 UV-I 0 W/m² 3,6 °C 10,6 °C 3,2 km/h (1 Bft)
01.04.2017 21:14 10,6 °C 10,6 °C 63 % 1010,1 hPa 0,0 mm 1,5 km/h (1 Bft) S-SW 196 ° 0 min 0,000 mm 0,0 UV-I 0 W/m² 3,9 °C 10,6 °C 3,2 km/h (1 Bft)
01.04.2017 21:15 10,4 °C 10,6 °C 62 % 1010,1 hPa 0,0 mm 1,3 km/h (1 Bft) S-SW 196 ° 0 min 0,000 mm 0,0 UV-I 0 W/m² 3,4 °C 10,4 °C 3,2 km/h (1 Bft)
01.04.2017 21:16 10,3 °C 10,4 °C 63 % 1010,1 hPa 0,0 mm 2,6 km/h (1 Bft) S 171 ° 0 min 0,000 mm 0,0 UV-I 0 W/m² 3,6 °C 10,3 °C 6,4 km/h (2 Bft)
01.04.2017 21:17 10,3 °C 10,3 °C 63 % 1010,1 hPa 0,0 mm 2,3 km/h (1 Bft) S 171 ° 0 min 0,000 mm 0,0 UV-I 0 W/m² 3,6 °C 10,3 °C 3,2 km/h (1 Bft)
01.04.2017 21:18 10,3 °C 10,3 °C 63 % 1010,2 hPa 0,0 mm 2,4 km/h (1 Bft) S 171 ° 0 min 0,000 mm 0,0 UV-I 0 W/m² 3,6 °C 10,3 °C 3,2 km/h (1 Bft)
01.04.2017 21:19 10,3 °C 10,3 °C 63 % 1010,2 hPa 0,0 mm 4,4 km/h (1 Bft) S-SO 165 ° 0 min 0,000 mm 0,0 UV-I 0 W/m² 3,6 °C 10,3 °C 8,0 km/h (2 Bft)
01.04.2017 21:20 10,3 °C 10,3 °C 63 % 1010,2 hPa 0,0 mm 5,6 km/h (1 Bft) SO 142 ° 0 min 0,000 mm 0,0 UV-I 0 W/m² 3,6 °C 10,3 °C 8,0 km/h (2 Bft)
01.04.2017 21:21 10,3 °C 10,3 °C 64 % 1010,2 hPa 0,0 mm 4,3 km/h (1 Bft) SO 142 ° 0 min 0,000 mm 0,0 UV-I 0 W/m² 3,8 °C 10,3 °C 6,4 km/h (2 Bft)
01.04.2017 21:22 10,3 °C 10,3 °C 64 % 1010,2 hPa 0,0 mm 2,7 km/h (1 Bft) SO 142 ° 0 min 0,000 mm 0,0 UV-I 0 W/m² 3,8 °C 10,3 °C 4,8 km/h (1 Bft)
01.04.2017 21:23 10,3 °C 10,3 °C 63 % 1010,2 hPa 0,0 mm 1,5 km/h (1 Bft) S-SO 163 ° 0 min 0,000 mm 0,0 UV-I 0 W/m² 3,6 °C 10,3 °C 3,2 km/h (1 Bft)
01.04.2017 21:24 10,2 °C 10,3 °C 63 % 1010,2 hPa 0,0 mm 1,0 km/h (0 Bft) S-SO 163 ° 0 min 0,000 mm 0,0 UV-I 0 W/m² 3,5 °C 10,2 °C 3,2 km/h (1 Bft)
01.04.2017 21:25 10,2 °C 10,2 °C 63 % 1010,2 hPa 0,0 mm 0,0 km/h (0 Bft) S-SO 163 ° 0 min 0,000 mm 0,0 UV-I 0 W/m² 3,5 °C 10,2 °C 0,0 km/h (0 Bft)
01.04.2017 21:26 10,2 °C 10,2 °C 63 % 1010,2 hPa 0,0 mm 0,0 km/h (0 Bft) S-SO 163 ° 0 min 0,000 mm 0,0 UV-I 0 W/m² 3,5 °C 10,2 °C 0,0 km/h (0 Bft)
01.04.2017 21:27 10,2 °C 10,2 °C 63 % 1010,2 hPa 0,0 mm 0,0 km/h (0 Bft) S-SO 163 ° 0 min 0,000 mm 0,0 UV-I 0 W/m² 3,5 °C 10,2 °C 0,0 km/h (0 Bft)
01.04.2017 21:28 10,1 °C 10,2 °C 63 % 1010,2 hPa 0,0 mm 0,0 km/h (0 Bft) S-SO 163 ° 0 min 0,000 mm 0,0 UV-I 0 W/m² 3,4 °C 10,1 °C 0,0 km/h (0 Bft)
01.04.2017 21:29 9,9 °C 10,1 °C 64 % 1010,2 hPa 0,0 mm 0,0 km/h (0 Bft) S-SO 163 ° 0 min 0,000 mm 0,0 UV-I 0 W/m² 3,4 °C 9,9 °C 0,0 km/h (0 Bft)
01.04.2017 21:30 9,8 °C 9,9 °C 64 % 1010,2 hPa 0,0 mm 1,8 km/h (1 Bft) S-SO 167 ° 0 min 0,000 mm 0,0 UV-I 0 W/m² 3,3 °C 9,8 °C 4,8 km/h (1 Bft)
01.04.2017 21:31 9,8 °C 9,8 °C 66 % 1010,2 hPa 0,0 mm 3,1 km/h (1 Bft) S-SO 167 ° 0 min 0,000 mm 0,0 UV-I 0 W/m² 3,8 °C 9,8 °C 6,4 km/h (2 Bft)
01.04.2017 21:32 9,9 °C 9,9 °C 65 % 1010,2 hPa 0,0 mm 3,4 km/h (1 Bft) S 177 ° 0 min 0,000 mm 0,0 UV-I 0 W/m² 3,6 °C 9,9 °C 8,0 km/h (2 Bft)
01.04.2017 21:33 10,0 °C 10,0 °C 64 % 1010,2 hPa 0,0 mm 5,1 km/h (1 Bft) S-SW 192 ° 0 min 0,000 mm 0,0 UV-I 0 W/m² 3,5 °C 9,7 °C 8,0 km/h (2 Bft)
01.04.2017 21:34 10,1 °C 10,1 °C 64 % 1010,2 hPa 0,0 mm 4,1 km/h (1 Bft) S-SW 192 ° 0 min 0,000 mm 0,0 UV-I 0 W/m² 3,6 °C 10,1 °C 4,8 km/h (1 Bft)
01.04.2017 21:35 10,2 °C 10,2 °C 64 % 1010,2 hPa 0,0 mm 4,6 km/h (1 Bft) S-SO 166 ° 0 min 0,000 mm 0,0 UV-I 0 W/m² 3,7 °C 10,2 °C 6,4 km/h (2 Bft)
01.04.2017 21:36 10,3 °C 10,3 °C 63 % 1010,2 hPa 0,0 mm 5,2 km/h (1 Bft) S-SO 163 ° 0 min 0,000 mm 0,0 UV-I 0 W/m² 3,6 °C 10,3 °C 6,4 km/h (2 Bft)
01.04.2017 21:37 10,3 °C 10,3 °C 63 % 1010,2 hPa 0,0 mm 5,4 km/h (1 Bft) S-SW 211 ° 0 min 0,000 mm 0,0 UV-I 0 W/m² 3,6 °C 10,3 °C 9,7 km/h (2 Bft)
01.04.2017 21:38 10,4 °C 10,4 °C 62 % 1010,2 hPa 0,0 mm 5,8 km/h (2 Bft) W-SW 238 ° 0 min 0,000 mm 0,0 UV-I 0 W/m² 3,4 °C 10,4 °C 9,7 km/h (2 Bft)
01.04.2017 21:39 10,4 °C 10,4 °C 63 % 1010,2 hPa 0,0 mm 2,1 km/h (1 Bft) S-SW 197 ° 0 min 0,000 mm 0,0 UV-I 0 W/m² 3,7 °C 10,4 °C 4,8 km/h (1 Bft)
01.04.2017 21:40 10,4 °C 10,4 °C 63 % 1010,3 hPa 0,0 mm 1,1 km/h (1 Bft) S-SW 197 ° 0 min 0,000 mm 0,0 UV-I 0 W/m² 3,7 °C 10,4 °C 1,6 km/h (1 Bft)
01.04.2017 21:41 10,3 °C 10,4 °C 64 % 1010,3 hPa 0,0 mm 2,8 km/h (1 Bft) S-SW 196 ° 0 min 0,000 mm 0,0 UV-I 0 W/m² 3,8 °C 10,3 °C 3,2 km/h (1 Bft)
01.04.2017 21:42 10,3 °C 10,3 °C 63 % 1010,3 hPa 0,0 mm 1,7 km/h (1 Bft) S-SW 196 ° 0 min 0,000 mm 0,0 UV-I 0 W/m² 3,6 °C 10,3 °C 3,2 km/h (1 Bft)
01.04.2017 21:43 10,3 °C 10,3 °C 63 % 1010,3 hPa 0,0 mm 2,7 km/h (1 Bft) SO 146 ° 0 min 0,000 mm 0,0 UV-I 0 W/m² 3,6 °C 10,3 °C 4,8 km/h (1 Bft)
01.04.2017 21:44 10,3 °C 10,3 °C 64 % 1010,3 hPa 0,0 mm 3,0 km/h (1 Bft) SO 138 ° 0 min 0,000 mm 0,0 UV-I 0 W/m² 3,8 °C 10,3 °C 4,8 km/h (1 Bft)
01.04.2017 21:45 10,3 °C 10,3 °C 64 % 1010,3 hPa 0,0 mm 3,5 km/h (1 Bft) SO 138 ° 0 min 0,000 mm 0,0 UV-I 0 W/m² 3,8 °C 10,3 °C 4,8 km/h (1 Bft)
01.04.2017 21:46 10,1 °C 10,3 °C 64 % 1010,3 hPa 0,0 mm 1,5 km/h (1 Bft) SO 138 ° 0 min 0,000 mm 0,0 UV-I 0 W/m² 3,6 °C 10,1 °C 3,2 km/h (1 Bft)
01.04.2017 21:47 10,0 °C 10,1 °C 65 % 1010,3 hPa 0,0 mm 0,5 km/h (0 Bft) SO 138 ° 0 min 0,000 mm 0,0 UV-I 0 W/m² 3,7 °C 10,0 °C 1,6 km/h (1 Bft)
01.04.2017 21:48 9,8 °C 10,0 °C 66 % 1010,3 hPa 0,0 mm 1,9 km/h (1 Bft) SO 138 ° 0 min 0,000 mm 0,0 UV-I 0 W/m² 3,8 °C 9,8 °C 3,2 km/h (1 Bft)
01.04.2017 21:49 9,8 °C 9,8 °C 66 % 1010,3 hPa 0,0 mm 3,3 km/h (1 Bft) SO 133 ° 0 min 0,000 mm 0,0 UV-I 0 W/m² 3,8 °C 9,8 °C 8,0 km/h (2 Bft)
01.04.2017 21:50 9,7 °C 9,8 °C 66 % 1010,3 hPa 0,0 mm 3,0 km/h (1 Bft) SO 137 ° 0 min 0,000 mm 0,0 UV-I 0 W/m² 3,7 °C 9,7 °C 4,8 km/h (1 Bft)
01.04.2017 21:51 9,7 °C 9,7 °C 67 % 1010,3 hPa 0,0 mm 1,9 km/h (1 Bft) O-NO 71 ° 0 min 0,000 mm 0,0 UV-I 0 W/m² 3,9 °C 9,7 °C 3,2 km/h (1 Bft)
01.04.2017 21:52 9,6 °C 9,7 °C 67 % 1010,3 hPa 0,0 mm 0,4 km/h (0 Bft) O-NO 71 ° 0 min 0,000 mm 0,0 UV-I 0 W/m² 3,8 °C 9,6 °C 1,6 km/h (1 Bft)
01.04.2017 21:53 9,5 °C 9,6 °C 67 % 1010,4 hPa 0,0 mm 0,9 km/h (0 Bft) O-NO 71 ° 0 min 0,000 mm 0,0 UV-I 0 W/m² 3,7 °C 9,5 °C 1,6 km/h (1 Bft)
01.04.2017 21:54 9,4 °C 9,5 °C 67 % 1010,4 hPa 0,0 mm 1,9 km/h (1 Bft) O-NO 71 ° 0 min 0,000 mm 0,0 UV-I 0 W/m² 3,6 °C 9,4 °C 3,2 km/h (1 Bft)
01.04.2017 21:55 9,3 °C 9,4 °C 67 % 1010,3 hPa 0,0 mm 1,2 km/h (1 Bft) O-NO 71 ° 0 min 0,000 mm 0,0 UV-I 0 W/m² 3,5 °C 9,3 °C 3,2 km/h (1 Bft)
01.04.2017 21:56 9,2 °C 9,3 °C 67 % 1010,4 hPa 0,0 mm 0,1 km/h (0 Bft) O-NO 71 ° 0 min 0,000 mm 0,0 UV-I 0 W/m² 3,4 °C 9,2 °C 1,6 km/h (1 Bft)
01.04.2017 21:57 9,3 °C 9,3 °C 67 % 1010,4 hPa 0,0 mm 0,7 km/h (0 Bft) O-NO 71 ° 0 min 0,000 mm 0,0 UV-I 0 W/m² 3,5 °C 9,3 °C 3,2 km/h (1 Bft)
01.04.2017 21:58 9,4 °C 9,4 °C 68 % 1010,4 hPa 0,0 mm 2,0 km/h (1 Bft) O-NO 71 ° 0 min 0,000 mm 0,0 UV-I 0 W/m² 3,8 °C 9,4 °C 4,8 km/h (1 Bft)
01.04.2017 21:59 9,4 °C 9,4 °C 67 % 1010,4 hPa 0,0 mm 0,2 km/h (0 Bft) O-NO 71 ° 0 min 0,000 mm 0,0 UV-I 0 W/m² 3,6 °C 9,4 °C 1,6 km/h (1 Bft)
01.04.2017 22:00 9,4 °C 9,5 °C 67 % 1010,4 hPa 0,0 mm 2,8 km/h (1 Bft) SO 132 ° 0 min 0,026 mm 0,0 UV-I 0 W/m² 3,6 °C 9,4 °C 4,8 km/h (1 Bft)
01.04.2017 22:01 9,4 °C 9,4 °C 66 % 1010,5 hPa 0,0 mm 3,0 km/h (1 Bft) S-SO 166 ° 0 min 0,000 mm 0,0 UV-I 0 W/m² 3,4 °C 9,4 °C 6,4 km/h (2 Bft)
01.04.2017 22:02 9,4 °C 9,4 °C 67 % 1010,5 hPa 0,0 mm 3,2 km/h (1 Bft) S-SO 166 ° 0 min 0,000 mm 0,0 UV-I 0 W/m² 3,6 °C 9,4 °C 6,4 km/h (2 Bft)
01.04.2017 22:03 9,5 °C 9,5 °C 65 % 1010,5 hPa 0,0 mm 1,5 km/h (1 Bft) SO 131 ° 0 min 0,000 mm 0,0 UV-I 0 W/m² 3,3 °C 9,5 °C 6,4 km/h (2 Bft)
01.04.2017 22:04 9,6 °C 9,6 °C 65 % 1010,5 hPa 0,0 mm 2,3 km/h (1 Bft) S-SO 148 ° 0 min 0,000 mm 0,0 UV-I 0 W/m² 3,4 °C 9,6 °C 4,8 km/h (1 Bft)
01.04.2017 22:05 9,6 °C 9,6 °C 65 % 1010,5 hPa 0,0 mm 0,6 km/h (0 Bft) S-SO 148 ° 0 min 0,000 mm 0,0 UV-I 0 W/m² 3,4 °C 9,6 °C 1,6 km/h (1 Bft)
01.04.2017 22:06 9,6 °C 9,6 °C 65 % 1010,5 hPa 0,0 mm 3,4 km/h (1 Bft) S-SW 211 ° 0 min 0,000 mm 0,0 UV-I 0 W/m² 3,4 °C 9,6 °C 8,0 km/h (2 Bft)
01.04.2017 22:07 9,7 °C 9,7 °C 63 % 1010,5 hPa 0,0 mm 5,7 km/h (1 Bft) S-SW 195 ° 0 min 0,000 mm 0,0 UV-I 0 W/m² 3,0 °C 9,2 °C 8,0 km/h (2 Bft)
01.04.2017 22:08 9,8 °C 9,8 °C 65 % 1010,5 hPa 0,0 mm 3,6 km/h (1 Bft) S-SW 192 ° 0 min 0,000 mm 0,0 UV-I 0 W/m² 3,5 °C 9,8 °C 6,4 km/h (2 Bft)
01.04.2017 22:09 9,9 °C 9,9 °C 63 % 1010,5 hPa 0,0 mm 3,7 km/h (1 Bft) S-SW 201 ° 0 min 0,000 mm 0,0 UV-I 0 W/m² 3,2 °C 9,9 °C 8,0 km/h (2 Bft)
01.04.2017 22:10 9,9 °C 9,9 °C 64 % 1010,5 hPa 0,0 mm 2,0 km/h (1 Bft) SO 144 ° 0 min 0,000 mm 0,0 UV-I 0 W/m² 3,4 °C 9,9 °C 3,2 km/h (1 Bft)
01.04.2017 22:11 9,9 °C 9,9 °C 64 % 1010,5 hPa 0,0 mm 2,4 km/h (1 Bft) SO 144 ° 0 min 0,000 mm 0,0 UV-I 0 W/m² 3,4 °C 9,9 °C 4,8 km/h (1 Bft)
01.04.2017 22:12 10,0 °C 10,0 °C 64 % 1010,6 hPa 0,0 mm 3,4 km/h (1 Bft) S 184 ° 0 min 0,000 mm 0,0 UV-I 0 W/m² 3,5 °C 10,0 °C 6,4 km/h (2 Bft)
01.04.2017 22:13 10,1 °C 10,1 °C 63 % 1010,6 hPa 0,0 mm 3,1 km/h (1 Bft) SO 126 ° 0 min 0,000 mm 0,0 UV-I 0 W/m² 3,4 °C 10,1 °C 4,8 km/h (1 Bft)
01.04.2017 22:14 10,0 °C 10,1 °C 63 % 1010,6 hPa 0,0 mm 2,5 km/h (1 Bft) W-SW 242 ° 0 min 0,000 mm 0,0 UV-I 0 W/m² 3,3 °C 10,0 °C 3,2 km/h (1 Bft)
01.04.2017 22:15 10,0 °C 10,0 °C 63 % 1010,6 hPa 0,0 mm 1,8 km/h (1 Bft) W-SW 242 ° 0 min 0,000 mm 0,0 UV-I 0 W/m² 3,3 °C 10,0 °C 3,2 km/h (1 Bft)
01.04.2017 22:16 9,9 °C 10,0 °C 63 % 1010,5 hPa 0,0 mm 1,4 km/h (1 Bft) W-SW 242 ° 0 min 0,000 mm 0,0 UV-I 0 W/m² 3,2 °C 9,9 °C 3,2 km/h (1 Bft)
01.04.2017 22:17 9,9 °C 9,9 °C 63 % 1010,5 hPa 0,0 mm 2,7 km/h (1 Bft) SW 231 ° 0 min 0,000 mm 0,0 UV-I 0 W/m² 3,2 °C 9,9 °C 4,8 km/h (1 Bft)
01.04.2017 22:18 9,9 °C 9,9 °C 64 % 1010,5 hPa 0,0 mm 2,0 km/h (1 Bft) S-SW 211 ° 0 min 0,000 mm 0,0 UV-I 0 W/m² 3,4 °C 9,9 °C 4,8 km/h (1 Bft)
01.04.2017 22:19 9,9 °C 9,9 °C 64 % 1010,5 hPa 0,0 mm 3,5 km/h (1 Bft) S-SW 211 ° 0 min 0,000 mm 0,0 UV-I 0 W/m² 3,4 °C 9,9 °C 4,8 km/h (1 Bft)
01.04.2017 22:20 9,9 °C 9,9 °C 63 % 1010,5 hPa 0,0 mm 6,2 km/h (2 Bft) S 189 ° 0 min 0,000 mm 0,0 UV-I 0 W/m² 3,2 °C 9,3 °C 8,0 km/h (2 Bft)
01.04.2017 22:21 9,8 °C 9,9 °C 64 % 1010,5 hPa 0,0 mm 4,2 km/h (1 Bft) S 181 ° 0 min 0,000 mm 0,0 UV-I 0 W/m² 3,3 °C 9,8 °C 6,4 km/h (2 Bft)
01.04.2017 22:22 9,7 °C 9,8 °C 65 % 1010,5 hPa 0,0 mm 3,5 km/h (1 Bft) S-SW 205 ° 0 min 0,000 mm 0,0 UV-I 0 W/m² 3,4 °C 9,7 °C 6,4 km/h (2 Bft)
01.04.2017 22:23 9,5 °C 9,7 °C 65 % 1010,6 hPa 0,0 mm 6,2 km/h (2 Bft) S-SW 202 ° 0 min 0,000 mm 0,0 UV-I 0 W/m² 3,3 °C 8,8 °C 9,7 km/h (2 Bft)
01.04.2017 22:24 9,4 °C 9,5 °C 66 % 1010,6 hPa 0,0 mm 4,9 km/h (1 Bft) S-SW 208 ° 0 min 0,000 mm 0,0 UV-I 0 W/m² 3,4 °C 9,1 °C 6,4 km/h (2 Bft)
01.04.2017 22:25 9,3 °C 9,4 °C 66 % 1010,6 hPa 0,0 mm 4,4 km/h (1 Bft) SW 215 ° 0 min 0,000 mm 0,0 UV-I 0 W/m² 3,3 °C 9,3 °C 6,4 km/h (2 Bft)
01.04.2017 22:26 9,2 °C 9,3 °C 66 % 1010,5 hPa 0,0 mm 2,1 km/h (1 Bft) SW 214 ° 0 min 0,000 mm 0,0 UV-I 0 W/m² 3,2 °C 9,2 °C 3,2 km/h (1 Bft)
01.04.2017 22:27 9,2 °C 9,2 °C 66 % 1010,6 hPa 0,0 mm 1,9 km/h (1 Bft) SW 214 ° 0 min 0,000 mm 0,0 UV-I 0 W/m² 3,2 °C 9,2 °C 4,8 km/h (1 Bft)
01.04.2017 22:28 9,2 °C 9,2 °C 66 % 1010,6 hPa 0,0 mm 4,2 km/h (1 Bft) S 187 ° 0 min 0,000 mm 0,0 UV-I 0 W/m² 3,2 °C 9,2 °C 6,4 km/h (2 Bft)
01.04.2017 22:29 9,2 °C 9,2 °C 66 % 1010,6 hPa 0,0 mm 3,4 km/h (1 Bft) S 175 ° 0 min 0,000 mm 0,0 UV-I 0 W/m² 3,2 °C 9,2 °C 4,8 km/h (1 Bft)
01.04.2017 22:30 9,3 °C 9,3 °C 66 % 1010,6 hPa 0,0 mm 3,6 km/h (1 Bft) S 175 ° 0 min 0,000 mm 0,0 UV-I 0 W/m² 3,3 °C 9,3 °C 4,8 km/h (1 Bft)
01.04.2017 22:31 9,4 °C 9,4 °C 65 % 1010,6 hPa 0,0 mm 3,2 km/h (1 Bft) S 171 ° 0 min 0,000 mm 0,0 UV-I 0 W/m² 3,2 °C 9,4 °C 4,8 km/h (1 Bft)
01.04.2017 22:32 9,6 °C 9,6 °C 64 % 1010,6 hPa 0,0 mm 5,7 km/h (1 Bft) S 171 ° 0 min 0,000 mm 0,0 UV-I 0 W/m² 3,1 °C 9,1 °C 6,4 km/h (2 Bft)
01.04.2017 22:33 9,7 °C 9,7 °C 65 % 1010,6 hPa 0,0 mm 4,6 km/h (1 Bft) S 172 ° 0 min 0,000 mm 0,0 UV-I 0 W/m² 3,4 °C 9,5 °C 8,0 km/h (2 Bft)
01.04.2017 22:34 9,7 °C 9,7 °C 65 % 1010,5 hPa 0,0 mm 4,8 km/h (1 Bft) S-SO 167 ° 0 min 0,000 mm 0,0 UV-I 0 W/m² 3,4 °C 9,5 °C 6,4 km/h (2 Bft)
01.04.2017 22:35 9,6 °C 9,7 °C 66 % 1010,6 hPa 0,0 mm 5,2 km/h (1 Bft) S-SO 167 ° 0 min 0,000 mm 0,0 UV-I 0 W/m² 3,6 °C 9,2 °C 6,4 km/h (2 Bft)
01.04.2017 22:36 9,6 °C 9,7 °C 65 % 1010,6 hPa 0,0 mm 5,4 km/h (1 Bft) S-SO 167 ° 0 min 0,000 mm 0,0 UV-I 0 W/m² 3,4 °C 9,2 °C 6,4 km/h (2 Bft)
01.04.2017 22:37 9,6 °C 9,6 °C 65 % 1010,6 hPa 0,0 mm 5,4 km/h (1 Bft) S-SO 167 ° 0 min 0,000 mm 0,0 UV-I 0 W/m² 3,4 °C 9,2 °C 6,4 km/h (2 Bft)
01.04.2017 22:38 9,4 °C 9,6 °C 66 % 1010,6 hPa 0,0 mm 4,7 km/h (1 Bft) S-SO 167 ° 0 min 0,000 mm 0,0 UV-I 0 W/m² 3,4 °C 9,2 °C 6,4 km/h (2 Bft)
01.04.2017 22:39 9,4 °C 9,4 °C 66 % 1010,6 hPa 0,0 mm 5,6 km/h (1 Bft) S-SO 167 ° 0 min 0,000 mm 0,0 UV-I 0 W/m² 3,4 °C 8,9 °C 8,0 km/h (2 Bft)
01.04.2017 22:40 9,4 °C 9,4 °C 66 % 1010,6 hPa 0,0 mm 5,9 km/h (2 Bft) S-SO 167 ° 0 min 0,000 mm 0,0 UV-I 0 W/m² 3,4 °C 8,8 °C 6,4 km/h (2 Bft)
01.04.2017 22:41 9,3 °C 9,4 °C 67 % 1010,6 hPa 0,0 mm 6,3 km/h (2 Bft) S-SO 167 ° 0 min 0,000 mm 0,0 UV-I 0 W/m² 3,5 °C 8,6 °C 8,0 km/h (2 Bft)
01.04.2017 22:42 9,2 °C 9,3 °C 67 % 1010,6 hPa 0,0 mm 6,4 km/h (2 Bft) S-SO 167 ° 0 min 0,000 mm 0,0 UV-I 0 W/m² 3,4 °C 8,4 °C 8,0 km/h (2 Bft)
01.04.2017 22:43 9,2 °C 9,2 °C 67 % 1010,6 hPa 0,0 mm 6,2 km/h (2 Bft) S-SO 167 ° 0 min 0,000 mm 0,0 UV-I 0 W/m² 3,4 °C 8,5 °C 8,0 km/h (2 Bft)
01.04.2017 22:44 9,2 °C 9,2 °C 67 % 1010,6 hPa 0,0 mm 4,4 km/h (1 Bft) S-SO 167 ° 0 min 0,000 mm 0,0 UV-I 0 W/m² 3,4 °C 9,2 °C 6,4 km/h (2 Bft)
01.04.2017 22:45 9,2 °C 9,2 °C 67 % 1010,6 hPa 0,0 mm 3,4 km/h (1 Bft) S-SO 167 ° 0 min 0,000 mm 0,0 UV-I 0 W/m² 3,4 °C 9,2 °C 4,8 km/h (1 Bft)
01.04.2017 22:46 9,1 °C 9,2 °C 67 % 1010,7 hPa 0,0 mm 4,3 km/h (1 Bft) S-SO 167 ° 0 min 0,000 mm 0,0 UV-I 0 W/m² 3,3 °C 9,1 °C 6,4 km/h (2 Bft)
01.04.2017 22:47 9,1 °C 9,1 °C 67 % 1010,7 hPa 0,0 mm 4,1 km/h (1 Bft) S-SO 167 ° 0 min 0,000 mm 0,0 UV-I 0 W/m² 3,3 °C 9,1 °C 6,4 km/h (2 Bft)
01.04.2017 22:48 9,1 °C 9,1 °C 67 % 1010,7 hPa 0,0 mm 2,5 km/h (1 Bft) S-SO 167 ° 0 min 0,000 mm 0,0 UV-I 0 W/m² 3,3 °C 9,1 °C 4,8 km/h (1 Bft)
01.04.2017 22:49 9,1 °C 9,1 °C 67 % 1010,7 hPa 0,0 mm 0,9 km/h (0 Bft) S-SO 167 ° 0 min 0,000 mm 0,0 UV-I 0 W/m² 3,3 °C 9,1 °C 1,6 km/h (1 Bft)
01.04.2017 22:50 9,2 °C 9,2 °C 67 % 1010,7 hPa 0,0 mm 1,1 km/h (1 Bft) S-SO 167 ° 0 min 0,000 mm 0,0 UV-I 0 W/m² 3,4 °C 9,2 °C 4,8 km/h (1 Bft)
01.04.2017 22:51 9,2 °C 9,2 °C 67 % 1010,8 hPa 0,0 mm 3,2 km/h (1 Bft) S-SO 168 ° 0 min 0,000 mm 0,0 UV-I 0 W/m² 3,4 °C 9,2 °C 6,4 km/h (2 Bft)
01.04.2017 22:52 9,2 °C 9,2 °C 66 % 1010,7 hPa 0,0 mm 5,0 km/h (1 Bft) S-SW 194 ° 0 min 0,000 mm 0,0 UV-I 0 W/m² 3,2 °C 8,8 °C 8,0 km/h (2 Bft)
01.04.2017 22:53 9,1 °C 9,2 °C 67 % 1010,8 hPa 0,0 mm 2,9 km/h (1 Bft) S-SW 194 ° 0 min 0,000 mm 0,0 UV-I 0 W/m² 3,3 °C 9,1 °C 4,8 km/h (1 Bft)
01.04.2017 22:54 9,1 °C 9,1 °C 67 % 1010,8 hPa 0,0 mm 1,9 km/h (1 Bft) S-SW 194 ° 0 min 0,000 mm 0,0 UV-I 0 W/m² 3,3 °C 9,1 °C 3,2 km/h (1 Bft)
01.04.2017 22:55 9,1 °C 9,1 °C 67 % 1010,8 hPa 0,0 mm 1,9 km/h (1 Bft) S-SW 194 ° 0 min 0,000 mm 0,0 UV-I 0 W/m² 3,3 °C 9,1 °C 3,2 km/h (1 Bft)
01.04.2017 22:56 9,0 °C 9,1 °C 67 % 1010,8 hPa 0,0 mm 0,7 km/h (0 Bft) S-SW 194 ° 0 min 0,000 mm 0,0 UV-I 0 W/m² 3,2 °C 9,0 °C 3,2 km/h (1 Bft)
01.04.2017 22:57 9,0 °C 9,0 °C 67 % 1010,8 hPa 0,0 mm 0,9 km/h (0 Bft) S-SW 194 ° 0 min 0,000 mm 0,0 UV-I 0 W/m² 3,2 °C 9,0 °C 3,2 km/h (1 Bft)
01.04.2017 22:58 8,8 °C 9,0 °C 68 % 1010,8 hPa 0,0 mm 4,7 km/h (1 Bft) S 189 ° 0 min 0,000 mm 0,0 UV-I 0 W/m² 3,2 °C 8,5 °C 9,7 km/h (2 Bft)
01.04.2017 22:59 8,8 °C 8,8 °C 68 % 1010,9 hPa 0,0 mm 2,5 km/h (1 Bft) S 181 ° 0 min 0,000 mm 0,0 UV-I 0 W/m² 3,2 °C 8,8 °C 4,8 km/h (1 Bft)
01.04.2017 23:00 8,8 °C 8,8 °C 68 % 1010,9 hPa 0,0 mm 2,6 km/h (1 Bft) S 181 ° 0 min 0,000 mm 0,0 UV-I 0 W/m² 3,2 °C 8,8 °C 3,2 km/h (1 Bft)
01.04.2017 23:01 8,8 °C 8,8 °C 68 % 1010,9 hPa 0,0 mm 1,7 km/h (1 Bft) S 181 ° 0 min 0,025 mm 0,0 UV-I 0 W/m² 3,2 °C 8,8 °C 3,2 km/h (1 Bft)
01.04.2017 23:02 8,7 °C 8,8 °C 69 % 1010,9 hPa 0,0 mm 2,1 km/h (1 Bft) S-SW 194 ° 0 min 0,000 mm 0,0 UV-I 0 W/m² 3,3 °C 8,7 °C 4,8 km/h (1 Bft)
01.04.2017 23:03 8,6 °C 8,7 °C 69 % 1010,9 hPa 0,0 mm 7,6 km/h (2 Bft) S-SW 211 ° 0 min 0,000 mm 0,0 UV-I 0 W/m² 3,2 °C 7,5 °C 9,7 km/h (2 Bft)
01.04.2017 23:04 8,6 °C 8,6 °C 69 % 1010,9 hPa 0,0 mm 6,4 km/h (2 Bft) S-SW 196 ° 0 min 0,000 mm 0,0 UV-I 0 W/m² 3,2 °C 7,8 °C 9,7 km/h (2 Bft)
01.04.2017 23:05 8,4 °C 8,6 °C 69 % 1010,9 hPa 0,0 mm 6,5 km/h (2 Bft) S-SW 200 ° 0 min 0,000 mm 0,0 UV-I 0 W/m² 3,0 °C 7,5 °C 9,7 km/h (2 Bft)
01.04.2017 23:06 8,4 °C 8,5 °C 69 % 1010,9 hPa 0,0 mm 6,1 km/h (2 Bft) S-SW 195 ° 0 min 0,000 mm 0,0 UV-I 0 W/m² 3,0 °C 7,6 °C 9,7 km/h (2 Bft)
01.04.2017 23:07 8,4 °C 8,4 °C 70 % 1010,8 hPa 0,0 mm 2,1 km/h (1 Bft) S-SW 195 ° 0 min 0,000 mm 0,0 UV-I 0 W/m² 3,3 °C 8,4 °C 3,2 km/h (1 Bft)
01.04.2017 23:08 8,4 °C 8,4 °C 70 % 1010,9 hPa 0,0 mm 1,2 km/h (1 Bft) S-SW 195 ° 0 min 0,000 mm 0,0 UV-I 0 W/m² 3,3 °C 8,4 °C 3,2 km/h (1 Bft)
01.04.2017 23:09 8,4 °C 8,4 °C 70 % 1010,8 hPa 0,0 mm 0,8 km/h (0 Bft) S-SW 195 ° 0 min 0,000 mm 0,0 UV-I 0 W/m² 3,3 °C 8,4 °C 1,6 km/h (1 Bft)
01.04.2017 23:10 8,3 °C 8,4 °C 70 % 1010,8 hPa 0,0 mm 0,8 km/h (0 Bft) S-SW 195 ° 0 min 0,000 mm 0,0 UV-I 0 W/m² 3,2 °C 8,3 °C 1,6 km/h (1 Bft)
01.04.2017 23:11 8,3 °C 8,3 °C 70 % 1010,8 hPa 0,0 mm 0,0 km/h (0 Bft) S-SW 195 ° 0 min 0,000 mm 0,0 UV-I 0 W/m² 3,2 °C 8,3 °C 0,0 km/h (0 Bft)
01.04.2017 23:12 8,3 °C 8,3 °C 70 % 1010,8 hPa 0,0 mm 1,7 km/h (1 Bft) S-SW 195 ° 0 min 0,000 mm 0,0 UV-I 0 W/m² 3,2 °C 8,3 °C 3,2 km/h (1 Bft)
01.04.2017 23:13 8,3 °C 8,3 °C 70 % 1010,8 hPa 0,0 mm 2,9 km/h (1 Bft) S 185 ° 0 min 0,000 mm 0,0 UV-I 0 W/m² 3,2 °C 8,3 °C 4,8 km/h (1 Bft)
01.04.2017 23:14 8,4 °C 8,4 °C 70 % 1010,8 hPa 0,0 mm 3,5 km/h (1 Bft) S 185 ° 0 min 0,000 mm 0,0 UV-I 0 W/m² 3,3 °C 8,4 °C 4,8 km/h (1 Bft)
01.04.2017 23:15 8,6 °C 8,6 °C 69 % 1010,8 hPa 0,0 mm 3,4 km/h (1 Bft) S 185 ° 0 min 0,000 mm 0,0 UV-I 0 W/m² 3,2 °C 8,6 °C 4,8 km/h (1 Bft)
01.04.2017 23:16 8,7 °C 8,7 °C 68 % 1010,8 hPa 0,0 mm 2,5 km/h (1 Bft) S 185 ° 0 min 0,000 mm 0,0 UV-I 0 W/m² 3,1 °C 8,7 °C 3,2 km/h (1 Bft)
01.04.2017 23:17 8,8 °C 8,8 °C 68 % 1010,8 hPa 0,0 mm 0,7 km/h (0 Bft) S 185 ° 0 min 0,000 mm 0,0 UV-I 0 W/m² 3,2 °C 8,8 °C 1,6 km/h (1 Bft)
01.04.2017 23:18 8,9 °C 8,9 °C 68 % 1010,8 hPa 0,0 mm 0,1 km/h (0 Bft) S 185 ° 0 min 0,000 mm 0,0 UV-I 0 W/m² 3,3 °C 8,9 °C 1,6 km/h (1 Bft)
01.04.2017 23:19 8,9 °C 8,9 °C 67 % 1010,7 hPa 0,0 mm 0,3 km/h (0 Bft) S 185 ° 0 min 0,000 mm 0,0 UV-I 0 W/m² 3,1 °C 8,9 °C 1,6 km/h (1 Bft)
01.04.2017 23:20 8,9 °C 8,9 °C 68 % 1010,8 hPa 0,0 mm 1,1 km/h (1 Bft) S 185 ° 0 min 0,000 mm 0,0 UV-I 0 W/m² 3,3 °C 8,9 °C 3,2 km/h (1 Bft)
01.04.2017 23:21 8,9 °C 8,9 °C 68 % 1010,8 hPa 0,0 mm 2,2 km/h (1 Bft) S 185 ° 0 min 0,000 mm 0,0 UV-I 0 W/m² 3,3 °C 8,9 °C 4,8 km/h (1 Bft)
01.04.2017 23:22 8,8 °C 8,9 °C 68 % 1010,8 hPa 0,0 mm 2,2 km/h (1 Bft) S 185 ° 0 min 0,000 mm 0,0 UV-I 0 W/m² 3,2 °C 8,8 °C 3,2 km/h (1 Bft)
01.04.2017 23:23 8,8 °C 8,8 °C 68 % 1010,8 hPa 0,0 mm 0,9 km/h (0 Bft) S 185 ° 0 min 0,000 mm 0,0 UV-I 0 W/m² 3,2 °C 8,8 °C 1,6 km/h (1 Bft)
01.04.2017 23:24 8,7 °C 8,8 °C 68 % 1010,8 hPa 0,0 mm 1,0 km/h (0 Bft) S 185 ° 0 min 0,000 mm 0,0 UV-I 0 W/m² 3,1 °C 8,7 °C 1,6 km/h (1 Bft)
01.04.2017 23:25 8,7 °C 8,7 °C 68 % 1010,8 hPa 0,0 mm 2,7 km/h (1 Bft) S 185 ° 0 min 0,000 mm 0,0 UV-I 0 W/m² 3,1 °C 8,7 °C 3,2 km/h (1 Bft)
01.04.2017 23:26 8,6 °C 8,7 °C 69 % 1010,8 hPa 0,0 mm 3,0 km/h (1 Bft) S 185 ° 0 min 0,000 mm 0,0 UV-I 0 W/m² 3,2 °C 8,6 °C 4,8 km/h (1 Bft)
01.04.2017 23:27 8,5 °C 8,6 °C 69 % 1010,8 hPa 0,0 mm 3,0 km/h (1 Bft) S 185 ° 0 min 0,000 mm 0,0 UV-I 0 W/m² 3,1 °C 8,5 °C 3,2 km/h (1 Bft)
01.04.2017 23:28 8,4 °C 8,5 °C 69 % 1010,9 hPa 0,0 mm 2,4 km/h (1 Bft) S 185 ° 0 min 0,000 mm 0,0 UV-I 0 W/m² 3,0 °C 8,4 °C 3,2 km/h (1 Bft)
01.04.2017 23:29 8,3 °C 8,4 °C 69 % 1010,9 hPa 0,0 mm 1,6 km/h (1 Bft) S 185 ° 0 min 0,000 mm 0,0 UV-I 0 W/m² 3,0 °C 8,3 °C 3,2 km/h (1 Bft)
01.04.2017 23:30 8,3 °C 8,3 °C 69 % 1010,8 hPa 0,0 mm 0,5 km/h (0 Bft) S 185 ° 0 min 0,000 mm 0,0 UV-I 0 W/m² 3,0 °C 8,3 °C 1,6 km/h (1 Bft)
01.04.2017 23:31 8,2 °C 8,3 °C 70 % 1010,8 hPa 0,0 mm 0,0 km/h (0 Bft) S 185 ° 0 min 0,000 mm 0,0 UV-I 0 W/m² 3,1 °C 8,2 °C 0,0 km/h (0 Bft)
01.04.2017 23:32 8,1 °C 8,2 °C 70 % 1010,9 hPa 0,0 mm 1,7 km/h (1 Bft) S-SW 204 ° 0 min 0,000 mm 0,0 UV-I 0 W/m² 3,0 °C 8,1 °C 6,4 km/h (2 Bft)
01.04.2017 23:33 7,9 °C 8,1 °C 70 % 1010,9 hPa 0,0 mm 5,1 km/h (1 Bft) S-SW 205 ° 0 min 0,000 mm 0,0 UV-I 0 W/m² 2,8 °C 7,3 °C 8,0 km/h (2 Bft)
01.04.2017 23:34 7,8 °C 7,9 °C 71 % 1010,9 hPa 0,0 mm 1,3 km/h (1 Bft) S-SW 205 ° 0 min 0,000 mm 0,0 UV-I 0 W/m² 2,9 °C 7,8 °C 3,2 km/h (1 Bft)
01.04.2017 23:35 7,8 °C 7,8 °C 71 % 1010,9 hPa 0,0 mm 0,8 km/h (0 Bft) S-SW 205 ° 0 min 0,000 mm 0,0 UV-I 0 W/m² 2,9 °C 7,8 °C 3,2 km/h (1 Bft)
01.04.2017 23:36 7,8 °C 7,8 °C 71 % 1010,9 hPa 0,0 mm 0,0 km/h (0 Bft) S-SW 205 ° 0 min 0,000 mm 0,0 UV-I 0 W/m² 2,9 °C 7,8 °C 0,0 km/h (0 Bft)
01.04.2017 23:37 7,8 °C 7,8 °C 71 % 1010,9 hPa 0,0 mm 1,7 km/h (1 Bft) S-SW 207 ° 0 min 0,000 mm 0,0 UV-I 0 W/m² 2,9 °C 7,8 °C 3,2 km/h (1 Bft)
01.04.2017 23:38 7,9 °C 7,9 °C 71 % 1010,9 hPa 0,0 mm 5,8 km/h (2 Bft) S 188 ° 0 min 0,000 mm 0,0 UV-I 0 W/m² 3,0 °C 7,1 °C 8,0 km/h (2 Bft)
01.04.2017 23:39 7,9 °C 7,9 °C 71 % 1010,9 hPa 0,0 mm 3,5 km/h (1 Bft) S 187 ° 0 min 0,000 mm 0,0 UV-I 0 W/m² 3,0 °C 7,9 °C 4,8 km/h (1 Bft)
01.04.2017 23:40 7,9 °C 7,9 °C 71 % 1010,9 hPa 0,0 mm 2,3 km/h (1 Bft) S 187 ° 0 min 0,000 mm 0,0 UV-I 0 W/m² 3,0 °C 7,9 °C 4,8 km/h (1 Bft)
01.04.2017 23:41 8,0 °C 8,0 °C 71 % 1010,9 hPa 0,0 mm 3,4 km/h (1 Bft) W-SW 241 ° 0 min 0,000 mm 0,0 UV-I 0 W/m² 3,1 °C 8,0 °C 6,4 km/h (2 Bft)
01.04.2017 23:42 8,1 °C 8,1 °C 70 % 1010,9 hPa 0,0 mm 4,3 km/h (1 Bft) S-SW 204 ° 0 min 0,000 mm 0,0 UV-I 0 W/m² 3,0 °C 8,1 °C 6,4 km/h (2 Bft)
01.04.2017 23:43 8,1 °C 8,1 °C 71 % 1010,9 hPa 0,0 mm 3,0 km/h (1 Bft) S-SW 204 ° 0 min 0,000 mm 0,0 UV-I 0 W/m² 3,2 °C 8,1 °C 4,8 km/h (1 Bft)
01.04.2017 23:44 8,2 °C 8,2 °C 71 % 1010,9 hPa 0,0 mm 4,2 km/h (1 Bft) S-SO 153 ° 0 min 0,000 mm 0,0 UV-I 0 W/m² 3,3 °C 8,2 °C 6,4 km/h (2 Bft)
01.04.2017 23:45 8,2 °C 8,2 °C 70 % 1010,9 hPa 0,0 mm 2,3 km/h (1 Bft) S-SO 153 ° 0 min 0,000 mm 0,0 UV-I 0 W/m² 3,1 °C 8,2 °C 3,2 km/h (1 Bft)
01.04.2017 23:46 8,2 °C 8,2 °C 70 % 1010,9 hPa 0,0 mm 1,7 km/h (1 Bft) S-SW 196 ° 0 min 0,000 mm 0,0 UV-I 0 W/m² 3,1 °C 8,2 °C 4,8 km/h (1 Bft)
01.04.2017 23:47 8,3 °C 8,3 °C 69 % 1011,0 hPa 0,0 mm 5,6 km/h (1 Bft) S-SO 167 ° 0 min 0,000 mm 0,0 UV-I 0 W/m² 3,0 °C 7,6 °C 9,7 km/h (2 Bft)
01.04.2017 23:48 8,3 °C 8,3 °C 71 % 1011,0 hPa 0,0 mm 7,3 km/h (2 Bft) S-SO 165 ° 0 min 0,000 mm 0,0 UV-I 0 W/m² 3,4 °C 7,2 °C 9,7 km/h (2 Bft)
01.04.2017 23:49 8,3 °C 8,3 °C 70 % 1011,0 hPa 0,0 mm 7,3 km/h (2 Bft) W 281 ° 0 min 0,000 mm 0,0 UV-I 0 W/m² 3,2 °C 7,2 °C 16,1 km/h (3 Bft)
01.04.2017 23:50 8,3 °C 8,3 °C 69 % 1011,3 hPa 0,0 mm 12,4 km/h (3 Bft) W 279 ° 0 min 0,000 mm 0,0 UV-I 0 W/m² 3,0 °C 6,2 °C 17,7 km/h (3 Bft)
01.04.2017 23:51 8,3 °C 8,3 °C 69 % 1011,5 hPa 0,0 mm 8,0 km/h (2 Bft) S 184 ° 0 min 0,000 mm 0,0 UV-I 0 W/m² 3,0 °C 7,0 °C 16,1 km/h (3 Bft)
01.04.2017 23:52 8,4 °C 8,4 °C 68 % 1011,3 hPa 0,0 mm 6,4 km/h (2 Bft) S 183 ° 0 min 0,000 mm 0,0 UV-I 0 W/m² 2,8 °C 7,5 °C 9,7 km/h (2 Bft)
01.04.2017 23:53 8,4 °C 8,4 °C 68 % 1011,4 hPa 0,0 mm 5,4 km/h (1 Bft) S-SW 199 ° 0 min 0,000 mm 0,0 UV-I 0 W/m² 2,8 °C 7,8 °C 8,0 km/h (2 Bft)
01.04.2017 23:54 8,4 °C 8,4 °C 67 % 1011,4 hPa 0,0 mm 2,3 km/h (1 Bft) S-SW 199 ° 0 min 0,000 mm 0,0 UV-I 0 W/m² 2,6 °C 8,4 °C 3,2 km/h (1 Bft)
01.04.2017 23:55 8,6 °C 8,6 °C 67 % 1011,4 hPa 0,0 mm 1,4 km/h (1 Bft) S-SW 199 ° 0 min 0,000 mm 0,0 UV-I 0 W/m² 2,8 °C 8,6 °C 3,2 km/h (1 Bft)
01.04.2017 23:56 8,6 °C 8,6 °C 67 % 1011,4 hPa 0,0 mm 3,4 km/h (1 Bft) SW 231 ° 0 min 0,000 mm 0,0 UV-I 0 W/m² 2,8 °C 8,6 °C 4,8 km/h (1 Bft)
01.04.2017 23:57 8,6 °C 8,6 °C 67 % 1011,5 hPa 0,0 mm 0,8 km/h (0 Bft) SW 231 ° 0 min 0,000 mm 0,0 UV-I 0 W/m² 2,8 °C 8,6 °C 1,6 km/h (1 Bft)
01.04.2017 23:58 8,6 °C 8,6 °C 67 % 1011,4 hPa 0,0 mm 0,3 km/h (0 Bft) SW 231 ° 0 min 0,000 mm 0,0 UV-I 0 W/m² 2,8 °C 8,6 °C 1,6 km/h (1 Bft)
01.04.2017 23:59 8,6 °C 8,6 °C 67 % 1011,4 hPa 0,0 mm 1,4 km/h (1 Bft) SW 231 ° 0 min 0,000 mm 0,0 UV-I 0 W/m² 2,8 °C 8,6 °C 3,2 km/h (1 Bft)
_ Min-Zeit 07:03 07:04 14:04 17:16 - 23:36 - - - - - - 13:55 07:03 23:36
Minimum _ 2,4 °C 2,5 °C 27 % 1007,6 hPa - 0,0 km/h (0 Bft) - - - - - - -0,9 °C 2,4 °C 0,0 km/h (0 Bft)
_ Max-Zeit 12:41 12:42 07:31 00:21 23:59 01:28 - - 12:23 13:00 12:06 12:01 17:50 12:41 23:50
Maximum _ 19,5 °C 19,5 °C 88 % 1013,4 hPa 0,0 mm 13,0 km/h
S-SO (3 Bft)
- - 2 min 0,381 mm 4,6 UV-I 740 W/m² 8,3 °C 19,5 °C 17,7 km/h
W (3 Bft)
Durchschnitt _ 11,4 °C 11,4 °C 60 % 1010,2 hPa #0,0 mm 2,6 km/h (1 Bft) S - #4:50 h #2,362 mm 2,1 UV-I 140 W/m² 2,9 °C 11,3 °C 4,4 km/h (1 Bft)